<
# Wetter Temperatur Luftdruck Luftfeuchtigkeit Sichtweite Windgeschwindigkeit Windrichtung Zeit
1 Clear 14 1023 54 10000 5.14 20 12:51 22.04.2021
2 Clear 13 1023 50 10000 5.14 30 12:30 22.04.2021
3 Clear 11 1023 62 10000 5.66 40 11:49 22.04.2021
4 Clear 11 1023 62 10000 5.66 40 11:25 22.04.2021
5 Clear 10 1023 66 10000 4.63 30 10:47 22.04.2021
6 Clear 9 1023 66 10000 4.63 30 10:29 22.04.2021
7 Clear 8 1023 71 10000 5.66 30 09:58 22.04.2021
8 Clear 7 1023 70 10000 5.66 30 09:33 22.04.2021
9 Clear 7 1023 75 10000 4.63 20 08:47 22.04.2021
10 Clear 6 1022 75 10000 4.12 10 08:23 22.04.2021
11 Clear 6 1022 87 10000 3.6 10 07:49 22.04.2021
12 Clear 6 1022 87 10000 3.6 10 07:30 22.04.2021
13 Clear 7 1021 81 10000 3.09 10 06:43 22.04.2021
14 Clear 7 1021 81 10000 3.6 10 05:54 22.04.2021
15 Clear 7 1021 81 10000 3.6 10 05:20 22.04.2021
16 Clear 10 1020 76 10000 4.12 360 01:58 22.04.2021
17 Clouds 12 1019 66 7000 4.12 10 23:55 21.04.2021
18 Clouds 13 1019 62 7000 5.14 20 23:37 21.04.2021
19 Clouds 13 1018 62 7000 4.12 10 22:59 21.04.2021
20 Clouds 13 1018 58 7000 4.12 10 22:38 21.04.2021
21 Clouds 14 1018 58 7000 4.12 10 22:18 21.04.2021
22 Clouds 15 1018 55 8000 4.63 20 21:41 21.04.2021
23 Clear 15 1017 51 10000 5.66 30 21:19 21.04.2021
24 Clear 14 1017 42 10000 5.14 30 20:27 21.04.2021
25 Clear 15 1017 42 10000 5.66 50 19:49 21.04.2021
26 Clear 15 1016 42 10000 5.14 30 19:27 21.04.2021
27 Clear 16 1016 45 10000 6.17 10 18:52 21.04.2021
28 Clouds 16 1016 42 10000 5.14 20 18:52 21.04.2021
29 Clouds 16 1016 42 10000 5.14 20 18:34 21.04.2021
30 Clouds 17 1016 42 10000 6.69 20 17:59 21.04.2021
31 Clouds 17 1016 39 10000 5.14 40 17:40 21.04.2021
32 Clouds 17 1016 39 10000 5.14 40 17:21 21.04.2021
33 Clear 18 1016 39 10000 5.14 30 16:40 21.04.2021
34 Clear 18 1016 39 10000 3.6 20 15:52 21.04.2021
35 Clear 18 1016 45 10000 4.63 50 15:25 21.04.2021
36 Clear 18 1016 42 10000 3.6 10 14:45 21.04.2021
37 Clear 18 1016 42 10000 3.6 10 14:27 21.04.2021
38 Clouds 18 1017 42 7000 5.14 30 13:50 21.04.2021
39 Clouds 17 1017 45 7000 5.66 20 13:22 21.04.2021
40 Clouds 17 1017 51 6000 4.63 40 12:48 21.04.2021
41 Clouds 17 1017 51 6000 4.63 40 12:24 21.04.2021
42 Haze 16 1017 51 5000 4.12 30 11:46 21.04.2021
43 Haze 15 1017 58 5000 2.57 30 11:25 21.04.2021
44 Haze 14 1017 67 4100 2.06 20 10:40 21.04.2021
45 Mist 12 1017 76 3300 1.03 0 09:57 21.04.2021
46 Mist 11 1017 76 3200 1.03 0 09:33 21.04.2021
47 Mist 10 1016 87 2900 1.54 0 08:53 21.04.2021
48 Mist 9 1016 87 3100 1.03 0 08:27 21.04.2021
49 Mist 8 1016 87 3900 0.51 0 07:58 21.04.2021
50 Mist 7 1016 93 5000 0.51 0 07:29 21.04.2021
51 Clouds 8 1016 81 7000 0.51 0 06:23 21.04.2021
52 Clear 8 1016 81 10000 1.54 30 04:18 21.04.2021
53 Clear 11 1016 62 10000 2.06 20 00:49 21.04.2021
54 Clear 12 1016 58 10000 2.57 30 23:47 20.04.2021
55 Clear 13 1016 54 10000 2.06 360 22:56 20.04.2021
56 Clear 13 1015 54 10000 2.06 10 22:36 20.04.2021
57 Clear 13 1015 51 10000 2.06 10 22:18 20.04.2021
58 Clear 14 1015 51 10000 2.06 10 21:44 20.04.2021
59 Clear 15 1015 47 10000 2.57 30 21:23 20.04.2021
60 Clear 16 1015 41 10000 2.57 40 20:41 20.04.2021
61 Clear 16 1015 41 10000 2.57 40 20:22 20.04.2021
62 Clear 17 1015 44 10000 2.57 70 19:52 20.04.2021
63 Clear 17 1015 44 10000 3.09 70 19:33 20.04.2021
64 Clear 17 1015 39 10000 4.12 50 18:54 20.04.2021
65 Clear 17 1015 34 10000 3.09 110 18:35 20.04.2021
66 Clear 17 1015 36 10000 2.57 40 17:43 20.04.2021
67 Clear 18 1015 36 10000 3.09 70 16:57 20.04.2021
68 Clear 18 1015 39 10000 1.54 0 16:36 20.04.2021
69 Clear 18 1016 42 10000 2.06 0 15:43 20.04.2021
70 Clear 18 1016 42 10000 2.06 0 15:25 20.04.2021
71 Clear 18 1016 39 10000 2.06 0 14:52 20.04.2021
72 Clear 17 1016 39 10000 1.54 0 14:27 20.04.2021
73 Clear 16 1016 44 10000 2.06 80 13:31 20.04.2021
74 Clear 16 1017 48 10000 2.06 60 12:55 20.04.2021
75 Clear 15 1017 48 10000 1.54 0 12:34 20.04.2021
76 Clear 15 1017 51 10000 1.54 0 11:58 20.04.2021
77 Clear 15 1017 58 10000 2.57 50 11:39 20.04.2021
78 Clear 14 1017 67 10000 2.06 40 11:19 20.04.2021
79 Clouds 13 1017 66 8000 1.54 20 10:42 20.04.2021
80 Clouds 12 1017 66 8000 1.54 20 10:22 20.04.2021
81 Clouds 10 1017 76 7000 0.51 0 09:20 20.04.2021
82 Clouds 9 1017 81 6000 1.03 0 08:54 20.04.2021
83 Clouds 7 1017 87 6000 1.54 360 08:19 20.04.2021
84 Clouds 7 1017 93 6000 1.03 360 07:39 20.04.2021
85 Clouds 7 1017 93 7000 1.54 30 06:36 20.04.2021
86 Clouds 7 1017 87 9000 1.03 360 05:37 20.04.2021
87 Clear 7 1017 81 10000 1.03 10 04:41 20.04.2021
88 Clear 10 1018 66 10000 1.03 10 00:53 20.04.2021
89 Clear 10 1018 66 10000 0.51 10 00:27 20.04.2021
90 Clear 11 1018 58 10000 2.06 10 23:34 19.04.2021
91 Clear 12 1018 62 10000 2.06 10 22:56 19.04.2021
92 Clear 12 1018 58 10000 1.54 10 22:30 19.04.2021
93 Clear 13 1018 58 10000 1.54 10 22:30 19.04.2021
94 Clear 13 1018 54 10000 2.57 50 21:47 19.04.2021
95 Clear 13 1018 54 10000 2.57 50 21:27 19.04.2021
96 Clear 15 1018 41 10000 1.54 320 20:43 19.04.2021
97 Clear 16 1018 41 10000 1.54 320 20:23 19.04.2021
98 Clear 16 1018 41 10000 1.54 0 19:57 19.04.2021
99 Clear 17 1018 39 10000 2.57 10 19:39 19.04.2021
100 Clear 17 1018 39 10000 2.57 10 19:18 19.04.2021
101 Clear 17 1018 41 10000 3.6 30 18:44 19.04.2021
102 Clear 17 1018 44 10000 3.09 20 18:21 19.04.2021
103 Clear 17 1018 44 10000 3.09 20 18:21 19.04.2021
104 Clear 17 1018 44 10000 2.57 30 17:47 19.04.2021
105 Clear 17 1018 44 10000 2.57 30 17:26 19.04.2021
106 Clear 17 1019 41 10000 2.57 320 16:49 19.04.2021
107 Clear 17 1019 41 10000 2.57 320 16:31 19.04.2021
108 Clear 16 1020 44 10000 2.57 20 15:44 19.04.2021
109 Clear 16 1020 44 10000 2.57 20 15:25 19.04.2021
110 Clouds 16 1020 44 10000 2.06 0 14:52 19.04.2021
111 Clouds 15 1020 47 10000 1.54 0 14:33 19.04.2021
112 Clear 14 1020 47 10000 1.54 0 13:53 19.04.2021
113 Clear 14 1021 47 10000 1.54 0 13:30 19.04.2021
114 Clear 14 1021 47 10000 2.57 360 12:55 19.04.2021
115 Clear 13 1021 50 10000 2.06 360 12:36 19.04.2021
116 Clear 13 1021 54 10000 1.03 0 12:18 19.04.2021
117 Clear 12 1022 62 10000 1.03 0 11:43 19.04.2021
118 Clear 11 1021 71 10000 1.54 0 11:20 19.04.2021
119 Clear 11 1021 71 10000 1.54 0 10:44 19.04.2021
120 Clear 9 1022 76 10000 2.06 10 10:19 19.04.2021
121 Clear 8 1022 76 10000 1.54 350 09:43 19.04.2021
122 Clear 7 1022 76 10000 1.54 350 09:24 19.04.2021
123 Clear 6 1022 93 10000 1.54 360 08:37 19.04.2021
124 Clear 5 1022 87 10000 0.51 10 07:50 19.04.2021
125 Clear 4 1022 93 10000 1.54 40 07:24 19.04.2021
126 Clear 5 1022 87 10000 1.9 11 06:52 19.04.2021
127 Clear 5 1022 87 10000 1.03 320 05:30 19.04.2021
128 Clear 7 1023 76 10000 2.06 350 01:49 19.04.2021
129 Clear 8 1023 71 10000 2.06 350 00:42 19.04.2021
130 Clear 9 1023 66 10000 1.54 360 23:21 18.04.2021
131 Clear 9 1022 57 10000 1.03 350 22:58 18.04.2021
132 Clear 9 1022 62 10000 1.54 350 22:34 18.04.2021
133 Clear 9 1022 62 10000 1.54 350 22:34 18.04.2021
134 Clear 10 1022 58 10000 2.06 340 21:57 18.04.2021
135 Clear 11 1022 58 10000 2.06 340 21:29 18.04.2021
136 Clear 12 1022 54 10000 2.06 350 20:55 18.04.2021
137 Clear 12 1022 50 10000 2.06 350 20:37 18.04.2021
138 Clear 12 1022 50 10000 2.06 350 20:18 18.04.2021
139 Clear 13 1022 50 10000 2.57 350 19:39 18.04.2021
140 Clear 13 1022 47 10000 3.09 350 19:19 18.04.2021
141 Clear 13 1022 47 10000 3.09 350 18:45 18.04.2021
142 Clear 13 1022 51 10000 3.09 20 18:25 18.04.2021
143 Clouds 13 1022 50 10000 3.09 350 17:47 18.04.2021
144 Clouds 13 1022 50 10000 3.09 350 17:28 18.04.2021
145 Clouds 13 1022 54 10000 4.12 30 16:52 18.04.2021
146 Clear 13 1022 51 10000 2.57 360 16:34 18.04.2021
147 Clouds 14 1022 51 10000 3.6 360 15:49 18.04.2021
148 Clouds 14 1022 51 10000 3.6 360 15:28 18.04.2021
149 Clouds 13 1022 50 10000 3.09 340 14:54 18.04.2021
150 Clouds 13 1022 54 10000 2.57 360 14:36 18.04.2021
151 Clouds 13 1022 54 10000 2.57 360 14:18 18.04.2021
152 Clear 13 1023 58 10000 3.09 340 13:38 18.04.2021
153 Clear 12 1023 58 10000 3.09 340 13:19 18.04.2021
154 Clear 11 1023 62 10000 3.09 330 12:33 18.04.2021
155 Clear 9 1024 71 10000 3.09 360 11:45 18.04.2021
156 Clear 9 1024 71 10000 3.09 360 11:22 18.04.2021
157 Clear 7 1024 76 10000 3.09 360 10:51 18.04.2021
158 Clear 7 1024 76 10000 3.09 360 10:32 18.04.2021
159 Clear 6 1024 81 10000 3.09 360 09:57 18.04.2021
160 Clear 6 1024 87 10000 3.09 350 09:38 18.04.2021
161 Clear 5 1024 87 10000 3.09 350 09:19 18.04.2021
162 Clear 4 1023 87 10000 2.57 330 08:39 18.04.2021
163 Clear 4 1023 87 10000 2.57 330 08:19 18.04.2021
164 Clear 3 1023 87 10000 2.06 320 07:39 18.04.2021
165 Clear 3 1023 81 10000 1.54 310 05:45 18.04.2021
166 Clear 4 1023 75 10000 2.06 330 05:24 18.04.2021
167 Clear 5 1024 75 10000 2.06 340 03:26 18.04.2021
168 Clear 6 1024 75 10000 4.12 340 02:22 18.04.2021
169 Clear 7 1024 65 10000 4.12 350 00:41 18.04.2021
170 Clear 8 1024 61 10000 4.12 360 23:40 17.04.2021
171 Clear 9 1024 53 10000 4.12 360 22:59 17.04.2021
172 Clear 9 1023 53 10000 3.6 360 22:39 17.04.2021
173 Clear 9 1023 53 10000 3.6 360 22:20 17.04.2021
174 Clear 10 1023 46 10000 3.09 360 21:38 17.04.2021
175 Clear 11 1023 46 10000 4.12 360 21:19 17.04.2021
176 Clear 12 1023 43 10000 4.63 10 20:28 17.04.2021
177 Clear 12 1023 43 10000 4.63 360 19:46 17.04.2021
178 Clear 13 1023 38 10000 5.66 10 19:22 17.04.2021
179 Clear 13 1023 41 10000 6.17 20 18:58 17.04.2021
180 Clear 13 1023 41 10000 5.14 10 18:37 17.04.2021
181 Clear 13 1023 41 10000 5.14 360 18:00 17.04.2021
182 Clear 14 1023 41 10000 4.63 360 17:40 17.04.2021
183 Clear 13 1023 41 10000 5.14 20 16:55 17.04.2021
184 Clear 13 1023 38 10000 5.14 350 16:28 17.04.2021
185 Clear 13 1023 44 10000 4.63 360 15:55 17.04.2021
186 Clear 13 1024 44 10000 4.63 360 14:51 17.04.2021
187 Clouds 13 1024 47 10000 4.63 360 14:33 17.04.2021
188 Clouds 12 1024 50 10000 5.66 10 13:50 17.04.2021
189 Clouds 12 1024 50 10000 5.14 10 13:25 17.04.2021
190 Clear 11 1025 54 10000 5.14 360 12:42 17.04.2021
191 Clear 11 1025 54 10000 5.14 350 12:20 17.04.2021
192 Clear 10 1025 57 10000 5.14 20 11:46 17.04.2021
193 Clear 9 1026 66 10000 4.12 360 11:27 17.04.2021
194 Clear 8 1026 75 10000 3.09 350 10:46 17.04.2021
195 Clear 7 1026 75 10000 3.09 350 10:27 17.04.2021
196 Clear 5 1026 87 10000 4.63 350 09:39 17.04.2021
197 Clear 4 1026 87 10000 2.57 350 08:41 17.04.2021
198 Clear 4 1026 87 10000 2.57 350 08:21 17.04.2021
199 Clear 5 1026 81 10000 3.6 350 06:47 17.04.2021
200 Clear 6 1026 75 10000 4.63 350 03:55 17.04.2021
201 Clear 6 1026 75 10000 3.6 350 03:37 17.04.2021
202 Clear 8 1026 61 10000 3.6 360 00:49 17.04.2021
203 Clear 8 1027 57 10000 2.57 360 00:28 17.04.2021
204 Clear 8 1027 53 10000 3.09 10 23:48 16.04.2021
205 Clear 8 1027 53 10000 2.57 360 23:48 16.04.2021
206 Clear 8 1027 53 10000 3.09 10 23:25 16.04.2021
207 Clear 8 1027 49 10000 3.09 10 22:50 16.04.2021
208 Clear 9 1026 49 10000 3.6 20 22:21 16.04.2021
209 Clear 9 1026 49 10000 4.12 20 21:51 16.04.2021
210 Clear 9 1026 49 10000 4.12 30 21:30 16.04.2021
211 Clear 9 1026 49 10000 4.12 30 20:50 16.04.2021
212 Clear 9 1026 49 10000 4.12 20 20:25 16.04.2021
213 Clear 9 1026 49 10000 5.14 30 19:54 16.04.2021
214 Clear 9 1026 46 10000 5.14 30 19:30 16.04.2021
215 Clear 10 1026 43 10000 6.17 40 18:43 16.04.2021
216 Clear 9 1026 43 10000 5.66 20 18:20 16.04.2021
217 Clear 10 1026 43 10000 5.66 20 17:45 16.04.2021
218 Clear 10 1026 40 10000 5.14 20 17:19 16.04.2021
219 Clear 10 1026 40 10000 6.17 20 16:43 16.04.2021
220 Clear 10 1026 40 10000 6.17 20 16:24 16.04.2021
221 Clear 10 1026 40 10000 6.69 30 15:48 16.04.2021
222 Clear 10 1027 40 10000 5.14 20 15:21 16.04.2021
223 Clear 10 1027 43 10000 4.63 10 14:42 16.04.2021
224 Clouds 10 1027 40 10000 6.17 30 14:20 16.04.2021
225 Clear 10 1027 40 10000 5.14 10 13:50 16.04.2021
226 Clear 9 1027 46 10000 6.17 30 13:21 16.04.2021
227 Clear 10 1027 43 10000 6.69 40 12:48 16.04.2021
228 Clear 9 1027 46 10000 4.63 10 12:29 16.04.2021
229 Clear 9 1027 49 10000 4.63 20 11:55 16.04.2021
230 Clear 8 1028 57 10000 3.09 10 11:27 16.04.2021
231 Clear 7 1028 61 10000 3.6 10 10:56 16.04.2021
232 Clear 6 1027 65 10000 3.09 10 10:37 16.04.2021
233 Clear 6 1027 65 10000 3.09 10 10:19 16.04.2021
234 Clear 5 1027 75 10000 3.09 360 09:43 16.04.2021
235 Clear 4 1028 81 10000 1.54 350 09:20 16.04.2021
236 Clear 3 1027 80 10000 2.57 350 08:41 16.04.2021
237 Clear 3 1027 80 10000 2.57 350 08:18 16.04.2021
238 Clear 2 1027 80 10000 1.54 10 07:37 16.04.2021
239 Clear 2 1027 80 10000 1.54 350 06:59 16.04.2021
240 Clear 2 1027 80 10000 3.09 350 06:18 16.04.2021
241 Clear 3 1027 75 10000 3.6 360 04:22 16.04.2021
242 Clear 5 1028 70 10000 2.57 360 01:37 16.04.2021
243 Clear 5 1028 65 10000 2.57 360 00:41 16.04.2021
244 Clear 5 1028 65 10000 2.57 360 00:20 16.04.2021
245 Clear 6 1028 61 10000 2.57 350 23:42 15.04.2021
246 Clear 6 1028 61 10000 2.57 350 23:23 15.04.2021
247 Clear 6 1028 61 10000 3.09 360 22:46 15.04.2021
248 Clear 7 1028 57 10000 2.06 360 22:22 15.04.2021
249 Clear 8 1027 53 10000 3.09 10 21:43 15.04.2021
250 Clear 7 1027 53 10000 3.09 10 21:24 15.04.2021
251 Clear 8 1027 49 10000 4.12 10 20:45 15.04.2021
252 Clear 9 1027 46 10000 5.66 10 20:25 15.04.2021
253 Clear 9 1027 46 10000 3.6 30 19:47 15.04.2021
254 Clear 10 1027 46 10000 3.6 30 19:27 15.04.2021
255 Clear 10 1027 43 10000 6.17 20 18:45 15.04.2021
256 Clear 10 1028 46 10000 5.14 10 18:21 15.04.2021
257 Clear 10 1028 46 10000 5.14 10 17:58 15.04.2021
258 Clear 10 1028 46 10000 7.2 10 17:39 15.04.2021
259 Clear 10 1028 43 10000 6.69 20 17:21 15.04.2021
260 Clear 10 1028 43 10000 6.17 40 16:43 15.04.2021
261 Clouds 10 1028 43 10000 4.12 30 16:23 15.04.2021
262 Clear 10 1029 43 10000 6.17 20 15:46 15.04.2021
263 Clear 10 1029 43 10000 6.17 20 15:27 15.04.2021
264 Clear 9 1029 46 10000 6.17 40 14:42 15.04.2021
265 Clear 9 1029 46 10000 6.17 40 14:24 15.04.2021
266 Clouds 9 1030 46 10000 5.66 30 13:48 15.04.2021
267 Clouds 9 1030 46 10000 5.66 30 13:23 15.04.2021
268 Clouds 9 1030 53 10000 5.14 20 12:47 15.04.2021
269 Clouds 8 1030 57 10000 6.17 30 12:26 15.04.2021
270 Clouds 8 1030 57 10000 6.17 30 12:26 15.04.2021
271 Clouds 8 1030 61 10000 6.17 40 11:47 15.04.2021
272 Clouds 7 1030 61 10000 5.14 30 11:26 15.04.2021
273 Clear 7 1030 70 10000 4.12 20 10:58 15.04.2021
274 Clear 6 1030 75 10000 3.6 20 10:34 15.04.2021
275 Clear 5 1030 75 10000 4.12 10 09:56 15.04.2021
276 Clear 4 1030 81 10000 3.6 10 09:29 15.04.2021
277 Clear 3 1030 87 10000 2.57 360 08:52 15.04.2021
278 Clear 3 1030 87 10000 1.54 350 08:29 15.04.2021
279 Clear 2 1029 87 9000 3.09 350 07:33 15.04.2021
280 Clear 2 1029 87 10000 2.06 340 06:56 15.04.2021
281 Clear 2 1029 87 10000 1.54 340 06:35 15.04.2021
282 Clear 3 1029 87 9000 3.6 360 04:54 15.04.2021
283 Clear 4 1029 81 10000 3.6 360 03:59 15.04.2021
284 Clouds 6 1029 65 10000 3.09 360 23:59 14.04.2021
285 Clear 6 1029 65 10000 2.57 360 23:32 14.04.2021
286 Clouds 6 1029 61 10000 3.09 10 22:57 14.04.2021
287 Clear 7 1029 56 10000 3.09 10 22:37 14.04.2021
288 Clear 7 1029 49 10000 2.06 350 22:19 14.04.2021
289 Clear 8 1028 46 10000 3.09 350 21:40 14.04.2021
290 Clear 8 1028 42 10000 3.6 360 21:22 14.04.2021
291 Clear 9 1028 43 10000 3.6 360 20:39 14.04.2021
292 Clear 9 1028 43 10000 3.6 360 20:20 14.04.2021
293 Clear 10 1028 43 10000 4.12 360 19:44 14.04.2021
294 Clear 10 1028 43 10000 4.12 360 19:19 14.04.2021
295 Clear 10 1028 40 10000 5.14 360 18:50 14.04.2021
296 Clear 10 1028 40 10000 5.14 350 18:19 14.04.2021
297 Clear 10 1029 46 10000 4.12 360 17:55 14.04.2021
298 Clear 11 1029 40 10000 5.66 350 17:24 14.04.2021
299 Clear 11 1029 37 10000 5.66 20 16:48 14.04.2021
300 Clear 11 1029 35 10000 4.63 360 16:24 14.04.2021
301 Clear 11 1029 37 10000 4.12 40 15:41 14.04.2021
302 Clear 11 1029 37 10000 4.12 40 15:22 14.04.2021
303 Clear 11 1030 34 10000 3.6 10 14:44 14.04.2021
304 Clear 10 1030 34 10000 4.63 40 14:23 14.04.2021
305 Clear 10 1030 34 10000 4.63 40 13:53 14.04.2021
306 Clear 10 1031 43 10000 4.12 30 13:00 14.04.2021
307 Clear 10 1031 37 10000 4.63 50 12:36 14.04.2021
308 Clear 10 1031 37 10000 4.63 50 12:36 14.04.2021
309 Clear 9 1031 49 10000 3.6 50 11:43 14.04.2021
310 Clear 9 1031 49 10000 3.6 50 11:24 14.04.2021
311 Clear 8 1031 53 10000 1.03 0 10:35 14.04.2021
312 Clear 6 1031 61 10000 2.06 30 09:59 14.04.2021
313 Clear 5 1031 70 10000 1.54 0 09:41 14.04.2021
314 Clear 4 1031 75 10000 1.03 0 09:20 14.04.2021
315 Clear 3 1031 75 10000 1.03 0 08:34 14.04.2021
316 Clear 1 1031 75 10000 1.54 360 07:58 14.04.2021
317 Clear 2 1030 80 10000 2.06 350 06:55 14.04.2021
318 Clear 2 1030 75 10000 1.03 360 06:24 14.04.2021
319 Clear 3 1030 75 10000 2.57 350 04:34 14.04.2021
320 Clear 4 1031 65 10000 2.06 10 01:42 14.04.2021
321 Clear 4 1031 65 10000 2.06 10 01:42 14.04.2021
322 Clear 4 1031 60 10000 3.09 10 00:37 14.04.2021
323 Clear 6 1031 56 10000 2.06 360 23:46 13.04.2021
324 Clear 6 1031 56 10000 2.06 360 23:27 13.04.2021
325 Clear 7 1031 53 10000 2.57 10 22:42 13.04.2021
326 Clear 7 1031 53 10000 2.57 10 22:19 13.04.2021
327 Clear 7 1031 49 10000 2.06 10 21:45 13.04.2021
328 Clear 8 1031 42 10000 3.09 20 21:27 13.04.2021
329 Clear 9 1031 42 10000 4.12 40 20:42 13.04.2021
330 Clear 9 1031 40 10000 5.14 50 20:21 13.04.2021
331 Clear 10 1031 37 10000 3.6 40 19:48 13.04.2021
332 Clear 10 1031 40 10000 4.63 30 19:24 13.04.2021
333 Clear 11 1031 40 10000 4.63 30 18:44 13.04.2021
334 Clear 11 1031 40 10000 4.63 20 18:23 13.04.2021
335 Clear 11 1031 43 10000 3.09 30 17:37 13.04.2021
336 Clear 11 1031 43 10000 3.09 30 17:18 13.04.2021
337 Clear 11 1032 43 10000 3.6 110 16:44 13.04.2021
338 Clear 11 1032 43 10000 3.6 110 16:21 13.04.2021
339 Clouds 11 1032 46 10000 4.12 30 15:50 13.04.2021
340 Clouds 10 1032 46 10000 3.6 20 15:30 13.04.2021
341 Clouds 10 1032 49 10000 4.63 40 14:47 13.04.2021
342 Clouds 10 1033 49 10000 4.12 30 14:20 13.04.2021
343 Clouds 9 1033 57 10000 6.17 60 13:45 13.04.2021
344 Clouds 9 1033 57 10000 6.17 60 13:25 13.04.2021
345 Clouds 8 1033 53 10000 5.14 60 12:58 13.04.2021
346 Clouds 8 1033 53 10000 6.17 60 12:30 13.04.2021
347 Clouds 7 1034 57 10000 5.66 40 11:58 13.04.2021
348 Clouds 7 1033 61 10000 5.66 50 11:31 13.04.2021
349 Clear 6 1033 65 10000 5.66 40 10:55 13.04.2021
350 Clear 6 1033 61 9000 4.63 30 10:24 13.04.2021
351 Clear 5 1033 70 9000 3.6 30 09:59 13.04.2021
352 Clear 4 1033 81 9000 4.12 20 09:40 13.04.2021
353 Clear 3 1033 87 9000 3.09 360 09:18 13.04.2021
354 Clear 3 1033 93 7000 2.06 360 08:41 13.04.2021
355 Clear 3 1033 93 7000 2.06 360 08:41 13.04.2021
356 Clear 2 1033 93 7000 2.06 360 08:20 13.04.2021
357 Clear 1 1032 93 6000 2.57 350 07:36 13.04.2021
358 Clear 2 1032 93 7000 3.6 360 06:51 13.04.2021
359 Clear 3 1032 93 6000 3.09 360 04:52 13.04.2021
360 Clouds 4 1031 87 10000 2.57 360 02:41 13.04.2021
361 Clouds 5 1031 87 10000 2.06 300 00:39 13.04.2021
362 Clouds 5 1030 81 10000 2.57 290 23:49 12.04.2021
363 Clear 6 1030 81 10000 2.57 290 23:27 12.04.2021
364 Clouds 6 1030 81 10000 2.57 280 22:43 12.04.2021
365 Clouds 6 1030 81 10000 2.57 280 22:23 12.04.2021
366 Clouds 7 1030 76 10000 2.06 290 21:46 12.04.2021
367 Clouds 7 1030 76 10000 3.6 320 21:21 12.04.2021
368 Clouds 8 1029 71 10000 3.09 300 20:41 12.04.2021
369 Clouds 8 1029 71 10000 3.09 300 20:23 12.04.2021
370 Clouds 9 1029 71 10000 3.09 310 19:57 12.04.2021
371 Clouds 9 1029 71 10000 5.66 310 19:38 12.04.2021
372 Clouds 9 1029 57 10000 4.63 320 19:19 12.04.2021
373 Clouds 10 1029 57 10000 4.63 320 18:44 12.04.2021
374 Clear 10 1029 53 10000 6.17 320 18:25 12.04.2021
375 Clear 11 1028 40 10000 4.12 280 17:45 12.04.2021
376 Clear 11 1028 40 10000 4.12 280 17:24 12.04.2021
377 Clear 11 1028 40 10000 4.12 280 16:47 12.04.2021
378 Clear 11 1029 43 10000 3.6 260 16:27 12.04.2021
379 Clear 11 1029 40 10000 4.12 260 15:54 12.04.2021
380 Clear 11 1029 37 10000 5.14 290 15:33 12.04.2021
381 Clear 11 1029 37 10000 3.6 300 14:55 12.04.2021
382 Clear 11 1029 43 10000 3.09 0 14:36 12.04.2021
383 Clear 10 1029 40 10000 4.12 280 13:53 12.04.2021
384 Clouds 10 1029 49 10000 3.6 270 13:31 12.04.2021
385 Clouds 9 1029 46 10000 3.09 300 12:56 12.04.2021
386 Clouds 9 1029 46 10000 5.14 280 12:36 12.04.2021
387 Clouds 8 1029 57 10000 4.12 250 12:18 12.04.2021
388 Clear 8 1029 61 10000 3.09 260 11:25 12.04.2021
389 Clear 7 1029 65 10000 3.09 270 10:49 12.04.2021
390 Clear 6 1029 70 10000 2.06 270 10:27 12.04.2021
391 Clear 5 1029 75 10000 1.03 0 09:51 12.04.2021
392 Clear 5 1029 75 10000 1.03 0 09:51 12.04.2021
393 Clear 3 1028 87 10000 1.54 0 09:23 12.04.2021
394 Clear 2 1028 93 10000 2.55 294 08:40 12.04.2021
395 Clear 1 1028 86 10000 1.03 260 07:45 12.04.2021
396 Clear 1 1027 86 10000 1.54 250 07:22 12.04.2021
397 Clear 1 1027 86 10000 1.03 210 06:28 12.04.2021
398 Clear 1 1027 86 10000 1.54 220 05:45 12.04.2021
399 Clear 1 1027 86 10000 1.54 220 05:45 12.04.2021
400 Clear 2 1025 70 10000 0.51 0 01:43 12.04.2021
401 Clear 3 1024 70 10000 1.54 310 00:27 12.04.2021
402 Clear 4 1024 70 10000 2.06 320 23:51 11.04.2021
403 Clear 4 1023 65 10000 2.06 310 23:31 11.04.2021
404 Clear 4 1023 65 10000 1.54 320 22:49 11.04.2021
405 Clear 5 1022 65 10000 2.06 340 22:27 11.04.2021
406 Clear 6 1022 61 10000 3.6 340 21:58 11.04.2021
407 Clear 6 1021 57 10000 2.57 320 21:39 11.04.2021
408 Clouds 7 1021 61 10000 2.57 320 21:20 11.04.2021
409 Clear 7 1020 61 10000 3.09 330 20:39 11.04.2021
410 Clear 7 1020 61 10000 3.09 330 20:20 11.04.2021
411 Clouds 8 1019 57 10000 4.12 340 19:41 11.04.2021
412 Clear 8 1019 57 10000 5.14 340 19:20 11.04.2021
413 Clear 8 1019 57 10000 5.14 340 18:55 11.04.2021
414 Clouds 8 1018 61 10000 5.66 340 18:37 11.04.2021
415 Clouds 8 1018 57 10000 5.14 340 18:18 11.04.2021
416 Clouds 8 1018 57 10000 4.63 340 17:37 11.04.2021
417 Clouds 7 1017 57 10000 4.63 350 17:18 11.04.2021
418 Clear 7 1017 61 10000 5.14 350 16:40 11.04.2021
419 Clouds 7 1017 65 10000 5.14 350 16:20 11.04.2021
420 Clouds 7 1016 65 10000 5.66 340 15:45 11.04.2021
421 Clouds 7 1016 65 10000 5.66 340 15:24 11.04.2021
422 Clouds 7 1016 65 10000 6.17 10 14:51 11.04.2021
423 Clouds 6 1015 70 10000 5.66 10 14:22 11.04.2021
424 Clouds 6 1015 81 10000 5.66 350 13:42 11.04.2021
425 Clouds 6 1015 81 10000 5.66 350 13:23 11.04.2021
426 Clouds 5 1014 75 10000 6.69 10 12:40 11.04.2021
427 Clouds 5 1014 75 10000 6.69 10 12:20 11.04.2021
428 Clouds 5 1013 81 10000 5.66 360 11:45 11.04.2021
429 Clouds 5 1013 81 10000 5.66 360 11:20 11.04.2021
430 Clouds 4 1012 81 10000 5.66 360 10:45 11.04.2021
431 Clouds 4 1012 81 10000 5.66 360 10:23 11.04.2021
432 Clouds 5 1012 87 10000 5.14 360 09:50 11.04.2021
433 Clouds 4 1011 93 10000 5.14 360 09:29 11.04.2021
434 Rain 4 1011 93 10000 4.63 360 08:40 11.04.2021
435 Clouds 5 1010 93 10000 5.14 350 07:54 11.04.2021
436 Clouds 5 1010 93 7000 4.63 340 07:19 11.04.2021
437 Drizzle 6 1009 93 6000 5.14 330 05:48 11.04.2021
438 Drizzle 6 1009 93 6000 5.14 330 05:23 11.04.2021
439 Clouds 7 1009 93 6000 4.12 330 04:46 11.04.2021
440 Clouds 7 1008 93 7000 3.09 340 04:19 11.04.2021
441 Drizzle 8 1009 93 8000 3.09 350 01:27 11.04.2021
442 Mist 9 1008 100 5000 4.12 330 00:32 11.04.2021
443 Clouds 9 1008 100 7000 2.06 340 23:46 10.04.2021
444 Mist 9 1008 100 4100 1.54 250 22:57 10.04.2021
445 Rain 10 1008 93 8000 1.03 0 22:28 10.04.2021
446 Rain 10 1008 93 8000 1.03 0 22:28 10.04.2021
447 Rain 10 1008 93 7000 1.54 300 21:54 10.04.2021
448 Rain 11 1007 93 5000 2.06 290 21:32 10.04.2021
449 Mist 11 1007 93 4300 2.06 240 20:57 10.04.2021
450 Rain 12 1007 93 4000 2.06 270 20:37 10.04.2021
451 Rain 12 1007 93 4000 2.06 270 20:19 10.04.2021
452 Clouds 12 1007 94 10000 4.63 240 19:42 10.04.2021
453 Clouds 13 1007 94 10000 4.63 240 19:24 10.04.2021
454 Clouds 14 1007 82 10000 4.12 190 18:42 10.04.2021
455 Clouds 14 1007 82 10000 4.12 190 18:24 10.04.2021
456 Clouds 14 1008 77 10000 5.66 200 17:36 10.04.2021
457 Clouds 14 1008 82 10000 7.2 190 16:50 10.04.2021
458 Clouds 14 1008 82 10000 7.2 190 16:25 10.04.2021
459 Clouds 13 1008 76 10000 5.66 190 15:52 10.04.2021
460 Clouds 13 1009 82 9000 5.14 190 14:57 10.04.2021
461 Clouds 13 1009 82 10000 5.66 180 14:37 10.04.2021
462 Rain 13 1009 76 10000 6.69 180 13:59 10.04.2021
463 Clouds 13 1010 82 10000 5.66 190 13:39 10.04.2021
464 Clouds 13 1010 82 10000 5.14 190 12:48 10.04.2021
465 Clouds 12 1010 87 10000 4.63 190 12:26 10.04.2021
466 Clouds 11 1010 100 8000 2.57 170 11:47 10.04.2021
467 Clouds 11 1010 100 8000 2.57 170 11:24 10.04.2021
468 Clouds 10 1011 93 8000 3.09 160 10:52 10.04.2021
469 Mist 10 1011 100 2600 2.57 150 10:31 10.04.2021
470 Mist 9 1011 100 3900 2.06 110 09:45 10.04.2021
471 Mist 9 1011 100 3900 2.06 110 09:45 10.04.2021
472 Mist 8 1011 100 2800 1.54 110 09:19 10.04.2021
473 Mist 8 1011 100 2800 1.54 110 09:19 10.04.2021
474 Mist 8 1011 100 2800 1.54 110 08:46 10.04.2021
475 Mist 8 1011 100 4000 2.57 140 08:28 10.04.2021
476 Mist 8 1012 100 4300 2.06 150 07:29 10.04.2021
477 Rain 8 1012 100 4700 2.57 150 06:49 10.04.2021
478 Mist 8 1012 100 4500 1.54 0 05:54 10.04.2021
479 Rain 8 1013 93 7000 1.03 210 03:49 10.04.2021
480 Clouds 8 1013 100 6000 2.06 220 02:50 10.04.2021
481 Clouds 8 1013 93 8000 1.54 240 02:18 10.04.2021
482 Rain 9 1013 93 6000 1.54 230 00:41 10.04.2021
483 Clouds 9 1013 93 6000 1.54 230 00:19 10.04.2021
484 Rain 9 1013 93 10000 2.57 270 23:40 09.04.2021
485 Rain 9 1013 87 10000 3.6 260 22:58 09.04.2021
486 Rain 10 1013 87 7000 4.63 280 22:38 09.04.2021
487 Rain 11 1012 87 7000 5.14 290 21:56 09.04.2021
488 Rain 12 1011 82 7000 2.57 250 21:37 09.04.2021
489 Rain 13 1011 76 10000 2.98 265 21:18 09.04.2021
490 Clouds 14 1011 62 10000 0.51 230 20:41 09.04.2021
491 Clouds 14 1011 62 10000 0.51 230 20:22 09.04.2021
492 Clouds 14 1011 62 10000 0.51 230 20:22 09.04.2021
493 Clouds 14 1011 67 10000 1.54 240 19:44 09.04.2021
494 Clouds 15 1011 67 10000 2.57 230 19:23 09.04.2021
495 Clouds 15 1011 62 10000 5.66 200 18:51 09.04.2021
496 Clouds 15 1012 51 10000 6.69 200 18:31 09.04.2021
497 Clouds 15 1012 51 10000 4.63 190 17:54 09.04.2021
498 Clear 16 1012 48 10000 5.14 180 17:36 09.04.2021
499 Clear 16 1012 48 10000 5.14 200 16:56 09.04.2021
500 Clear 16 1012 44 10000 7.2 180 16:34 09.04.2021
501 Clear 16 1013 39 10000 5.14 180 15:51 09.04.2021
502 Clear 16 1013 33 10000 6.17 170 15:33 09.04.2021
503 Clear 16 1013 36 10000 5.14 180 14:58 09.04.2021
504 Clear 16 1014 33 10000 3.6 180 14:39 09.04.2021
505 Clear 16 1014 31 10000 4.63 200 13:52 09.04.2021
506 Clear 15 1014 29 10000 2.57 190 13:25 09.04.2021
507 Clear 14 1015 35 10000 3.09 190 12:51 09.04.2021
508 Clear 13 1015 35 10000 3.09 190 12:32 09.04.2021
509 Clear 12 1015 43 10000 2.06 150 11:46 09.04.2021
510 Clear 11 1015 50 10000 1.54 160 11:22 09.04.2021
511 Clear 9 1016 57 10000 1.54 130 10:47 09.04.2021
512 Clear 8 1016 57 10000 1.54 130 10:29 09.04.2021
513 Clear 7 1016 70 10000 1.54 140 09:49 09.04.2021
514 Clear 6 1016 70 10000 1.54 140 09:22 09.04.2021
515 Clear 5 1016 81 10000 1.54 120 08:51 09.04.2021
516 Clear 4 1016 75 10000 1.54 60 07:38 09.04.2021
517 Clear 4 1016 75 10000 2.06 80 06:56 09.04.2021
518 Clear 4 1016 75 10000 2.06 60 05:56 09.04.2021
519 Clear 5 1017 75 10000 1.54 30 03:53 09.04.2021
520 Clear 6 1018 70 10000 1.54 60 01:48 09.04.2021
521 Clear 7 1019 61 10000 1.03 0 00:38 09.04.2021
522 Clear 7 1019 57 10000 1.54 90 00:19 09.04.2021
523 Clear 8 1020 53 10000 1.03 110 23:24 08.04.2021
524 Clear 8 1020 49 10000 1.54 0 22:45 08.04.2021
525 Clear 8 1020 46 10000 1.54 220 22:22 08.04.2021
526 Clear 8 1020 46 10000 1.54 220 21:56 08.04.2021
527 Clear 8 1020 46 10000 1.54 220 21:56 08.04.2021
528 Clear 9 1020 43 10000 2.06 190 21:37 08.04.2021
529 Clear 9 1020 43 10000 2.06 190 21:18 08.04.2021
530 Clear 10 1020 43 10000 3.09 200 20:52 08.04.2021
531 Clear 11 1020 43 10000 3.09 180 20:31 08.04.2021
532 Clear 12 1020 40 10000 3.09 180 19:49 08.04.2021
533 Clear 12 1021 38 10000 2.57 170 19:20 08.04.2021
534 Clear 13 1021 38 10000 2.57 220 18:51 08.04.2021
535 Clear 13 1021 38 10000 4.12 170 18:21 08.04.2021
536 Clear 13 1022 38 10000 1.54 280 17:50 08.04.2021
537 Clear 13 1022 38 10000 1.54 0 17:26 08.04.2021
538 Clear 13 1022 40 10000 3.09 240 16:54 08.04.2021
539 Clear 13 1023 40 10000 2.06 0 16:34 08.04.2021
540 Clear 12 1023 43 10000 2.57 160 15:49 08.04.2021
541 Clear 11 1024 46 10000 2.57 0 15:31 08.04.2021
542 Clear 11 1024 46 10000 2.57 180 14:58 08.04.2021
543 Clouds 11 1024 49 10000 2.57 210 14:37 08.04.2021
544 Clouds 11 1024 49 10000 2.57 210 14:19 08.04.2021
545 Clouds 10 1025 50 10000 2.57 190 13:43 08.04.2021
546 Clouds 10 1025 50 10000 1.54 0 13:23 08.04.2021
547 Clouds 10 1026 46 10000 1.54 0 12:44 08.04.2021
548 Clouds 9 1026 46 10000 1.54 0 12:25 08.04.2021
549 Clouds 8 1026 53 10000 1.54 140 11:43 08.04.2021
550 Clouds 7 1026 53 10000 1.54 140 11:20 08.04.2021
551 Clouds 7 1026 61 10000 0.51 0 10:43 08.04.2021
552 Clouds 7 1026 61 10000 0.51 0 10:24 08.04.2021
553 Clear 6 1026 70 10000 1.54 0 09:43 08.04.2021
554 Clouds 5 1026 81 10000 1.54 20 08:51 08.04.2021
555 Clear 4 1025 75 10000 1.54 360 08:30 08.04.2021
556 Clear 4 1025 75 10000 1.54 330 07:59 08.04.2021
557 Clear 4 1025 75 10000 1.54 30 07:39 08.04.2021
558 Clouds 5 1026 70 10000 1.03 30 04:51 08.04.2021
559 Clouds 6 1025 65 10000 1.54 20 01:25 08.04.2021
560 Clear 6 1025 56 10000 2.06 350 00:30 08.04.2021
561 Clear 6 1025 56 10000 2.06 330 23:45 07.04.2021
562 Clear 6 1025 56 10000 2.06 330 23:22 07.04.2021
563 Clear 6 1025 49 10000 2.06 310 22:54 07.04.2021
564 Clear 6 1025 49 10000 1.54 290 22:35 07.04.2021
565 Clear 7 1025 45 10000 2.57 290 21:53 07.04.2021
566 Clear 7 1025 45 10000 2.57 300 21:32 07.04.2021
567 Clear 7 1024 42 10000 3.6 300 20:49 07.04.2021
568 Clear 8 1024 42 10000 3.6 290 20:28 07.04.2021
569 Clear 8 1024 39 10000 5.14 300 19:50 07.04.2021
570 Clear 9 1024 34 10000 4.63 280 19:31 07.04.2021
571 Clear 9 1024 34 10000 4.63 290 18:56 07.04.2021
572 Clear 9 1024 37 10000 6.17 260 18:23 07.04.2021
573 Clear 9 1024 34 10000 4.63 290 17:59 07.04.2021
574 Clear 10 1024 37 10000 6.17 260 17:41 07.04.2021
575 Clear 10 1024 34 10000 5.14 270 16:59 07.04.2021
576 Clear 10 1024 37 10000 5.66 260 16:40 07.04.2021
577 Clear 9 1024 37 10000 5.66 260 16:21 07.04.2021
578 Clear 9 1024 37 10000 5.66 260 16:21 07.04.2021
579 Clear 9 1024 37 10000 6.17 240 15:53 07.04.2021
580 Clear 8 1025 36 10000 4.63 260 15:25 07.04.2021
581 Clear 8 1025 39 10000 4.12 0 14:42 07.04.2021
582 Clear 8 1025 42 10000 5.14 300 14:19 07.04.2021
583 Clouds 7 1025 42 10000 5.66 270 13:38 07.04.2021
584 Clouds 7 1025 42 10000 5.66 270 13:20 07.04.2021
585 Clear 6 1025 45 10000 5.14 280 12:43 07.04.2021
586 Clear 6 1025 45 10000 5.14 280 12:18 07.04.2021
587 Clouds 5 1025 48 10000 5.14 290 11:43 07.04.2021
588 Clouds 5 1025 56 10000 4.63 260 11:22 07.04.2021
589 Clouds 4 1025 56 10000 4.63 260 10:47 07.04.2021
590 Clear 2 1025 80 10000 3.09 270 09:47 07.04.2021
591 Clear 1 1024 86 10000 3.09 270 09:28 07.04.2021
592 Clear 0 1024 93 10000 3.6 260 08:52 07.04.2021
593 Clear -1 1024 93 10000 2.57 250 08:30 07.04.2021
594 Clear -1 1023 93 10000 2.57 270 07:52 07.04.2021
595 Clear -1 1023 93 10000 2.57 260 07:28 07.04.2021
596 Clear -1 1022 93 10000 0.51 0 06:42 07.04.2021
597 Clear -1 1022 93 10000 1.54 250 05:42 07.04.2021
598 Clear 1 1020 80 10000 1.54 310 01:52 07.04.2021
599 Clear 2 1019 75 10000 2.57 290 23:48 06.04.2021
600 Clear 3 1019 80 10000 2.57 300 23:22 06.04.2021
601 Clear 3 1019 80 10000 2.57 300 22:57 06.04.2021
602 Clear 3 1019 80 10000 2.57 300 22:57 06.04.2021
603 Clear 3 1018 65 10000 2.57 320 22:21 06.04.2021
604 Clear 4 1018 65 10000 2.57 320 21:57 06.04.2021
605 Clear 4 1018 56 10000 5.66 350 21:37 06.04.2021
606 Clear 4 1018 42 10000 4.63 330 21:19 06.04.2021
607 Clear 5 1017 33 10000 5.66 320 20:45 06.04.2021
608 Clear 5 1017 33 10000 5.66 320 20:21 06.04.2021
609 Clouds 6 1017 42 10000 6.17 340 19:47 06.04.2021
610 Clouds 6 1017 42 10000 6.17 340 19:29 06.04.2021
611 Clouds 6 1017 45 10000 3.09 320 18:45 06.04.2021
612 Clouds 5 1017 45 10000 3.09 320 18:23 06.04.2021
613 Clouds 5 1018 60 10000 4.63 260 17:45 06.04.2021
614 Clouds 5 1018 60 10000 4.63 260 17:27 06.04.2021
615 Clear 6 1018 61 10000 5.14 20 16:49 06.04.2021
616 Clear 6 1018 61 10000 5.14 20 16:30 06.04.2021
617 Clouds 7 1018 33 10000 4.63 300 15:28 06.04.2021
618 Clouds 7 1018 61 10000 4.12 340 14:58 06.04.2021
619 Clear 7 1018 36 10000 6.17 280 14:39 06.04.2021
620 Clouds 7 1019 36 10000 5.66 290 14:18 06.04.2021
621 Clear 6 1019 45 10000 4.63 300 13:41 06.04.2021
622 Clear 6 1019 45 10000 4.63 300 13:23 06.04.2021
623 Clouds 6 1020 52 10000 4.63 330 12:41 06.04.2021
624 Clouds 5 1020 48 10000 5.14 300 12:21 06.04.2021
625 Clear 5 1020 48 10000 3.6 260 11:49 06.04.2021
626 Clear 5 1020 48 10000 3.6 260 11:21 06.04.2021
627 Clear 5 1020 48 10000 3.6 260 10:47 06.04.2021
628 Clear 4 1020 56 10000 3.6 270 10:27 06.04.2021
629 Clear 1 1020 64 10000 3.09 250 09:49 06.04.2021
630 Clear 1 1020 64 10000 3.09 250 09:30 06.04.2021
631 Clear 0 1020 69 10000 1.54 240 08:45 06.04.2021
632 Clear 0 1020 69 10000 1.54 240 08:18 06.04.2021
633 Clear -1 1020 74 10000 2.57 270 06:55 06.04.2021
634 Clear -2 1020 74 10000 1.03 130 05:40 06.04.2021
635 Clear 0 1021 74 10000 1.03 300 02:57 06.04.2021
636 Clear 1 1021 69 10000 0.51 0 00:45 06.04.2021
637 Clear 2 1021 64 10000 1.54 340 00:21 06.04.2021
638 Clear 3 1021 60 10000 2.06 360 23:43 05.04.2021
639 Clear 3 1021 60 10000 2.06 340 23:20 05.04.2021
640 Clear 3 1020 60 10000 2.06 350 22:48 05.04.2021
641 Clear 3 1020 60 10000 2.06 350 22:26 05.04.2021
642 Clear 4 1020 56 10000 3.09 360 21:44 05.04.2021
643 Clear 4 1019 65 10000 2.06 360 21:22 05.04.2021
644 Clouds 4 1019 65 10000 3.6 360 20:45 05.04.2021
645 Clouds 5 1019 60 10000 6.17 10 20:26 05.04.2021
646 Clear 4 1018 70 10000 3.6 10 19:43 05.04.2021
647 Clear 4 1018 70 10000 3.6 10 19:23 05.04.2021
648 Clouds 5 1018 70 10000 3.6 10 18:54 05.04.2021
649 Clouds 5 1018 75 10000 6.69 360 18:36 05.04.2021
650 Clouds 5 1018 75 10000 6.69 360 18:18 05.04.2021
651 Clouds 6 1017 75 10000 4.12 360 17:42 05.04.2021
652 Clouds 6 1017 75 10000 4.63 360 17:20 05.04.2021
653 Clouds 6 1017 75 10000 4.63 360 16:43 05.04.2021
654 Clouds 6 1016 75 10000 5.14 360 16:20 05.04.2021
655 Clouds 7 1016 81 10000 3.6 360 15:52 05.04.2021
656 Clouds 7 1016 81 10000 3.6 360 15:52 05.04.2021
657 Clouds 6 1016 87 10000 5.14 350 15:29 05.04.2021
658 Clouds 6 1016 81 10000 6.17 340 14:54 05.04.2021
659 Clouds 7 1015 87 10000 5.66 340 14:34 05.04.2021
660 Clouds 9 1014 81 10000 3.09 260 13:31 05.04.2021
661 Clouds 8 1015 87 10000 4.63 260 12:51 05.04.2021
662 Clouds 8 1015 87 10000 4.63 260 12:28 05.04.2021
663 Clouds 7 1015 93 10000 4.12 250 11:56 05.04.2021
664 Clouds 7 1015 93 8000 4.63 240 11:36 05.04.2021
665 Clouds 6 1015 93 8000 4.63 240 11:18 05.04.2021
666 Mist 5 1015 93 4900 4.12 250 10:45 05.04.2021
667 Mist 5 1015 93 4900 4.12 250 10:26 05.04.2021
668 Clouds 4 1015 93 10000 3.6 280 09:47 05.04.2021
669 Clouds 4 1015 93 10000 3.6 280 09:23 05.04.2021
670 Clouds 4 1015 87 10000 3.09 270 08:45 05.04.2021
671 Clouds 4 1015 87 10000 3.09 270 08:25 05.04.2021
672 Clouds 3 1016 93 10000 2.06 260 07:36 05.04.2021
673 Clouds 3 1016 87 9000 3.09 230 06:32 05.04.2021
674 Clear 5 1020 81 10000 1.03 0 01:57 05.04.2021
675 Clear 5 1019 81 10000 1.03 290 00:49 05.04.2021
676 Clear 6 1020 75 10000 1.03 320 23:52 04.04.2021
677 Clear 7 1020 75 10000 1.69 310 23:28 04.04.2021
678 Clear 8 1021 70 10000 1.03 330 22:52 04.04.2021
679 Clear 8 1021 66 10000 1.03 330 22:30 04.04.2021
680 Clear 9 1021 61 10000 1.54 340 21:29 04.04.2021
681 Clear 10 1021 57 10000 2.57 340 20:58 04.04.2021
682 Clear 11 1021 54 10000 2.06 340 20:30 04.04.2021
683 Clear 11 1021 58 10000 2.06 330 19:58 04.04.2021
684 Clear 12 1022 58 10000 2.57 350 19:38 04.04.2021
685 Clear 12 1022 50 10000 2.57 330 19:19 04.04.2021
686 Clear 13 1022 50 10000 2.57 340 18:45 04.04.2021
687 Clear 13 1022 50 10000 2.57 340 18:24 04.04.2021
688 Clear 13 1023 50 10000 4.12 340 17:55 04.04.2021
689 Clear 13 1023 50 10000 3.6 350 17:24 04.04.2021
690 Clear 13 1023 50 10000 3.6 350 16:52 04.04.2021
691 Clear 12 1024 54 10000 3.6 340 16:21 04.04.2021
692 Clear 12 1024 54 10000 3.6 360 15:37 04.04.2021
693 Clear 12 1024 54 10000 3.6 360 15:18 04.04.2021
694 Clear 11 1025 57 10000 4.12 320 14:37 04.04.2021
695 Clear 11 1025 57 10000 4.12 350 14:18 04.04.2021
696 Clear 10 1026 61 10000 3.6 20 13:26 04.04.2021
697 Clear 10 1026 61 10000 3.6 20 12:50 04.04.2021
698 Clear 9 1026 61 10000 4.12 360 12:27 04.04.2021
699 Clear 8 1026 66 10000 4.63 30 11:43 04.04.2021
700 Clear 8 1026 66 10000 4.63 30 11:25 04.04.2021
701 Clear 6 1027 75 9000 4.63 30 10:46 04.04.2021
702 Clear 6 1027 75 9000 4.63 30 10:19 04.04.2021
703 Clear 5 1027 81 10000 3.09 360 09:37 04.04.2021
704 Clear 4 1027 87 10000 1.03 340 09:18 04.04.2021
705 Clear 4 1027 87 10000 1.03 340 08:42 04.04.2021
706 Clear 3 1026 93 10000 1.03 0 08:24 04.04.2021
707 Clear 3 1026 87 10000 2.06 360 06:39 04.04.2021
708 Clear 4 1026 87 10000 2.57 360 05:43 04.04.2021
709 Clear 5 1027 75 10000 5.66 360 02:20 04.04.2021
710 Clear 6 1027 75 10000 4.63 360 00:47 04.04.2021
711 Clear 7 1027 70 10000 5.66 360 00:18 04.04.2021
712 Clear 7 1027 70 10000 6.17 360 23:39 03.04.2021
713 Clear 8 1027 66 10000 4.63 360 22:56 03.04.2021
714 Clear 8 1026 61 10000 3.09 360 22:37 03.04.2021
715 Clear 9 1026 61 10000 3.09 360 22:18 03.04.2021
716 Clear 9 1026 57 10000 3.09 360 21:39 03.04.2021
717 Clear 10 1026 53 10000 4.12 10 21:21 03.04.2021
718 Clear 10 1026 53 10000 4.63 10 20:40 03.04.2021
719 Clear 11 1026 50 10000 5.66 10 20:20 03.04.2021
720 Clear 11 1026 50 10000 6.17 30 19:43 03.04.2021
721 Clear 11 1026 46 10000 7.2 20 19:19 03.04.2021
722 Clouds 12 1026 47 10000 6.69 20 18:45 03.04.2021
723 Clouds 12 1026 47 10000 6.69 20 18:18 03.04.2021
724 Clear 12 1026 43 10000 6.17 30 17:41 03.04.2021
725 Clear 12 1026 43 10000 6.17 30 17:21 03.04.2021
726 Clouds 11 1026 50 10000 6.17 30 16:43 03.04.2021
727 Clouds 11 1026 50 10000 6.17 30 16:21 03.04.2021
728 Clouds 11 1027 46 10000 5.14 10 15:46 03.04.2021
729 Clouds 10 1027 53 10000 5.66 30 15:21 03.04.2021
730 Clouds 9 1028 53 10000 6.69 20 14:42 03.04.2021
731 Clouds 9 1028 53 10000 5.66 10 14:20 03.04.2021
732 Clouds 8 1027 57 10000 7.2 30 13:48 03.04.2021
733 Clouds 8 1027 61 10000 7.72 60 13:23 03.04.2021
734 Clouds 8 1028 57 10000 8.23 30 12:49 03.04.2021
735 Clouds 7 1028 57 10000 8.23 30 12:21 03.04.2021
736 Clouds 7 1028 57 10000 7.72 40 12:21 03.04.2021
737 Clouds 7 1028 61 10000 6.69 40 11:38 03.04.2021
738 Clouds 7 1028 61 10000 7.72 40 10:56 03.04.2021
739 Clouds 6 1028 75 10000 5.14 30 10:36 03.04.2021
740 Clouds 6 1027 70 10000 4.12 30 10:18 03.04.2021
741 Clouds 6 1027 70 10000 3.6 20 09:28 03.04.2021
742 Clouds 6 1027 75 10000 2.57 360 08:54 03.04.2021
743 Clouds 6 1027 75 10000 2.57 360 08:28 03.04.2021
744 Clouds 6 1026 70 10000 4.63 30 07:29 03.04.2021
745 Clouds 6 1026 65 10000 6.17 30 06:44 03.04.2021
746 Clouds 6 1026 65 10000 5.14 20 03:53 03.04.2021
747 Clouds 6 1027 65 10000 6.17 20 02:51 03.04.2021
748 Clouds 5 1027 65 10000 6.17 10 02:26 03.04.2021
749 Clear 6 1026 70 10000 7.2 10 00:23 03.04.2021
750 Clear 6 1026 70 10000 7.2 10 23:50 02.04.2021
751 Clear 6 1026 70 10000 6.69 10 23:24 02.04.2021
752 Clear 7 1026 70 10000 4.63 10 22:55 02.04.2021
753 Clouds 7 1026 65 10000 5.14 10 22:36 02.04.2021
754 Clear 8 1026 61 10000 5.14 10 21:46 02.04.2021
755 Clear 9 1025 66 10000 5.14 360 21:26 02.04.2021
756 Clear 10 1025 61 10000 6.69 10 20:54 02.04.2021
757 Clear 11 1024 53 10000 7.72 10 20:35 02.04.2021
758 Clear 12 1024 50 10000 6.17 10 19:59 02.04.2021
759 Clear 12 1024 50 10000 6.69 360 19:39 02.04.2021
760 Clear 12 1024 50 10000 6.69 360 19:21 02.04.2021
761 Clear 13 1023 47 10000 6.69 10 18:41 02.04.2021
762 Clear 13 1023 47 10000 6.69 10 18:41 02.04.2021
763 Clear 13 1023 47 10000 6.69 10 18:20 02.04.2021
764 Clear 13 1023 50 10000 6.69 360 17:40 02.04.2021
765 Clear 13 1023 47 10000 6.17 360 16:53 02.04.2021
766 Clear 14 1023 47 10000 6.17 360 16:23 02.04.2021
767 Clear 13 1024 44 10000 6.69 360 15:42 02.04.2021
768 Clear 13 1024 47 10000 6.69 10 14:57 02.04.2021
769 Clear 12 1024 54 10000 5.14 10 14:33 02.04.2021
770 Clear 12 1024 47 10000 6.17 20 13:46 02.04.2021
771 Clear 11 1024 54 10000 6.17 20 13:26 02.04.2021
772 Clear 10 1024 57 10000 5.66 10 12:42 02.04.2021
773 Clear 10 1024 57 10000 5.66 10 12:20 02.04.2021
774 Clear 10 1024 57 10000 5.66 360 11:58 02.04.2021
775 Clear 9 1024 61 10000 7.2 20 11:21 02.04.2021
776 Clear 9 1024 66 10000 6.17 20 10:51 02.04.2021
777 Clear 8 1024 71 10000 6.69 10 10:32 02.04.2021
778 Clear 8 1024 71 10000 6.69 10 10:32 02.04.2021
779 Clouds 8 1024 81 10000 5.14 10 09:55 02.04.2021
780 Clouds 7 1024 81 10000 2.57 360 09:37 02.04.2021
781 Clouds 7 1024 81 10000 2.57 360 09:18 02.04.2021
782 Clouds 7 1023 87 9000 2.57 10 08:34 02.04.2021
783 Clear 7 1023 87 10000 3.09 10 07:42 02.04.2021
784 Clear 7 1022 81 10000 4.63 10 07:18 02.04.2021
785 Clear 8 1022 81 10000 3.6 10 06:22 02.04.2021
786 Clear 11 1022 81 10000 3.6 360 02:59 02.04.2021
787 Clear 13 1022 82 10000 4.12 10 00:54 02.04.2021
788 Clear 13 1022 82 10000 4.12 10 00:54 02.04.2021
789 Clear 14 1021 76 9000 2.57 350 00:33 02.04.2021
790 Clear 15 1021 77 8000 4.12 360 23:42 01.04.2021
791 Clear 15 1021 77 7000 4.63 10 23:24 01.04.2021
792 Clear 17 1021 72 7000 4.63 10 22:22 01.04.2021
793 Clear 18 1020 67 7000 5.14 10 21:52 01.04.2021
794 Haze 19 1020 68 5000 4.12 360 21:29 01.04.2021
795 Clear 20 1019 55 7000 4.63 10 21:00 01.04.2021
796 Clear 20 1019 52 8000 3.6 10 20:33 01.04.2021
797 Clouds 21 1019 49 8000 5.14 10 19:58 01.04.2021
798 Clouds 22 1019 49 7000 6.17 10 19:39 01.04.2021
799 Clear 23 1019 40 10000 5.14 20 18:54 01.04.2021
800 Clear 24 1019 35 10000 5.14 30 18:36 01.04.2021
801 Clouds 24 1019 33 10000 5.14 40 18:18 01.04.2021
802 Clear 24 1019 31 10000 5.14 20 17:39 01.04.2021
803 Clear 24 1019 31 10000 5.14 20 17:20 01.04.2021
804 Clear 25 1019 35 10000 3.6 20 16:44 01.04.2021
805 Clear 24 1019 38 10000 3.6 80 15:59 01.04.2021
806 Clouds 24 1019 35 10000 3.6 60 15:24 01.04.2021
807 Clear 24 1019 35 10000 4.12 60 14:57 01.04.2021
808 Clear 24 1020 38 10000 4.12 70 14:38 01.04.2021
809 Clear 23 1020 40 10000 3.09 50 14:19 01.04.2021
810 Clear 23 1020 40 10000 3.09 50 13:48 01.04.2021
811 Clear 23 1020 40 10000 3.09 40 13:27 01.04.2021
812 Clear 22 1020 49 10000 2.06 360 12:47 01.04.2021
813 Clear 21 1020 52 10000 1.54 350 12:28 01.04.2021
814 Clear 20 1020 52 10000 2.13 46 11:45 01.04.2021
815 Clear 18 1020 59 10000 1.03 0 11:19 01.04.2021
816 Clear 17 1020 67 10000 1.03 0 10:47 01.04.2021
817 Clear 16 1020 72 10000 0.51 0 10:29 01.04.2021
818 Clear 13 1020 81 10000 1.03 50 09:41 01.04.2021
819 Clear 12 1020 81 10000 1.54 350 09:22 01.04.2021
820 Clear 10 1020 87 10000 1.54 0 08:33 01.04.2021
821 Clear 11 1019 87 10000 1.54 360 07:24 01.04.2021
822 Clear 11 1019 87 10000 1.54 350 06:58 01.04.2021
823 Clear 11 1019 81 10000 1.54 340 06:30 01.04.2021
824 Clear 12 1019 76 10000 1.54 10 03:26 01.04.2021
825 Clear 15 1019 58 10000 1.54 20 00:38 01.04.2021
826 Clear 16 1019 58 10000 1.54 350 23:44 31.03.2021
827 Clear 17 1019 55 10000 1.54 360 22:58 31.03.2021
828 Clear 17 1019 48 10000 2.06 360 22:39 31.03.2021
829 Clear 18 1019 48 10000 2.06 360 22:20 31.03.2021
830 Clear 18 1019 37 10000 1.54 40 21:44 31.03.2021
831 Clear 19 1019 37 10000 1.54 40 21:20 31.03.2021
832 Clear 21 1019 30 10000 1.03 110 20:42 31.03.2021
833 Clear 21 1019 30 10000 1.03 110 20:23 31.03.2021
834 Clear 21 1019 30 10000 1.03 110 20:23 31.03.2021
835 Clear 22 1019 27 10000 1.54 180 19:55 31.03.2021
836 Clear 24 1019 25 10000 2.06 140 19:36 31.03.2021
837 Clear 24 1019 31 10000 2.06 160 19:18 31.03.2021
838 Clear 24 1019 27 10000 2.06 140 18:41 31.03.2021
839 Clear 25 1019 25 10000 2.57 220 17:56 31.03.2021
840 Clear 25 1019 19 10000 2.06 170 17:34 31.03.2021
841 Clear 25 1020 25 10000 2.06 180 16:58 31.03.2021
842 Clear 25 1020 29 10000 1.54 100 16:38 31.03.2021
843 Clear 25 1020 29 10000 1.54 100 16:19 31.03.2021
844 Clear 25 1020 29 10000 1.54 100 16:19 31.03.2021
845 Clear 25 1020 25 10000 2.06 150 15:50 31.03.2021
846 Clear 24 1021 31 10000 2.57 150 15:19 31.03.2021
847 Clear 23 1021 29 10000 2.06 120 14:44 31.03.2021
848 Clear 23 1021 31 10000 1.03 0 14:22 31.03.2021
849 Clear 23 1021 31 10000 1.03 0 13:41 31.03.2021
850 Clear 21 1022 42 10000 2.06 120 12:42 31.03.2021
851 Clear 20 1022 42 10000 2.06 120 12:21 31.03.2021
852 Clear 19 1022 52 10000 1.03 0 11:56 31.03.2021
853 Clear 18 1023 55 10000 2 177 11:21 31.03.2021
854 Clear 15 1023 67 10000 1.03 0 10:47 31.03.2021
855 Clear 15 1023 67 10000 1.03 0 10:26 31.03.2021
856 Clouds 13 1023 87 9000 1.03 50 09:43 31.03.2021
857 Clouds 12 1023 87 9000 1.03 50 09:18 31.03.2021
858 Clear 9 1023 87 10000 1.03 10 08:39 31.03.2021
859 Clear 9 1023 87 10000 1.54 360 07:53 31.03.2021
860 Clear 10 1023 81 10000 1.54 10 06:49 31.03.2021
861 Clear 12 1024 76 10000 2.06 360 03:52 31.03.2021
862 Clear 12 1024 76 10000 1.03 0 01:43 31.03.2021
863 Clear 14 1025 67 10000 2.06 360 00:53 31.03.2021
864 Clear 14 1025 67 10000 2.06 360 00:21 31.03.2021
865 Clear 13 1025 67 10000 2.06 350 23:46 30.03.2021
866 Clear 16 1025 55 10000 2.06 30 23:19 30.03.2021
867 Clear 16 1025 51 10000 2.57 60 22:42 30.03.2021
868 Clear 17 1025 48 10000 1.03 0 22:24 30.03.2021
869 Clear 17 1025 48 10000 1.03 0 21:53 30.03.2021
870 Clear 19 1025 42 10000 3.09 110 21:23 30.03.2021
871 Clear 19 1025 42 10000 3.09 110 20:57 30.03.2021
872 Clear 21 1025 35 10000 2.57 130 20:29 30.03.2021
873 Clear 22 1025 35 10000 3.6 140 19:52 30.03.2021
874 Clear 23 1025 33 10000 2.57 130 19:28 30.03.2021
875 Clear 23 1025 31 10000 4.12 130 18:47 30.03.2021
876 Clear 24 1025 31 10000 4.12 130 18:24 30.03.2021
877 Clear 24 1026 27 10000 3.6 140 17:42 30.03.2021
878 Clear 24 1026 27 10000 3.6 140 17:24 30.03.2021
879 Clear 24 1026 29 10000 2.57 140 16:46 30.03.2021
880 Clear 24 1026 29 10000 2.57 140 16:25 30.03.2021
881 Clear 23 1027 35 10000 2.57 100 15:22 30.03.2021
882 Clear 23 1028 33 10000 2.57 60 14:59 30.03.2021
883 Clear 22 1028 33 10000 1.54 0 14:40 30.03.2021
884 Clear 22 1028 35 10000 1.03 0 14:19 30.03.2021
885 Clear 21 1029 35 10000 1.03 0 13:42 30.03.2021
886 Clear 20 1029 40 10000 1.03 0 12:58 30.03.2021
887 Clear 19 1029 39 10000 1.03 0 12:39 30.03.2021
888 Clear 18 1029 45 10000 1.54 130 12:20 30.03.2021
889 Clear 16 1029 48 10000 1.03 0 11:40 30.03.2021
890 Clear 16 1029 48 10000 1.03 0 11:18 30.03.2021
891 Clear 14 1029 58 10000 2.06 60 10:40 30.03.2021
892 Clear 13 1029 58 10000 2.06 60 10:18 30.03.2021
893 Clear 11 1029 76 10000 1.54 30 09:38 30.03.2021
894 Clear 10 1029 71 10000 1.03 10 09:20 30.03.2021
895 Clear 8 1029 81 10000 2.06 360 08:41 30.03.2021
896 Clear 8 1029 81 10000 1.54 360 07:53 30.03.2021
897 Clear 8 1029 81 10000 1.54 360 07:28 30.03.2021
898 Clear 9 1029 76 10000 1.54 20 06:23 30.03.2021
899 Clear 11 1029 71 10000 1.54 10 05:24 30.03.2021
900 Clear 13 1030 58 10000 2.06 40 01:37 30.03.2021
901 Clear 14 1030 50 10000 1.54 30 23:52 29.03.2021
902 Clear 15 1030 50 10000 1.54 40 23:21 29.03.2021
903 Clear 15 1030 54 10000 2.06 40 22:37 29.03.2021
904 Clear 16 1030 51 10000 3.09 60 21:55 29.03.2021
905 Clear 16 1029 54 10000 3.6 70 21:33 29.03.2021
906 Clear 17 1029 51 10000 3.6 60 20:51 29.03.2021
907 Clear 18 1029 42 10000 3.6 40 20:29 29.03.2021
908 Clear 20 1029 32 10000 1.54 30 19:53 29.03.2021
909 Clear 21 1029 23 10000 1.03 0 19:27 29.03.2021
910 Clear 21 1029 23 10000 1.03 0 19:27 29.03.2021
911 Clear 22 1029 26 10000 2.06 160 18:54 29.03.2021
912 Clear 22 1029 26 10000 2.06 150 18:30 29.03.2021
913 Clear 22 1029 24 10000 3.09 140 17:58 29.03.2021
914 Clear 23 1029 23 10000 1.54 0 17:35 29.03.2021
915 Clear 22 1030 21 10000 1.54 0 16:53 29.03.2021
916 Clear 22 1030 24 10000 2.06 160 16:30 29.03.2021
917 Clear 21 1030 30 10000 3.6 150 15:43 29.03.2021
918 Clear 21 1030 30 10000 3.6 150 15:24 29.03.2021
919 Clear 21 1031 30 10000 2.57 180 14:48 29.03.2021
920 Clear 20 1031 32 10000 2.06 190 14:21 29.03.2021
921 Clear 19 1031 39 10000 3.6 200 13:40 29.03.2021
922 Clear 18 1031 36 10000 3.6 170 13:19 29.03.2021
923 Clear 17 1031 39 10000 2.06 160 12:49 29.03.2021
924 Clear 15 1031 44 10000 2.06 140 11:49 29.03.2021
925 Clear 14 1031 51 10000 1.54 100 11:29 29.03.2021
926 Clear 11 1031 58 10000 1.54 0 10:51 29.03.2021
927 Clear 11 1031 58 10000 1.54 0 10:31 29.03.2021
928 Clear 8 1030 76 10000 1.54 130 09:34 29.03.2021
929 Clear 6 1030 81 10000 2.06 100 08:51 29.03.2021
930 Clear 6 1030 81 10000 2.06 100 08:27 29.03.2021
931 Clear 6 1030 81 10000 1.54 60 07:22 29.03.2021
932 Clear 7 1030 81 10000 1.03 0 06:26 29.03.2021
933 Clear 9 1030 70 10000 1.54 130 03:35 29.03.2021
934 Clear 10 1030 66 10000 2.06 90 01:41 29.03.2021
935 Clear 11 1029 58 10000 0.51 0 00:21 29.03.2021
936 Clear 11 1029 54 10000 2.57 200 23:36 28.03.2021
937 Clear 12 1029 50 10000 2.57 210 23:18 28.03.2021
938 Clear 12 1028 50 10000 3.09 200 22:39 28.03.2021
939 Clear 12 1028 50 10000 3.09 200 22:20 28.03.2021
940 Clear 13 1028 50 10000 3.09 200 21:40 28.03.2021
941 Clear 13 1028 47 10000 4.63 200 21:22 28.03.2021
942 Clear 14 1028 44 10000 5.14 200 20:47 28.03.2021
943 Clear 14 1028 44 10000 5.14 200 20:29 28.03.2021
944 Clear 16 1028 41 10000 4.12 210 19:43 28.03.2021
945 Clear 16 1028 41 10000 4.12 210 19:22 28.03.2021
946 Clear 16 1028 39 10000 5.14 200 18:58 28.03.2021
947 Clear 16 1028 39 10000 4.63 210 18:26 28.03.2021
948 Clear 17 1028 36 10000 6.17 200 17:47 28.03.2021
949 Clear 17 1028 36 10000 6.17 200 17:27 28.03.2021
950 Clear 16 1028 39 10000 6.69 180 16:46 28.03.2021
951 Clear 16 1029 39 10000 5.66 210 16:23 28.03.2021
952 Clear 15 1029 41 10000 6.17 200 15:27 28.03.2021
953 Clear 15 1029 41 10000 6.17 200 14:57 28.03.2021
954 Clear 15 1030 44 10000 6.69 210 14:31 28.03.2021
955 Clear 15 1029 44 10000 5.66 220 13:46 28.03.2021
956 Clear 14 1030 47 10000 6.69 200 13:22 28.03.2021
957 Clear 14 1030 47 10000 6.69 200 12:50 28.03.2021
958 Clear 13 1030 50 10000 5.66 210 12:32 28.03.2021
959 Clear 12 1030 50 10000 6.69 210 11:45 28.03.2021
960 Clear 11 1030 58 10000 4.63 190 11:25 28.03.2021
961 Clear 10 1030 62 10000 4.12 180 10:44 28.03.2021
962 Clear 9 1030 66 10000 4.12 160 10:25 28.03.2021
963 Clear 7 1029 76 10000 3.09 150 09:47 28.03.2021
964 Clear 7 1029 81 10000 2.57 150 09:24 28.03.2021
965 Clear 5 1029 81 10000 1.03 150 08:46 28.03.2021
966 Clear 5 1029 70 10000 1.54 200 07:51 28.03.2021
967 Clear 5 1029 70 10000 3.09 230 07:19 28.03.2021
968 Clouds 8 1029 66 10000 2.57 210 04:18 28.03.2021
969 Clear 8 1029 71 10000 0.51 0 01:26 28.03.2021
970 Clear 8 1029 66 10000 1.54 210 00:21 28.03.2021
971 Clear 8 1029 66 10000 1.54 210 23:44 27.03.2021
972 Clear 8 1029 62 10000 2.06 190 23:19 27.03.2021
973 Clear 9 1029 62 10000 2.57 190 22:37 27.03.2021
974 Clear 10 1029 58 10000 3.09 200 21:59 27.03.2021
975 Clear 10 1028 58 10000 2.57 220 21:38 27.03.2021
976 Clear 10 1028 62 10000 3.09 210 21:19 27.03.2021
977 Clear 10 1028 57 10000 2.57 220 20:44 27.03.2021
978 Clear 10 1028 57 10000 2.57 220 20:24 27.03.2021
979 Clear 11 1028 58 10000 3.09 240 19:44 27.03.2021
980 Clear 11 1028 58 10000 3.09 240 19:23 27.03.2021
981 Clouds 12 1028 50 10000 4.12 260 18:50 27.03.2021
982 Clouds 12 1028 50 10000 4.12 260 18:29 27.03.2021
983 Clouds 12 1028 54 10000 4.12 240 17:56 27.03.2021
984 Clear 13 1027 50 10000 5.14 250 17:26 27.03.2021
985 Clouds 13 1027 50 10000 6.17 250 16:53 27.03.2021
986 Clouds 12 1027 50 10000 5.66 250 16:30 27.03.2021
987 Clear 12 1027 50 10000 6.17 250 15:55 27.03.2021
988 Clouds 12 1027 50 10000 6.17 230 15:33 27.03.2021
989 Clouds 12 1027 54 10000 5.66 240 14:52 27.03.2021
990 Clouds 12 1027 58 10000 6.69 250 14:19 27.03.2021
991 Clouds 11 1027 54 10000 7.2 250 13:26 27.03.2021
992 Clouds 11 1027 54 10000 6.17 250 12:56 27.03.2021
993 Clouds 11 1027 54 10000 7.72 240 12:33 27.03.2021
994 Clouds 10 1027 58 10000 6.69 250 11:47 27.03.2021
995 Clouds 9 1027 66 10000 6.69 230 11:27 27.03.2021
996 Clouds 9 1026 71 10000 6.17 240 10:48 27.03.2021
997 Clouds 8 1026 66 10000 6.17 240 10:25 27.03.2021
998 Clear 6 1025 76 10000 6.69 240 09:30 27.03.2021
999 Clear 6 1025 76 10000 6.69 240 09:30 27.03.2021
1000 Clear 5 1024 75 10000 6.69 240 08:49 27.03.2021
1001 Clear 5 1024 75 10000 6.69 240 08:31 27.03.2021
1002 Clear 4 1024 81 10000 5.14 250 07:36 27.03.2021
1003 Clear 4 1023 81 10000 5.14 240 06:58 27.03.2021
1004 Clouds 4 1023 81 10000 5.14 230 06:34 27.03.2021
1005 Clouds 5 1021 81 10000 5.66 230 04:40 27.03.2021
1006 Clear 6 1019 87 10000 5.14 240 00:56 27.03.2021
1007 Clouds 6 1019 81 10000 6.17 230 00:31 27.03.2021
1008 Clouds 6 1019 87 10000 4.12 230 23:55 26.03.2021
1009 Drizzle 6 1018 87 10000 3.6 210 23:22 26.03.2021
1010 Clouds 6 1018 87 10000 4.12 240 22:36 26.03.2021
1011 Clouds 6 1017 87 6000 7.2 270 21:40 26.03.2021
1012 Clouds 6 1017 87 6000 7.2 270 21:22 26.03.2021
1013 Clouds 9 1015 71 10000 8.23 300 20:49 26.03.2021
1014 Clouds 10 1015 71 10000 8.23 300 20:30 26.03.2021
1015 Clouds 10 1015 71 10000 8.23 300 20:30 26.03.2021
1016 Clouds 10 1015 71 10000 8.23 300 20:30 26.03.2021
1017 Clear 13 1014 51 10000 8.75 210 19:50 26.03.2021
1018 Clear 13 1014 51 10000 8.75 210 19:30 26.03.2021
1019 Clouds 14 1014 47 10000 6.69 210 18:46 26.03.2021
1020 Clouds 14 1014 47 10000 6.69 210 18:27 26.03.2021
1021 Clear 14 1014 44 10000 8.23 200 17:49 26.03.2021
1022 Clear 14 1015 47 10000 6.69 210 17:18 26.03.2021
1023 Clear 15 1015 47 10000 8.23 200 16:34 26.03.2021
1024 Clear 14 1015 47 10000 7.72 220 15:59 26.03.2021
1025 Clear 14 1016 47 10000 8.23 220 15:26 26.03.2021
1026 Clouds 14 1016 47 10000 6.69 230 14:39 26.03.2021
1027 Clouds 13 1017 54 10000 7.72 210 13:46 26.03.2021
1028 Clouds 13 1017 54 10000 7.72 210 13:46 26.03.2021
1029 Clouds 13 1017 54 10000 8.23 200 13:22 26.03.2021
1030 Clouds 13 1018 54 10000 6.69 200 12:35 26.03.2021
1031 Clouds 11 1018 66 10000 7.2 190 11:47 26.03.2021
1032 Clouds 11 1018 66 10000 7.2 190 11:27 26.03.2021
1033 Clouds 10 1019 71 10000 4.63 180 10:42 26.03.2021
1034 Clouds 9 1019 76 10000 4.12 170 10:19 26.03.2021
1035 Clouds 8 1019 81 10000 3.09 150 09:41 26.03.2021
1036 Clouds 6 1019 87 10000 3.6 140 08:48 26.03.2021
1037 Clouds 6 1019 87 10000 3.6 140 08:26 26.03.2021
1038 Clouds 6 1019 87 10000 4.12 160 07:44 26.03.2021
1039 Clouds 5 1019 87 10000 3.09 180 07:22 26.03.2021
1040 Clouds 5 1019 87 10000 1.54 0 06:55 26.03.2021
1041 Clouds 5 1019 87 10000 1.54 150 05:32 26.03.2021
1042 Clear 6 1019 93 10000 1.54 100 04:18 26.03.2021
1043 Clear 8 1021 76 10000 1.54 100 00:52 26.03.2021
1044 Clear 8 1021 76 10000 0.51 0 23:51 25.03.2021
1045 Clear 8 1021 71 10000 1.03 140 23:33 25.03.2021
1046 Clear 9 1021 76 10000 2.04 215 22:41 25.03.2021
1047 Clear 9 1021 66 10000 1.03 170 22:19 25.03.2021
1048 Clear 9 1021 66 10000 1.03 170 22:19 25.03.2021
1049 Clear 9 1021 66 10000 1.54 160 21:45 25.03.2021
1050 Clear 10 1021 66 10000 1.54 160 21:24 25.03.2021
1051 Clouds 10 1021 62 10000 1.54 240 20:38 25.03.2021
1052 Clouds 11 1021 62 10000 2.57 240 20:18 25.03.2021
1053 Clouds 12 1021 58 10000 2.57 230 19:40 25.03.2021
1054 Clouds 12 1021 58 10000 2.57 230 19:21 25.03.2021
1055 Clouds 13 1021 58 10000 3.09 240 18:44 25.03.2021
1056 Clouds 13 1021 58 10000 3.09 240 18:25 25.03.2021
1057 Clouds 14 1021 54 10000 3.6 230 17:40 25.03.2021
1058 Clouds 14 1021 54 10000 3.6 230 17:21 25.03.2021
1059 Clouds 14 1022 62 10000 2.06 220 16:38 25.03.2021
1060 Clouds 14 1022 62 10000 2.06 220 16:19 25.03.2021
1061 Clouds 13 1022 67 10000 2.06 0 15:42 25.03.2021
1062 Clouds 13 1022 67 10000 2.06 0 15:19 25.03.2021
1063 Clouds 13 1022 76 10000 1.54 0 14:42 25.03.2021
1064 Clouds 11 1023 87 10000 3.09 260 13:40 25.03.2021
1065 Clouds 10 1023 87 10000 3.09 260 13:22 25.03.2021
1066 Clouds 10 1023 87 10000 3.09 250 12:41 25.03.2021
1067 Clouds 10 1023 87 10000 3.09 250 12:20 25.03.2021
1068 Clouds 10 1023 82 9000 3.09 250 11:48 25.03.2021
1069 Clouds 10 1023 87 9000 4.12 250 11:26 25.03.2021
1070 Clouds 9 1023 82 10000 2.57 230 10:51 25.03.2021
1071 Clouds 9 1022 87 9000 1.03 0 10:24 25.03.2021
1072 Clouds 9 1022 87 9000 1.54 190 09:55 25.03.2021
1073 Clouds 8 1022 93 8000 2.06 140 09:36 25.03.2021
1074 Clouds 8 1022 93 6000 1.54 0 08:46 25.03.2021
1075 Mist 8 1022 93 3900 1.54 200 07:59 25.03.2021
1076 Clouds 8 1022 87 6000 3.6 240 06:59 25.03.2021
1077 Drizzle 8 1021 93 4400 2.06 230 06:25 25.03.2021
1078 Clouds 8 1021 76 10000 2.57 170 05:49 25.03.2021
1079 Clouds 8 1022 81 10000 1.54 110 02:48 25.03.2021
1080 Clouds 9 1022 76 10000 1.44 336 00:24 25.03.2021
1081 Clouds 9 1022 71 10000 1.44 336 23:51 24.03.2021
1082 Clouds 9 1022 71 10000 1.59 323 23:28 24.03.2021
1083 Clear 10 1022 66 10000 1.54 310 22:49 24.03.2021
1084 Clear 10 1022 66 10000 1.54 320 22:28 24.03.2021
1085 Clear 11 1022 66 10000 1.54 330 21:44 24.03.2021
1086 Clear 11 1022 66 10000 2.57 320 21:24 24.03.2021
1087 Clear 12 1021 47 10000 2.57 310 20:43 24.03.2021
1088 Clear 13 1021 41 10000 3.6 250 20:20 24.03.2021
1089 Clear 14 1021 41 10000 3.6 250 19:49 24.03.2021
1090 Clear 15 1021 38 10000 3.6 260 19:29 24.03.2021
1091 Clear 16 1021 36 10000 3.6 270 18:51 24.03.2021
1092 Clear 17 1020 36 10000 4.12 230 18:23 24.03.2021
1093 Clear 17 1020 32 10000 3.6 220 17:52 24.03.2021
1094 Clear 18 1020 34 10000 3.6 200 17:32 24.03.2021
1095 Clear 18 1021 32 10000 4.12 210 16:53 24.03.2021
1096 Clear 18 1021 32 10000 4.63 200 16:31 24.03.2021
1097 Clear 18 1021 34 10000 4.63 210 15:50 24.03.2021
1098 Clear 18 1021 34 10000 4.63 210 15:32 24.03.2021
1099 Clear 17 1021 36 10000 3.09 220 14:48 24.03.2021
1100 Clear 17 1022 42 10000 4.63 190 14:27 24.03.2021
1101 Clear 16 1022 39 10000 4.63 180 13:57 24.03.2021
1102 Clear 16 1023 41 10000 5.14 210 13:28 24.03.2021
1103 Clear 15 1023 44 10000 3.09 200 12:45 24.03.2021
1104 Clear 15 1023 44 10000 3.09 200 12:23 24.03.2021
1105 Clear 14 1024 51 10000 2.57 220 11:49 24.03.2021
1106 Clear 13 1024 54 10000 2.06 180 10:59 24.03.2021
1107 Clouds 11 1024 62 9000 1.54 0 10:41 24.03.2021
1108 Clouds 11 1024 62 9000 1.54 0 10:22 24.03.2021
1109 Clouds 9 1024 66 6000 1.03 0 09:53 24.03.2021
1110 Mist 8 1024 76 5000 1.54 0 09:22 24.03.2021
1111 Mist 7 1024 81 5000 1.54 120 08:52 24.03.2021
1112 Mist 5 1024 93 4800 1.03 90 08:26 24.03.2021
1113 Mist 4 1024 93 4500 1.54 50 07:41 24.03.2021
1114 Mist 4 1024 93 5000 2.06 50 06:54 24.03.2021
1115 Clouds 4 1024 93 6000 2.06 80 05:35 24.03.2021
1116 Clear 7 1024 81 10000 1.03 20 00:56 24.03.2021
1117 Clear 7 1024 75 10000 1.54 30 00:28 24.03.2021
1118 Clear 8 1024 81 10000 1.03 30 23:22 23.03.2021
1119 Clear 8 1025 76 10000 1.54 100 22:58 23.03.2021
1120 Clear 8 1025 76 10000 1.03 110 22:40 23.03.2021
1121 Clear 8 1024 76 10000 1.54 100 21:59 23.03.2021
1122 Clear 9 1025 71 10000 1.03 100 21:40 23.03.2021
1123 Clear 9 1025 71 10000 1.03 100 21:19 23.03.2021
1124 Clear 10 1025 66 10000 2.57 80 20:42 23.03.2021
1125 Clear 10 1025 66 10000 2.57 80 20:23 23.03.2021
1126 Clear 12 1024 47 10000 1.54 140 19:45 23.03.2021
1127 Clear 13 1024 47 10000 1.54 140 19:25 23.03.2021
1128 Clear 13 1024 47 10000 2.06 160 18:43 23.03.2021
1129 Clear 13 1024 41 10000 2.06 170 18:21 23.03.2021
1130 Clear 14 1024 38 10000 0.51 0 17:44 23.03.2021
1131 Clear 14 1024 38 10000 0.51 0 17:21 23.03.2021
1132 Clear 14 1024 38 10000 0.51 0 17:21 23.03.2021
1133 Clear 14 1025 38 10000 1.54 0 16:26 23.03.2021
1134 Clear 14 1025 38 10000 1.54 0 15:59 23.03.2021
1135 Clear 14 1025 41 10000 2.06 0 15:38 23.03.2021
1136 Clear 13 1026 44 10000 2.57 130 14:51 23.03.2021
1137 Clear 13 1026 44 10000 2.06 130 14:21 23.03.2021
1138 Clear 12 1026 43 10000 1.54 0 13:50 23.03.2021
1139 Clear 12 1027 47 10000 1.54 150 13:26 23.03.2021
1140 Clear 12 1027 47 10000 1.54 150 13:26 23.03.2021
1141 Clear 11 1027 50 10000 2.06 0 12:59 23.03.2021
1142 Clear 11 1027 50 10000 2.57 0 12:39 23.03.2021
1143 Clear 10 1027 50 10000 2.06 150 12:19 23.03.2021
1144 Clear 9 1027 50 10000 1.54 160 11:42 23.03.2021
1145 Clear 8 1027 61 10000 1.03 0 10:44 23.03.2021
1146 Clear 8 1027 61 10000 1.03 0 10:23 23.03.2021
1147 Clouds 7 1027 70 9000 1.03 0 09:58 23.03.2021
1148 Clouds 6 1027 81 8000 1.03 0 09:36 23.03.2021
1149 Clouds 5 1027 81 7000 1.03 40 09:18 23.03.2021
1150 Clouds 3 1027 87 8000 1.03 30 08:39 23.03.2021
1151 Clouds 3 1027 87 8000 1.03 30 08:20 23.03.2021
1152 Clouds 2 1027 86 8000 1.54 40 07:28 23.03.2021
1153 Clouds 1 1027 86 8000 1.54 40 07:28 23.03.2021
1154 Clouds 1 1027 86 9000 1.54 30 06:59 23.03.2021
1155 Clouds 2 1027 86 9000 1.54 30 06:24 23.03.2021
1156 Clouds 2 1027 87 10000 2.06 350 03:21 23.03.2021
1157 Clear 4 1027 87 10000 1.54 340 01:34 23.03.2021
1158 Clouds 6 1027 70 10000 1.03 140 23:33 22.03.2021
1159 Clouds 7 1027 70 10000 1.03 140 22:54 22.03.2021
1160 Clouds 7 1027 65 10000 1.54 80 22:36 22.03.2021
1161 Clouds 7 1027 70 10000 1.54 70 22:18 22.03.2021
1162 Clouds 7 1027 65 10000 1.54 0 21:40 22.03.2021
1163 Clouds 7 1027 65 10000 1.54 0 21:21 22.03.2021
1164 Clouds 7 1027 70 10000 2.57 90 20:41 22.03.2021
1165 Clouds 7 1027 70 10000 2.57 90 20:21 22.03.2021
1166 Clouds 7 1027 70 10000 2.06 80 19:52 22.03.2021
1167 Clouds 8 1027 66 10000 2.57 60 19:30 22.03.2021
1168 Clouds 8 1026 61 10000 3.09 30 18:47 22.03.2021
1169 Clouds 8 1026 61 10000 3.09 30 18:28 22.03.2021
1170 Clouds 8 1026 61 10000 3.09 10 17:58 22.03.2021
1171 Clouds 8 1026 61 10000 3.09 10 17:38 22.03.2021
1172 Clouds 8 1026 61 10000 4.63 20 17:19 22.03.2021
1173 Clouds 8 1026 57 10000 4.63 30 16:43 22.03.2021
1174 Clouds 8 1027 61 10000 4.63 30 15:59 22.03.2021
1175 Clouds 8 1027 61 10000 4.12 20 15:38 22.03.2021
1176 Clouds 8 1027 57 10000 3.6 10 15:18 22.03.2021
1177 Clouds 7 1027 57 10000 3.6 10 14:51 22.03.2021
1178 Clouds 8 1027 57 10000 2.06 330 14:32 22.03.2021
1179 Clouds 7 1028 61 10000 2.57 360 13:47 22.03.2021
1180 Clouds 7 1028 61 10000 2.57 360 13:26 22.03.2021
1181 Clouds 7 1027 65 10000 4.12 350 12:54 22.03.2021
1182 Clouds 7 1027 65 10000 4.12 350 12:24 22.03.2021
1183 Clouds 7 1027 65 10000 2.06 360 11:49 22.03.2021
1184 Clouds 6 1027 65 10000 2.06 360 11:26 22.03.2021
1185 Clouds 6 1027 75 10000 3.09 10 10:44 22.03.2021
1186 Clouds 7 1027 75 10000 3.09 10 10:24 22.03.2021
1187 Clouds 6 1027 81 10000 3.6 360 09:46 22.03.2021
1188 Clouds 5 1027 75 10000 2.57 350 09:27 22.03.2021
1189 Clouds 5 1027 75 10000 2.57 350 08:45 22.03.2021
1190 Clouds 4 1027 81 10000 2.06 350 08:26 22.03.2021
1191 Clouds 3 1026 81 10000 2.06 350 07:50 22.03.2021
1192 Clouds 3 1026 87 10000 1.54 0 07:30 22.03.2021
1193 Clouds 3 1026 75 10000 2.06 350 06:39 22.03.2021
1194 Clouds 6 1026 65 10000 4.63 10 02:47 22.03.2021
1195 Clouds 6 1026 70 10000 4.63 360 00:43 22.03.2021
1196 Clouds 6 1026 70 10000 4.12 350 23:55 21.03.2021
1197 Clouds 6 1026 65 10000 4.63 10 23:20 21.03.2021
1198 Clouds 7 1026 70 10000 3.09 360 22:59 21.03.2021
1199 Clouds 7 1026 70 10000 4.63 360 22:38 21.03.2021
1200 Clouds 7 1026 65 10000 3.6 360 21:42 21.03.2021
1201 Clouds 7 1026 65 10000 3.6 360 21:24 21.03.2021
1202 Clouds 8 1026 65 10000 5.66 350 20:55 21.03.2021
1203 Clouds 8 1026 61 10000 5.14 10 20:36 21.03.2021
1204 Clouds 8 1025 66 10000 5.66 10 20:18 21.03.2021
1205 Clouds 9 1025 61 10000 4.63 350 19:29 21.03.2021
1206 Clouds 9 1025 61 10000 4.12 360 18:58 21.03.2021
1207 Clouds 10 1025 57 10000 4.63 350 18:40 21.03.2021
1208 Clouds 10 1025 57 10000 4.63 350 18:18 21.03.2021
1209 Clouds 11 1024 58 10000 4.12 360 17:41 21.03.2021
1210 Clouds 11 1024 58 10000 4.12 360 17:18 21.03.2021
1211 Clouds 11 1024 58 10000 5.66 340 16:48 21.03.2021
1212 Clouds 11 1024 57 10000 5.66 350 16:23 21.03.2021
1213 Clouds 11 1025 62 10000 6.69 360 15:42 21.03.2021
1214 Clouds 11 1025 62 10000 6.69 360 15:20 21.03.2021
1215 Clouds 11 1025 62 10000 6.17 340 14:47 21.03.2021
1216 Clouds 11 1025 62 10000 6.17 340 14:27 21.03.2021
1217 Clouds 11 1025 66 10000 4.12 350 13:57 21.03.2021
1218 Clouds 10 1026 76 10000 3.09 350 13:38 21.03.2021
1219 Clouds 9 1026 87 8000 5.14 340 12:43 21.03.2021
1220 Clouds 9 1026 87 8000 5.14 340 12:25 21.03.2021
1221 Clouds 9 1026 87 8000 5.14 340 12:25 21.03.2021
1222 Clouds 8 1026 87 7000 2.57 320 11:41 21.03.2021
1223 Clouds 8 1026 87 7000 2.57 320 11:20 21.03.2021
1224 Clouds 7 1026 87 6000 2.57 230 10:44 21.03.2021
1225 Clouds 7 1026 87 6000 2.57 230 10:26 21.03.2021
1226 Clouds 6 1026 93 6000 1.54 240 09:49 21.03.2021
1227 Clouds 6 1026 87 6000 1.54 250 09:30 21.03.2021
1228 Clouds 5 1026 87 7000 2.06 270 08:56 21.03.2021
1229 Clouds 5 1026 93 7000 2.57 240 08:31 21.03.2021
1230 Clouds 5 1026 87 8000 1.54 0 07:51 21.03.2021
1231 Clouds 4 1026 87 9000 1.54 270 07:28 21.03.2021
1232 Clouds 4 1026 93 10000 2.06 240 06:21 21.03.2021
1233 Clouds 3 1027 93 10000 1.03 0 03:41 21.03.2021
1234 Clear 4 1028 87 10000 3.6 350 00:58 21.03.2021
1235 Clear 4 1028 87 10000 4.12 350 00:38 21.03.2021
1236 Clear 4 1028 87 10000 4.12 350 00:20 21.03.2021
1237 Clear 4 1028 81 10000 4.12 340 23:45 20.03.2021
1238 Clear 5 1028 81 10000 3.6 330 23:19 20.03.2021
1239 Clear 5 1028 81 10000 3.6 340 22:24 20.03.2021
1240 Clear 5 1028 70 10000 1.03 320 21:49 20.03.2021
1241 Clear 6 1028 70 10000 1.03 320 21:27 20.03.2021
1242 Clear 6 1028 65 10000 1.03 320 20:58 20.03.2021
1243 Clear 6 1028 61 10000 0.51 0 20:39 20.03.2021
1244 Clear 6 1028 61 10000 0.51 0 20:21 20.03.2021
1245 Clear 7 1028 57 10000 2.06 10 19:41 20.03.2021
1246 Clear 8 1028 53 10000 3.6 360 19:22 20.03.2021
1247 Clear 9 1028 57 10000 3.09 360 18:45 20.03.2021
1248 Clear 9 1028 57 10000 3.09 360 18:45 20.03.2021
1249 Clear 9 1028 57 10000 3.09 360 18:21 20.03.2021
1250 Clear 9 1028 53 10000 4.63 10 17:44 20.03.2021
1251 Clear 9 1028 49 10000 4.63 350 17:22 20.03.2021
1252 Clear 9 1028 49 10000 4.63 350 16:44 20.03.2021
1253 Clear 9 1028 53 10000 3.09 20 16:20 20.03.2021
1254 Clouds 9 1029 57 10000 4.63 10 15:49 20.03.2021
1255 Clouds 9 1029 57 10000 4.63 10 15:29 20.03.2021
1256 Clouds 8 1029 66 10000 4.63 20 14:42 20.03.2021
1257 Clouds 8 1029 66 10000 4.63 20 14:22 20.03.2021
1258 Clouds 7 1030 61 10000 4.63 10 13:32 20.03.2021
1259 Clouds 7 1030 65 10000 4.63 10 12:44 20.03.2021
1260 Clouds 6 1030 70 10000 4.63 360 12:25 20.03.2021
1261 Clouds 6 1030 75 10000 3.6 10 11:44 20.03.2021
1262 Clouds 6 1030 75 10000 3.6 10 11:24 20.03.2021
1263 Clouds 6 1030 75 10000 3.6 360 10:47 20.03.2021
1264 Clouds 5 1030 75 10000 4.63 360 10:27 20.03.2021
1265 Clouds 4 1030 87 10000 2.57 360 09:54 20.03.2021
1266 Clouds 4 1030 87 10000 3.6 360 09:27 20.03.2021
1267 Clouds 3 1030 93 10000 2.06 360 08:56 20.03.2021
1268 Clouds 2 1030 87 9000 1.54 0 08:29 20.03.2021
1269 Clear 2 1029 93 8000 1.54 350 07:51 20.03.2021
1270 Clear 1 1029 93 6000 2.57 350 07:31 20.03.2021
1271 Clear 1 1029 87 7000 3.6 360 06:47 20.03.2021
1272 Clear 2 1029 87 7000 3.6 350 06:18 20.03.2021
1273 Clear 3 1029 87 8000 3.6 360 03:46 20.03.2021
1274 Clear 3 1028 87 8000 2.57 360 02:44 20.03.2021
1275 Clear 4 1028 70 10000 3.09 360 23:57 19.03.2021
1276 Clear 5 1028 65 10000 2.57 350 23:30 19.03.2021
1277 Clear 5 1028 65 10000 2.06 360 22:48 19.03.2021
1278 Clear 5 1027 65 10000 1.54 360 22:27 19.03.2021
1279 Clear 5 1027 60 10000 2.06 10 21:56 19.03.2021
1280 Clear 6 1026 52 10000 3.09 10 21:22 19.03.2021
1281 Clear 6 1026 52 10000 3.09 10 20:57 19.03.2021
1282 Clear 6 1026 52 10000 3.6 20 20:39 19.03.2021
1283 Clear 6 1026 52 10000 3.6 20 20:21 19.03.2021
1284 Clear 7 1026 52 10000 4.12 20 19:45 19.03.2021
1285 Clear 7 1024 45 10000 8.23 40 19:20 19.03.2021
1286 Clear 7 1025 49 10000 4.63 20 19:20 19.03.2021
1287 Clear 8 1025 46 10000 6.69 30 18:40 19.03.2021
1288 Clear 8 1024 46 10000 8.75 30 18:19 19.03.2021
1289 Clear 8 1024 46 10000 8.75 30 17:55 19.03.2021
1290 Clear 8 1024 46 10000 8.75 40 17:30 19.03.2021
1291 Clear 8 1024 49 10000 8.75 30 16:55 19.03.2021
1292 Clear 8 1024 49 10000 8.75 30 16:29 19.03.2021
1293 Clear 8 1024 46 10000 10.29 30 15:55 19.03.2021
1294 Clouds 8 1023 49 10000 9.26 30 15:26 19.03.2021
1295 Clouds 8 1023 53 10000 7.72 20 14:47 19.03.2021
1296 Clouds 8 1022 53 10000 9.77 40 14:27 19.03.2021
1297 Clouds 8 1023 53 10000 8.23 20 13:40 19.03.2021
1298 Clouds 7 1023 61 10000 7.2 10 12:57 19.03.2021
1299 Clouds 7 1023 65 10000 7.72 10 12:35 19.03.2021
1300 Clouds 6 1022 70 10000 6.69 20 11:44 19.03.2021
1301 Clouds 6 1022 70 10000 7.2 20 10:54 19.03.2021
1302 Clouds 5 1022 75 10000 6.69 10 10:31 19.03.2021
1303 Clouds 5 1022 81 10000 6.17 10 09:49 19.03.2021
1304 Clouds 4 1021 81 10000 6.17 10 09:30 19.03.2021
1305 Clouds 4 1021 81 10000 6.17 10 08:58 19.03.2021
1306 Clouds 4 1021 81 10000 4.63 10 08:39 19.03.2021
1307 Clouds 4 1021 81 10000 4.63 10 08:18 19.03.2021
1308 Clouds 4 1020 87 10000 4.63 360 07:37 19.03.2021
1309 Clouds 4 1020 87 10000 4.12 10 06:51 19.03.2021
1310 Clouds 5 1019 93 10000 3.6 340 03:34 19.03.2021
1311 Rain 6 1020 93 8000 2.57 350 00:58 19.03.2021
1312 Clouds 6 1021 93 10000 4.63 330 23:48 18.03.2021
1313 Rain 6 1021 93 10000 4.63 330 23:25 18.03.2021
1314 Clouds 6 1021 93 10000 4.63 330 22:39 18.03.2021
1315 Clouds 6 1022 93 10000 4.63 330 22:20 18.03.2021
1316 Clouds 7 1022 93 10000 4.63 320 21:39 18.03.2021
1317 Clouds 7 1022 81 10000 4.12 330 20:54 18.03.2021
1318 Clouds 7 1022 81 10000 4.12 330 20:35 18.03.2021
1319 Clouds 7 1022 87 10000 3.09 320 19:59 18.03.2021
1320 Clouds 7 1022 87 10000 3.6 330 19:41 18.03.2021
1321 Clouds 7 1022 87 10000 3.6 330 19:20 18.03.2021
1322 Clouds 7 1023 81 10000 4.63 330 18:35 18.03.2021
1323 Clouds 7 1023 81 10000 4.63 340 17:51 18.03.2021
1324 Clouds 8 1023 81 10000 4.63 350 17:26 18.03.2021
1325 Clouds 8 1023 76 10000 4.63 330 16:49 18.03.2021
1326 Clouds 8 1023 76 10000 4.63 320 16:30 18.03.2021
1327 Clouds 8 1024 76 10000 3.6 330 15:49 18.03.2021
1328 Clouds 8 1024 76 10000 3.6 330 15:30 18.03.2021
1329 Clouds 8 1025 76 10000 3.09 340 14:58 18.03.2021
1330 Clouds 7 1025 81 10000 3.6 330 14:40 18.03.2021
1331 Clouds 7 1025 81 10000 3.6 330 14:40 18.03.2021
1332 Clouds 7 1026 81 10000 3.09 320 13:56 18.03.2021
1333 Clouds 7 1026 87 10000 3.6 320 13:27 18.03.2021
1334 Clouds 8 1026 76 10000 4.12 340 12:47 18.03.2021
1335 Clouds 7 1026 76 10000 4.12 340 12:28 18.03.2021
1336 Clouds 7 1026 76 10000 3.6 340 11:55 18.03.2021
1337 Clouds 7 1027 76 10000 4.12 340 11:34 18.03.2021
1338 Clouds 6 1027 81 10000 4.12 330 10:57 18.03.2021
1339 Clouds 6 1027 81 10000 4.12 340 10:38 18.03.2021
1340 Clouds 6 1027 81 10000 4.12 340 10:20 18.03.2021
1341 Clouds 6 1027 81 10000 4.12 330 09:30 18.03.2021
1342 Clouds 5 1027 87 10000 3.6 330 08:59 18.03.2021
1343 Clouds 5 1028 87 10000 3.09 330 08:41 18.03.2021
1344 Clouds 5 1028 87 10000 3.09 330 08:23 18.03.2021
1345 Clouds 5 1028 87 10000 3.09 330 07:43 18.03.2021
1346 Clouds 4 1028 87 10000 2.57 330 06:43 18.03.2021
1347 Clouds 4 1028 87 10000 2.57 330 06:23 18.03.2021
1348 Clouds 5 1028 87 10000 3.09 330 05:25 18.03.2021
1349 Clouds 6 1029 87 10000 3.09 340 00:40 18.03.2021
1350 Clouds 6 1029 87 10000 3.09 340 23:19 17.03.2021
1351 Clouds 6 1029 87 10000 4.12 340 22:38 17.03.2021
1352 Clouds 6 1029 87 10000 4.12 340 22:20 17.03.2021
1353 Clouds 6 1029 87 10000 3.6 320 21:50 17.03.2021
1354 Clouds 6 1029 87 10000 3.6 320 21:31 17.03.2021
1355 Clouds 6 1029 87 10000 3.6 320 21:31 17.03.2021
1356 Clouds 6 1029 87 10000 3.09 330 20:48 17.03.2021
1357 Clouds 6 1029 87 10000 3.09 340 20:27 17.03.2021
1358 Clouds 6 1029 87 10000 3.6 330 19:59 17.03.2021
1359 Clouds 6 1029 87 10000 4.12 330 19:39 17.03.2021
1360 Clouds 6 1029 87 10000 4.12 330 19:19 17.03.2021
1361 Clouds 6 1029 87 10000 4.12 350 18:49 17.03.2021
1362 Clouds 6 1029 93 10000 4.63 340 18:31 17.03.2021
1363 Clouds 7 1028 87 10000 4.63 340 17:33 17.03.2021
1364 Clouds 7 1028 87 10000 5.14 340 16:59 17.03.2021
1365 Clouds 7 1028 87 10000 4.12 360 16:39 17.03.2021
1366 Clouds 8 1028 76 7000 6.17 340 16:20 17.03.2021
1367 Clouds 9 1028 71 10000 6.69 330 15:45 17.03.2021
1368 Clouds 9 1028 66 10000 6.69 330 15:26 17.03.2021
1369 Clouds 10 1029 62 10000 7.2 330 14:40 17.03.2021
1370 Clouds 10 1029 62 10000 7.2 330 14:19 17.03.2021
1371 Clouds 10 1029 62 10000 7.2 340 13:54 17.03.2021
1372 Clouds 10 1029 62 10000 7.2 340 13:24 17.03.2021
1373 Clouds 9 1029 62 10000 5.66 340 12:48 17.03.2021
1374 Clouds 9 1029 71 10000 4.63 340 12:27 17.03.2021
1375 Clouds 8 1030 76 10000 4.63 330 11:42 17.03.2021
1376 Clouds 8 1030 76 10000 4.63 330 11:23 17.03.2021
1377 Clouds 8 1030 76 10000 5.66 340 10:53 17.03.2021
1378 Clouds 8 1029 81 10000 4.63 330 10:24 17.03.2021
1379 Clouds 7 1029 87 10000 3.6 320 09:46 17.03.2021
1380 Clouds 7 1029 87 10000 3.09 340 09:21 17.03.2021
1381 Drizzle 6 1029 93 10000 3.09 350 08:55 17.03.2021
1382 Clouds 6 1029 87 10000 4.63 350 08:35 17.03.2021
1383 Clouds 6 1029 87 10000 4.63 340 07:48 17.03.2021
1384 Drizzle 6 1029 87 10000 4.63 350 07:19 17.03.2021
1385 Clouds 7 1028 81 10000 6.69 340 06:38 17.03.2021
1386 Clouds 7 1027 71 10000 8.23 340 04:20 17.03.2021
1387 Clouds 7 1027 76 10000 5.14 320 02:49 17.03.2021
1388 Clouds 8 1027 76 10000 6.17 340 00:40 17.03.2021
1389 Clouds 9 1026 76 10000 7.72 330 23:29 16.03.2021
1390 Clouds 10 1026 87 10000 4.63 310 22:51 16.03.2021
1391 Clouds 10 1026 87 10000 3.09 310 22:33 16.03.2021
1392 Clouds 10 1026 87 10000 4.12 320 21:49 16.03.2021
1393 Clouds 10 1025 93 10000 3.6 290 21:31 16.03.2021
1394 Clouds 10 1025 87 10000 4.63 300 20:59 16.03.2021
1395 Clouds 10 1025 87 10000 4.63 300 20:59 16.03.2021
1396 Clouds 10 1025 87 10000 4.12 300 20:20 16.03.2021
1397 Clouds 10 1025 87 10000 3.6 290 19:58 16.03.2021
1398 Clouds 10 1025 87 10000 3.09 300 19:40 16.03.2021
1399 Clouds 10 1025 87 10000 3.09 300 19:20 16.03.2021
1400 Clouds 10 1025 87 10000 4.12 310 18:44 16.03.2021
1401 Clouds 10 1025 87 10000 4.12 310 18:26 16.03.2021
1402 Clouds 10 1025 87 10000 4.12 300 17:48 16.03.2021
1403 Clouds 9 1024 93 9000 3.09 270 17:30 16.03.2021
1404 Clouds 9 1025 93 6000 3.09 260 16:53 16.03.2021
1405 Clouds 9 1025 93 6000 4.12 250 16:30 16.03.2021
1406 Clouds 9 1025 93 7000 3.6 240 15:47 16.03.2021
1407 Clouds 8 1025 93 7000 3.6 240 15:21 16.03.2021
1408 Mist 8 1026 87 5000 4.12 240 14:58 16.03.2021
1409 Mist 8 1026 93 4800 3.6 230 14:40 16.03.2021
1410 Mist 8 1026 93 4800 3.6 230 14:40 16.03.2021
1411 Mist 8 1026 93 4800 3.6 230 14:21 16.03.2021
1412 Mist 8 1027 93 3100 3.09 230 13:54 16.03.2021
1413 Rain 8 1027 93 4700 2.57 230 13:27 16.03.2021
1414 Rain 8 1028 93 3900 2.57 250 12:54 16.03.2021
1415 Rain 8 1028 93 5000 3.09 240 12:35 16.03.2021
1416 Rain 7 1028 93 5000 3.09 240 11:54 16.03.2021
1417 Rain 7 1028 93 6000 3.09 260 11:28 16.03.2021
1418 Mist 7 1028 93 4700 2.57 250 10:45 16.03.2021
1419 Mist 7 1028 93 4700 2.57 250 10:20 16.03.2021
1420 Mist 6 1028 93 5000 2.57 250 09:39 16.03.2021
1421 Mist 6 1028 93 5000 2.57 250 09:19 16.03.2021
1422 Mist 5 1028 100 5000 1.54 230 08:49 16.03.2021
1423 Mist 5 1027 100 5000 2.06 220 08:31 16.03.2021
1424 Clouds 4 1027 93 6000 1.54 230 07:38 16.03.2021
1425 Clouds 4 1027 93 7000 1.71 290 06:57 16.03.2021
1426 Clouds 4 1027 93 8000 1.03 220 06:37 16.03.2021
1427 Clouds 3 1027 100 7000 1.59 286 05:35 16.03.2021
1428 Clouds 4 1027 100 7000 1.27 288 02:46 16.03.2021
1429 Clear 4 1026 87 10000 1.03 250 02:25 16.03.2021
1430 Clear 5 1026 93 10000 1.03 0 00:25 16.03.2021
1431 Clear 5 1025 87 10000 1.54 0 23:37 15.03.2021
1432 Clear 5 1025 87 10000 1.54 0 23:18 15.03.2021
1433 Clear 6 1025 81 10000 2.06 310 22:42 15.03.2021
1434 Clear 6 1025 81 10000 2.06 310 22:23 15.03.2021
1435 Clear 7 1024 81 10000 2.57 320 21:47 15.03.2021
1436 Clear 8 1024 76 10000 3.09 310 21:27 15.03.2021
1437 Clear 8 1024 76 10000 3.09 320 20:47 15.03.2021
1438 Clear 8 1024 76 10000 4.12 300 20:27 15.03.2021
1439 Clear 8 1023 71 10000 4.12 310 19:57 15.03.2021
1440 Clear 9 1023 76 10000 4.63 310 19:39 15.03.2021
1441 Clear 9 1023 76 10000 4.63 310 19:21 15.03.2021
1442 Clouds 9 1022 71 10000 4.63 300 18:41 15.03.2021
1443 Clouds 9 1022 71 10000 4.63 300 18:22 15.03.2021
1444 Clear 9 1021 66 10000 4.63 310 17:49 15.03.2021
1445 Clear 9 1021 66 10000 4.63 310 17:22 15.03.2021
1446 Clear 9 1021 71 10000 5.14 310 16:44 15.03.2021
1447 Clouds 10 1020 66 10000 5.66 300 15:56 15.03.2021
1448 Clouds 10 1020 71 10000 4.63 310 15:28 15.03.2021
1449 Clear 10 1020 66 10000 6.17 330 14:56 15.03.2021
1450 Clear 9 1020 71 10000 6.17 320 14:38 15.03.2021
1451 Clear 9 1020 71 10000 6.17 320 14:19 15.03.2021
1452 Clouds 10 1020 76 10000 6.69 340 13:44 15.03.2021
1453 Clouds 10 1020 76 10000 6.69 340 13:23 15.03.2021
1454 Clouds 10 1019 66 10000 6.69 310 12:46 15.03.2021
1455 Clouds 10 1018 66 10000 5.66 310 12:18 15.03.2021
1456 Clouds 11 1018 66 10000 5.66 310 11:45 15.03.2021
1457 Clouds 10 1018 71 10000 4.63 310 11:26 15.03.2021
1458 Clouds 9 1018 81 10000 5.14 300 10:44 15.03.2021
1459 Clouds 9 1018 81 10000 5.14 300 10:24 15.03.2021
1460 Clouds 8 1017 76 10000 4.63 290 09:48 15.03.2021
1461 Clouds 8 1017 76 10000 4.63 290 09:30 15.03.2021
1462 Mist 8 1017 87 4400 7.2 310 08:47 15.03.2021
1463 Clouds 8 1016 87 10000 3.6 290 08:27 15.03.2021
1464 Clouds 8 1016 87 10000 4.12 290 07:43 15.03.2021
1465 Clouds 8 1016 87 10000 4.63 280 07:22 15.03.2021
1466 Clouds 8 1016 87 8000 5.14 290 06:21 15.03.2021
1467 Clouds 7 1016 87 10000 5.14 250 03:59 15.03.2021
1468 Clouds 7 1018 87 10000 5.66 250 01:20 15.03.2021
1469 Clouds 7 1019 76 10000 5.14 250 23:45 14.03.2021
1470 Clouds 7 1019 76 10000 5.14 250 23:19 14.03.2021
1471 Clouds 7 1019 71 10000 4.12 250 22:39 14.03.2021
1472 Clouds 7 1019 71 10000 4.63 250 22:18 14.03.2021
1473 Clouds 8 1019 71 10000 4.12 250 21:44 14.03.2021
1474 Clouds 8 1019 71 10000 4.12 270 21:18 14.03.2021
1475 Clouds 8 1019 71 10000 4.12 270 20:43 14.03.2021
1476 Clouds 8 1019 71 10000 4.63 260 20:24 14.03.2021
1477 Clear 8 1019 71 10000 5.14 270 19:42 14.03.2021
1478 Clear 9 1019 66 10000 5.14 270 19:22 14.03.2021
1479 Clouds 9 1019 61 10000 7.2 270 18:46 14.03.2021
1480 Clouds 10 1019 71 10000 4.63 280 18:22 14.03.2021
1481 Clouds 10 1019 71 10000 6.17 300 17:39 14.03.2021
1482 Clouds 10 1019 71 10000 6.17 300 17:20 14.03.2021
1483 Clouds 10 1018 58 10000 5.66 280 16:46 14.03.2021
1484 Clouds 11 1018 58 10000 5.66 280 16:24 14.03.2021
1485 Clouds 11 1018 54 10000 7.2 280 15:52 14.03.2021
1486 Clouds 11 1018 54 10000 6.17 280 15:30 14.03.2021
1487 Clouds 11 1018 50 10000 6.17 270 14:41 14.03.2021
1488 Clouds 11 1018 50 10000 6.17 270 14:20 14.03.2021
1489 Clouds 10 1017 58 10000 6.17 270 13:49 14.03.2021
1490 Clouds 10 1017 58 10000 6.17 270 13:28 14.03.2021
1491 Clouds 10 1017 57 10000 5.66 300 12:45 14.03.2021
1492 Clouds 9 1017 62 10000 5.14 290 12:27 14.03.2021
1493 Clouds 9 1017 62 10000 5.14 290 12:27 14.03.2021
1494 Clouds 9 1017 66 10000 5.66 290 11:47 14.03.2021
1495 Clouds 9 1016 71 10000 5.14 280 11:29 14.03.2021
1496 Clouds 8 1016 71 10000 6.17 280 10:56 14.03.2021
1497 Clouds 8 1016 76 10000 5.66 280 10:36 14.03.2021
1498 Clouds 8 1016 76 10000 5.66 280 10:18 14.03.2021
1499 Clouds 6 1015 87 10000 5.66 250 09:42 14.03.2021
1500 Clouds 6 1015 87 10000 5.66 250 09:21 14.03.2021
1501 Clouds 5 1014 93 10000 4.12 240 08:40 14.03.2021
1502 Clouds 5 1014 93 10000 4.12 240 08:18 14.03.2021
1503 Clouds 5 1014 93 10000 4.12 240 08:18 14.03.2021
1504 Clouds 5 1013 87 10000 4.12 230 07:35 14.03.2021
1505 Clouds 4 1012 93 10000 5.14 230 06:27 14.03.2021
1506 Clouds 3 1011 87 10000 4.12 250 02:21 14.03.2021
1507 Clouds 3 1009 93 10000 5.14 230 00:50 14.03.2021
1508 Rain 3 1009 93 10000 7.2 260 00:19 14.03.2021
1509 Rain 4 1009 93 10000 5.14 300 23:42 13.03.2021
1510 Clouds 5 1009 93 10000 5.14 300 23:22 13.03.2021
1511 Clouds 5 1008 87 10000 5.14 290 22:50 13.03.2021
1512 Clouds 5 1008 87 10000 5.14 290 22:25 13.03.2021
1513 Clouds 6 1006 81 10000 4.63 240 21:41 13.03.2021
1514 Clouds 6 1006 81 10000 4.12 240 21:20 13.03.2021
1515 Clouds 6 1006 81 10000 4.12 240 20:49 13.03.2021
1516 Clouds 6 1006 81 10000 4.12 260 20:30 13.03.2021
1517 Clouds 6 1006 81 10000 4.12 260 20:30 13.03.2021
1518 Clouds 6 1005 81 10000 5.66 240 19:47 13.03.2021
1519 Clouds 6 1005 81 10000 5.66 240 19:29 13.03.2021
1520 Clouds 8 1004 81 10000 4.63 270 18:43 13.03.2021
1521 Clouds 8 1004 81 10000 4.63 270 18:22 13.03.2021
1522 Clouds 8 1004 87 10000 3.6 260 17:58 13.03.2021
1523 Clouds 8 1004 71 10000 5.14 240 17:40 13.03.2021
1524 Clouds 8 1004 71 10000 4.63 220 17:21 13.03.2021
1525 Clouds 9 1004 71 10000 6.69 240 16:42 13.03.2021
1526 Clouds 9 1004 71 10000 8.23 260 15:59 13.03.2021
1527 Clouds 10 1004 76 10000 5.14 260 15:25 13.03.2021
1528 Clouds 11 1004 50 9000 9.26 270 14:47 13.03.2021
1529 Clouds 11 1004 50 7000 11.32 250 14:25 13.03.2021
1530 Clouds 11 1004 50 7000 11.32 250 14:25 13.03.2021
1531 Clouds 11 1004 57 6000 12.35 260 13:47 13.03.2021
1532 Clouds 10 1004 54 10000 9.26 240 13:24 13.03.2021
1533 Clouds 10 1004 71 10000 7.2 250 12:43 13.03.2021
1534 Clouds 10 1004 81 6000 9.77 270 12:20 13.03.2021
1535 Clouds 10 1003 76 10000 8.23 240 11:46 13.03.2021
1536 Clouds 9 1003 76 10000 8.23 240 11:28 13.03.2021
1537 Clouds 9 1003 71 10000 8.75 240 10:49 13.03.2021
1538 Rain 8 1003 71 10000 8.75 240 10:25 13.03.2021
1539 Clouds 8 1002 71 10000 8.75 230 09:47 13.03.2021
1540 Clouds 7 1002 81 10000 6.69 240 08:58 13.03.2021
1541 Clouds 7 1002 87 10000 5.14 230 08:39 13.03.2021
1542 Clouds 7 1002 87 10000 5.14 230 08:19 13.03.2021
1543 Clouds 8 1001 87 7000 8.23 260 07:41 13.03.2021
1544 Clouds 9 1001 81 10000 10.8 210 06:18 13.03.2021
1545 Clouds 9 1005 81 10000 10.29 200 02:54 13.03.2021
1546 Clouds 8 1007 81 10000 6.17 220 00:51 13.03.2021
1547 Clouds 7 1008 87 10000 6.69 210 23:57 12.03.2021
1548 Clouds 7 1009 81 10000 6.17 210 23:32 12.03.2021
1549 Clouds 7 1009 81 10000 5.66 200 22:43 12.03.2021
1550 Clouds 7 1009 81 10000 5.66 200 22:23 12.03.2021
1551 Clouds 7 1009 81 10000 5.66 220 21:45 12.03.2021
1552 Clouds 7 1009 81 10000 5.66 220 21:26 12.03.2021
1553 Clear 7 1009 81 10000 5.14 220 20:56 12.03.2021
1554 Clouds 7 1009 81 10000 4.63 230 20:32 12.03.2021
1555 Clouds 8 1010 87 10000 5.14 210 19:59 12.03.2021
1556 Rain 8 1009 87 10000 4.63 220 19:40 12.03.2021
1557 Clouds 8 1009 87 10000 4.63 220 19:21 12.03.2021
1558 Rain 9 1009 76 10000 6.17 230 18:36 12.03.2021
1559 Clouds 9 1009 76 10000 6.69 230 17:54 12.03.2021
1560 Clouds 8 1010 81 10000 5.14 240 17:36 12.03.2021
1561 Clouds 8 1010 81 10000 5.14 240 17:18 12.03.2021
1562 Clouds 9 1010 71 10000 10.29 250 16:40 12.03.2021
1563 Rain 12 1009 58 10000 8.75 230 15:52 12.03.2021
1564 Clouds 11 1009 58 10000 7.72 230 15:31 12.03.2021
1565 Clouds 12 1010 54 10000 8.23 240 14:48 12.03.2021
1566 Clouds 12 1011 58 10000 9.77 220 14:21 12.03.2021
1567 Clouds 11 1011 58 10000 9.26 220 13:44 12.03.2021
1568 Clouds 11 1011 58 10000 9.26 220 13:23 12.03.2021
1569 Clouds 11 1011 58 10000 8.75 230 12:57 12.03.2021
1570 Clouds 11 1012 62 10000 8.75 230 12:38 12.03.2021
1571 Clouds 11 1012 62 10000 8.75 230 12:38 12.03.2021
1572 Clouds 11 1012 62 10000 8.75 230 12:19 12.03.2021
1573 Clouds 10 1012 66 10000 8.75 220 11:50 12.03.2021
1574 Clouds 10 1013 66 10000 8.23 220 11:22 12.03.2021
1575 Clouds 9 1013 76 10000 6.69 210 10:50 12.03.2021
1576 Clouds 8 1013 71 10000 7.2 210 10:25 12.03.2021
1577 Clouds 7 1013 76 10000 7.2 210 09:54 12.03.2021
1578 Clouds 7 1013 76 10000 7.2 210 09:54 12.03.2021
1579 Clouds 6 1013 76 10000 6.17 210 09:24 12.03.2021
1580 Clouds 5 1013 81 10000 5.14 210 08:44 12.03.2021
1581 Clouds 5 1013 87 10000 4.12 220 07:57 12.03.2021
1582 Clear 5 1013 81 10000 3.6 210 07:32 12.03.2021
1583 Clouds 5 1013 87 10000 3.6 230 06:51 12.03.2021
1584 Clouds 5 1013 81 10000 5.66 220 06:26 12.03.2021
1585 Clouds 6 1014 87 10000 4.12 240 02:41 12.03.2021
1586 Clouds 7 1012 70 10000 7.2 240 00:42 12.03.2021
1587 Clear 7 1011 66 10000 7.72 240 23:30 11.03.2021
1588 Clouds 7 1011 66 10000 8.75 250 22:49 11.03.2021
1589 Clouds 7 1010 76 10000 7.2 250 22:29 11.03.2021
1590 Clouds 8 1010 76 10000 6.69 250 21:51 11.03.2021
1591 Clear 8 1010 66 10000 8.75 240 21:30 11.03.2021
1592 Clouds 8 1009 71 10000 9.26 230 20:55 11.03.2021
1593 Clouds 8 1008 71 10000 8.23 240 20:37 11.03.2021
1594 Clouds 9 1008 71 10000 8.23 240 20:19 11.03.2021
1595 Clear 9 1007 71 10000 6.69 230 19:41 11.03.2021
1596 Clear 9 1007 71 10000 6.69 230 19:22 11.03.2021
1597 Clear 10 1006 71 10000 6.17 240 18:46 11.03.2021
1598 Clear 10 1006 71 10000 6.17 240 18:28 11.03.2021
1599 Clouds 10 1006 76 10000 5.66 230 17:43 11.03.2021
1600 Rain 11 1007 76 7000 9.77 280 16:47 11.03.2021
1601 Clouds 12 1005 62 10000 10.29 230 16:27 11.03.2021
1602 Clouds 12 1005 58 10000 8.23 240 15:48 11.03.2021
1603 Rain 12 1005 58 10000 8.23 240 15:21 11.03.2021
1604 Rain 12 1005 58 10000 8.23 240 15:21 11.03.2021
1605 Clouds 13 1005 62 10000 7.72 240 14:46 11.03.2021
1606 Clouds 14 1005 62 10000 11.83 240 14:19 11.03.2021
1607 Clear 14 1005 47 10000 8.75 240 13:46 11.03.2021
1608 Clouds 14 1005 47 10000 10.8 230 13:28 11.03.2021
1609 Clouds 14 1005 51 10000 12.86 230 12:57 11.03.2021
1610 Clouds 14 1005 54 10000 12.35 230 12:38 11.03.2021
1611 Clouds 14 1005 54 10000 12.35 230 12:20 11.03.2021
1612 Clouds 14 1005 62 10000 11.83 230 11:43 11.03.2021
1613 Clouds 14 1005 58 10000 8.75 240 11:21 11.03.2021
1614 Clear 13 1005 67 10000 8.23 230 10:39 11.03.2021
1615 Clear 12 1005 67 10000 10.29 240 10:19 11.03.2021
1616 Clouds 12 1005 76 10000 9.26 230 09:39 11.03.2021
1617 Clouds 11 1005 76 10000 9.26 230 09:21 11.03.2021
1618 Clouds 12 1004 93 10000 7.2 220 08:47 11.03.2021
1619 Clouds 11 1004 87 10000 8.23 200 08:18 11.03.2021
1620 Drizzle 11 1004 93 10000 6.69 220 07:29 11.03.2021
1621 Clouds 11 1004 87 10000 9.77 200 06:50 11.03.2021
1622 Clouds 11 1004 87 10000 9.26 200 06:30 11.03.2021
1623 Clouds 9 1006 87 10000 9.26 200 03:42 11.03.2021
1624 Clouds 8 1008 81 10000 8.75 200 00:59 11.03.2021
1625 Clouds 8 1010 87 10000 9.77 200 23:32 10.03.2021
1626 Drizzle 8 1011 87 9000 9.26 200 22:57 10.03.2021
1627 Clouds 7 1011 93 7000 7.2 190 22:33 10.03.2021
1628 Clouds 7 1012 87 7000 7.2 190 21:47 10.03.2021
1629 Clouds 7 1012 87 7000 7.2 190 21:25 10.03.2021
1630 Mist 8 1013 81 5000 9.26 190 20:48 10.03.2021
1631 Mist 8 1013 81 5000 9.26 190 20:48 10.03.2021
1632 Clouds 8 1013 76 10000 9.77 190 20:30 10.03.2021
1633 Clouds 8 1013 76 10000 8.23 190 19:54 10.03.2021
1634 Clouds 8 1013 71 10000 7.72 190 19:30 10.03.2021
1635 Clouds 8 1013 71 10000 6.17 180 18:55 10.03.2021
1636 Rain 8 1014 71 10000 7.2 190 18:36 10.03.2021
1637 Rain 8 1014 71 10000 7.2 190 18:18 10.03.2021
1638 Clear 9 1014 46 10000 9.77 190 17:41 10.03.2021
1639 Rain 10 1015 43 10000 8.75 200 17:19 10.03.2021
1640 Clear 10 1015 43 10000 8.75 200 16:47 10.03.2021
1641 Clear 10 1015 43 10000 8.23 190 16:25 10.03.2021
1642 Clear 10 1015 43 10000 8.75 200 15:49 10.03.2021
1643 Clear 10 1016 40 10000 8.23 200 15:25 10.03.2021
1644 Clear 11 1016 43 10000 9.77 200 14:57 10.03.2021
1645 Clear 11 1016 46 10000 8.75 200 14:22 10.03.2021
1646 Clear 11 1017 43 10000 10.29 200 13:54 10.03.2021
1647 Clear 10 1018 43 10000 10.29 200 13:31 10.03.2021
1648 Clear 10 1018 50 10000 8.75 210 12:48 10.03.2021
1649 Clouds 10 1018 50 9000 9.77 210 12:28 10.03.2021
1650 Clear 10 1018 53 10000 8.23 210 11:53 10.03.2021
1651 Clear 9 1019 57 10000 6.17 190 11:28 10.03.2021
1652 Clouds 8 1019 57 9000 5.66 190 10:51 10.03.2021
1653 Clear 8 1019 61 10000 6.69 190 10:33 10.03.2021
1654 Clouds 6 1020 76 8000 4.12 170 09:56 10.03.2021
1655 Clouds 5 1020 81 8000 3.6 180 09:38 10.03.2021
1656 Clouds 3 1020 87 8000 2.57 160 09:18 10.03.2021
1657 Clear 3 1020 87 10000 0.51 0 08:44 10.03.2021
1658 Clear 3 1020 87 10000 0.51 0 08:26 10.03.2021
1659 Clear 3 1020 87 10000 1.54 130 07:44 10.03.2021
1660 Clear 3 1020 87 10000 1.54 0 07:24 10.03.2021
1661 Clear 3 1020 87 10000 1.54 110 06:52 10.03.2021
1662 Clear 2 1021 80 10000 1.03 360 02:44 10.03.2021
1663 Clear 4 1021 70 10000 0.51 0 00:36 10.03.2021
1664 Clear 6 1021 70 10000 1.03 340 23:33 09.03.2021
1665 Clear 6 1021 65 10000 1.03 0 22:56 09.03.2021
1666 Clear 6 1021 61 10000 1.03 200 22:37 09.03.2021
1667 Clear 6 1021 61 10000 1.03 200 22:18 09.03.2021
1668 Clear 7 1021 53 10000 1.54 290 21:42 09.03.2021
1669 Clear 7 1021 53 10000 2.06 330 21:20 09.03.2021
1670 Clear 7 1021 53 10000 2.06 330 20:55 09.03.2021
1671 Clear 8 1021 50 10000 2.06 320 20:37 09.03.2021
1672 Clear 8 1021 50 10000 2.06 320 20:18 09.03.2021
1673 Clear 9 1020 50 10000 2.06 310 19:43 09.03.2021
1674 Clear 9 1020 50 10000 2.06 310 19:24 09.03.2021
1675 Clear 11 1019 46 10000 2.57 340 18:42 09.03.2021
1676 Clear 11 1019 46 10000 2.57 340 18:19 09.03.2021
1677 Clear 12 1019 47 10000 2.06 310 17:46 09.03.2021
1678 Clear 12 1019 47 10000 3.6 310 17:26 09.03.2021
1679 Clouds 12 1019 50 10000 3.09 290 16:41 09.03.2021
1680 Clouds 12 1019 50 10000 3.09 290 16:21 09.03.2021
1681 Clouds 12 1020 54 10000 2.06 300 15:56 09.03.2021
1682 Clouds 12 1020 54 10000 4.12 280 15:28 09.03.2021
1683 Clouds 11 1020 54 10000 4.63 300 14:52 09.03.2021
1684 Clouds 11 1020 54 10000 4.63 310 14:26 09.03.2021
1685 Clear 11 1021 54 10000 3.09 260 13:43 09.03.2021
1686 Clouds 10 1021 57 8000 4.63 240 13:21 09.03.2021
1687 Clouds 10 1021 57 8000 4.63 240 12:54 09.03.2021
1688 Clouds 10 1021 57 8000 4.63 240 12:54 09.03.2021
1689 Clouds 9 1021 57 10000 3.09 270 12:36 09.03.2021
1690 Clouds 9 1021 57 10000 3.6 280 11:58 09.03.2021
1691 Clear 8 1021 61 10000 2.57 240 11:39 09.03.2021
1692 Clear 8 1021 61 10000 2.57 240 11:19 09.03.2021
1693 Clouds 5 1021 65 8000 1.54 0 10:39 09.03.2021
1694 Clouds 5 1021 65 8000 1.54 0 10:21 09.03.2021
1695 Clouds 4 1021 75 7000 1.54 0 09:47 09.03.2021
1696 Clouds 3 1021 87 7000 1.03 210 09:27 09.03.2021
1697 Clouds 3 1021 87 7000 1.03 210 08:58 09.03.2021
1698 Clouds 2 1021 86 7000 1.03 260 08:34 09.03.2021
1699 Clouds 1 1021 86 7000 1.03 250 07:47 09.03.2021
1700 Clouds 1 1021 86 7000 1.03 250 07:28 09.03.2021
1701 Clouds 1 1021 86 7000 1.03 220 06:59 09.03.2021
1702 Clouds 1 1021 80 7000 0.51 0 05:53 09.03.2021
1703 Clouds 3 1021 70 9000 2.06 340 01:48 09.03.2021
1704 Clouds 4 1021 70 9000 2.06 340 23:59 08.03.2021
1705 Clouds 3 1021 70 9000 2.06 340 23:39 08.03.2021
1706 Clouds 3 1021 70 9000 2.06 360 23:20 08.03.2021
1707 Clouds 3 1022 70 9000 2.06 360 22:41 08.03.2021
1708 Clouds 3 1022 70 9000 2.06 360 22:23 08.03.2021
1709 Clear 3 1022 65 10000 2.57 360 21:50 08.03.2021
1710 Clear 4 1022 65 10000 2.57 360 21:30 08.03.2021
1711 Clear 4 1021 60 10000 2.57 360 20:45 08.03.2021
1712 Clear 4 1021 60 10000 2.57 360 20:24 08.03.2021
1713 Clear 5 1021 56 10000 1.54 350 19:54 08.03.2021
1714 Clear 6 1021 52 10000 2.06 30 19:27 08.03.2021
1715 Clear 7 1021 45 10000 3.09 30 18:38 08.03.2021
1716 Clear 7 1021 45 10000 3.09 30 18:20 08.03.2021
1717 Clear 8 1021 42 10000 3.09 50 17:49 08.03.2021
1718 Clear 8 1021 42 10000 3.09 50 17:24 08.03.2021
1719 Clear 8 1021 46 10000 2.57 40 16:45 08.03.2021
1720 Clear 8 1021 46 10000 3.09 60 16:26 08.03.2021
1721 Clear 8 1021 49 10000 3.09 10 15:48 08.03.2021
1722 Clear 8 1021 49 10000 3.09 10 15:25 08.03.2021
1723 Clear 7 1022 45 10000 4.63 40 14:43 08.03.2021
1724 Clear 7 1022 45 10000 4.63 40 14:20 08.03.2021
1725 Clear 7 1023 49 10000 4.12 30 13:37 08.03.2021
1726 Clear 7 1023 49 10000 4.12 30 13:18 08.03.2021
1727 Clear 6 1023 56 10000 5.14 30 12:42 08.03.2021
1728 Clear 6 1023 56 10000 5.14 30 12:22 08.03.2021
1729 Clear 5 1023 60 10000 5.14 20 11:40 08.03.2021
1730 Clear 5 1023 60 10000 5.14 20 11:18 08.03.2021
1731 Clear 3 1023 70 10000 3.6 10 10:43 08.03.2021
1732 Clear 3 1023 70 10000 3.6 10 10:22 08.03.2021
1733 Clear 2 1023 80 10000 3.6 360 09:41 08.03.2021
1734 Clear 1 1023 80 10000 3.6 360 09:22 08.03.2021
1735 Clear -1 1023 86 7000 3.09 360 08:28 08.03.2021
1736 Clear -1 1023 86 7000 3.6 350 07:24 08.03.2021
1737 Clear -1 1023 86 7000 3.6 350 06:44 08.03.2021
1738 Clear 0 1023 80 7000 2.57 350 03:39 08.03.2021
1739 Clear 2 1023 75 9000 1.03 10 00:44 08.03.2021
1740 Clear 3 1023 75 9000 1.03 0 23:59 07.03.2021
1741 Clear 3 1023 75 10000 1.54 360 23:39 07.03.2021
1742 Clear 3 1023 70 10000 2.06 360 23:19 07.03.2021
1743 Clear 4 1023 70 10000 2.57 360 22:43 07.03.2021
1744 Clear 4 1023 65 10000 2.57 350 22:25 07.03.2021
1745 Clear 4 1023 65 10000 2.57 360 21:45 07.03.2021
1746 Clear 4 1023 65 10000 2.57 360 21:25 07.03.2021
1747 Clear 5 1023 56 10000 3.09 360 20:48 07.03.2021
1748 Clear 6 1023 56 10000 3.09 360 20:30 07.03.2021
1749 Clear 6 1022 56 10000 3.6 360 19:57 07.03.2021
1750 Clear 6 1022 52 10000 4.12 360 19:38 07.03.2021
1751 Clear 6 1022 52 10000 4.12 360 19:20 07.03.2021
1752 Clear 8 1022 42 10000 3.6 350 18:44 07.03.2021
1753 Clear 8 1022 42 10000 4.12 360 18:20 07.03.2021
1754 Clear 9 1022 40 10000 3.09 350 17:42 07.03.2021
1755 Clear 9 1022 40 10000 3.6 360 17:21 07.03.2021
1756 Clear 9 1022 40 10000 3.6 360 16:59 07.03.2021
1757 Clear 9 1022 37 10000 3.09 30 16:38 07.03.2021
1758 Clear 9 1022 37 10000 2.57 360 16:19 07.03.2021
1759 Clear 9 1022 37 10000 2.57 360 15:45 07.03.2021
1760 Clear 9 1022 37 10000 1.54 0 15:23 07.03.2021
1761 Clear 9 1023 42 10000 2.57 40 14:37 07.03.2021
1762 Clear 9 1023 42 10000 2.57 40 14:19 07.03.2021
1763 Clear 8 1024 39 10000 3.6 30 13:41 07.03.2021
1764 Clear 8 1024 39 10000 3.6 30 13:21 07.03.2021
1765 Clear 7 1024 49 10000 3.09 10 12:46 07.03.2021
1766 Clear 7 1024 49 10000 3.09 10 12:28 07.03.2021
1767 Clear 6 1025 56 10000 2.06 10 11:49 07.03.2021
1768 Clear 5 1025 56 10000 2.06 10 11:22 07.03.2021
1769 Clear 3 1025 65 10000 2.06 20 10:44 07.03.2021
1770 Clear 3 1025 65 10000 2.06 20 10:26 07.03.2021
1771 Clear 2 1025 69 10000 2.57 20 09:44 07.03.2021
1772 Clear 1 1025 75 10000 2.06 10 09:25 07.03.2021
1773 Clear 0 1025 80 8000 1.54 10 08:46 07.03.2021
1774 Clear -2 1025 86 8000 2.06 350 08:24 07.03.2021
1775 Clear -1 1025 86 9000 1.03 360 07:34 07.03.2021
1776 Clear 0 1026 75 10000 2.06 10 02:42 07.03.2021
1777 Clear 2 1027 69 10000 4.12 360 01:19 07.03.2021
1778 Clear 3 1027 69 10000 2.57 340 23:50 06.03.2021
1779 Clear 3 1027 65 10000 4.12 360 23:30 06.03.2021
1780 Clear 4 1027 52 10000 3.6 10 22:48 06.03.2021
1781 Clear 4 1027 52 10000 3.6 10 22:29 06.03.2021
1782 Clear 3 1027 56 10000 3.09 10 21:58 06.03.2021
1783 Clear 4 1027 52 10000 2.57 360 21:24 06.03.2021
1784 Clear 4 1027 52 10000 2.57 360 20:53 06.03.2021
1785 Clear 5 1027 48 10000 2.57 10 20:34 06.03.2021
1786 Clear 6 1027 45 10000 3.6 40 19:50 06.03.2021
1787 Clear 6 1027 45 10000 3.6 50 19:23 06.03.2021
1788 Clear 7 1027 45 10000 4.12 60 18:56 06.03.2021
1789 Clear 7 1027 45 10000 4.12 60 18:56 06.03.2021
1790 Clear 8 1027 39 10000 5.14 60 18:38 06.03.2021
1791 Clear 8 1027 39 10000 6.17 60 18:18 06.03.2021
1792 Clear 9 1027 34 10000 6.69 50 17:44 06.03.2021
1793 Clear 9 1027 34 10000 6.69 50 17:24 06.03.2021
1794 Clear 9 1028 34 10000 6.69 50 16:52 06.03.2021
1795 Clear 9 1028 40 10000 5.66 50 16:29 06.03.2021
1796 Clear 9 1028 34 10000 6.17 50 15:54 06.03.2021
1797 Clear 9 1028 34 10000 7.2 50 15:34 06.03.2021
1798 Clear 9 1029 36 10000 6.69 50 14:54 06.03.2021
1799 Clear 8 1029 39 10000 7.2 60 14:30 06.03.2021
1800 Clear 8 1030 45 10000 6.69 40 13:46 06.03.2021
1801 Clear 7 1030 45 10000 6.69 40 13:24 06.03.2021
1802 Clear 6 1030 49 10000 6.17 50 12:48 06.03.2021
1803 Clear 6 1031 48 10000 6.69 50 12:20 06.03.2021
1804 Clear 6 1031 48 10000 6.69 50 11:58 06.03.2021
1805 Clear 5 1031 52 10000 7.2 60 11:23 06.03.2021
1806 Clear 4 1031 60 10000 5.66 50 10:54 06.03.2021
1807 Clear 4 1031 56 10000 6.69 50 10:36 06.03.2021
1808 Clear 3 1031 60 10000 5.66 40 09:56 06.03.2021
1809 Clear 2 1031 64 10000 4.12 40 09:24 06.03.2021
1810 Clear 1 1031 69 10000 3.09 20 08:54 06.03.2021
1811 Clear 1 1030 74 10000 4.12 20 08:30 06.03.2021
1812 Clear 0 1030 74 10000 4.12 30 07:54 06.03.2021
1813 Clear 0 1030 74 10000 3.6 30 07:22 06.03.2021
1814 Clear 0 1030 74 10000 4.63 40 05:52 06.03.2021
1815 Clear 1 1030 69 10000 4.12 30 03:47 06.03.2021
1816 Clear 2 1030 64 10000 4.63 30 01:33 06.03.2021
1817 Clear 2 1030 60 10000 4.12 20 00:46 06.03.2021
1818 Clear 3 1030 60 10000 4.63 20 23:48 05.03.2021
1819 Clear 4 1030 56 10000 4.63 20 23:19 05.03.2021
1820 Clear 4 1030 56 10000 4.12 20 22:43 05.03.2021
1821 Clear 4 1030 56 10000 4.12 20 22:21 05.03.2021
1822 Clear 5 1030 56 10000 3.6 30 21:51 05.03.2021
1823 Clear 5 1030 56 10000 3.6 30 21:29 05.03.2021
1824 Clear 5 1030 56 10000 4.12 40 20:50 05.03.2021
1825 Clouds 5 1029 56 10000 5.14 40 20:25 05.03.2021
1826 Clear 5 1029 56 10000 4.12 30 19:54 05.03.2021
1827 Clouds 5 1029 56 10000 5.66 40 19:26 05.03.2021
1828 Clouds 6 1028 52 10000 5.66 40 18:55 05.03.2021
1829 Clouds 6 1028 52 10000 6.69 40 18:36 05.03.2021
1830 Clouds 6 1028 52 10000 5.14 50 18:18 05.03.2021
1831 Clouds 6 1028 49 10000 7.2 50 17:33 05.03.2021
1832 Clouds 6 1027 52 10000 6.69 40 16:45 05.03.2021
1833 Clouds 6 1027 52 10000 6.69 40 16:24 05.03.2021
1834 Clouds 6 1027 53 10000 6.17 60 15:56 05.03.2021
1835 Clouds 6 1027 52 10000 7.72 50 15:37 05.03.2021
1836 Clouds 6 1027 52 10000 7.72 50 15:18 05.03.2021
1837 Clouds 5 1027 60 10000 5.66 50 14:38 05.03.2021
1838 Clouds 6 1027 60 10000 6.17 40 13:55 05.03.2021
1839 Clouds 6 1027 60 10000 6.17 40 13:55 05.03.2021
1840 Clouds 6 1027 52 10000 6.17 50 13:22 05.03.2021
1841 Clouds 5 1027 56 10000 6.69 60 12:49 05.03.2021
1842 Clouds 4 1027 56 10000 7.2 60 11:56 05.03.2021
1843 Clouds 4 1027 60 10000 6.69 30 11:36 05.03.2021
1844 Clouds 4 1027 65 10000 6.17 30 11:18 05.03.2021
1845 Clouds 4 1027 65 10000 5.66 20 10:40 05.03.2021
1846 Clouds 4 1026 65 10000 4.63 20 10:22 05.03.2021
1847 Clouds 4 1026 65 10000 5.66 40 09:47 05.03.2021
1848 Clouds 4 1026 65 10000 5.66 40 09:26 05.03.2021
1849 Clouds 4 1025 65 10000 4.12 10 08:43 05.03.2021
1850 Clouds 4 1025 65 10000 4.12 10 08:24 05.03.2021
1851 Clouds 4 1025 70 10000 3.6 360 07:44 05.03.2021
1852 Clouds 4 1025 70 10000 3.6 360 07:20 05.03.2021
1853 Clouds 4 1025 70 10000 5.14 350 06:31 05.03.2021
1854 Clouds 5 1024 81 10000 4.63 360 02:51 05.03.2021
1855 Clouds 6 1023 81 10000 4.12 350 00:46 05.03.2021
1856 Clouds 6 1023 87 9000 3.09 350 23:37 04.03.2021
1857 Clouds 7 1023 87 9000 3.6 350 22:47 04.03.2021
1858 Clouds 7 1022 81 10000 3.09 340 22:25 04.03.2021
1859 Clouds 7 1022 87 7000 3.09 350 21:47 04.03.2021
1860 Clouds 7 1022 87 7000 3.09 350 21:28 04.03.2021
1861 Clouds 8 1022 87 8000 4.63 350 20:41 04.03.2021
1862 Clouds 8 1022 87 8000 4.63 350 20:23 04.03.2021
1863 Clouds 9 1022 87 10000 4.12 350 19:58 04.03.2021
1864 Clouds 9 1021 87 10000 3.6 350 19:39 04.03.2021
1865 Clouds 9 1021 87 10000 4.12 340 19:19 04.03.2021
1866 Clouds 9 1021 87 10000 4.63 350 18:41 04.03.2021
1867 Clouds 10 1021 87 10000 4.63 350 18:23 04.03.2021
1868 Clouds 11 1020 76 10000 2.57 300 17:46 04.03.2021
1869 Clouds 11 1020 76 10000 2.57 300 17:27 04.03.2021
1870 Clouds 11 1020 76 10000 2.57 300 17:27 04.03.2021
1871 Clouds 11 1020 82 10000 3.09 290 16:46 04.03.2021
1872 Clouds 11 1020 81 10000 2.57 310 16:25 04.03.2021
1873 Clouds 12 1020 71 10000 2.57 290 15:50 04.03.2021
1874 Clouds 12 1020 71 10000 2.57 290 15:31 04.03.2021
1875 Clouds 12 1021 66 10000 3.6 260 14:49 04.03.2021
1876 Clouds 11 1021 66 10000 4.63 280 14:26 04.03.2021
1877 Clouds 11 1021 76 10000 4.63 260 13:48 04.03.2021
1878 Clouds 11 1021 76 10000 4.63 260 13:30 04.03.2021
1879 Clouds 12 1022 71 10000 2.06 280 12:53 04.03.2021
1880 Clouds 11 1022 76 10000 3.6 290 12:35 04.03.2021
1881 Clouds 12 1022 76 10000 4.12 270 11:47 04.03.2021
1882 Clouds 12 1022 82 10000 3.6 270 11:25 04.03.2021
1883 Clear 10 1022 87 10000 2.57 260 10:52 04.03.2021
1884 Clear 10 1022 87 10000 2.57 260 10:31 04.03.2021
1885 Clear 9 1022 93 10000 3.09 260 09:42 04.03.2021
1886 Clear 8 1022 93 10000 2.06 250 09:21 04.03.2021
1887 Clouds 8 1022 100 9000 0.51 0 08:35 04.03.2021
1888 Clouds 8 1022 100 7000 0.51 0 07:53 04.03.2021
1889 Clouds 8 1022 100 7000 1.03 230 07:29 04.03.2021
1890 Clouds 8 1022 93 8000 1.03 240 06:24 04.03.2021
1891 Clouds 8 1022 100 7000 2.06 250 05:27 04.03.2021
1892 Clouds 11 1024 82 10000 1.03 0 01:43 04.03.2021
1893 Mist 11 1024 82 5000 1.68 269 01:43 04.03.2021
1894 Clouds 11 1024 82 10000 1.03 0 01:43 04.03.2021
1895 Clouds 11 1024 82 10000 1.03 0 01:43 04.03.2021
1896 Clouds 11 1024 82 10000 1.03 0 01:43 04.03.2021
1897 Clouds 12 1025 71 10000 1.03 0 22:44 03.03.2021
1898 Rain 13 1025 62 10000 1.54 220 22:26 03.03.2021
1899 Clear 13 1025 58 10000 1.54 210 21:45 03.03.2021
1900 Clear 13 1025 58 10000 1.54 210 21:45 03.03.2021
1901 Clear 13 1025 58 10000 1.54 210 21:24 03.03.2021
1902 Clear 13 1025 58 10000 2.06 200 20:59 03.03.2021
1903 Clear 13 1026 54 10000 1.54 180 20:41 03.03.2021
1904 Clear 13 1026 54 10000 1.54 190 20:19 03.03.2021
1905 Clear 13 1026 54 10000 1.54 190 20:19 03.03.2021
1906 Clear 13 1026 54 10000 1.54 190 19:42 03.03.2021
1907 Clear 14 1026 51 10000 2.06 190 19:23 03.03.2021
1908 Clear 15 1026 55 10000 3.09 180 18:48 03.03.2021
1909 Clear 16 1026 51 10000 1.54 210 18:29 03.03.2021
1910 Clear 16 1026 48 10000 1.03 0 17:54 03.03.2021
1911 Clear 16 1026 48 10000 1.54 0 17:20 03.03.2021
1912 Clear 17 1027 48 10000 2.57 290 16:44 03.03.2021
1913 Clear 17 1027 48 10000 2.57 290 16:26 03.03.2021
1914 Clear 17 1027 42 10000 2.57 220 15:49 03.03.2021
1915 Clear 17 1027 42 10000 2.57 220 15:28 03.03.2021
1916 Clear 18 1027 42 10000 3.09 180 14:35 03.03.2021
1917 Clear 17 1028 45 10000 3.09 230 13:59 03.03.2021
1918 Clear 17 1028 48 10000 2.06 200 13:38 03.03.2021
1919 Clear 17 1028 48 10000 2.06 200 13:18 03.03.2021
1920 Clouds 16 1029 58 8000 1.03 0 12:41 03.03.2021
1921 Clouds 15 1029 58 8000 1.03 0 12:22 03.03.2021
1922 Clouds 14 1029 62 7000 1.03 0 11:44 03.03.2021
1923 Clouds 14 1029 62 7000 1.03 0 11:22 03.03.2021
1924 Clouds 11 1029 71 6000 1.03 0 10:44 03.03.2021
1925 Clouds 10 1029 81 7000 1.03 0 10:21 03.03.2021
1926 Clouds 9 1029 87 6000 1.47 204 09:41 03.03.2021
1927 Clouds 7 1029 87 7000 0.51 70 08:51 03.03.2021
1928 Clouds 7 1029 93 6000 1.03 10 08:23 03.03.2021
1929 Clouds 7 1029 87 7000 1.03 340 07:55 03.03.2021
1930 Clouds 7 1029 87 7000 0.51 330 07:26 03.03.2021
1931 Clouds 7 1028 87 6000 1.03 0 06:21 03.03.2021
1932 Clouds 7 1028 93 8000 1.54 330 05:44 03.03.2021
1933 Clouds 7 1028 87 8000 0.51 360 04:36 03.03.2021
1934 Clouds 8 1028 87 8000 1.03 360 03:53 03.03.2021
1935 Clear 10 1029 71 10000 1.54 350 00:28 03.03.2021
1936 Clear 11 1028 71 10000 1.54 10 23:34 02.03.2021
1937 Clear 10 1029 71 10000 1.54 350 22:52 02.03.2021
1938 Clear 10 1028 66 10000 2.57 50 22:22 02.03.2021
1939 Clear 10 1028 66 10000 2.57 50 21:54 02.03.2021
1940 Clear 10 1028 66 10000 2.06 10 21:36 02.03.2021
1941 Clear 11 1028 66 10000 1.54 30 20:56 02.03.2021
1942 Clear 11 1028 58 10000 1.54 70 20:38 02.03.2021
1943 Clear 11 1028 58 10000 1.54 70 20:20 02.03.2021
1944 Clear 12 1028 54 10000 1.54 60 19:46 02.03.2021
1945 Clear 12 1028 50 10000 1.54 110 19:28 02.03.2021
1946 Clear 14 1028 44 10000 2.06 130 18:42 02.03.2021
1947 Clouds 15 1027 41 10000 1.54 130 18:22 02.03.2021
1948 Clouds 16 1027 41 10000 1.54 130 17:58 02.03.2021
1949 Clear 16 1027 45 10000 1.03 0 17:39 02.03.2021
1950 Clear 17 1027 39 10000 0.51 0 17:19 02.03.2021
1951 Clear 17 1027 39 10000 0.51 0 17:19 02.03.2021
1952 Clear 17 1027 39 10000 0.51 0 16:47 02.03.2021
1953 Clear 17 1027 48 10000 0.51 40 15:55 02.03.2021
1954 Clear 16 1028 44 10000 1.54 0 15:27 02.03.2021
1955 Clear 16 1028 44 10000 1.54 0 15:27 02.03.2021
1956 Clear 16 1028 44 10000 1.54 0 14:50 02.03.2021
1957 Clear 16 1028 51 10000 1.54 130 14:19 02.03.2021
1958 Clear 15 1028 54 10000 1.54 160 13:47 02.03.2021
1959 Clear 14 1029 58 10000 1.54 0 13:25 02.03.2021
1960 Clear 13 1029 58 10000 1.54 0 12:47 02.03.2021
1961 Clear 11 1029 62 10000 1.54 0 12:25 02.03.2021
1962 Clear 10 1029 62 10000 1.54 0 11:47 02.03.2021
1963 Clouds 9 1029 66 9000 2.06 130 11:23 02.03.2021
1964 Clear 8 1029 76 10000 2.06 110 10:53 02.03.2021
1965 Clouds 7 1029 81 9000 2.06 80 10:29 02.03.2021
1966 Clouds 6 1028 87 9000 2.57 50 09:43 02.03.2021
1967 Clouds 5 1028 87 7000 1.54 30 09:24 02.03.2021
1968 Clouds 4 1028 93 7000 1.54 360 08:53 02.03.2021
1969 Clouds 3 1028 93 7000 1.54 10 08:33 02.03.2021
1970 Clouds 3 1027 93 8000 1.54 10 07:46 02.03.2021
1971 Clear 3 1027 86 8000 0.51 0 06:37 02.03.2021
1972 Clear 3 1027 87 8000 2.57 10 05:50 02.03.2021
1973 Clear 3 1027 93 8000 1.54 360 05:32 02.03.2021
1974 Clear 4 1027 87 9000 1.54 360 04:37 02.03.2021
1975 Clear 5 1027 87 10000 2.06 360 01:42 02.03.2021
1976 Clear 5 1027 87 10000 2.06 360 01:21 02.03.2021
1977 Clear 7 1027 81 10000 1.77 81 23:29 01.03.2021
1978 Clear 6 1027 81 10000 1.03 0 22:56 01.03.2021
1979 Clear 7 1027 81 10000 1.54 350 22:38 01.03.2021
1980 Clear 6 1027 81 10000 1.03 350 22:19 01.03.2021
1981 Clear 7 1027 75 10000 2.06 10 21:41 01.03.2021
1982 Clear 7 1027 75 10000 2.06 10 21:23 01.03.2021
1983 Clear 8 1028 66 10000 2.57 20 20:42 01.03.2021
1984 Clear 8 1028 66 10000 2.57 20 20:20 01.03.2021
1985 Clear 9 1028 66 10000 2.57 60 19:43 01.03.2021
1986 Clear 10 1028 66 10000 3.6 40 19:24 01.03.2021
1987 Clear 11 1027 58 10000 4.12 60 18:43 01.03.2021
1988 Clear 12 1027 58 10000 4.12 60 18:23 01.03.2021
1989 Clear 13 1027 54 10000 4.63 50 17:47 01.03.2021
1990 Clear 13 1027 47 10000 4.63 70 17:22 01.03.2021
1991 Clear 14 1027 47 10000 4.12 60 16:47 01.03.2021
1992 Clear 14 1027 47 10000 4.12 60 16:27 01.03.2021
1993 Clear 14 1027 47 10000 4.63 70 15:49 01.03.2021
1994 Clear 14 1028 44 10000 4.63 60 15:23 01.03.2021
1995 Clear 13 1028 50 10000 4.63 90 14:58 01.03.2021
1996 Clear 13 1028 50 10000 4.12 60 14:39 01.03.2021
1997 Clear 13 1028 50 10000 4.12 80 13:56 01.03.2021
1998 Clear 12 1029 58 10000 3.6 50 13:37 01.03.2021
1999 Clear 12 1029 58 10000 4.63 70 13:19 01.03.2021
2000 Clear 11 1029 57 10000 4.12 70 12:42 01.03.2021
2001 Clear 10 1029 57 10000 4.12 70 12:22 01.03.2021
2002 Clear 10 1029 61 10000 4.12 70 11:47 01.03.2021
2003 Clear 9 1030 66 10000 5.14 70 11:23 01.03.2021
2004 Clear 9 1030 66 10000 5.14 70 11:23 01.03.2021
2005 Clear 7 1030 65 10000 5.14 70 10:37 01.03.2021
2006 Clear 6 1030 70 10000 5.14 60 10:19 01.03.2021
2007 Clear 5 1030 81 10000 1.54 30 09:50 01.03.2021
2008 Clear 5 1030 81 10000 1.54 30 09:28 01.03.2021
2009 Clear 3 1030 87 10000 1.54 340 08:55 01.03.2021
2010 Clear 3 1030 86 10000 1.54 350 08:30 01.03.2021
2011 Clear 3 1029 80 10000 2.57 350 07:19 01.03.2021
2012 Clear 3 1029 80 10000 2.06 350 06:25 01.03.2021
2013 Clear 5 1030 75 10000 2.6 87 02:38 01.03.2021
2014 Clear 6 1030 65 10000 3.6 30 23:47 28.02.2021
2015 Clear 7 1030 65 10000 3.6 30 22:57 28.02.2021
2016 Clear 7 1030 65 10000 3.09 40 22:37 28.02.2021
2017 Clear 7 1030 61 10000 3.6 30 22:18 28.02.2021
2018 Clear 7 1030 65 10000 2.57 30 21:37 28.02.2021
2019 Clear 7 1030 65 10000 3.09 50 21:18 28.02.2021
2020 Clear 8 1030 65 10000 3.09 50 20:39 28.02.2021
2021 Clear 9 1030 61 10000 4.12 40 20:19 28.02.2021
2022 Clear 9 1030 61 10000 4.12 40 19:46 28.02.2021
2023 Clear 10 1030 57 10000 4.12 40 19:25 28.02.2021
2024 Clear 10 1030 53 10000 5.14 40 18:44 28.02.2021
2025 Clear 11 1030 53 10000 5.14 40 18:26 28.02.2021
2026 Clear 11 1030 50 10000 6.17 50 17:56 28.02.2021
2027 Clear 11 1030 50 10000 6.69 40 17:37 28.02.2021
2028 Clear 11 1030 50 10000 6.69 40 17:18 28.02.2021
2029 Clear 12 1030 50 10000 7.72 50 16:44 28.02.2021
2030 Clear 12 1031 54 10000 7.72 60 16:26 28.02.2021
2031 Clear 11 1031 50 10000 7.2 60 15:51 28.02.2021
2032 Clear 11 1031 50 10000 7.2 60 15:51 28.02.2021
2033 Clear 11 1031 54 10000 8.23 60 15:26 28.02.2021
2034 Clear 10 1031 53 10000 7.72 50 14:57 28.02.2021
2035 Clear 10 1032 57 10000 7.2 50 14:30 28.02.2021
2036 Clear 10 1032 57 10000 7.72 50 13:56 28.02.2021
2037 Clear 9 1033 61 9000 7.2 50 13:36 28.02.2021
2038 Clear 9 1033 66 9000 6.17 50 13:18 28.02.2021
2039 Clear 9 1032 65 9000 5.66 60 12:48 28.02.2021
2040 Clear 8 1033 66 8000 6.17 50 12:30 28.02.2021
2041 Clear 7 1033 70 8000 6.69 50 11:55 28.02.2021
2042 Clouds 6 1034 75 7000 6.69 60 11:36 28.02.2021
2043 Clouds 6 1034 75 7000 6.69 60 11:18 28.02.2021
2044 Clouds 5 1034 81 7000 5.14 40 10:30 28.02.2021
2045 Mist 4 1034 87 5000 4.63 30 09:58 28.02.2021
2046 Mist 3 1034 93 4400 5.14 20 09:36 28.02.2021
2047 Mist 3 1034 93 3900 4.12 20 08:59 28.02.2021
2048 Mist 3 1034 93 3800 3.09 20 08:37 28.02.2021
2049 Mist 2 1034 93 4400 2.57 20 08:19 28.02.2021
2050 Mist 3 1034 93 5000 3.6 40 07:43 28.02.2021
2051 Mist 3 1034 93 5000 3.6 40 07:25 28.02.2021
2052 Clear 3 1034 87 6000 4.12 20 06:23 28.02.2021
2053 Clear 3 1034 93 6000 3.09 10 05:19 28.02.2021
2054 Clear 4 1035 87 7000 2.57 20 02:26 28.02.2021
2055 Clear 5 1036 81 8000 0.51 0 01:28 28.02.2021
2056 Clear 5 1036 81 9000 2.57 10 00:39 28.02.2021
2057 Clear 5 1036 81 10000 4.12 30 23:50 27.02.2021
2058 Clear 5 1036 81 10000 4.12 30 23:22 27.02.2021
2059 Clear 5 1036 81 10000 4.12 30 22:50 27.02.2021
2060 Clear 6 1036 81 10000 5.14 20 22:24 27.02.2021
2061 Clear 6 1036 81 10000 4.63 20 21:59 27.02.2021
2062 Clear 6 1036 81 10000 4.63 20 21:38 27.02.2021
2063 Clear 7 1036 76 10000 4.12 10 20:58 27.02.2021
2064 Clear 7 1036 70 10000 5.14 20 20:39 27.02.2021
2065 Clear 7 1036 70 10000 5.14 20 20:21 27.02.2021
2066 Clear 8 1036 71 10000 3.6 20 19:43 27.02.2021
2067 Clear 8 1036 71 10000 3.6 20 19:43 27.02.2021
2068 Clear 8 1036 71 10000 3.6 20 19:23 27.02.2021
2069 Clear 10 1036 53 10000 6.17 30 18:41 27.02.2021
2070 Clear 10 1036 53 10000 6.17 20 18:20 27.02.2021
2071 Clear 10 1036 53 10000 6.17 20 17:44 27.02.2021
2072 Clear 11 1036 46 10000 7.2 30 17:20 27.02.2021
2073 Clear 11 1036 46 10000 7.2 30 16:56 27.02.2021
2074 Clear 11 1036 46 10000 6.17 20 16:36 27.02.2021
2075 Clear 11 1037 50 10000 6.17 30 16:18 27.02.2021
2076 Clear 11 1037 50 10000 6.69 20 15:38 27.02.2021
2077 Clear 11 1037 50 10000 6.69 30 14:50 27.02.2021
2078 Clear 11 1038 50 10000 5.66 30 14:32 27.02.2021
2079 Clear 10 1038 57 10000 6.69 40 13:53 27.02.2021
2080 Clear 10 1038 61 10000 6.17 30 13:27 27.02.2021
2081 Clear 9 1039 61 10000 6.69 30 12:57 27.02.2021
2082 Clear 9 1039 61 10000 6.17 30 12:36 27.02.2021
2083 Clear 9 1039 61 10000 6.17 30 12:18 27.02.2021
2084 Clear 8 1039 66 10000 6.17 30 11:42 27.02.2021
2085 Clear 7 1039 81 9000 3.6 10 11:23 27.02.2021
2086 Clear 6 1039 75 10000 3.09 10 10:46 27.02.2021
2087 Clear 6 1039 75 10000 3.09 10 10:27 27.02.2021
2088 Clear 5 1039 81 10000 4.63 20 09:50 27.02.2021
2089 Clear 4 1039 87 10000 3.09 10 09:26 27.02.2021
2090 Clear 3 1039 93 10000 3.6 360 08:42 27.02.2021
2091 Clear 3 1039 93 10000 3.6 360 08:21 27.02.2021
2092 Clear 3 1038 93 10000 2.57 350 07:42 27.02.2021
2093 Clear 3 1038 87 10000 2.06 350 04:47 27.02.2021
2094 Clear 5 1038 75 10000 2.57 350 00:56 27.02.2021
2095 Clear 6 1038 75 10000 2.57 360 23:54 26.02.2021
2096 Clear 6 1038 70 10000 3.09 360 23:30 26.02.2021
2097 Clear 6 1038 70 10000 3.09 360 22:59 26.02.2021
2098 Clear 7 1037 70 10000 2.06 360 22:30 26.02.2021
2099 Clear 7 1037 70 10000 2.06 360 22:30 26.02.2021
2100 Clear 7 1037 65 10000 2.06 360 21:49 26.02.2021
2101 Clear 7 1037 65 10000 3.09 10 21:30 26.02.2021
2102 Clear 8 1037 61 10000 2.57 10 20:44 26.02.2021
2103 Clear 8 1037 61 10000 2.57 10 20:44 26.02.2021
2104 Clear 8 1037 61 10000 3.09 360 20:24 26.02.2021
2105 Clouds 9 1037 61 10000 2.06 360 19:52 26.02.2021
2106 Clouds 9 1036 57 10000 2.06 360 19:25 26.02.2021
2107 Clouds 10 1036 53 10000 3.09 20 18:46 26.02.2021
2108 Clouds 11 1036 54 10000 3.09 360 18:23 26.02.2021
2109 Clouds 11 1036 54 10000 3.09 360 17:48 26.02.2021
2110 Clear 11 1035 46 10000 5.14 10 17:29 26.02.2021
2111 Clouds 11 1035 50 10000 3.09 340 16:56 26.02.2021
2112 Clear 12 1035 54 10000 4.63 350 16:37 26.02.2021
2113 Clear 12 1035 50 10000 4.12 360 16:19 26.02.2021
2114 Clear 12 1035 47 10000 4.63 360 15:41 26.02.2021
2115 Clear 12 1035 47 10000 4.63 360 15:22 26.02.2021
2116 Clear 12 1035 50 10000 5.14 10 14:51 26.02.2021
2117 Clouds 12 1035 47 10000 5.66 10 14:30 26.02.2021
2118 Clouds 12 1035 58 10000 5.14 10 13:46 26.02.2021
2119 Clouds 12 1035 58 10000 5.14 10 13:28 26.02.2021
2120 Clouds 11 1035 66 10000 4.12 340 12:48 26.02.2021
2121 Clouds 11 1035 66 10000 4.63 10 12:26 26.02.2021
2122 Clouds 10 1035 76 10000 4.12 340 11:39 26.02.2021
2123 Clouds 9 1035 81 10000 4.12 350 10:54 26.02.2021
2124 Clear 8 1035 81 10000 2.57 340 10:21 26.02.2021
2125 Clear 8 1035 93 10000 2.57 320 09:47 26.02.2021
2126 Clear 8 1035 93 10000 1.54 0 09:27 26.02.2021
2127 Clouds 8 1034 87 10000 2.57 330 08:33 26.02.2021
2128 Clouds 8 1033 87 8000 1.54 360 07:55 26.02.2021
2129 Clouds 8 1033 87 10000 2.57 360 07:20 26.02.2021
2130 Rain 8 1033 87 10000 3.09 340 06:28 26.02.2021
2131 Rain 9 1032 81 10000 4.12 340 04:59 26.02.2021
2132 Clouds 10 1032 81 10000 4.63 330 02:38 26.02.2021
2133 Clouds 11 1031 76 10000 2.57 320 00:27 26.02.2021
2134 Clouds 11 1031 76 10000 3.6 310 23:39 25.02.2021
2135 Clouds 12 1031 76 10000 2.57 320 22:58 25.02.2021
2136 Clouds 12 1031 76 10000 3.09 310 22:38 25.02.2021
2137 Clouds 13 1030 67 10000 4.12 320 21:51 25.02.2021
2138 Clouds 13 1030 71 10000 4.12 320 21:32 25.02.2021
2139 Clouds 14 1029 72 10000 2.06 310 20:55 25.02.2021
2140 Clouds 14 1029 72 10000 4.12 300 20:37 25.02.2021
2141 Clouds 14 1028 67 10000 2.57 300 20:18 25.02.2021
2142 Clouds 14 1028 72 10000 2.06 270 19:46 25.02.2021
2143 Clouds 14 1028 72 10000 2.06 270 19:19 25.02.2021
2144 Clear 15 1027 67 10000 2.06 270 18:40 25.02.2021
2145 Clouds 16 1027 67 10000 3.09 270 18:18 25.02.2021
2146 Clear 16 1027 63 10000 3.09 240 17:35 25.02.2021
2147 Clear 16 1027 59 10000 3.09 240 16:59 25.02.2021
2148 Clear 17 1026 59 10000 2.57 260 16:33 25.02.2021
2149 Clear 17 1026 55 10000 2.57 240 15:51 25.02.2021
2150 Clear 17 1026 55 10000 4.12 230 15:28 25.02.2021
2151 Clear 17 1026 52 10000 3.6 220 14:40 25.02.2021
2152 Clear 17 1026 55 10000 3.6 190 14:20 25.02.2021
2153 Clear 17 1027 51 10000 2.57 200 13:44 25.02.2021
2154 Clear 16 1027 51 10000 2.57 200 13:23 25.02.2021
2155 Clear 16 1027 51 10000 3.09 200 12:39 25.02.2021
2156 Clear 15 1027 51 10000 3.09 200 12:20 25.02.2021
2157 Clear 14 1027 58 10000 3.09 190 11:43 25.02.2021
2158 Clear 13 1027 62 10000 4.12 170 10:54 25.02.2021
2159 Clear 12 1027 67 10000 2.57 160 10:36 25.02.2021
2160 Clear 11 1027 82 10000 2.57 150 09:50 25.02.2021
2161 Clear 10 1026 81 10000 2.57 140 09:28 25.02.2021
2162 Clear 9 1026 93 10000 1.54 130 08:46 25.02.2021
2163 Clear 9 1026 93 10000 1.54 130 08:21 25.02.2021
2164 Clear 9 1026 87 10000 2.57 100 07:42 25.02.2021
2165 Clear 9 1026 87 10000 1.54 50 07:19 25.02.2021
2166 Clear 9 1026 87 10000 1.54 100 05:57 25.02.2021
2167 Clear 12 1026 81 10000 1.03 60 01:52 25.02.2021
2168 Clear 12 1026 76 10000 1.03 0 01:33 25.02.2021
2169 Clear 12 1026 76 10000 2.06 140 00:37 25.02.2021
2170 Clear 13 1026 81 10000 0.51 140 23:40 24.02.2021
2171 Clear 13 1026 76 10000 1.03 90 22:58 24.02.2021
2172 Clear 13 1026 71 10000 0.51 320 22:30 24.02.2021
2173 Clear 14 1026 71 10000 1.03 0 21:57 24.02.2021
2174 Clear 14 1026 67 10000 3.19 188 21:36 24.02.2021
2175 Clear 14 1026 67 10000 1.03 130 20:52 24.02.2021
2176 Clear 14 1026 62 10000 1.54 130 20:29 24.02.2021
2177 Clear 15 1026 58 10000 1.54 160 19:54 24.02.2021
2178 Clear 16 1026 55 10000 2.57 170 19:26 24.02.2021
2179 Clear 16 1026 55 10000 3.09 170 18:55 24.02.2021
2180 Clear 18 1026 48 10000 4.63 190 18:33 24.02.2021
2181 Clear 19 1026 45 10000 5.14 190 17:50 24.02.2021
2182 Clear 19 1027 45 10000 6.17 180 17:29 24.02.2021
2183 Clear 19 1027 48 10000 6.17 180 16:52 24.02.2021
2184 Clear 19 1027 45 10000 6.69 180 16:22 24.02.2021
2185 Clear 19 1027 48 10000 7.2 180 15:58 24.02.2021
2186 Clear 19 1027 48 10000 6.17 180 15:36 24.02.2021
2187 Clear 19 1028 55 10000 6.17 180 14:52 24.02.2021
2188 Clear 19 1028 55 10000 6.17 180 14:32 24.02.2021
2189 Clear 18 1028 55 10000 7.2 170 13:56 24.02.2021
2190 Clear 17 1029 55 10000 5.14 170 13:38 24.02.2021
2191 Clear 18 1029 55 10000 5.14 170 13:19 24.02.2021
2192 Clear 17 1029 59 10000 5.14 170 12:43 24.02.2021
2193 Clear 16 1030 63 10000 4.63 170 12:23 24.02.2021
2194 Clear 15 1030 72 10000 4.63 180 11:45 24.02.2021
2195 Clear 14 1030 72 10000 4.63 180 10:49 24.02.2021
2196 Clear 12 1030 76 10000 4.63 180 10:29 24.02.2021
2197 Clear 10 1031 87 10000 2.06 170 09:41 24.02.2021
2198 Clear 10 1031 87 10000 2.06 170 09:19 24.02.2021
2199 Clear 10 1030 87 10000 3.09 170 08:34 24.02.2021
2200 Clear 10 1030 87 10000 5.14 170 07:57 24.02.2021
2201 Clear 10 1030 87 10000 4.63 160 07:20 24.02.2021
2202 Clear 10 1030 87 10000 3.09 170 06:20 24.02.2021
2203 Clear 11 1030 87 10000 3.09 150 03:25 24.02.2021
2204 Clouds 13 1031 82 10000 2.06 160 00:22 24.02.2021
2205 Clear 13 1031 82 10000 2.06 170 23:21 23.02.2021
2206 Clear 13 1030 76 10000 3.09 170 22:37 23.02.2021
2207 Clear 13 1030 76 10000 3.09 170 22:19 23.02.2021
2208 Clear 13 1030 76 10000 3.09 160 21:42 23.02.2021
2209 Clear 13 1030 76 10000 3.09 160 21:22 23.02.2021
2210 Clear 15 1030 63 10000 4.12 170 20:48 23.02.2021
2211 Clear 15 1030 63 10000 4.12 170 20:29 23.02.2021
2212 Clear 16 1030 59 10000 5.14 180 19:48 23.02.2021
2213 Clear 16 1030 59 10000 5.14 180 19:27 23.02.2021
2214 Clouds 16 1030 59 10000 5.14 190 18:56 23.02.2021
2215 Clouds 17 1030 59 10000 7.2 200 18:32 23.02.2021
2216 Clouds 18 1030 55 10000 8.23 190 17:54 23.02.2021
2217 Clouds 18 1030 55 10000 7.72 190 17:33 23.02.2021
2218 Clouds 18 1030 59 10000 6.69 190 16:56 23.02.2021
2219 Clouds 18 1029 59 10000 8.23 190 16:36 23.02.2021
2220 Clouds 18 1029 59 10000 8.75 180 16:18 23.02.2021
2221 Clouds 18 1029 59 10000 8.75 180 15:40 23.02.2021
2222 Clouds 18 1029 59 10000 8.75 180 15:21 23.02.2021
2223 Clouds 17 1029 59 10000 7.72 190 14:44 23.02.2021
2224 Clouds 17 1029 59 10000 7.72 190 14:25 23.02.2021
2225 Clouds 17 1030 67 10000 8.75 190 13:46 23.02.2021
2226 Clouds 16 1030 67 10000 8.75 190 13:26 23.02.2021
2227 Clouds 16 1030 67 10000 7.2 180 12:51 23.02.2021
2228 Clouds 16 1030 67 10000 7.2 180 12:20 23.02.2021
2229 Clouds 14 1030 77 10000 7.2 190 11:50 23.02.2021
2230 Clouds 14 1030 77 10000 7.2 190 11:22 23.02.2021
2231 Clouds 13 1030 77 10000 5.66 170 10:52 23.02.2021
2232 Clouds 13 1030 76 10000 5.66 170 10:34 23.02.2021
2233 Clouds 12 1030 76 10000 5.14 170 09:45 23.02.2021
2234 Clouds 12 1029 76 10000 3.09 190 09:25 23.02.2021
2235 Clouds 12 1029 76 10000 3.09 180 08:57 23.02.2021
2236 Clouds 12 1029 71 10000 5.14 180 08:38 23.02.2021
2237 Clouds 12 1028 76 10000 4.12 190 08:19 23.02.2021
2238 Clouds 12 1027 82 10000 3.09 170 05:44 23.02.2021
2239 Clouds 12 1027 82 10000 3.09 170 05:22 23.02.2021
2240 Clear 13 1026 76 10000 3.6 150 02:36 23.02.2021
2241 Clear 14 1025 67 10000 1.54 0 00:55 23.02.2021
2242 Clear 14 1024 67 10000 1.54 150 00:18 23.02.2021
2243 Clear 14 1024 67 10000 1.03 0 23:24 22.02.2021
2244 Clear 14 1023 67 10000 1.54 140 22:41 22.02.2021
2245 Clear 14 1023 67 10000 1.54 140 22:21 22.02.2021
2246 Clear 13 1023 71 10000 1.54 110 21:46 22.02.2021
2247 Clear 14 1023 71 10000 1.03 80 21:23 22.02.2021
2248 Clear 13 1022 67 10000 1.54 140 20:55 22.02.2021
2249 Clear 13 1022 71 10000 1.03 110 20:31 22.02.2021
2250 Clear 14 1022 67 10000 1.54 120 19:58 22.02.2021
2251 Clear 14 1021 67 10000 1.54 90 19:38 22.02.2021
2252 Clear 14 1021 67 10000 1.54 90 19:18 22.02.2021
2253 Clear 14 1021 62 10000 2.51 174 18:44 22.02.2021
2254 Clear 14 1021 58 10000 1.54 170 18:21 22.02.2021
2255 Clear 15 1020 58 10000 2.06 180 17:36 22.02.2021
2256 Clear 15 1020 63 10000 2.57 160 17:18 22.02.2021
2257 Clear 15 1019 58 10000 2.57 170 16:42 22.02.2021
2258 Clear 15 1019 58 10000 2.57 170 15:57 22.02.2021
2259 Clear 15 1019 58 10000 3.09 170 15:31 22.02.2021
2260 Clear 14 1018 55 10000 3.6 170 14:48 22.02.2021
2261 Clear 14 1018 55 10000 4.12 180 14:30 22.02.2021
2262 Clear 13 1018 58 10000 3.09 180 13:50 22.02.2021
2263 Clear 13 1018 55 10000 3.6 160 13:23 22.02.2021
2264 Clear 12 1017 62 10000 1.54 150 12:44 22.02.2021
2265 Clear 12 1017 62 10000 1.54 150 12:22 22.02.2021
2266 Clear 12 1017 62 10000 3.09 140 11:45 22.02.2021
2267 Clear 12 1016 66 10000 1.03 0 11:25 22.02.2021
2268 Clear 11 1016 66 10000 1.03 0 10:50 22.02.2021
2269 Clear 10 1016 76 10000 2.06 100 10:28 22.02.2021
2270 Clear 10 1015 71 10000 2.57 70 09:50 22.02.2021
2271 Clear 10 1016 71 10000 2.06 120 09:30 22.02.2021
2272 Clear 10 1016 76 10000 2.06 100 08:58 22.02.2021
2273 Clear 9 1015 76 10000 2.06 70 08:39 22.02.2021
2274 Clear 10 1015 76 10000 1.54 0 07:59 22.02.2021
2275 Clear 10 1015 76 10000 2.06 40 07:27 22.02.2021
2276 Clear 10 1015 71 10000 1.54 50 06:47 22.02.2021
2277 Clear 10 1014 71 10000 1.03 0 06:23 22.02.2021
2278 Clear 11 1013 66 10000 2.57 140 03:48 22.02.2021
2279 Clear 11 1013 62 10000 3.6 160 02:55 22.02.2021
2280 Clear 12 1012 62 10000 3.09 170 00:49 22.02.2021
2281 Clear 12 1012 62 10000 3.6 160 00:26 22.02.2021
2282 Clear 12 1012 66 10000 3.09 130 23:48 21.02.2021
2283 Clear 12 1011 66 10000 1.54 120 22:55 21.02.2021
2284 Clear 13 1011 62 10000 1.54 130 22:24 21.02.2021
2285 Clear 13 1011 62 10000 1.54 0 21:49 21.02.2021
2286 Clear 13 1011 62 10000 3.09 130 21:30 21.02.2021
2287 Clear 14 1011 62 10000 3.6 110 20:50 21.02.2021
2288 Clear 14 1010 58 10000 4.12 110 20:21 21.02.2021
2289 Clear 14 1010 58 10000 4.12 110 19:59 21.02.2021
2290 Clear 14 1010 66 10000 3.09 100 19:39 21.02.2021
2291 Clear 14 1010 66 10000 3.09 100 19:21 21.02.2021
2292 Clear 15 1010 55 10000 3.6 130 18:28 21.02.2021
2293 Clear 16 1010 51 10000 3.6 140 17:52 21.02.2021
2294 Clear 17 1010 48 10000 4.63 140 17:24 21.02.2021
2295 Clear 17 1010 48 10000 5.66 130 16:52 21.02.2021
2296 Clear 17 1010 48 10000 5.14 130 16:31 21.02.2021
2297 Clear 18 1011 42 10000 3.6 140 15:26 21.02.2021
2298 Clear 18 1011 48 10000 4.63 130 14:59 21.02.2021
2299 Clear 18 1011 42 10000 4.63 150 14:39 21.02.2021
2300 Clear 17 1011 48 10000 4.63 160 14:18 21.02.2021
2301 Clear 16 1011 48 10000 4.63 140 13:30 21.02.2021
2302 Clear 16 1012 51 10000 4.63 150 12:56 21.02.2021
2303 Clear 15 1012 54 10000 5.14 150 12:27 21.02.2021
2304 Clear 14 1012 54 10000 6.17 150 11:43 21.02.2021
2305 Clear 12 1012 62 10000 6.17 160 10:57 21.02.2021
2306 Clear 11 1012 62 10000 4.63 150 10:22 21.02.2021
2307 Clear 10 1012 66 10000 3.6 150 09:52 21.02.2021
2308 Clear 9 1012 76 10000 1.03 0 09:27 21.02.2021
2309 Clear 8 1012 76 10000 1.54 0 08:43 21.02.2021
2310 Clear 8 1012 76 10000 1.54 0 08:19 21.02.2021
2311 Clear 8 1011 81 10000 1.03 90 07:31 21.02.2021
2312 Clear 8 1012 81 10000 2.57 50 06:47 21.02.2021
2313 Clear 11 1011 66 10000 3.6 130 02:48 21.02.2021
2314 Clear 12 1011 62 10000 3.6 160 02:29 21.02.2021
2315 Clear 12 1010 62 10000 5.14 160 00:37 21.02.2021
2316 Clear 13 1010 62 10000 4.63 160 00:18 21.02.2021
2317 Clear 13 1010 58 10000 6.17 170 23:18 20.02.2021
2318 Clear 14 1010 62 10000 4.63 160 22:40 20.02.2021
2319 Clear 13 1010 62 10000 4.63 160 22:21 20.02.2021
2320 Clear 14 1009 62 10000 5.14 160 21:41 20.02.2021
2321 Clear 14 1009 62 10000 5.14 160 21:20 20.02.2021
2322 Clear 14 1009 62 10000 4.63 150 20:42 20.02.2021
2323 Clear 14 1009 62 10000 4.63 150 20:21 20.02.2021
2324 Clear 15 1009 58 10000 5.14 140 19:52 20.02.2021
2325 Clear 15 1009 55 10000 6.17 150 19:27 20.02.2021
2326 Clear 16 1008 51 10000 6.17 150 18:39 20.02.2021
2327 Clear 17 1008 51 10000 5.66 150 18:20 20.02.2021
2328 Clear 17 1008 48 10000 7.2 150 17:38 20.02.2021
2329 Clear 18 1008 48 10000 6.17 140 16:55 20.02.2021
2330 Clear 18 1008 45 10000 5.66 140 16:32 20.02.2021
2331 Clear 18 1008 48 10000 5.66 150 15:47 20.02.2021
2332 Clear 18 1008 52 10000 5.14 140 15:23 20.02.2021
2333 Clear 17 1009 51 10000 5.14 140 14:46 20.02.2021
2334 Clear 17 1009 55 10000 5.66 140 14:23 20.02.2021
2335 Clear 16 1009 55 10000 5.66 140 13:47 20.02.2021
2336 Clear 16 1010 55 10000 5.66 140 13:47 20.02.2021
2337 Clear 16 1010 55 10000 5.66 140 13:24 20.02.2021
2338 Clear 15 1010 55 10000 7.72 150 12:50 20.02.2021
2339 Clear 15 1011 58 10000 6.69 150 12:23 20.02.2021
2340 Clear 13 1011 62 10000 5.66 160 11:44 20.02.2021
2341 Clear 13 1011 62 10000 5.66 160 11:44 20.02.2021
2342 Clear 13 1011 62 10000 5.66 160 11:24 20.02.2021
2343 Clear 11 1011 71 10000 5.66 150 10:49 20.02.2021
2344 Clear 10 1011 71 10000 4.63 150 09:55 20.02.2021
2345 Clear 9 1011 76 10000 4.12 150 09:30 20.02.2021
2346 Clear 8 1011 81 10000 4.12 150 08:43 20.02.2021
2347 Clear 8 1011 81 10000 4.63 160 08:18 20.02.2021
2348 Clear 9 1012 81 10000 4.12 140 03:32 20.02.2021
2349 Clear 9 1012 81 10000 4.12 160 02:25 20.02.2021
2350 Clear 10 1013 81 10000 2.57 160 01:49 20.02.2021
2351 Clear 10 1012 81 10000 2.57 130 00:45 20.02.2021
2352 Clear 10 1013 93 10000 1.54 120 23:55 19.02.2021
2353 Clear 10 1013 87 10000 1.03 0 23:18 19.02.2021
2354 Clear 11 1013 87 10000 3.09 160 22:28 19.02.2021
2355 Clear 11 1013 82 10000 3.09 160 21:58 19.02.2021
2356 Clouds 12 1013 82 10000 2.57 160 21:32 19.02.2021
2357 Clear 11 1013 82 10000 2.57 150 20:49 19.02.2021
2358 Clear 11 1013 82 10000 2.57 150 20:30 19.02.2021
2359 Clear 12 1013 82 10000 3.6 140 19:57 19.02.2021
2360 Clear 12 1013 82 10000 3.6 140 19:27 19.02.2021
2361 Clouds 12 1013 82 10000 4.12 130 18:57 19.02.2021
2362 Clear 13 1013 76 10000 4.12 140 18:35 19.02.2021
2363 Clouds 14 1013 72 10000 5.66 150 17:56 19.02.2021
2364 Clouds 14 1013 72 10000 6.17 160 17:23 19.02.2021
2365 Clouds 14 1013 76 10000 4.12 150 16:39 19.02.2021
2366 Clouds 14 1013 76 10000 5.66 160 16:20 19.02.2021
2367 Clouds 13 1013 76 10000 5.66 160 15:45 19.02.2021
2368 Clouds 13 1014 76 10000 5.14 160 15:27 19.02.2021
2369 Clouds 12 1014 76 10000 4.63 170 14:41 19.02.2021
2370 Clouds 12 1014 76 10000 4.63 170 14:23 19.02.2021
2371 Clouds 11 1015 82 10000 6.69 160 13:44 19.02.2021
2372 Clouds 10 1015 82 10000 6.69 160 13:24 19.02.2021
2373 Clouds 10 1016 87 10000 4.63 160 12:44 19.02.2021
2374 Clouds 9 1016 87 10000 4.63 160 12:24 19.02.2021
2375 Clouds 8 1016 93 10000 5.14 180 11:51 19.02.2021
2376 Clouds 8 1016 93 10000 5.14 180 11:26 19.02.2021
2377 Clouds 8 1016 93 10000 5.14 170 10:51 19.02.2021
2378 Clouds 7 1016 93 10000 5.14 160 10:22 19.02.2021
2379 Clouds 7 1016 93 10000 4.12 140 09:48 19.02.2021
2380 Clouds 6 1016 93 9000 3.6 160 09:26 19.02.2021
2381 Clouds 6 1016 93 9000 3.6 160 08:53 19.02.2021
2382 Clouds 6 1016 100 7000 3.6 160 08:24 19.02.2021
2383 Clouds 6 1016 100 7000 3.6 160 07:49 19.02.2021
2384 Mist 6 1016 100 5000 3.6 140 07:30 19.02.2021
2385 Clouds 6 1016 100 7000 3.6 160 06:54 19.02.2021
2386 Fog 5 1016 100 550 3.09 190 05:30 19.02.2021
2387 Mist 5 1016 100 3100 1.54 210 04:41 19.02.2021
2388 Clear 5 1015 93 10000 2.57 160 01:48 19.02.2021
2389 Clouds 6 1015 87 10000 2.57 190 00:37 19.02.2021
2390 Clouds 6 1015 93 10000 4.12 180 23:56 18.02.2021
2391 Clouds 6 1015 93 10000 2.57 180 23:35 18.02.2021
2392 Clear 7 1014 93 10000 2.06 200 22:50 18.02.2021
2393 Clear 6 1014 93 10000 2.06 200 22:30 18.02.2021
2394 Clear 7 1014 93 10000 1.54 190 21:52 18.02.2021
2395 Clear 7 1013 93 10000 2.06 210 21:26 18.02.2021
2396 Clear 7 1013 93 10000 2.06 210 20:44 18.02.2021
2397 Clear 7 1013 93 10000 2.57 230 20:24 18.02.2021
2398 Clear 7 1012 93 10000 2.57 230 19:56 18.02.2021
2399 Clouds 7 1011 93 10000 3.09 220 19:37 18.02.2021
2400 Clouds 7 1011 93 10000 3.09 220 19:18 18.02.2021
2401 Clouds 8 1010 93 10000 2.57 240 18:42 18.02.2021
2402 Clouds 8 1010 93 10000 2.57 240 18:24 18.02.2021
2403 Clouds 8 1009 93 10000 4.12 280 17:42 18.02.2021
2404 Clouds 8 1009 93 10000 4.12 280 17:23 18.02.2021
2405 Rain 10 1007 87 8000 7.72 210 16:41 18.02.2021
2406 Rain 10 1007 87 10000 6.17 190 16:22 18.02.2021
2407 Rain 10 1007 87 10000 5.66 190 15:41 18.02.2021
2408 Rain 10 1007 87 10000 5.66 190 15:22 18.02.2021
2409 Clouds 10 1007 93 10000 5.14 190 14:50 18.02.2021
2410 Clouds 10 1007 82 9000 4.63 190 14:29 18.02.2021
2411 Clouds 10 1007 87 10000 5.14 190 13:46 18.02.2021
2412 Clouds 10 1007 81 10000 6.17 170 13:20 18.02.2021
2413 Clouds 10 1007 81 10000 6.17 170 12:53 18.02.2021
2414 Clouds 10 1007 71 10000 5.66 170 12:28 18.02.2021
2415 Clouds 10 1007 76 10000 5.66 160 11:47 18.02.2021
2416 Clouds 9 1007 81 10000 4.12 170 11:27 18.02.2021
2417 Rain 9 1008 76 10000 3.6 160 10:53 18.02.2021
2418 Clouds 9 1008 76 10000 4.63 160 10:35 18.02.2021
2419 Clear 8 1008 71 10000 4.12 160 09:57 18.02.2021
2420 Clear 8 1008 71 10000 4.12 160 09:28 18.02.2021
2421 Clear 8 1009 76 10000 4.12 150 08:48 18.02.2021
2422 Clear 8 1009 76 10000 4.12 150 08:30 18.02.2021
2423 Clear 7 1009 76 10000 4.63 130 07:42 18.02.2021
2424 Clouds 7 1010 76 10000 3.09 150 07:18 18.02.2021
2425 Clouds 7 1010 76 10000 5.14 140 05:29 18.02.2021
2426 Clear 7 1015 81 10000 1.54 0 00:26 18.02.2021
2427 Clear 7 1016 81 10000 1.54 120 23:38 17.02.2021
2428 Clear 7 1016 81 10000 1.03 0 22:57 17.02.2021
2429 Clear 7 1016 81 10000 1.03 0 22:39 17.02.2021
2430 Clear 7 1016 81 10000 1.03 0 22:19 17.02.2021
2431 Clear 8 1017 81 10000 3.09 160 21:42 17.02.2021
2432 Clear 8 1017 76 10000 3.6 160 21:19 17.02.2021
2433 Clear 9 1017 71 10000 4.12 170 20:40 17.02.2021
2434 Clear 10 1017 76 10000 4.12 180 19:59 17.02.2021
2435 Clear 10 1017 71 10000 4.12 180 19:37 17.02.2021
2436 Clouds 11 1018 71 10000 5.14 180 18:58 17.02.2021
2437 Clouds 11 1017 66 10000 6.17 180 18:37 17.02.2021
2438 Clouds 12 1018 66 10000 5.14 190 17:47 17.02.2021
2439 Clouds 12 1018 67 10000 5.14 200 17:23 17.02.2021
2440 Clouds 13 1018 62 10000 6.17 180 16:54 17.02.2021
2441 Clouds 13 1018 62 10000 7.2 190 16:29 17.02.2021
2442 Clouds 13 1018 67 10000 6.69 200 15:59 17.02.2021
2443 Clouds 13 1018 67 10000 6.17 200 15:40 17.02.2021
2444 Clouds 13 1019 67 10000 6.69 200 15:21 17.02.2021
2445 Clouds 12 1019 71 10000 6.69 200 14:44 17.02.2021
2446 Clouds 12 1019 71 10000 6.69 200 14:25 17.02.2021
2447 Clouds 12 1019 71 10000 5.66 190 13:43 17.02.2021
2448 Clouds 12 1019 82 10000 5.66 190 12:59 17.02.2021
2449 Clouds 11 1019 82 10000 6.17 200 12:26 17.02.2021
2450 Clouds 11 1019 82 10000 6.17 200 11:59 17.02.2021
2451 Clouds 10 1019 82 10000 6.17 200 11:36 17.02.2021
2452 Clouds 10 1019 82 10000 6.17 200 11:18 17.02.2021
2453 Clouds 10 1019 87 10000 5.14 190 10:43 17.02.2021
2454 Clouds 9 1019 87 10000 5.66 180 10:21 17.02.2021
2455 Clouds 9 1019 87 10000 4.63 190 09:41 17.02.2021
2456 Clouds 9 1019 87 10000 4.63 190 09:19 17.02.2021
2457 Clouds 8 1019 87 10000 5.66 200 08:42 17.02.2021
2458 Clouds 8 1019 87 10000 4.63 200 08:21 17.02.2021
2459 Clouds 8 1018 91 10000 3.09 200 07:26 17.02.2021
2460 Clouds 8 1019 87 10000 4.12 190 05:53 17.02.2021
2461 Clouds 8 1018 81 10000 5.14 200 02:34 17.02.2021
2462 Clear 8 1018 87 10000 4.63 210 01:55 17.02.2021
2463 Clear 8 1018 87 10000 5.14 220 00:33 17.02.2021
2464 Clouds 8 1017 93 10000 4.12 210 23:55 16.02.2021
2465 Clouds 8 1017 87 10000 5.66 210 23:36 16.02.2021
2466 Clouds 8 1017 87 10000 4.63 220 22:43 16.02.2021
2467 Clear 8 1016 87 10000 5.14 210 22:25 16.02.2021
2468 Clouds 9 1016 81 10000 3.09 210 21:54 16.02.2021
2469 Clouds 9 1016 88 10000 3.6 230 21:36 16.02.2021
2470 Clear 9 1016 86 10000 4.63 240 21:18 16.02.2021
2471 Clouds 9 1016 86 10000 4.12 240 20:41 16.02.2021
2472 Clear 9 1016 81 10000 4.63 230 20:20 16.02.2021
2473 Clouds 10 1015 87 10000 5.66 220 19:42 16.02.2021
2474 Clouds 10 1015 87 10000 5.66 220 19:23 16.02.2021
2475 Clouds 11 1014 82 10000 6.69 210 18:40 16.02.2021
2476 Rain 11 1014 82 10000 6.69 210 18:22 16.02.2021
2477 Clouds 11 1013 82 10000 6.69 190 17:52 16.02.2021
2478 Clouds 11 1014 81 10000 4.12 200 17:27 16.02.2021
2479 Clouds 12 1014 71 10000 4.63 190 16:51 16.02.2021
2480 Clear 12 1014 71 10000 4.63 180 16:29 16.02.2021
2481 Clear 12 1014 66 10000 4.63 180 15:47 16.02.2021
2482 Clouds 12 1014 66 10000 4.12 190 15:29 16.02.2021
2483 Clouds 12 1015 71 10000 3.6 210 14:56 16.02.2021
2484 Clouds 11 1015 71 10000 5.66 200 14:38 16.02.2021
2485 Clouds 11 1015 71 10000 5.66 200 14:19 16.02.2021
2486 Clear 11 1015 71 10000 6.17 190 13:38 16.02.2021
2487 Clear 10 1016 71 10000 6.17 170 12:52 16.02.2021
2488 Clear 10 1016 66 10000 5.14 170 12:26 16.02.2021
2489 Clear 10 1016 66 10000 6.17 180 11:58 16.02.2021
2490 Clear 9 1017 71 10000 5.66 180 11:38 16.02.2021
2491 Clear 9 1017 71 10000 5.66 180 11:19 16.02.2021
2492 Clear 8 1018 76 10000 5.14 180 10:45 16.02.2021
2493 Clear 8 1018 76 10000 5.14 180 10:26 16.02.2021
2494 Clear 7 1018 76 10000 5.14 180 09:50 16.02.2021
2495 Clear 6 1018 76 10000 5.66 180 09:26 16.02.2021
2496 Clear 6 1018 2 10000 3.6 180 08:51 16.02.2021
2497 Clear 6 1018 81 10000 3.6 180 08:26 16.02.2021
2498 Clear 6 1018 81 10000 4.63 170 07:44 16.02.2021
2499 Clear 6 1019 87 10000 5.14 160 06:49 16.02.2021
2500 Clear 8 1022 87 10000 3.6 160 02:38 16.02.2021
2501 Clouds 8 1023 81 10000 3.09 180 23:55 15.02.2021
2502 Clouds 8 1024 87 10000 4.12 190 23:29 15.02.2021
2503 Clouds 8 1024 3 10000 3.09 200 22:50 15.02.2021
2504 Clouds 8 1024 87 10000 2.57 170 22:27 15.02.2021
2505 Clouds 8 1024 87 10000 3.6 150 21:44 15.02.2021
2506 Clouds 8 1024 87 10000 3.6 150 21:24 15.02.2021
2507 Rain 8 1024 87 10000 3.09 170 20:54 15.02.2021
2508 Clouds 9 1024 76 10000 3.09 170 20:36 15.02.2021
2509 Clouds 8 1024 71 10000 3.6 180 19:51 15.02.2021
2510 Clouds 8 1024 76 10000 2.57 180 19:26 15.02.2021
2511 Clouds 8 1024 71 10000 4.63 190 18:57 15.02.2021
2512 Clouds 8 1024 71 10000 4.12 190 18:29 15.02.2021
2513 Clouds 8 1024 71 10000 4.63 190 17:58 15.02.2021
2514 Clouds 8 1024 71 10000 3.09 180 17:40 15.02.2021
2515 Clouds 8 1025 71 10000 4.63 190 17:21 15.02.2021
2516 Clouds 8 1025 71 10000 5.66 190 16:45 15.02.2021
2517 Clouds 8 1025 71 10000 5.66 190 16:22 15.02.2021
2518 Clouds 8 1025 71 10000 4.63 190 15:43 15.02.2021
2519 Clouds 8 1025 71 10000 5.14 190 15:19 15.02.2021
2520 Clouds 7 1025 71 10000 5.14 190 14:48 15.02.2021
2521 Clouds 8 1025 66 10000 5.14 190 14:21 15.02.2021
2522 Clear 8 1026 66 10000 5.66 190 13:49 15.02.2021
2523 Clear 7 1026 70 10000 4.63 190 13:22 15.02.2021
2524 Clear 7 1026 70 10000 4.63 190 12:51 15.02.2021
2525 Clouds 7 1026 70 10000 5.14 190 12:31 15.02.2021
2526 Clouds 6 1026 70 10000 5.14 190 11:53 15.02.2021
2527 Clouds 6 1026 75 10000 5.14 170 11:27 15.02.2021
2528 Clouds 5 1026 81 10000 4.12 160 10:56 15.02.2021
2529 Clouds 5 1026 75 10000 4.63 170 10:38 15.02.2021
2530 Clouds 5 1026 75 10000 4.12 170 10:20 15.02.2021
2531 Clear 4 1026 81 10000 4.12 180 09:51 15.02.2021
2532 Clear 4 1026 81 10000 4.12 180 09:31 15.02.2021
2533 Clear 3 1026 87 10000 4.12 160 08:23 15.02.2021
2534 Clear 3 1026 87 10000 4.12 150 07:27 15.02.2021
2535 Clouds 2 1026 87 10000 4.12 160 06:42 15.02.2021
2536 Clouds 2 1026 75 10000 2.06 150 04:58 15.02.2021
2537 Clear 2 1027 65 10000 3.09 150 02:21 15.02.2021
2538 Clear 1 1028 64 10000 3.6 130 00:24 15.02.2021
2539 Clear 1 1028 64 10000 3.09 130 23:30 14.02.2021
2540 Clear 1 1029 69 10000 3.6 140 22:51 14.02.2021
2541 Clear 1 1029 69 10000 3.6 140 22:30 14.02.2021
2542 Clear 1 1029 60 10000 2.06 170 21:55 14.02.2021
2543 Clear 1 1028 60 10000 2.57 130 21:32 14.02.2021
2544 Clear 1 1027 64 10000 5.66 140 20:56 14.02.2021
2545 Clear 1 1028 64 10000 4.63 130 20:31 14.02.2021
2546 Clear 1 1029 64 10000 4.63 120 19:57 14.02.2021
2547 Clear 1 1029 64 10000 4.63 120 19:36 14.02.2021
2548 Clear 1 1030 60 10000 4.12 130 18:47 14.02.2021
2549 Clear 1 1030 60 10000 4.12 130 18:28 14.02.2021
2550 Clear 1 1030 55 10000 5.14 130 17:45 14.02.2021
2551 Clear 1 1029 55 10000 4.63 130 17:26 14.02.2021
2552 Clear 2 1031 48 10000 7.2 130 16:40 14.02.2021
2553 Clear 2 1031 48 10000 7.2 130 16:21 14.02.2021
2554 Clear 2 1031 51 10000 4.63 110 15:45 14.02.2021
2555 Clear 1 1031 51 10000 5.14 130 14:59 14.02.2021
2556 Clear 1 1031 48 10000 6.17 110 14:33 14.02.2021
2557 Clear 1 1032 48 10000 5.14 130 13:58 14.02.2021
2558 Clear 1 1032 51 10000 5.14 130 13:32 14.02.2021
2559 Clear 0 1032 51 10000 5.66 120 12:58 14.02.2021
2560 Clear 0 1033 51 10000 6.17 130 12:22 14.02.2021
2561 Clear -1 1033 47 10000 5.66 120 11:52 14.02.2021
2562 Clear -2 1033 47 10000 6.17 120 11:26 14.02.2021
2563 Clear -2 1033 50 10000 6.69 120 10:57 14.02.2021
2564 Clear -3 1033 50 10000 5.66 120 10:21 14.02.2021
2565 Clear -4 1034 54 10000 4.12 110 09:40 14.02.2021
2566 Clear -4 1034 54 10000 4.12 110 09:21 14.02.2021
2567 Clear -5 1034 58 10000 3.6 110 08:52 14.02.2021
2568 Clear -5 1033 63 10000 3.09 110 07:58 14.02.2021
2569 Clear -5 1033 58 10000 3.09 110 06:54 14.02.2021
2570 Clear -5 1033 58 10000 3.09 110 06:54 14.02.2021
2571 Clear -5 1033 63 10000 3.6 110 05:43 14.02.2021
2572 Clear -4 1034 58 10000 3.6 110 03:51 14.02.2021
2573 Clear -4 1035 58 10000 3.09 100 02:29 14.02.2021
2574 Clear -3 1034 58 10000 3.6 90 00:54 14.02.2021
2575 Clear -3 1034 54 10000 3.6 110 00:34 14.02.2021
2576 Clear -3 1034 50 10000 5.14 110 23:44 13.02.2021
2577 Clear -2 1034 50 10000 3.6 110 23:23 13.02.2021
2578 Clear -2 1034 50 10000 3.6 110 22:49 13.02.2021
2579 Clear -3 1033 63 10000 2.57 80 22:21 13.02.2021
2580 Clear -3 1034 59 10000 2.06 80 21:49 13.02.2021
2581 Clear -3 1034 59 10000 2.06 80 21:22 13.02.2021
2582 Clear -2 1034 54 10000 2.57 110 20:31 13.02.2021
2583 Clear -2 1034 50 10000 2.57 110 19:59 13.02.2021
2584 Clear -2 1033 47 10000 3.6 100 19:41 13.02.2021
2585 Clear -2 1033 47 10000 3.6 100 19:21 13.02.2021
2586 Clear -1 1033 43 10000 5.14 110 18:45 13.02.2021
2587 Clear -1 1032 40 10000 5.66 100 18:24 13.02.2021
2588 Clear -1 1032 40 10000 5.14 100 17:43 13.02.2021
2589 Clear 0 1032 40 10000 5.14 100 17:23 13.02.2021
2590 Clear 0 1032 40 10000 5.66 100 16:44 13.02.2021
2591 Clear 0 1032 40 10000 5.66 100 16:26 13.02.2021
2592 Clear 0 1032 40 10000 5.14 90 15:42 13.02.2021
2593 Clear 0 1032 40 10000 5.14 90 15:24 13.02.2021
2594 Clear -1 1032 40 10000 6.69 80 14:33 13.02.2021
2595 Clear -1 1032 40 10000 6.69 80 13:48 13.02.2021
2596 Clear -1 1033 40 10000 6.17 100 13:26 13.02.2021
2597 Clear -2 1033 40 10000 6.69 80 12:50 13.02.2021
2598 Clear -2 1033 46 10000 5.66 100 12:20 13.02.2021
2599 Clear -3 1033 46 10000 5.66 100 11:46 13.02.2021
2600 Clear -3 1032 50 10000 7.2 100 11:21 13.02.2021
2601 Clear -4 1032 50 10000 5.66 90 10:56 13.02.2021
2602 Clear -4 1032 58 10000 6.17 80 10:38 13.02.2021
2603 Clear -4 1032 58 10000 6.17 80 10:19 13.02.2021
2604 Clear -5 1032 63 10000 3.6 70 09:45 13.02.2021
2605 Clear -5 1032 63 10000 3.6 70 09:21 13.02.2021
2606 Clear -6 1031 68 10000 4.12 60 08:41 13.02.2021
2607 Clear -6 1031 73 10000 4.12 50 07:54 13.02.2021
2608 Clear -5 1031 73 10000 3.09 40 06:44 13.02.2021
2609 Clear -5 1031 73 10000 3.09 40 06:19 13.02.2021
2610 Clear -5 1030 68 10000 3.6 40 04:26 13.02.2021
2611 Clear -3 1030 68 10000 4.12 40 01:57 13.02.2021
2612 Clear -3 1030 68 10000 4.12 40 00:52 13.02.2021
2613 Clear -3 1029 63 10000 5.14 40 23:55 12.02.2021
2614 Clear -2 1029 63 10000 5.14 40 23:32 12.02.2021
2615 Clear -2 1029 63 10000 4.63 50 22:59 12.02.2021
2616 Clear -2 1028 59 10000 5.14 50 22:30 12.02.2021
2617 Clear -1 1028 59 10000 6.17 50 21:54 12.02.2021
2618 Clear -1 1028 59 10000 6.17 50 21:35 12.02.2021
2619 Clear -1 1028 55 10000 5.66 40 20:59 12.02.2021
2620 Clear -1 1027 59 10000 5.14 40 20:39 12.02.2021
2621 Clear -1 1027 59 10000 5.66 40 20:19 12.02.2021
2622 Clear -1 1027 59 10000 5.66 40 19:48 12.02.2021
2623 Clear -1 1027 59 10000 5.66 40 19:26 12.02.2021
2624 Clear 0 1026 51 10000 8.23 50 18:30 12.02.2021
2625 Clear 0 1026 55 10000 8.23 40 17:49 12.02.2021
2626 Clear 0 1026 55 10000 8.23 40 17:29 12.02.2021
2627 Clear 1 1026 47 10000 8.75 50 16:41 12.02.2021
2628 Clear 1 1026 47 10000 8.23 50 15:47 12.02.2021
2629 Clear 1 1025 51 10000 8.23 50 15:21 12.02.2021
2630 Clear 1 1025 47 10000 8.23 60 14:53 12.02.2021
2631 Clear 0 1025 55 10000 7.72 50 14:30 12.02.2021
2632 Clear 0 1025 55 10000 7.72 50 14:30 12.02.2021
2633 Clear 0 1025 59 10000 7.2 50 13:42 12.02.2021
2634 Clear 0 1025 59 10000 7.2 50 13:23 12.02.2021
2635 Clear -1 1025 59 10000 7.2 50 12:50 12.02.2021
2636 Clear -1 1024 54 10000 7.2 60 12:31 12.02.2021
2637 Clear -2 1025 59 10000 7.2 60 11:46 12.02.2021
2638 Clear -2 1025 59 10000 8.75 60 11:20 12.02.2021
2639 Clear -2 1025 59 10000 7.72 60 10:47 12.02.2021
2640 Clear -3 1025 63 10000 7.2 50 09:56 12.02.2021
2641 Clear -3 1025 63 10000 7.2 50 09:38 12.02.2021
2642 Clear -4 1025 68 10000 5.66 60 09:19 12.02.2021
2643 Clear -4 1025 68 10000 5.66 60 08:40 12.02.2021
2644 Clear -4 1025 68 10000 4.63 50 08:18 12.02.2021
2645 Clear -4 1025 68 10000 4.63 50 07:51 12.02.2021
2646 Clear -4 1025 63 10000 4.12 50 06:57 12.02.2021
2647 Clear -4 1025 68 10000 5.14 60 05:51 12.02.2021
2648 Clear -4 1025 68 10000 5.14 60 05:26 12.02.2021
2649 Clear -3 1026 63 10000 5.14 70 01:56 12.02.2021
2650 Clear -2 1026 64 10000 4.63 80 23:46 11.02.2021
2651 Clear -2 1026 64 10000 4.63 80 23:22 11.02.2021
2652 Clear -2 1026 64 10000 5.14 80 22:58 11.02.2021
2653 Clear -2 1026 69 10000 4.63 70 22:40 11.02.2021
2654 Clear -2 1026 69 10000 5.14 70 22:21 11.02.2021
2655 Clear -1 1026 69 10000 5.66 80 21:42 11.02.2021
2656 Clear -1 1026 69 10000 5.66 80 21:23 11.02.2021
2657 Clear -1 1026 69 10000 4.12 70 20:46 11.02.2021
2658 Clear -1 1026 69 10000 5.14 70 20:23 11.02.2021
2659 Clear -1 1026 64 10000 5.14 80 19:51 11.02.2021
2660 Clear -1 1025 64 10000 5.66 80 19:33 11.02.2021
2661 Clear -1 1025 64 10000 6.69 80 18:59 11.02.2021
2662 Clear -1 1025 64 10000 5.66 70 18:31 11.02.2021
2663 Clear 0 1025 59 10000 6.69 80 17:58 11.02.2021
2664 Clear 0 1025 59 10000 7.2 80 17:37 11.02.2021
2665 Clear 0 1025 59 10000 7.2 80 17:19 11.02.2021
2666 Clear 0 1025 55 10000 7.2 80 16:41 11.02.2021
2667 Clear 0 1025 55 10000 7.2 80 16:23 11.02.2021
2668 Clear 0 1025 51 10000 7.2 80 15:44 11.02.2021
2669 Clear 0 1025 51 10000 7.2 80 15:26 11.02.2021
2670 Clear 0 1025 51 10000 7.2 80 14:51 11.02.2021
2671 Clear 0 1025 51 10000 7.72 80 14:30 11.02.2021
2672 Clouds 0 1026 59 10000 7.72 70 13:42 11.02.2021
2673 Clear 0 1026 59 10000 7.2 80 13:19 11.02.2021
2674 Clear -1 1026 59 10000 7.2 80 12:53 11.02.2021
2675 Clouds -1 1026 64 9000 7.2 70 12:30 11.02.2021
2676 Clouds -2 1026 64 9000 6.69 80 11:47 11.02.2021
2677 Clouds -2 1025 69 9000 6.69 80 11:26 11.02.2021
2678 Clouds -3 1025 80 9000 6.17 80 10:45 11.02.2021
2679 Clouds -4 1025 80 9000 6.17 80 10:26 11.02.2021
2680 Clouds -4 1025 86 9000 5.14 70 09:55 11.02.2021
2681 Clouds -5 1025 86 9000 3.6 70 09:24 11.02.2021
2682 Clouds -5 1025 93 9000 3.6 60 08:55 11.02.2021
2683 Clouds -5 1025 93 9000 3.6 60 08:55 11.02.2021
2684 Clear -6 1025 86 9000 2.57 50 08:31 11.02.2021
2685 Clear -5 1024 86 9000 3.6 60 07:39 11.02.2021
2686 Clouds -5 1024 86 9000 3.09 40 06:42 11.02.2021
2687 Clouds -5 1024 86 8000 3.09 40 05:54 11.02.2021
2688 Clear -5 1022 86 9000 4.12 40 02:49 11.02.2021
2689 Clear -5 1022 86 10000 4.12 40 02:21 11.02.2021
2690 Clear -4 1022 74 10000 2.57 20 00:23 11.02.2021
2691 Clear -4 1021 74 10000 3.09 20 23:48 10.02.2021
2692 Clear -4 1021 74 10000 2.57 10 23:19 10.02.2021
2693 Clear -4 1021 74 10000 2.57 10 22:43 10.02.2021
2694 Clear -4 1020 74 10000 3.09 30 22:23 10.02.2021
2695 Clouds -3 1019 74 10000 3.6 30 21:40 10.02.2021
2696 Clouds -3 1019 74 10000 3.09 20 21:20 10.02.2021
2697 Clouds -3 1019 74 10000 3.09 20 21:20 10.02.2021
2698 Clouds -3 1019 74 10000 3.09 20 20:51 10.02.2021
2699 Clouds -3 1018 74 10000 4.63 20 20:28 10.02.2021
2700 Clouds -3 1018 69 10000 4.63 20 19:50 10.02.2021
2701 Clouds -3 1017 64 10000 5.66 40 19:28 10.02.2021
2702 Clouds -2 1016 69 10000 5.14 20 18:49 10.02.2021
2703 Clouds -2 1016 64 10000 5.14 30 18:27 10.02.2021
2704 Clouds -2 1015 64 10000 6.69 30 17:59 10.02.2021
2705 Clear -2 1015 64 10000 6.17 40 17:39 10.02.2021
2706 Clear -2 1014 55 10000 6.17 30 17:19 10.02.2021
2707 Clear -1 1014 55 10000 6.69 30 16:45 10.02.2021
2708 Clear -1 1013 55 10000 6.17 30 16:24 10.02.2021
2709 Clear -1 1012 55 10000 5.66 20 15:25 10.02.2021
2710 Clear -1 1012 55 10000 5.66 20 14:54 10.02.2021
2711 Clear -2 1012 55 10000 7.2 40 14:35 10.02.2021
2712 Clear -2 1011 54 10000 6.17 20 13:55 10.02.2021
2713 Clear -2 1011 54 10000 5.66 30 13:31 10.02.2021
2714 Clear -3 1010 59 10000 6.17 20 12:55 10.02.2021
2715 Clear -4 1010 63 10000 6.69 30 12:31 10.02.2021
2716 Clear -4 1010 63 10000 5.66 20 11:59 10.02.2021
2717 Clear -5 1009 68 10000 6.69 20 11:40 10.02.2021
2718 Clear -5 1008 73 10000 6.17 20 11:22 10.02.2021
2719 Clouds -5 1008 73 10000 7.2 10 10:37 10.02.2021
2720 Clear -6 1007 73 10000 6.17 10 10:18 10.02.2021
2721 Clear -6 1007 73 10000 6.17 10 10:18 10.02.2021
2722 Clear -5 1007 73 10000 6.69 20 09:35 10.02.2021
2723 Clear -5 1006 79 10000 6.17 10 08:57 10.02.2021
2724 Clear -5 1005 74 10000 6.69 10 08:39 10.02.2021
2725 Clouds -4 1005 74 10000 7.2 10 07:52 10.02.2021
2726 Snow -4 1004 74 10000 6.17 20 06:51 10.02.2021
2727 Snow -2 1002 80 8000 7.2 30 02:45 10.02.2021
2728 Mist -1 1001 86 4800 6.17 40 00:25 10.02.2021
2729 Clouds -1 1001 80 8000 6.17 40 23:35 09.02.2021
2730 Clouds -1 1001 80 9000 6.69 40 22:54 09.02.2021
2731 Clouds -1 1001 80 9000 7.2 40 22:24 09.02.2021
2732 Clouds -1 1002 80 8000 7.72 40 21:52 09.02.2021
2733 Clouds -1 1002 80 8000 7.72 40 21:33 09.02.2021
2734 Clouds -2 1002 86 8000 7.2 50 20:50 09.02.2021
2735 Clouds -2 1002 86 8000 7.2 50 20:27 09.02.2021
2736 Clouds -2 1002 86 7000 7.72 40 19:59 09.02.2021
2737 Clouds -2 1002 86 6000 7.2 50 19:38 09.02.2021
2738 Clouds -2 1003 86 7000 5.14 40 18:58 09.02.2021
2739 Clouds -2 1003 86 7000 5.14 40 18:58 09.02.2021
2740 Clouds -2 1003 86 7000 5.14 40 18:58 09.02.2021
2741 Clouds -2 1002 86 6000 6.17 50 18:37 09.02.2021
2742 Clouds -2 1002 86 7000 6.17 50 17:57 09.02.2021
2743 Clouds -2 1003 86 8000 6.17 50 17:39 09.02.2021
2744 Clouds -2 1003 86 8000 6.17 50 17:20 09.02.2021
2745 Clouds -2 1003 86 8000 6.17 50 16:42 09.02.2021
2746 Clouds -2 1003 86 10000 6.17 40 16:18 09.02.2021
2747 Clouds -2 1003 86 10000 6.17 40 15:50 09.02.2021
2748 Clouds -2 1003 86 9000 5.66 50 15:25 09.02.2021
2749 Clouds -2 1004 86 8000 5.14 50 14:54 09.02.2021
2750 Clouds -2 1004 86 8000 5.14 40 14:28 09.02.2021
2751 Clouds -2 1004 86 8000 4.63 50 13:52 09.02.2021
2752 Clouds -2 1005 86 8000 4.12 50 13:25 09.02.2021
2753 Clouds -3 1005 80 8000 3.09 20 12:54 09.02.2021
2754 Clouds -3 1005 86 7000 4.12 40 12:36 09.02.2021
2755 Clouds -3 1005 86 6000 3.09 30 11:58 09.02.2021
2756 Clouds -3 1005 86 7000 3.6 30 11:39 09.02.2021
2757 Clouds -3 1005 86 7000 3.6 30 11:20 09.02.2021
2758 Clouds -3 1005 86 7000 4.12 30 10:50 09.02.2021
2759 Clouds -3 1004 86 8000 3.6 40 10:19 09.02.2021
2760 Clouds -3 1004 86 8000 3.6 40 09:43 09.02.2021
2761 Clouds -3 1004 86 8000 4.12 40 09:25 09.02.2021
2762 Clouds -3 1004 86 8000 3.6 40 08:51 09.02.2021
2763 Clouds -3 1004 86 7000 3.09 20 08:27 09.02.2021
2764 Clouds -2 1003 86 6000 4.12 30 07:29 09.02.2021
2765 Clouds -3 1003 86 8000 3.09 340 04:55 09.02.2021
2766 Clouds -2 1003 86 8000 1.54 350 03:42 09.02.2021
2767 Clouds -2 1002 86 7000 2.06 10 01:20 09.02.2021
2768 Clouds -2 1001 86 6000 3.6 340 23:58 08.02.2021
2769 Clouds -1 1001 86 7000 3.6 10 23:22 08.02.2021
2770 Clouds -1 1001 86 8000 2.06 360 22:46 08.02.2021
2771 Clouds -1 1001 86 8000 2.57 20 22:26 08.02.2021
2772 Clouds -1 1001 80 8000 2.57 20 21:58 08.02.2021
2773 Clouds -1 1001 86 8000 3.09 360 21:38 08.02.2021
2774 Clouds -1 1001 86 9000 2.57 350 21:19 08.02.2021
2775 Clouds -1 1000 86 10000 2.57 350 20:44 08.02.2021
2776 Clouds -1 1000 86 10000 2.57 350 20:23 08.02.2021
2777 Clouds -1 1000 86 9000 2.06 350 19:49 08.02.2021
2778 Clouds -1 1000 86 9000 2.06 350 19:30 08.02.2021
2779 Clouds -1 1000 80 9000 3.6 350 18:50 08.02.2021
2780 Clouds -1 999 74 9000 3.6 360 18:25 08.02.2021
2781 Clouds -1 999 80 9000 3.09 10 17:59 08.02.2021
2782 Clouds -1 999 80 8000 3.09 10 17:41 08.02.2021
2783 Clouds -1 999 80 7000 2.57 10 17:21 08.02.2021
2784 Clouds 0 999 80 6000 3.09 20 16:40 08.02.2021
2785 Clouds 0 999 80 6000 3.09 20 16:20 08.02.2021
2786 Mist 0 998 86 4800 2.57 10 15:38 08.02.2021
2787 Mist 0 998 86 4900 3.09 360 15:19 08.02.2021
2788 Mist 0 998 86 4900 3.09 360 14:51 08.02.2021
2789 Mist 0 998 86 5000 2.57 10 14:29 08.02.2021
2790 Mist 0 998 86 5000 2.57 20 13:54 08.02.2021
2791 Mist 0 998 86 5000 1.54 360 13:28 08.02.2021
2792 Mist 0 998 86 5000 1.54 360 13:28 08.02.2021
2793 Mist 0 998 86 5000 2.57 340 12:42 08.02.2021
2794 Mist 0 998 86 5000 2.57 340 12:24 08.02.2021
2795 Mist 0 998 86 5000 2.06 10 11:39 08.02.2021
2796 Mist 0 998 86 5000 2.57 360 11:18 08.02.2021
2797 Mist 0 998 86 4900 2.57 10 10:39 08.02.2021
2798 Mist -1 998 86 4900 2.57 10 10:20 08.02.2021
2799 Clouds -1 998 86 6000 2.06 350 09:48 08.02.2021
2800 Clouds -1 998 86 8000 2.06 300 09:21 08.02.2021
2801 Clouds -1 997 86 8000 2.06 290 08:31 08.02.2021
2802 Clouds -1 997 86 8000 2.57 330 07:49 08.02.2021
2803 Clouds -1 997 86 8000 2.06 320 07:21 08.02.2021
2804 Clouds -1 997 86 8000 1.54 300 05:28 08.02.2021
2805 Clouds 0 997 86 10000 2.06 300 02:27 08.02.2021
2806 Clouds 0 998 80 10000 2.06 310 00:43 08.02.2021
2807 Clouds 0 998 80 10000 2.06 310 00:18 08.02.2021
2808 Clouds 0 998 80 10000 2.57 300 23:46 07.02.2021
2809 Clouds 0 998 80 10000 3.09 290 23:19 07.02.2021
2810 Clouds 0 998 80 10000 3.09 290 22:43 07.02.2021
2811 Clouds 0 998 80 10000 2.06 320 22:24 07.02.2021
2812 Clouds 0 998 80 10000 2.57 310 21:52 07.02.2021
2813 Clouds 0 998 80 10000 3.09 310 21:26 07.02.2021
2814 Clouds 1 998 80 10000 2.57 310 20:53 07.02.2021
2815 Clouds 1 998 80 10000 2.06 300 20:33 07.02.2021
2816 Clouds 1 998 80 10000 3.09 300 19:55 07.02.2021
2817 Clouds 1 998 80 10000 3.09 300 19:31 07.02.2021
2818 Rain 1 998 80 9000 3.6 310 18:56 07.02.2021
2819 Clouds 1 997 80 10000 3.6 290 18:36 07.02.2021
2820 Clouds 1 997 80 10000 3.6 290 18:18 07.02.2021
2821 Clouds 1 997 80 10000 3.09 310 17:41 07.02.2021
2822 Clouds 1 997 80 10000 2.57 310 17:19 07.02.2021
2823 Clouds 1 997 80 10000 3.6 300 16:47 07.02.2021
2824 Snow 1 997 80 10000 3.6 300 16:26 07.02.2021
2825 Clouds 1 997 86 10000 4.12 310 15:55 07.02.2021
2826 Rain 1 997 86 8000 3.09 300 15:37 07.02.2021
2827 Snow 1 997 93 10000 2.57 300 15:18 07.02.2021
2828 Drizzle 1 997 93 3700 3.09 300 14:39 07.02.2021
2829 Mist 1 997 93 3700 3.09 300 14:19 07.02.2021
2830 Drizzle 1 997 93 2400 2.57 300 13:36 07.02.2021
2831 Clouds 2 998 87 8000 2.57 300 12:57 07.02.2021
2832 Rain 2 998 93 8000 4.12 330 12:37 07.02.2021
2833 Mist 2 998 93 5000 3.09 330 12:18 07.02.2021
2834 Mist 2 998 93 3700 3.6 330 11:28 07.02.2021
2835 Mist 3 998 93 5000 3.6 340 10:58 07.02.2021
2836 Mist 3 998 93 3600 1.54 350 10:28 07.02.2021
2837 Mist 3 997 93 3200 2.57 360 09:51 07.02.2021
2838 Mist 4 997 93 3300 3.6 360 09:25 07.02.2021
2839 Mist 5 996 93 5000 4.12 250 08:48 07.02.2021
2840 Drizzle 5 997 93 5000 1.54 360 07:49 07.02.2021
2841 Clouds 5 997 93 10000 2.57 330 05:58 07.02.2021
2842 Clouds 6 997 93 10000 3.09 340 04:34 07.02.2021
2843 Clouds 7 997 87 10000 3.6 340 02:26 07.02.2021
2844 Clouds 7 998 93 7000 2.57 320 00:37 07.02.2021
2845 Clouds 7 998 93 10000 2.57 320 23:51 06.02.2021
2846 Clouds 7 998 100 10000 2.57 310 22:54 06.02.2021
2847 Clouds 7 998 100 10000 3.09 330 22:19 06.02.2021
2848 Clouds 8 998 93 6000 2.57 340 21:37 06.02.2021
2849 Clouds 8 998 93 6000 2.57 340 21:19 06.02.2021
2850 Mist 8 999 93 5000 2.06 350 20:43 06.02.2021
2851 Mist 8 999 93 5000 2.06 350 20:22 06.02.2021
2852 Mist 8 999 100 5000 2.06 350 19:45 06.02.2021
2853 Rain 8 999 93 6000 2.57 360 19:23 06.02.2021
2854 Rain 8 999 93 7000 3.09 350 18:44 06.02.2021
2855 Rain 8 999 93 5000 2.57 360 18:24 06.02.2021
2856 Rain 8 1000 93 4600 2.57 360 17:41 06.02.2021
2857 Rain 8 1000 100 4700 3.09 10 17:21 06.02.2021
2858 Mist 8 1000 100 4700 3.09 10 16:52 06.02.2021
2859 Rain 8 1000 93 5000 3.6 10 16:30 06.02.2021
2860 Rain 8 1001 100 5000 2.57 10 15:53 06.02.2021
2861 Rain 8 1001 87 8000 4.12 30 15:34 06.02.2021
2862 Rain 8 1002 87 10000 4.63 30 14:59 06.02.2021
2863 Rain 8 1002 87 10000 4.63 20 14:39 06.02.2021
2864 Rain 9 1003 87 10000 4.12 20 14:21 06.02.2021
2865 Drizzle 9 1003 93 10000 3.6 20 13:44 06.02.2021
2866 Clouds 8 1005 93 10000 3.6 10 12:47 06.02.2021
2867 Clouds 8 1005 93 10000 3.6 20 12:20 06.02.2021
2868 Clouds 8 1005 100 10000 2.06 20 11:40 06.02.2021
2869 Clouds 8 1005 100 10000 2.06 20 11:20 06.02.2021
2870 Clouds 8 1005 93 10000 3.09 20 10:53 06.02.2021
2871 Clouds 8 1006 100 10000 3.09 30 10:27 06.02.2021
2872 Clouds 8 1006 93 9000 2.57 10 09:38 06.02.2021
2873 Clouds 8 1006 93 9000 2.57 10 09:19 06.02.2021
2874 Drizzle 8 1007 93 8000 2.06 360 08:59 06.02.2021
2875 Clouds 8 1006 93 9000 2.06 360 08:29 06.02.2021
2876 Clouds 8 1006 93 8000 1.54 360 07:44 06.02.2021
2877 Clear 8 1007 93 10000 1.54 360 05:42 06.02.2021
2878 Clouds 8 1008 100 6000 1.54 30 03:48 06.02.2021
2879 Clouds 8 1009 93 9000 2.06 70 01:33 06.02.2021
2880 Rain 9 1009 93 10000 1.54 0 00:46 06.02.2021
2881 Clouds 9 1009 93 10000 1.54 0 00:19 06.02.2021
2882 Clear 9 1009 93 10000 1.54 350 23:42 05.02.2021
2883 Clouds 9 1009 87 10000 1.54 30 23:24 05.02.2021
2884 Clouds 9 1009 87 10000 1.54 30 22:45 05.02.2021
2885 Clouds 9 1009 87 10000 1.03 10 22:19 05.02.2021
2886 Clear 9 1010 87 10000 2.57 40 21:41 05.02.2021
2887 Clear 9 1010 87 10000 3.09 60 21:23 05.02.2021
2888 Clear 10 1010 87 10000 2.57 100 20:43 05.02.2021
2889 Clear 10 1010 81 10000 2.57 110 19:51 05.02.2021
2890 Clear 10 1010 81 10000 2.57 110 19:19 05.02.2021
2891 Clear 10 1010 81 10000 2.57 140 18:53 05.02.2021
2892 Clouds 11 1010 76 10000 3.6 150 18:20 05.02.2021
2893 Clouds 11 1010 76 10000 3.6 160 17:44 05.02.2021
2894 Clouds 11 1010 82 10000 3.6 150 17:22 05.02.2021
2895 Clouds 12 1010 82 10000 3.6 150 16:49 05.02.2021
2896 Clouds 12 1010 82 10000 3.09 160 16:24 05.02.2021
2897 Clouds 12 1010 71 10000 1.03 0 15:57 05.02.2021
2898 Clouds 12 1011 71 10000 1.54 0 15:26 05.02.2021
2899 Clouds 11 1012 71 10000 2.57 230 14:41 05.02.2021
2900 Clouds 11 1012 71 10000 0.51 0 14:23 05.02.2021
2901 Clouds 11 1012 71 10000 0.51 0 14:23 05.02.2021
2902 Clouds 11 1012 71 10000 0.51 0 13:59 05.02.2021
2903 Clouds 11 1012 71 10000 0.51 0 13:59 05.02.2021
2904 Clouds 11 1012 76 10000 1.54 0 13:36 05.02.2021
2905 Clouds 11 1012 76 10000 2.57 200 12:56 05.02.2021
2906 Clouds 11 1013 81 10000 3.6 230 12:37 05.02.2021
2907 Clouds 10 1012 82 10000 3.6 210 11:42 05.02.2021
2908 Clouds 9 1012 82 10000 3.6 210 11:22 05.02.2021
2909 Clouds 9 1012 87 10000 2.57 250 10:59 05.02.2021
2910 Clouds 8 1012 93 10000 2.57 230 10:27 05.02.2021
2911 Clouds 8 1012 93 8000 2.06 230 09:48 05.02.2021
2912 Clouds 8 1012 93 8000 2.06 230 09:29 05.02.2021
2913 Clouds 8 1011 93 10000 1.54 200 08:58 05.02.2021
2914 Clouds 8 1011 100 9000 2.06 270 08:29 05.02.2021
2915 Clouds 8 1011 100 6000 2.26 219 07:39 05.02.2021
2916 Clouds 8 1010 100 6000 1.03 0 06:57 05.02.2021
2917 Clouds 8 1010 100 6000 1.54 130 05:39 05.02.2021
2918 Clouds 8 1010 100 7000 2.06 130 04:49 05.02.2021
2919 Clouds 7 1010 93 7000 1.54 160 02:25 05.02.2021
2920 Clouds 7 1010 93 10000 1.03 0 00:41 05.02.2021
2921 Clouds 8 1010 93 10000 1.54 60 00:21 05.02.2021
2922 Clouds 8 1010 93 10000 1.54 60 23:59 04.02.2021
2923 Clouds 8 1010 93 10000 1.54 60 23:59 04.02.2021
2924 Clouds 8 1010 93 10000 2.06 60 23:39 04.02.2021
2925 Clouds 8 1010 93 10000 2.06 60 23:21 04.02.2021
2926 Clouds 8 1010 93 10000 1.54 0 22:51 04.02.2021
2927 Clouds 8 1010 93 10000 1.54 0 22:51 04.02.2021
2928 Clouds 9 1010 93 10000 1.03 0 22:28 04.02.2021
2929 Clouds 9 1010 87 10000 1.03 0 21:42 04.02.2021
2930 Clouds 9 1010 87 10000 2.06 10 21:22 04.02.2021
2931 Clouds 9 1010 87 10000 3.09 130 20:53 04.02.2021
2932 Clouds 10 1010 87 10000 3.09 140 20:34 04.02.2021
2933 Clouds 10 1010 87 10000 4.12 140 19:48 04.02.2021
2934 Clouds 10 1010 81 10000 2.57 150 19:19 04.02.2021
2935 Clouds 10 1010 76 10000 2.57 140 18:38 04.02.2021
2936 Clouds 11 1010 76 10000 3.6 140 18:20 04.02.2021
2937 Clouds 11 1010 76 10000 3.6 140 17:44 04.02.2021
2938 Clouds 11 1010 76 10000 3.6 120 17:20 04.02.2021
2939 Clouds 11 1010 76 10000 4.12 120 16:46 04.02.2021
2940 Clouds 11 1010 76 10000 4.63 130 16:19 04.02.2021
2941 Clear 12 1011 71 10000 1.54 0 15:40 04.02.2021
2942 Clear 11 1011 76 10000 2.06 100 15:21 04.02.2021
2943 Clear 11 1011 76 10000 2.06 100 14:55 04.02.2021
2944 Clouds 11 1012 82 10000 3.09 160 14:37 04.02.2021
2945 Clouds 10 1012 87 10000 2.57 150 14:18 04.02.2021
2946 Clouds 10 1012 81 10000 3.09 160 13:41 04.02.2021
2947 Clouds 9 1013 81 10000 3.6 170 12:57 04.02.2021
2948 Clouds 9 1013 81 10000 3.09 160 12:21 04.02.2021
2949 Clouds 8 1013 87 10000 4.12 160 11:50 04.02.2021
2950 Clouds 8 1013 87 10000 4.12 160 11:32 04.02.2021
2951 Clouds 7 1013 93 10000 3.09 160 10:44 04.02.2021
2952 Clear 7 1013 93 10000 2.57 140 10:18 04.02.2021
2953 Clouds 7 1012 93 10000 2.06 140 09:43 04.02.2021
2954 Clouds 6 1012 93 10000 2.57 150 09:19 04.02.2021
2955 Clouds 6 1012 100 10000 2.57 140 08:41 04.02.2021
2956 Clouds 6 1012 93 10000 1.54 120 08:20 04.02.2021
2957 Clouds 6 1012 100 10000 1.54 110 07:42 04.02.2021
2958 Clouds 6 1012 100 10000 1.54 110 07:20 04.02.2021
2959 Clouds 6 1012 100 10000 3.09 160 06:41 04.02.2021
2960 Clear 6 1012 93 10000 1.03 190 03:54 04.02.2021
2961 Clear 6 1012 93 10000 1.03 190 03:54 04.02.2021
2962 Clear 6 1011 81 10000 1.54 0 02:26 04.02.2021
2963 Clear 7 1011 87 10000 1.54 240 00:56 04.02.2021
2964 Clear 7 1010 87 10000 2.57 200 23:40 03.02.2021
2965 Clear 7 1009 81 10000 3.6 230 22:50 03.02.2021
2966 Clear 7 1009 81 10000 3.6 230 22:24 03.02.2021
2967 Clouds 8 1008 81 10000 4.12 240 21:59 03.02.2021
2968 Clouds 8 1008 81 10000 3.6 240 21:41 03.02.2021
2969 Clouds 8 1008 81 10000 3.6 240 21:21 03.02.2021
2970 Clouds 8 1007 81 10000 4.63 230 20:46 03.02.2021
2971 Clouds 9 1007 81 10000 4.63 230 20:26 03.02.2021
2972 Clouds 9 1006 81 10000 4.12 240 19:51 03.02.2021
2973 Clouds 9 1005 81 10000 5.14 240 19:23 03.02.2021
2974 Clouds 9 1003 76 10000 5.66 260 18:51 03.02.2021
2975 Clouds 9 1002 71 10000 8.23 260 18:22 03.02.2021
2976 Clouds 9 1002 71 10000 8.23 260 17:57 03.02.2021
2977 Clouds 10 1001 76 10000 9.77 270 17:37 03.02.2021
2978 Clouds 10 1000 76 10000 8.23 270 17:18 03.02.2021
2979 Clouds 10 999 82 10000 7.2 250 16:36 03.02.2021
2980 Clouds 11 998 87 8000 7.72 240 15:51 03.02.2021
2981 Clouds 11 997 82 10000 9.77 220 15:31 03.02.2021
2982 Clouds 12 997 76 10000 9.26 220 14:59 03.02.2021
2983 Clouds 12 996 82 10000 11.32 210 14:41 03.02.2021
2984 Clouds 12 996 82 10000 11.32 210 14:19 03.02.2021
2985 Clouds 13 997 71 10000 8.75 200 13:43 03.02.2021
2986 Clouds 13 997 76 10000 8.75 200 13:18 03.02.2021
2987 Clouds 12 997 76 10000 8.23 200 12:39 03.02.2021
2988 Clouds 12 997 76 10000 7.72 210 12:19 03.02.2021
2989 Clouds 12 997 82 10000 7.72 210 11:41 03.02.2021
2990 Clouds 12 997 82 10000 8.23 210 11:21 03.02.2021
2991 Clouds 11 996 76 10000 5.14 210 10:28 03.02.2021
2992 Clouds 10 997 82 10000 5.66 190 09:58 03.02.2021
2993 Clear 11 997 87 10000 5.66 210 09:39 03.02.2021
2994 Clear 11 997 87 10000 5.66 210 09:20 03.02.2021
2995 Clouds 11 996 87 10000 6.17 250 08:45 03.02.2021
2996 Rain 12 997 94 4500 6.69 210 07:58 03.02.2021
2997 Clouds 12 997 94 10000 6.17 180 06:43 03.02.2021
2998 Clouds 12 997 94 10000 6.17 180 06:20 03.02.2021
2999 Mist 11 999 93 5000 4.63 160 04:45 03.02.2021
3000 Clouds 11 1001 87 10000 4.12 180 03:52 03.02.2021
3001 Rain 11 1002 76 10000 5.66 200 02:41 03.02.2021
3002 Clouds 11 1003 76 10000 6.17 200 01:48 03.02.2021
3003 Clouds 12 1003 82 10000 6.69 210 00:24 03.02.2021
3004 Clouds 12 1002 82 10000 7.2 210 23:44 02.02.2021
3005 Clouds 12 1002 82 10000 7.72 210 23:26 02.02.2021
3006 Clouds 12 1002 82 10000 6.69 200 22:51 02.02.2021
3007 Clouds 12 1002 82 10000 6.69 200 22:21 02.02.2021
3008 Clouds 12 1003 76 10000 6.17 210 21:47 02.02.2021
3009 Clouds 12 1002 76 10000 6.17 210 21:27 02.02.2021
3010 Clouds 12 1002 76 10000 6.17 210 20:50 02.02.2021
3011 Clouds 13 1002 76 10000 6.17 210 20:23 02.02.2021
3012 Clouds 13 1002 76 10000 5.14 210 19:59 02.02.2021
3013 Clouds 13 1002 76 10000 6.17 210 19:40 02.02.2021
3014 Clouds 13 1002 76 10000 6.17 210 19:22 02.02.2021
3015 Clouds 13 1002 76 10000 6.17 220 18:42 02.02.2021
3016 Clouds 13 1002 76 10000 6.17 220 18:24 02.02.2021
3017 Clouds 13 1002 82 10000 5.14 220 17:48 02.02.2021
3018 Clouds 14 1002 77 10000 7.72 230 17:21 02.02.2021
3019 Clouds 14 1001 72 10000 7.2 220 16:55 02.02.2021
3020 Clouds 14 1001 72 10000 7.72 220 16:36 02.02.2021
3021 Clouds 14 1001 77 10000 7.72 220 15:57 02.02.2021
3022 Clouds 14 1001 72 10000 5.14 230 15:38 02.02.2021
3023 Clouds 14 1001 72 10000 5.14 230 15:18 02.02.2021
3024 Clouds 14 1002 88 10000 5.66 240 14:39 02.02.2021
3025 Clouds 14 1002 88 10000 5.66 240 14:18 02.02.2021
3026 Clouds 14 1002 76 10000 7.72 250 13:44 02.02.2021
3027 Clouds 14 1002 76 10000 8.23 240 13:25 02.02.2021
3028 Clouds 14 1002 76 10000 8.23 240 12:53 02.02.2021
3029 Mist 13 1002 93 3800 5.14 270 12:24 02.02.2021
3030 Clouds 13 1001 88 10000 5.66 210 11:40 02.02.2021
3031 Clouds 13 1001 88 10000 5.66 210 11:19 02.02.2021
3032 Mist 12 1001 94 4300 5.14 220 10:47 02.02.2021
3033 Clouds 12 1000 94 10000 4.12 210 10:26 02.02.2021
3034 Clouds 11 1000 94 10000 3.6 220 09:46 02.02.2021
3035 Clouds 11 1000 87 10000 4.63 210 09:23 02.02.2021
3036 Clouds 11 999 93 10000 5.14 220 08:43 02.02.2021
3037 Clouds 11 999 93 10000 5.14 210 07:51 02.02.2021
3038 Drizzle 10 999 93 10000 3.6 200 07:26 02.02.2021
3039 Mist 9 1000 100 5000 4.63 180 06:40 02.02.2021
3040 Clouds 9 1000 93 6000 5.14 180 05:51 02.02.2021
3041 Clouds 8 1001 93 9000 5.66 160 04:36 02.02.2021
3042 Clouds 7 1004 81 10000 4.12 160 02:25 02.02.2021
3043 Clouds 7 1004 87 10000 2.06 150 00:49 02.02.2021
3044 Clear 7 1004 87 10000 2.06 190 00:18 02.02.2021
3045 Clouds 7 1004 81 10000 1.54 230 23:18 01.02.2021
3046 Clouds 8 1004 76 10000 3.09 260 22:39 01.02.2021
3047 Clouds 7 1004 76 10000 3.09 260 22:21 01.02.2021
3048 Clouds 8 1004 76 10000 2.57 250 21:48 01.02.2021
3049 Clouds 7 1004 76 10000 3.09 260 21:24 01.02.2021
3050 Clouds 8 1003 76 10000 2.57 270 20:45 01.02.2021
3051 Clouds 8 1003 76 10000 2.57 270 20:25 01.02.2021
3052 Clouds 8 1003 76 10000 2.57 280 19:49 01.02.2021
3053 Clouds 8 1002 76 10000 3.09 280 19:22 01.02.2021
3054 Clouds 8 1002 76 10000 3.6 290 18:59 01.02.2021
3055 Clouds 8 1001 81 10000 2.06 300 18:40 01.02.2021
3056 Clouds 8 1001 81 10000 2.06 300 18:22 01.02.2021
3057 Clouds 8 1000 81 10000 3.09 310 17:44 01.02.2021
3058 Clouds 8 999 81 10000 3.6 290 17:21 01.02.2021
3059 Clouds 9 999 76 10000 3.09 290 16:41 01.02.2021
3060 Clouds 9 999 76 10000 4.12 290 16:22 01.02.2021
3061 Clouds 9 998 76 10000 3.6 300 15:40 01.02.2021
3062 Clouds 9 997 81 10000 5.14 300 15:19 01.02.2021
3063 Clouds 9 997 81 10000 5.14 300 15:19 01.02.2021
3064 Clouds 10 997 81 10000 4.63 280 14:51 01.02.2021
3065 Clouds 10 996 76 10000 3.6 280 14:23 01.02.2021
3066 Clouds 10 996 81 10000 3.6 310 13:44 01.02.2021
3067 Clouds 10 996 81 10000 3.6 300 13:25 01.02.2021
3068 Clouds 10 996 81 10000 3.6 300 12:44 01.02.2021
3069 Clouds 10 995 81 10000 3.6 300 12:25 01.02.2021
3070 Clouds 10 995 87 10000 4.12 320 11:43 01.02.2021
3071 Clouds 9 993 93 10000 3.09 280 11:21 01.02.2021
3072 Clouds 9 993 93 10000 3.09 280 10:50 01.02.2021
3073 Clouds 9 993 100 10000 3.09 280 10:22 01.02.2021
3074 Clouds 9 992 100 10000 3.09 270 09:53 01.02.2021
3075 Clouds 9 992 100 10000 4.12 270 09:35 01.02.2021
3076 Mist 9 991 100 4200 2.57 260 08:56 01.02.2021
3077 Drizzle 9 990 100 5000 4.12 250 08:26 01.02.2021
3078 Clouds 9 989 93 10000 2.57 240 06:59 01.02.2021
3079 Clouds 9 989 93 10000 3.09 250 04:34 01.02.2021
3080 Clouds 9 988 100 10000 2.06 240 02:40 01.02.2021
3081 Clouds 9 988 100 10000 2.06 160 00:18 01.02.2021
3082 Mist 9 988 100 5000 3.09 150 23:21 31.01.2021
3083 Clouds 9 989 100 6000 2.06 130 22:38 31.01.2021
3084 Clouds 9 989 100 6000 1.54 140 22:19 31.01.2021
3085 Mist 9 990 100 5000 2.06 140 21:47 31.01.2021
3086 Clouds 9 989 100 6000 1.54 140 21:47 31.01.2021
3087 Mist 9 990 100 5000 2.06 140 21:21 31.01.2021
3088 Clouds 9 990 100 6000 2.06 160 20:43 31.01.2021
3089 Clouds 9 991 100 6000 2.57 160 20:21 31.01.2021
3090 Mist 9 992 100 5000 3.09 150 19:40 31.01.2021
3091 Mist 9 992 100 5000 3.09 150 19:40 31.01.2021
3092 Mist 9 992 100 5000 3.09 150 19:22 31.01.2021
3093 Rain 9 992 100 6000 2.57 140 18:56 31.01.2021
3094 Rain 9 993 100 4100 1.54 120 18:38 31.01.2021
3095 Rain 9 993 93 3100 1.54 140 18:18 31.01.2021
3096 Rain 9 994 93 1900 2.06 160 17:43 31.01.2021
3097 Rain 9 994 93 1900 2.06 160 17:22 31.01.2021
3098 Clouds 9 994 93 8000 2.06 160 16:42 31.01.2021
3099 Clouds 9 995 93 10000 2.06 150 16:22 31.01.2021
3100 Clouds 9 996 100 9000 3.09 150 15:50 31.01.2021
3101 Clouds 9 996 100 9000 3.09 150 15:28 31.01.2021
3102 Clouds 8 997 100 6000 0.51 0 14:42 31.01.2021
3103 Clouds 8 998 93 6000 1 181 14:21 31.01.2021
3104 Clouds 8 998 93 6000 1 181 13:49 31.01.2021
3105 Clouds 8 998 93 7000 0.91 143 13:26 31.01.2021
3106 Clouds 7 999 100 7000 1.54 0 12:48 31.01.2021
3107 Clouds 7 999 100 7000 1.54 0 12:22 31.01.2021
3108 Clouds 7 999 93 10000 2.06 30 11:44 31.01.2021
3109 Clouds 7 999 93 10000 2.06 30 11:44 31.01.2021
3110 Clouds 7 999 93 10000 3.09 40 11:22 31.01.2021
3111 Mist 7 999 93 5000 2.06 10 10:49 31.01.2021
3112 Mist 6 999 93 5000 2.06 10 10:31 31.01.2021
3113 Mist 7 1000 93 4700 2.06 10 09:50 31.01.2021
3114 Clouds 7 999 93 8000 3.09 20 09:23 31.01.2021
3115 Clouds 7 999 93 10000 2.57 360 08:33 31.01.2021
3116 Clouds 7 998 100 7000 3.09 10 06:57 31.01.2021
3117 Mist 8 996 93 2400 3.6 10 05:35 31.01.2021
3118 Clouds 10 995 93 8000 1.54 140 00:47 31.01.2021
3119 Clouds 9 995 93 6000 2.57 140 00:22 31.01.2021
3120 Mist 10 995 93 3200 2.06 170 23:33 30.01.2021
3121 Clouds 10 995 93 10000 2.06 170 22:56 30.01.2021
3122 Clouds 10 994 93 10000 3.09 180 22:30 30.01.2021
3123 Drizzle 10 994 93 10000 3.09 180 21:40 30.01.2021
3124 Clouds 10 994 93 10000 2.57 190 21:22 30.01.2021
3125 Clouds 10 994 93 10000 2.57 190 20:47 30.01.2021
3126 Clouds 10 994 93 10000 3.6 180 20:28 30.01.2021
3127 Clouds 10 994 87 10000 2.57 180 19:46 30.01.2021
3128 Clouds 10 994 87 10000 2.57 180 19:26 30.01.2021
3129 Clouds 11 994 87 10000 1.03 0 18:55 30.01.2021
3130 Clouds 11 994 87 6000 1.54 170 18:36 30.01.2021
3131 Clouds 11 994 87 6000 1.54 170 18:18 30.01.2021
3132 Clouds 12 994 76 10000 4.12 190 17:21 30.01.2021
3133 Clouds 12 994 76 10000 4.12 190 16:48 30.01.2021
3134 Clouds 12 994 76 10000 4.63 210 16:25 30.01.2021
3135 Clouds 13 994 67 10000 4.63 240 15:59 30.01.2021
3136 Clouds 12 994 71 10000 4.12 220 15:40 30.01.2021
3137 Clouds 12 994 71 10000 5.14 230 15:21 30.01.2021
3138 Clouds 13 994 71 10000 5.14 230 14:52 30.01.2021
3139 Clouds 13 994 71 10000 6.69 240 14:22 30.01.2021
3140 Clouds 12 995 82 10000 5.14 240 13:35 30.01.2021
3141 Clouds 12 995 82 10000 5.14 240 13:35 30.01.2021
3142 Clouds 12 995 87 10000 2.57 240 12:53 30.01.2021
3143 Clouds 11 995 100 10000 3.09 220 12:33 30.01.2021
3144 Drizzle 11 995 93 8000 5.14 230 11:59 30.01.2021
3145 Clouds 11 995 93 10000 5.14 210 11:37 30.01.2021
3146 Clouds 10 995 93 10000 4.12 210 10:51 30.01.2021
3147 Clouds 10 995 93 10000 4.12 200 09:53 30.01.2021
3148 Drizzle 9 996 100 4000 5.66 210 09:31 30.01.2021
3149 Mist 9 996 93 4200 3.6 160 08:49 30.01.2021
3150 Rain 9 996 100 6000 4.12 150 08:30 30.01.2021
3151 Mist 8 998 100 4500 5.14 130 06:58 30.01.2021
3152 Rain 8 999 100 5000 3.6 130 06:19 30.01.2021
3153 Clouds 8 1003 93 10000 3.6 200 03:35 30.01.2021
3154 Clouds 8 1004 87 10000 2.06 210 02:25 30.01.2021
3155 Clear 7 1005 81 10000 2.06 200 01:35 30.01.2021
3156 Clear 7 1006 81 10000 1.54 200 00:47 30.01.2021
3157 Clear 7 1006 81 10000 3.09 230 00:21 30.01.2021
3158 Clear 7 1006 81 10000 3.09 230 23:49 29.01.2021
3159 Clear 7 1006 81 10000 3.6 230 23:24 29.01.2021
3160 Clouds 8 1007 76 10000 5.14 250 22:45 29.01.2021
3161 Clouds 8 1007 76 10000 5.14 250 22:22 29.01.2021
3162 Clouds 9 1007 76 10000 5.66 240 21:43 29.01.2021
3163 Clouds 9 1007 76 10000 5.66 240 21:25 29.01.2021
3164 Clouds 10 1007 87 10000 3.09 260 20:42 29.01.2021
3165 Clouds 9 1007 87 10000 3.09 260 20:42 29.01.2021
3166 Drizzle 9 1007 87 10000 4.63 260 20:21 29.01.2021
3167 Clouds 9 1006 87 9000 7.72 260 19:39 29.01.2021
3168 Clouds 9 1006 81 10000 6.69 260 19:20 29.01.2021
3169 Clouds 10 1005 81 10000 6.69 270 18:45 29.01.2021
3170 Clouds 10 1005 81 10000 6.69 270 17:46 29.01.2021
3171 Clouds 10 1004 87 10000 7.2 260 17:22 29.01.2021
3172 Clouds 9 1003 87 10000 7.72 260 16:47 29.01.2021
3173 Clouds 10 1003 81 10000 7.72 250 16:24 29.01.2021
3174 Clouds 10 1003 81 10000 7.72 250 15:54 29.01.2021
3175 Clouds 11 1003 81 10000 9.77 250 15:36 29.01.2021
3176 Clouds 11 1003 71 10000 9.26 250 14:58 29.01.2021
3177 Clouds 12 1003 71 10000 7.2 260 14:21 29.01.2021
3178 Clouds 12 1003 71 10000 7.2 260 13:46 29.01.2021
3179 Clouds 12 1004 71 10000 9.26 260 13:27 29.01.2021
3180 Clouds 12 1004 76 10000 8.75 240 12:30 29.01.2021
3181 Clouds 11 1003 76 10000 8.23 230 11:59 29.01.2021
3182 Clouds 11 1003 76 10000 9.26 230 11:41 29.01.2021
3183 Clouds 11 1003 76 10000 9.26 230 11:18 29.01.2021
3184 Clouds 10 1004 81 10000 6.69 240 10:41 29.01.2021
3185 Clouds 10 1004 81 10000 7.2 230 10:19 29.01.2021
3186 Clouds 10 1004 81 10000 7.2 230 09:37 29.01.2021
3187 Clouds 10 1004 81 10000 6.69 240 08:50 29.01.2021
3188 Clouds 11 1003 76 10000 6.17 240 08:26 29.01.2021
3189 Clouds 11 1003 76 10000 7.2 250 07:44 29.01.2021
3190 Clouds 11 1003 76 10000 7.2 250 07:26 29.01.2021
3191 Clouds 11 1003 76 10000 7.2 250 07:26 29.01.2021
3192 Clouds 11 1003 76 10000 7.2 260 06:38 29.01.2021
3193 Clouds 11 1002 82 10000 7.72 250 04:53 29.01.2021
3194 Clouds 12 1004 94 10000 5.14 200 00:52 29.01.2021
3195 Clouds 12 1004 94 10000 5.14 200 00:23 29.01.2021
3196 Clouds 12 1004 94 10000 6.17 210 23:57 28.01.2021
3197 Clouds 12 1005 94 10000 5.66 200 23:39 28.01.2021
3198 Clouds 12 1005 94 9000 5.14 210 23:20 28.01.2021
3199 Rain 12 1006 87 10000 4.63 220 22:41 28.01.2021
3200 Rain 12 1006 94 10000 4.63 200 22:21 28.01.2021
3201 Clouds 12 1006 94 10000 4.63 200 21:44 28.01.2021
3202 Clouds 12 1006 94 8000 5.14 210 21:26 28.01.2021
3203 Clouds 12 1007 94 10000 4.12 210 20:46 28.01.2021
3204 Clouds 12 1007 94 10000 3.09 200 20:19 28.01.2021
3205 Clouds 12 1007 94 10000 3.09 200 20:19 28.01.2021
3206 Clouds 12 1007 94 10000 3.09 200 20:19 28.01.2021
3207 Clouds 12 1007 87 10000 3.09 210 19:54 28.01.2021
3208 Clouds 12 1008 87 10000 3.09 200 19:32 28.01.2021
3209 Clouds 12 1008 94 10000 3.09 240 18:54 28.01.2021
3210 Clouds 12 1008 87 10000 3.09 230 18:36 28.01.2021
3211 Clouds 13 1008 87 10000 3.09 230 18:18 28.01.2021
3212 Clouds 13 1008 82 10000 3.09 250 17:43 28.01.2021
3213 Clouds 13 1008 82 10000 3.09 250 17:24 28.01.2021
3214 Clouds 13 1008 77 10000 4.12 260 16:43 28.01.2021
3215 Clouds 14 1008 77 10000 5.66 260 16:21 28.01.2021
3216 Clouds 14 1008 77 10000 7.2 260 15:39 28.01.2021
3217 Clouds 13 1007 77 10000 9.26 250 14:58 28.01.2021
3218 Clouds 13 1007 82 10000 7.72 250 14:39 28.01.2021
3219 Clouds 14 1007 82 10000 7.72 250 14:20 28.01.2021
3220 Clouds 13 1008 88 10000 6.17 260 13:43 28.01.2021
3221 Clouds 13 1007 88 10000 7.2 250 12:52 28.01.2021
3222 Clouds 13 1007 88 10000 7.2 250 12:33 28.01.2021
3223 Clouds 13 1007 88 10000 6.69 250 11:59 28.01.2021
3224 Clouds 13 1007 88 10000 6.69 240 11:40 28.01.2021
3225 Clouds 12 1007 88 10000 6.69 240 11:19 28.01.2021
3226 Clouds 12 1007 94 10000 7.2 250 10:50 28.01.2021
3227 Clouds 12 1006 94 9000 7.2 240 10:32 28.01.2021
3228 Drizzle 11 1006 94 5000 7.2 240 09:44 28.01.2021
3229 Clouds 11 1006 100 10000 7.72 270 09:22 28.01.2021
3230 Clouds 11 1006 93 10000 6.69 250 08:54 28.01.2021
3231 Rain 11 1006 100 4200 5.66 230 08:19 28.01.2021
3232 Clouds 11 1006 93 10000 4.63 200 07:44 28.01.2021
3233 Rain 11 1007 100 10000 4.63 210 06:50 28.01.2021
3234 Rain 11 1008 93 10000 4.12 220 05:56 28.01.2021
3235 Drizzle 9 1009 100 4800 3.6 190 03:52 28.01.2021
3236 Clouds 8 1012 100 7000 2.57 160 01:38 28.01.2021
3237 Rain 8 1013 100 7000 1.54 160 23:48 27.01.2021
3238 Clouds 8 1013 100 7000 3.6 230 23:23 27.01.2021
3239 Clouds 8 1014 100 7000 2.06 200 22:42 27.01.2021
3240 Clouds 8 1014 100 7000 2.06 200 22:22 27.01.2021
3241 Rain 8 1014 100 8000 2.06 210 21:43 27.01.2021
3242 Rain 8 1014 100 8000 2.06 210 21:23 27.01.2021
3243 Rain 8 1014 100 6000 1.54 200 20:52 27.01.2021
3244 Clouds 8 1014 100 6000 2.06 210 20:27 27.01.2021
3245 Clouds 8 1014 100 6000 1.54 220 19:50 27.01.2021
3246 Drizzle 8 1014 93 9000 1.54 210 19:26 27.01.2021
3247 Clouds 8 1014 100 7000 2.57 210 18:57 27.01.2021
3248 Drizzle 8 1014 93 10000 3.09 210 18:38 27.01.2021
3249 Clouds 7 1014 100 10000 1.54 200 18:20 27.01.2021
3250 Clouds 7 1014 100 8000 1.54 190 17:39 27.01.2021
3251 Mist 7 1014 100 3000 2.57 190 17:18 27.01.2021
3252 Mist 7 1015 100 4200 3.6 210 16:43 27.01.2021
3253 Mist 7 1015 100 4200 3.6 210 16:24 27.01.2021
3254 Clouds 7 1015 93 9000 3.09 230 15:49 27.01.2021
3255 Clouds 7 1015 93 10000 3.6 240 15:29 27.01.2021
3256 Mist 6 1015 100 3100 3.09 220 14:39 27.01.2021
3257 Mist 6 1015 100 3100 3.09 220 14:19 27.01.2021
3258 Clouds 6 1016 100 7000 3.09 230 13:40 27.01.2021
3259 Mist 6 1015 100 3000 2.06 220 12:46 27.01.2021
3260 Mist 5 1015 100 3000 2.06 220 12:25 27.01.2021
3261 Mist 5 1015 100 3100 1.54 0 11:52 27.01.2021
3262 Mist 5 1015 100 3200 1.54 220 11:26 27.01.2021
3263 Clouds 4 1015 93 6000 2.57 210 10:51 27.01.2021
3264 Mist 4 1014 100 5000 2.06 210 10:26 27.01.2021
3265 Mist 3 1014 100 3300 2.06 190 09:56 27.01.2021
3266 Mist 3 1014 100 1200 3.09 240 09:33 27.01.2021
3267 Clouds 3 1014 100 7000 2.57 200 08:47 27.01.2021
3268 Drizzle 3 1014 100 4400 3.09 190 07:58 27.01.2021
3269 Drizzle 3 1014 93 4400 2.57 190 07:39 27.01.2021
3270 Mist 2 1014 93 5000 3.09 190 06:47 27.01.2021
3271 Clouds 2 1014 87 10000 5.14 190 05:57 27.01.2021
3272 Clouds 3 1015 87 10000 4.12 190 05:35 27.01.2021
3273 Rain 3 1017 87 10000 4.63 180 02:46 27.01.2021
3274 Clouds 3 1017 87 10000 4.63 180 02:21 27.01.2021
3275 Mist 3 1017 81 5000 4.63 190 01:46 27.01.2021
3276 Rain 3 1017 65 10000 6.69 170 00:30 27.01.2021
3277 Clear 3 1018 65 10000 6.69 180 23:44 26.01.2021
3278 Clouds 3 1019 65 10000 5.14 190 23:22 26.01.2021
3279 Clear 3 1019 70 10000 6.17 170 22:44 26.01.2021
3280 Clear 3 1019 70 10000 6.17 170 22:20 26.01.2021
3281 Clear 3 1019 75 10000 5.14 170 21:53 26.01.2021
3282 Clear 3 1020 70 10000 5.14 180 21:26 26.01.2021
3283 Clear 3 1020 70 10000 4.63 170 20:56 26.01.2021
3284 Clear 3 1019 80 10000 4.63 180 20:38 26.01.2021
3285 Clear 3 1021 65 10000 4.12 180 20:20 26.01.2021
3286 Clear 3 1021 70 10000 4.63 170 19:43 26.01.2021
3287 Clear 3 1021 70 10000 4.63 170 19:20 26.01.2021
3288 Clear 3 1021 65 10000 4.63 180 18:46 26.01.2021
3289 Clear 3 1020 65 10000 4.63 170 18:24 26.01.2021
3290 Clear 4 1020 65 10000 4.63 160 17:49 26.01.2021
3291 Clear 4 1021 60 10000 3.09 190 17:27 26.01.2021
3292 Clear 4 1021 60 10000 4.12 220 16:55 26.01.2021
3293 Clear 4 1021 60 10000 5.66 220 16:37 26.01.2021
3294 Clear 4 1021 60 10000 6.17 210 16:18 26.01.2021
3295 Clear 4 1022 60 10000 5.14 210 15:40 26.01.2021
3296 Clear 4 1022 60 10000 3.6 230 15:20 26.01.2021
3297 Clear 4 1022 60 10000 4.12 230 14:37 26.01.2021
3298 Clear 4 1023 65 10000 5.14 240 14:18 26.01.2021
3299 Clear 3 1023 65 10000 3.6 240 13:33 26.01.2021
3300 Clear 3 1023 60 10000 4.12 250 12:57 26.01.2021
3301 Clear 3 1023 65 10000 3.6 240 12:38 26.01.2021
3302 Clear 3 1023 65 10000 3.6 240 12:19 26.01.2021
3303 Clear 3 1023 70 10000 2.06 230 11:50 26.01.2021
3304 Clear 2 1023 75 10000 2.57 240 11:19 26.01.2021
3305 Clear 1 1022 86 10000 2.57 230 10:39 26.01.2021
3306 Clear 0 1022 86 10000 2.06 230 10:20 26.01.2021
3307 Clear -1 1022 93 10000 1.03 0 09:39 26.01.2021
3308 Clear 0 1022 93 10000 1.03 0 09:21 26.01.2021
3309 Clear -1 1021 86 10000 1.03 0 08:44 26.01.2021
3310 Clear -1 1021 93 10000 2.49 257 07:56 26.01.2021
3311 Clear -1 1021 93 10000 0.51 210 07:19 26.01.2021
3312 Clouds -1 1021 93 10000 0.51 230 05:52 26.01.2021
3313 Clouds -1 1021 86 10000 1.54 230 05:33 26.01.2021
3314 Clear -1 1020 86 10000 2.06 250 03:39 26.01.2021
3315 Clear 0 1019 86 10000 2.57 260 01:19 26.01.2021
3316 Clouds 0 1018 86 9000 2.57 250 00:30 26.01.2021
3317 Clear 0 1018 80 10000 2.57 240 23:33 25.01.2021
3318 Clear 0 1018 80 10000 2.06 250 22:51 25.01.2021
3319 Clear 0 1017 80 10000 2.06 260 22:31 25.01.2021
3320 Clouds 1 1017 80 9000 2.06 260 21:48 25.01.2021
3321 Clouds 1 1016 80 10000 2.06 260 21:22 25.01.2021
3322 Clear 1 1015 75 10000 2.06 260 20:45 25.01.2021
3323 Clear 2 1015 75 10000 2.06 260 20:27 25.01.2021
3324 Clear 2 1015 70 10000 1.54 290 19:50 25.01.2021
3325 Clear 2 1015 65 10000 2.57 260 19:27 25.01.2021
3326 Clear 3 1014 65 10000 2.06 280 18:48 25.01.2021
3327 Clear 4 1014 60 10000 2.06 290 18:26 25.01.2021
3328 Clear 4 1013 56 10000 3.09 300 17:49 25.01.2021
3329 Clouds 5 1013 60 10000 4.12 300 17:26 25.01.2021
3330 Clouds 5 1012 52 10000 3.6 320 16:59 25.01.2021
3331 Clouds 5 1012 60 10000 5.14 330 16:40 25.01.2021
3332 Clouds 5 1011 65 10000 4.12 320 16:21 25.01.2021
3333 Clouds 5 1011 65 10000 4.12 320 15:43 25.01.2021
3334 Clouds 5 1011 65 10000 5.14 330 15:23 25.01.2021
3335 Clouds 5 1010 70 10000 5.66 330 14:39 25.01.2021
3336 Clouds 5 1010 70 10000 5.66 330 14:19 25.01.2021
3337 Clouds 5 1010 70 10000 5.66 340 13:45 25.01.2021
3338 Clouds 5 1009 70 10000 5.66 330 13:25 25.01.2021
3339 Clouds 4 1008 75 10000 5.14 330 12:45 25.01.2021
3340 Clouds 3 1008 81 10000 5.66 340 12:19 25.01.2021
3341 Clouds 3 1007 87 10000 5.14 330 11:47 25.01.2021
3342 Clouds 3 1007 87 10000 5.14 330 11:18 25.01.2021
3343 Clouds 3 1005 87 10000 5.66 330 10:39 25.01.2021
3344 Clouds 3 1004 87 10000 4.12 290 10:18 25.01.2021
3345 Clouds 2 1004 93 10000 3.6 280 09:42 25.01.2021
3346 Clouds 2 1003 93 10000 3.6 270 09:23 25.01.2021
3347 Clouds 2 1002 93 10000 5.14 270 08:27 25.01.2021
3348 Clouds 2 1002 93 10000 5.14 260 07:31 25.01.2021
3349 Clouds 1 1001 87 10000 4.63 250 06:55 25.01.2021
3350 Clouds 2 999 93 10000 6.17 260 03:46 25.01.2021
3351 Clouds 2 998 87 10000 5.66 230 01:30 25.01.2021
3352 Clouds 2 998 87 10000 3.6 240 23:44 24.01.2021
3353 Clouds 2 998 87 10000 4.12 250 23:19 24.01.2021
3354 Clouds 2 998 87 10000 4.12 250 22:43 24.01.2021
3355 Clouds 2 997 87 10000 4.63 240 22:21 24.01.2021
3356 Clouds 2 997 87 10000 4.12 250 21:49 24.01.2021
3357 Clouds 2 997 93 10000 3.09 230 21:24 24.01.2021
3358 Clouds 2 997 93 10000 2.57 210 20:46 24.01.2021
3359 Clouds 2 997 93 10000 2.57 210 20:22 24.01.2021
3360 Clouds 3 998 93 10000 4.12 200 19:53 24.01.2021
3361 Clouds 3 998 93 10000 4.12 200 19:53 24.01.2021
3362 Clouds 3 998 93 10000 4.12 190 19:27 24.01.2021
3363 Clouds 2 998 93 10000 4.63 190 18:59 24.01.2021
3364 Clouds 2 998 93 10000 3.6 230 18:40 24.01.2021
3365 Clouds 2 998 93 10000 3.09 210 18:21 24.01.2021
3366 Clouds 2 998 87 10000 2.57 200 17:51 24.01.2021
3367 Clouds 2 998 93 10000 4.12 200 17:30 24.01.2021
3368 Clouds 2 999 87 10000 4.12 200 16:59 24.01.2021
3369 Rain 2 999 93 10000 5.14 200 16:40 24.01.2021
3370 Rain 2 999 93 10000 5.14 200 16:20 24.01.2021
3371 Clouds 2 999 100 10000 5.66 180 15:45 24.01.2021
3372 Snow 1 999 93 3700 5.14 170 15:20 24.01.2021
3373 Snow 1 1000 93 2700 5.14 170 14:45 24.01.2021
3374 Snow 1 1000 93 2700 5.14 170 14:24 24.01.2021
3375 Rain 2 1001 81 10000 5.14 180 13:34 24.01.2021
3376 Clouds 2 1002 81 10000 5.66 170 12:51 24.01.2021
3377 Clouds 2 1002 81 10000 5.66 170 12:22 24.01.2021
3378 Clear 2 1002 87 10000 4.63 170 11:55 24.01.2021
3379 Clear 1 1002 86 10000 4.12 150 11:25 24.01.2021
3380 Clear 1 1003 93 10000 3.09 140 10:59 24.01.2021
3381 Clear 0 1003 93 10000 2.57 150 10:30 24.01.2021
3382 Clear 0 1003 100 10000 1.54 120 09:47 24.01.2021
3383 Clear -1 1003 100 10000 1.03 130 09:19 24.01.2021
3384 Clear -1 1002 93 10000 1.54 0 08:38 24.01.2021
3385 Clear -1 1001 93 10000 2.06 250 03:51 24.01.2021
3386 Clear 0 1000 93 10000 2.57 260 02:20 24.01.2021
3387 Clear 0 999 93 10000 3.09 250 00:57 24.01.2021
3388 Clear 1 999 93 10000 3.09 260 00:21 24.01.2021
3389 Clear 1 999 93 10000 2.57 260 23:42 23.01.2021
3390 Clouds 2 999 93 10000 2.57 240 23:22 23.01.2021
3391 Clear 2 998 93 10000 1.54 240 22:41 23.01.2021
3392 Clear 2 998 93 10000 1.54 240 22:20 23.01.2021
3393 Clear 3 998 87 10000 2.57 280 21:24 23.01.2021
3394 Clouds 3 997 87 10000 3.6 280 20:59 23.01.2021
3395 Clouds 3 997 87 10000 4.12 290 20:39 23.01.2021
3396 Clouds 3 997 87 10000 4.12 290 20:21 23.01.2021
3397 Clouds 3 996 87 10000 5.14 300 19:45 23.01.2021
3398 Clouds 3 995 87 10000 3.6 300 19:20 23.01.2021
3399 Clouds 3 995 87 10000 4.12 300 18:43 23.01.2021
3400 Clouds 3 995 87 10000 4.63 310 18:24 23.01.2021
3401 Clouds 3 994 93 10000 5.14 310 17:45 23.01.2021
3402 Clouds 3 993 81 10000 4.63 300 17:26 23.01.2021
3403 Clouds 4 993 81 10000 5.14 280 16:46 23.01.2021
3404 Clouds 4 992 81 10000 5.14 280 16:24 23.01.2021
3405 Clouds 5 991 93 10000 5.14 250 15:31 23.01.2021
3406 Clouds 6 991 87 10000 3.09 240 14:58 23.01.2021
3407 Clouds 6 991 87 10000 4.12 240 14:30 23.01.2021
3408 Clouds 6 991 93 6000 3.09 240 13:52 23.01.2021
3409 Clouds 5 991 93 10000 3.6 180 13:34 23.01.2021
3410 Clouds 5 992 93 9000 5.66 160 12:49 23.01.2021
3411 Clouds 5 992 93 9000 5.66 160 12:27 23.01.2021
3412 Clouds 4 992 100 10000 5.66 120 11:45 23.01.2021
3413 Clouds 4 992 100 10000 5.66 120 11:24 23.01.2021
3414 Clouds 4 993 93 10000 5.66 140 10:46 23.01.2021
3415 Rain 3 994 100 7000 6.17 130 10:18 23.01.2021
3416 Rain 3 994 100 10000 5.66 120 09:44 23.01.2021
3417 Clouds 3 995 100 10000 5.66 140 08:53 23.01.2021
3418 Clouds 3 995 93 10000 4.63 150 08:30 23.01.2021
3419 Clouds 3 996 93 10000 4.12 160 07:24 23.01.2021
3420 Clear 3 998 87 10000 2.06 190 03:36 23.01.2021
3421 Clouds 5 999 81 10000 5.14 210 00:38 23.01.2021
3422 Clear 5 999 87 10000 3.6 220 23:38 22.01.2021
3423 Clear 5 999 87 10000 1.54 200 22:53 22.01.2021
3424 Clouds 5 999 87 10000 3.09 210 22:32 22.01.2021
3425 Clear 5 999 70 10000 2.57 230 21:46 22.01.2021
3426 Clear 5 999 70 10000 2.57 230 21:26 22.01.2021
3427 Clear 5 999 75 10000 2.57 210 20:56 22.01.2021
3428 Clouds 5 998 75 10000 2.06 220 20:37 22.01.2021
3429 Clouds 5 998 75 10000 2.06 230 19:54 22.01.2021
3430 Clear 6 998 75 10000 1.54 230 19:21 22.01.2021
3431 Clouds 6 998 70 10000 2.06 250 18:55 22.01.2021
3432 Clouds 6 997 76 10000 2.06 280 18:28 22.01.2021
3433 Clouds 7 997 71 10000 2.57 280 17:58 22.01.2021
3434 Clouds 7 997 66 10000 2.57 270 17:40 22.01.2021
3435 Clouds 8 996 71 10000 2.57 250 16:59 22.01.2021
3436 Clouds 8 996 61 10000 3.09 290 16:36 22.01.2021
3437 Clouds 8 996 66 10000 2.57 250 15:59 22.01.2021
3438 Clouds 8 996 76 10000 2.57 250 15:26 22.01.2021
3439 Clouds 8 996 76 10000 2.57 250 14:51 22.01.2021
3440 Clouds 7 996 81 10000 2.57 260 14:29 22.01.2021
3441 Clouds 7 996 81 10000 3.09 250 13:46 22.01.2021
3442 Clouds 6 996 81 10000 3.09 250 13:27 22.01.2021
3443 Clouds 6 996 81 10000 3.09 260 12:44 22.01.2021
3444 Clouds 6 996 81 10000 2.57 220 12:21 22.01.2021
3445 Clouds 5 995 93 10000 2.57 160 11:45 22.01.2021
3446 Clouds 4 995 93 10000 3.09 160 10:54 22.01.2021
3447 Clouds 4 995 93 10000 3.09 160 10:34 22.01.2021
3448 Clouds 4 994 93 10000 2.57 160 09:57 22.01.2021
3449 Clouds 4 994 93 10000 2.57 150 09:27 22.01.2021
3450 Clouds 4 994 93 10000 2.06 170 08:50 22.01.2021
3451 Clouds 4 993 93 10000 2.06 170 08:25 22.01.2021
3452 Clouds 4 992 93 10000 2.06 140 07:31 22.01.2021
3453 Clouds 6 991 87 10000 3.09 290 02:46 22.01.2021
3454 Clouds 9 988 87 10000 10.29 210 00:38 22.01.2021
3455 Clouds 9 988 87 10000 9.77 200 23:51 21.01.2021
3456 Clouds 10 987 81 10000 9.26 200 23:29 21.01.2021
3457 Clouds 10 987 87 10000 7.72 220 22:50 21.01.2021
3458 Clouds 10 987 81 10000 8.75 200 22:24 21.01.2021
3459 Clouds 10 987 81 10000 10.29 190 21:43 21.01.2021
3460 Clouds 10 987 81 10000 10.29 190 21:20 21.01.2021
3461 Clouds 9 988 81 10000 10.29 200 20:48 21.01.2021
3462 Rain 10 988 81 10000 9.77 220 20:29 21.01.2021
3463 Clouds 10 988 87 10000 9.26 200 19:52 21.01.2021
3464 Clouds 10 988 87 10000 8.75 200 19:29 21.01.2021
3465 Rain 10 988 93 6000 8.75 180 18:57 21.01.2021
3466 Rain 9 989 87 10000 9.26 180 18:38 21.01.2021
3467 Rain 9 988 93 6000 9.77 190 18:19 21.01.2021
3468 Clouds 9 990 93 9000 8.75 180 17:42 21.01.2021
3469 Clouds 9 991 93 10000 8.75 160 17:19 21.01.2021
3470 Rain 9 991 93 10000 8.75 160 16:46 21.01.2021
3471 Rain 9 992 87 9000 8.75 150 16:24 21.01.2021
3472 Rain 9 993 87 10000 7.2 170 15:59 21.01.2021
3473 Rain 9 993 81 10000 7.2 180 15:33 21.01.2021
3474 Clouds 9 994 81 10000 7.2 180 14:53 21.01.2021
3475 Clouds 9 995 76 10000 7.2 180 14:35 21.01.2021
3476 Clouds 9 996 76 10000 6.69 190 13:48 21.01.2021
3477 Clouds 9 996 76 10000 6.69 190 13:28 21.01.2021
3478 Clouds 9 997 76 10000 6.17 200 12:55 21.01.2021
3479 Clouds 8 997 81 10000 7.2 190 12:37 21.01.2021
3480 Clouds 8 997 81 10000 7.2 200 12:18 21.01.2021
3481 Clouds 7 998 81 10000 6.17 200 11:43 21.01.2021
3482 Clouds 7 998 81 10000 6.17 200 11:43 21.01.2021
3483 Clouds 7 997 81 10000 5.66 210 11:23 21.01.2021
3484 Clouds 7 997 81 10000 5.66 210 10:45 21.01.2021
3485 Clouds 6 997 81 10000 5.66 210 10:25 21.01.2021
3486 Clouds 6 997 87 10000 5.14 210 09:43 21.01.2021
3487 Clouds 6 997 87 10000 5.14 210 09:24 21.01.2021
3488 Clear 6 996 87 10000 5.14 210 08:39 21.01.2021
3489 Clouds 6 996 87 10000 5.66 220 07:59 21.01.2021
3490 Clear 6 995 87 10000 5.14 220 07:27 21.01.2021
3491 Clear 6 995 87 10000 3.6 220 06:53 21.01.2021
3492 Clouds 7 993 93 10000 7.2 270 05:20 21.01.2021
3493 Clouds 11 989 82 10000 12.35 190 02:27 21.01.2021
3494 Clouds 12 990 58 10000 13.89 190 00:47 21.01.2021
3495 Clouds 12 991 58 10000 11.83 180 23:53 20.01.2021
3496 Clouds 12 991 58 10000 10.8 180 23:32 20.01.2021
3497 Clear 12 991 62 10000 9.77 180 22:58 20.01.2021
3498 Clouds 12 992 62 10000 9.77 180 22:37 20.01.2021
3499 Clouds 11 992 62 10000 9.26 180 21:58 20.01.2021
3500 Clouds 11 993 62 10000 8.75 180 21:40 20.01.2021
3501 Clear 11 993 62 10000 9.26 180 21:19 20.01.2021
3502 Clear 11 993 62 10000 9.26 180 20:41 20.01.2021
3503 Clear 11 994 58 10000 9.26 180 20:18 20.01.2021
3504 Clear 11 994 54 10000 7.2 180 19:42 20.01.2021
3505 Rain 11 994 54 10000 7.2 180 19:23 20.01.2021
3506 Clear 11 995 54 10000 9.26 180 18:42 20.01.2021
3507 Clear 12 995 50 10000 7.2 190 17:58 20.01.2021
3508 Clear 12 996 50 10000 7.2 180 17:39 20.01.2021
3509 Clear 12 996 47 10000 10.29 190 16:59 20.01.2021
3510 Clear 12 996 47 10000 8.75 190 16:41 20.01.2021
3511 Clear 12 996 44 10000 8.75 190 15:55 20.01.2021
3512 Clear 12 997 44 10000 10.29 190 15:36 20.01.2021
3513 Clear 12 997 44 10000 7.2 190 14:51 20.01.2021
3514 Clear 12 998 47 10000 7.2 190 14:25 20.01.2021
3515 Clear 11 999 53 10000 5.66 170 13:50 20.01.2021
3516 Clear 11 999 53 10000 5.66 170 13:31 20.01.2021
3517 Clear 10 999 57 10000 4.63 160 12:45 20.01.2021
3518 Clear 9 1000 57 10000 5.66 160 12:20 20.01.2021
3519 Clear 8 1001 61 10000 4.63 160 11:39 20.01.2021
3520 Clear 8 1002 61 10000 4.63 160 11:18 20.01.2021
3521 Clear 8 1002 61 10000 4.12 160 10:43 20.01.2021
3522 Clear 8 1002 61 10000 4.12 160 10:18 20.01.2021
3523 Clear 7 1002 61 10000 4.12 180 09:31 20.01.2021
3524 Clear 7 1002 61 10000 5.14 180 08:59 20.01.2021
3525 Clear 8 1002 61 10000 6.17 180 08:34 20.01.2021
3526 Clear 7 1003 61 10000 6.69 180 07:59 20.01.2021
3527 Clear 7 1003 61 10000 6.69 180 07:37 20.01.2021
3528 Clear 7 1003 70 10000 5.66 180 06:56 20.01.2021
3529 Rain 7 1006 76 10000 4.63 180 03:30 20.01.2021
3530 Clear 7 1007 76 10000 4.12 190 01:50 20.01.2021
3531 Rain 7 1008 81 10000 5.14 190 00:47 20.01.2021
3532 Clear 6 1008 87 10000 3.6 180 23:50 19.01.2021
3533 Clear 6 1009 81 10000 1.54 180 23:32 19.01.2021
3534 Clear 6 1009 81 10000 4.63 190 22:58 19.01.2021
3535 Clear 6 1009 81 10000 4.12 190 22:37 19.01.2021
3536 Clear 6 1009 81 10000 4.12 190 22:19 19.01.2021
3537 Clear 6 1009 87 10000 4.12 180 21:52 19.01.2021
3538 Clear 5 1010 87 10000 4.12 160 21:28 19.01.2021
3539 Clear 5 1010 87 10000 3.09 160 20:49 19.01.2021
3540 Clear 5 1011 87 10000 5.66 180 20:26 19.01.2021
3541 Clear 5 1011 87 10000 3.09 190 19:56 19.01.2021
3542 Clear 5 1011 87 10000 2.57 190 19:31 19.01.2021
3543 Clouds 6 1012 81 10000 7.72 200 18:50 19.01.2021
3544 Clouds 6 1012 81 10000 7.72 200 18:31 19.01.2021
3545 Clouds 6 1012 81 10000 7.72 210 17:55 19.01.2021
3546 Clouds 7 1012 81 10000 6.69 200 17:37 19.01.2021
3547 Clouds 7 1013 81 10000 7.72 210 17:18 19.01.2021
3548 Clouds 7 1013 81 10000 5.66 210 16:38 19.01.2021
3549 Clouds 7 1013 81 10000 7.2 220 16:18 19.01.2021
3550 Clouds 7 1013 81 10000 7.2 220 15:48 19.01.2021
3551 Clouds 7 1013 87 10000 5.14 210 15:29 19.01.2021
3552 Clouds 7 1014 87 10000 6.17 220 14:43 19.01.2021
3553 Clouds 7 1014 87 10000 6.17 220 14:24 19.01.2021
3554 Clouds 7 1015 93 10000 6.17 220 13:49 19.01.2021
3555 Clouds 6 1015 87 10000 7.2 220 13:23 19.01.2021
3556 Clouds 5 1015 87 10000 7.2 210 12:49 19.01.2021
3557 Clouds 5 1015 100 10000 7.72 210 12:30 19.01.2021
3558 Clouds 5 1016 93 10000 7.72 200 11:52 19.01.2021
3559 Clouds 5 1016 93 10000 7.72 200 11:52 19.01.2021
3560 Clouds 4 1016 100 10000 6.69 200 11:29 19.01.2021
3561 Clouds 4 1016 100 10000 6.69 200 10:53 19.01.2021
3562 Drizzle 4 1016 100 10000 6.17 200 10:33 19.01.2021
3563 Rain 5 1016 93 10000 6.17 210 09:59 19.01.2021
3564 Clouds 5 1016 93 10000 6.17 200 09:41 19.01.2021
3565 Rain 4 1016 93 10000 6.17 200 09:19 19.01.2021
3566 Mist 5 1016 93 5000 6.69 200 08:33 19.01.2021
3567 Mist 5 1016 93 5000 6.69 200 07:51 19.01.2021
3568 Clouds 5 1017 81 10000 7.72 200 06:58 19.01.2021
3569 Clouds 5 1020 75 10000 4.63 190 03:34 19.01.2021
3570 Clouds 6 1020 81 10000 4.63 210 02:21 19.01.2021
3571 Clouds 6 1022 75 10000 6.17 200 00:23 19.01.2021
3572 Clouds 6 1023 75 10000 5.14 200 23:47 18.01.2021
3573 Clouds 6 1023 75 10000 5.14 200 23:23 18.01.2021
3574 Clouds 5 1023 75 10000 5.14 200 22:41 18.01.2021
3575 Clouds 5 1023 75 10000 4.63 200 22:21 18.01.2021
3576 Clouds 5 1023 75 10000 4.63 200 21:47 18.01.2021
3577 Clouds 5 1024 75 10000 4.12 190 21:22 18.01.2021
3578 Clouds 5 1024 75 10000 5.14 200 20:54 18.01.2021
3579 Clouds 5 1024 75 10000 3.6 200 20:33 18.01.2021
3580 Clouds 5 1024 70 10000 4.63 200 19:54 18.01.2021
3581 Clouds 6 1024 75 10000 3.09 210 19:34 18.01.2021
3582 Clouds 6 1025 70 10000 3.09 220 18:48 18.01.2021
3583 Clouds 5 1025 70 10000 3.09 220 18:26 18.01.2021
3584 Clouds 6 1025 75 10000 3.09 220 17:47 18.01.2021
3585 Clouds 6 1025 70 10000 4.63 230 17:29 18.01.2021
3586 Clouds 7 1025 70 10000 4.12 230 16:50 18.01.2021
3587 Clouds 7 1025 70 10000 4.12 230 16:50 18.01.2021
3588 Clear 7 1025 70 10000 3.6 220 16:25 18.01.2021
3589 Clear 7 1025 70 10000 4.63 230 15:52 18.01.2021
3590 Clouds 7 1025 66 10000 5.66 230 15:27 18.01.2021
3591 Clouds 7 1026 71 10000 4.63 230 14:58 18.01.2021
3592 Clouds 7 1026 76 10000 5.14 230 14:38 18.01.2021
3593 Clouds 7 1026 76 10000 5.14 230 14:20 18.01.2021
3594 Clouds 7 1027 81 10000 4.12 230 13:44 18.01.2021
3595 Clouds 7 1027 81 10000 4.12 230 13:20 18.01.2021
3596 Clouds 6 1027 87 10000 2.06 260 12:46 18.01.2021
3597 Clouds 6 1027 87 10000 2.06 260 12:19 18.01.2021
3598 Clouds 4 1027 100 10000 1.03 0 11:46 18.01.2021
3599 Clouds 4 1027 100 10000 1.03 0 11:25 18.01.2021
3600 Clouds 3 1028 100 10000 1.54 190 10:49 18.01.2021
3601 Clouds 2 1028 93 10000 1.54 0 10:30 18.01.2021
3602 Clouds 1 1028 93 10000 0.51 0 09:40 18.01.2021
3603 Clouds 1 1028 93 10000 0.51 0 09:18 18.01.2021
3604 Clouds 1 1027 93 10000 1.03 0 08:27 18.01.2021
3605 Clouds 1 1027 93 10000 1.03 0 07:54 18.01.2021
3606 Clouds 1 1027 93 10000 1.54 220 06:35 18.01.2021
3607 Clouds 2 1027 93 10000 0.51 0 04:46 18.01.2021
3608 Clouds 2 1028 93 10000 1.03 0 04:27 18.01.2021
3609 Clear 2 1028 87 10000 2.06 240 03:52 18.01.2021
3610 Clear 2 1028 93 10000 1.54 230 03:29 18.01.2021
3611 Clouds 2 1028 93 10000 2.06 230 02:58 18.01.2021
3612 Clouds 3 1028 87 10000 3.09 240 02:20 18.01.2021
3613 Clouds 3 1028 87 10000 1.03 0 00:41 18.01.2021
3614 Clouds 3 1028 87 10000 2.57 240 00:19 18.01.2021
3615 Clouds 4 1028 87 10000 1.54 260 23:41 17.01.2021
3616 Clouds 4 1028 81 10000 2.06 240 23:19 17.01.2021
3617 Clouds 4 1028 75 10000 1.54 260 22:25 17.01.2021
3618 Clouds 4 1028 75 10000 1.54 0 21:57 17.01.2021
3619 Clouds 4 1028 75 10000 1.54 300 21:37 17.01.2021
3620 Clouds 4 1028 75 10000 1.54 300 21:19 17.01.2021
3621 Clouds 4 1027 87 10000 2.06 290 20:41 17.01.2021
3622 Clouds 4 1027 87 10000 2.06 290 20:19 17.01.2021
3623 Clouds 3 1027 93 10000 2.06 260 19:41 17.01.2021
3624 Clouds 4 1027 87 10000 2.06 260 18:59 17.01.2021
3625 Clouds 4 1027 81 10000 1.54 270 18:38 17.01.2021
3626 Clouds 4 1027 81 10000 1.54 270 18:19 17.01.2021
3627 Clouds 6 1026 81 10000 2.06 300 17:43 17.01.2021
3628 Clouds 6 1026 81 10000 2.06 300 17:23 17.01.2021
3629 Clouds 6 1026 81 10000 2.06 300 17:23 17.01.2021
3630 Clear 7 1026 70 10000 3.6 300 16:43 17.01.2021
3631 Clear 7 1026 70 10000 3.6 300 16:19 17.01.2021
3632 Clouds 7 1025 76 10000 4.12 290 15:41 17.01.2021
3633 Clouds 7 1025 76 10000 4.12 290 15:21 17.01.2021
3634 Clouds 7 1024 71 10000 4.12 300 14:47 17.01.2021
3635 Clouds 7 1024 81 10000 4.63 300 14:26 17.01.2021
3636 Clouds 7 1024 81 10000 4.12 300 13:44 17.01.2021
3637 Clouds 7 1024 81 10000 3.6 310 13:26 17.01.2021
3638 Clouds 6 1024 87 10000 3.6 290 12:52 17.01.2021
3639 Clouds 6 1024 87 10000 3.6 290 12:30 17.01.2021
3640 Clouds 5 1024 87 10000 3.6 280 11:48 17.01.2021
3641 Clouds 5 1023 87 10000 2.57 280 11:22 17.01.2021
3642 Clouds 4 1023 87 10000 3.6 290 10:44 17.01.2021
3643 Clouds 4 1022 87 10000 4.12 290 10:20 17.01.2021
3644 Clouds 4 1021 87 10000 2.57 280 09:20 17.01.2021
3645 Clouds 4 1021 87 10000 1.54 0 08:43 17.01.2021
3646 Clouds 4 1020 93 10000 3.6 270 06:29 17.01.2021
3647 Mist 4 1019 100 5000 1.03 0 04:28 17.01.2021
3648 Mist 3 1019 100 3100 2.57 260 02:38 17.01.2021
3649 Mist 2 1018 100 2200 1.54 230 00:47 17.01.2021
3650 Mist 2 1018 100 2200 1.54 230 00:18 17.01.2021
3651 Mist 2 1018 100 3100 1.54 230 23:48 16.01.2021
3652 Mist 2 1019 100 3400 1.54 230 23:19 16.01.2021
3653 Drizzle 2 1019 100 4000 2.06 230 22:36 16.01.2021
3654 Mist 2 1018 93 5000 1.54 240 21:58 16.01.2021
3655 Clouds 2 1018 93 10000 2.57 200 21:24 16.01.2021
3656 Clouds 1 1018 93 10000 3.09 200 20:59 16.01.2021
3657 Clouds 1 1019 93 10000 3.09 200 20:40 16.01.2021
3658 Clouds 1 1019 93 10000 4.63 200 20:18 16.01.2021
3659 Clouds 1 1019 93 10000 4.63 200 19:41 16.01.2021
3660 Rain 1 1019 100 10000 4.12 190 19:23 16.01.2021
3661 Mist 1 1020 93 4400 5.14 190 18:42 16.01.2021
3662 Rain 0 1020 93 4400 5.14 190 18:21 16.01.2021
3663 Rain 0 1020 100 5000 6.17 180 17:41 16.01.2021
3664 Rain 0 1020 100 5000 6.17 180 17:23 16.01.2021
3665 Snow 0 1021 100 5000 7.2 170 16:45 16.01.2021
3666 Rain 0 1021 100 5000 7.2 170 16:26 16.01.2021
3667 Rain 0 1021 100 5000 7.2 170 16:26 16.01.2021
3668 Snow 0 1021 93 6000 6.69 180 15:48 16.01.2021
3669 Snow 0 1022 93 1900 6.69 180 15:18 16.01.2021
3670 Snow 0 1024 93 1600 4.63 170 14:21 16.01.2021
3671 Snow 0 1024 93 900 5.14 170 13:48 16.01.2021
3672 Fog -1 1024 93 900 5.14 170 13:21 16.01.2021
3673 Mist -1 1026 93 2100 4.63 180 12:39 16.01.2021
3674 Snow -1 1026 93 2100 4.63 180 12:20 16.01.2021
3675 Snow 0 1027 86 2500 5.14 210 11:48 16.01.2021
3676 Snow 0 1027 75 10000 5.14 210 11:24 16.01.2021
3677 Clouds 0 1027 69 10000 4.12 180 10:46 16.01.2021
3678 Clouds 0 1027 69 10000 4.63 180 10:21 16.01.2021
3679 Clouds 0 1028 74 10000 4.63 190 09:33 16.01.2021
3680 Clouds -1 1028 80 10000 1.03 0 08:35 16.01.2021
3681 Clouds -1 1029 86 10000 1.03 240 07:48 16.01.2021
3682 Clouds -1 1029 86 10000 1.75 200 06:43 16.01.2021
3683 Clouds -1 1030 86 10000 1.35 218 04:39 16.01.2021
3684 Clouds 0 1030 86 9000 0.51 188 02:56 16.01.2021
3685 Clouds 0 1031 80 10000 0.51 240 00:51 16.01.2021
3686 Clouds 0 1031 80 10000 1.03 0 00:29 16.01.2021
3687 Clouds 0 1031 86 10000 1.03 0 23:58 15.01.2021
3688 Clouds 1 1031 74 10000 0.51 140 23:22 15.01.2021
3689 Clouds 1 1031 74 10000 1.54 330 22:25 15.01.2021
3690 Clouds 1 1031 74 10000 1.54 320 21:46 15.01.2021
3691 Clouds 1 1031 74 10000 1.03 360 21:21 15.01.2021
3692 Clouds 1 1031 64 10000 2.57 20 20:41 15.01.2021
3693 Clouds 1 1031 64 10000 2.57 20 20:22 15.01.2021
3694 Clouds 1 1031 69 10000 3.6 40 19:41 15.01.2021
3695 Clouds 1 1031 69 10000 3.6 40 19:23 15.01.2021
3696 Clouds 2 1030 64 10000 4.63 40 18:44 15.01.2021
3697 Clouds 2 1030 64 10000 4.63 40 18:44 15.01.2021
3698 Clouds 2 1030 64 10000 4.63 30 18:19 15.01.2021
3699 Clouds 2 1030 64 10000 4.63 30 17:52 15.01.2021
3700 Clouds 2 1030 69 10000 4.63 30 17:27 15.01.2021
3701 Clouds 3 1029 69 10000 3.6 10 16:58 15.01.2021
3702 Clouds 3 1029 64 10000 5.14 30 16:26 15.01.2021
3703 Clouds 3 1029 65 10000 5.14 10 15:56 15.01.2021
3704 Clouds 3 1029 70 10000 4.63 360 15:37 15.01.2021
3705 Clouds 3 1029 70 10000 4.63 360 15:18 15.01.2021
3706 Clouds 3 1028 65 10000 5.66 10 14:38 15.01.2021
3707 Clouds 3 1028 65 10000 5.66 10 14:18 15.01.2021
3708 Clouds 3 1028 70 10000 5.66 20 13:40 15.01.2021
3709 Clouds 3 1028 75 10000 5.14 10 13:19 15.01.2021
3710 Clouds 2 1028 75 10000 5.14 10 12:45 15.01.2021
3711 Clouds 2 1028 80 10000 5.14 20 12:22 15.01.2021
3712 Clouds 1 1028 80 10000 5.14 360 11:42 15.01.2021
3713 Clouds 1 1027 86 10000 3.6 360 11:18 15.01.2021
3714 Clouds 1 1027 86 10000 3.6 360 10:48 15.01.2021
3715 Clouds 1 1027 86 10000 3.6 360 10:21 15.01.2021
3716 Clouds 1 1025 86 9000 5.14 360 09:48 15.01.2021
3717 Clouds 1 1025 86 9000 5.14 360 09:29 15.01.2021
3718 Clouds 2 1024 80 9000 4.63 360 08:28 15.01.2021
3719 Clouds 2 1024 87 8000 5.14 360 07:45 15.01.2021
3720 Clouds 2 1023 87 10000 4.63 350 07:23 15.01.2021
3721 Clouds 2 1022 87 10000 4.12 350 06:37 15.01.2021
3722 Clouds 2 1019 93 10000 5.14 350 02:45 15.01.2021
3723 Clouds 3 1017 87 10000 6.69 330 00:52 15.01.2021
3724 Clouds 5 1015 87 10000 8.23 330 23:35 14.01.2021
3725 Clouds 7 1014 87 10000 5.66 300 22:58 14.01.2021
3726 Rain 7 1014 87 10000 6.69 310 22:40 14.01.2021
3727 Clouds 7 1014 87 10000 6.69 310 22:21 14.01.2021
3728 Clouds 8 1013 93 10000 5.66 290 21:42 14.01.2021
3729 Clouds 8 1013 93 10000 6.17 280 21:21 14.01.2021
3730 Clouds 9 1013 93 10000 6.17 280 20:48 14.01.2021
3731 Clouds 9 1013 87 10000 6.17 280 20:22 14.01.2021
3732 Mist 9 1012 100 5000 5.66 260 19:42 14.01.2021
3733 Drizzle 10 1012 93 6000 5.66 260 19:23 14.01.2021
3734 Drizzle 10 1012 93 6000 5.66 260 18:50 14.01.2021
3735 Clouds 10 1012 87 10000 6.17 260 18:27 14.01.2021
3736 Clouds 10 1012 82 10000 6.69 260 17:46 14.01.2021
3737 Drizzle 10 1012 87 10000 6.69 260 17:26 14.01.2021
3738 Drizzle 11 1012 87 10000 6.69 260 16:43 14.01.2021
3739 Clouds 11 1012 87 10000 6.17 240 16:18 14.01.2021
3740 Clouds 10 1012 87 10000 6.17 240 15:45 14.01.2021
3741 Clouds 11 1013 87 10000 4.12 240 14:59 14.01.2021
3742 Clouds 10 1014 87 10000 5.14 240 14:38 14.01.2021
3743 Clouds 10 1014 93 10000 4.63 230 14:19 14.01.2021
3744 Clouds 10 1014 93 10000 4.63 230 14:19 14.01.2021
3745 Clouds 9 1014 93 10000 4.63 230 13:53 14.01.2021
3746 Clouds 9 1015 93 7000 5.14 230 13:21 14.01.2021
3747 Clouds 9 1016 93 10000 5.14 230 12:51 14.01.2021
3748 Clouds 9 1017 93 10000 6.17 240 12:20 14.01.2021
3749 Clouds 9 1017 93 10000 6.17 240 11:50 14.01.2021
3750 Clouds 9 1017 93 10000 4.12 240 11:21 14.01.2021
3751 Clouds 9 1017 93 10000 5.14 240 10:54 14.01.2021
3752 Clouds 9 1017 87 10000 5.66 250 10:29 14.01.2021
3753 Clouds 9 1017 87 10000 5.66 240 09:59 14.01.2021
3754 Clouds 9 1017 87 10000 5.14 260 09:41 14.01.2021
3755 Clouds 9 1017 87 10000 5.14 260 09:18 14.01.2021
3756 Clouds 9 1017 93 10000 6.17 250 08:28 14.01.2021
3757 Clouds 9 1017 93 10000 5.66 260 07:50 14.01.2021
3758 Clouds 9 1018 93 10000 5.66 250 06:59 14.01.2021
3759 Clouds 9 1018 93 10000 5.66 250 06:19 14.01.2021
3760 Drizzle 9 1020 93 7000 4.63 250 01:55 14.01.2021
3761 Drizzle 9 1020 93 8000 6.69 270 23:56 13.01.2021
3762 Clouds 9 1020 87 10000 5.66 270 23:24 13.01.2021
3763 Clouds 9 1020 87 10000 5.66 270 22:40 13.01.2021
3764 Clouds 9 1020 87 10000 5.66 270 22:18 13.01.2021
3765 Clouds 9 1020 87 10000 5.66 270 21:42 13.01.2021
3766 Clouds 9 1019 93 10000 4.63 260 21:19 13.01.2021
3767 Clouds 9 1019 93 10000 5.14 260 20:43 13.01.2021
3768 Clouds 9 1019 87 10000 5.66 270 20:21 13.01.2021
3769 Clouds 9 1019 93 10000 5.66 260 19:46 13.01.2021
3770 Clouds 9 1019 93 10000 5.66 260 19:23 13.01.2021
3771 Clouds 9 1019 87 10000 6.17 270 18:44 13.01.2021
3772 Clouds 9 1019 87 10000 6.17 270 18:23 13.01.2021
3773 Clouds 10 1019 93 10000 5.66 260 17:41 13.01.2021
3774 Clouds 10 1019 93 10000 4.63 260 17:18 13.01.2021
3775 Drizzle 10 1019 93 8000 4.63 260 16:41 13.01.2021
3776 Drizzle 10 1019 93 6000 5.14 260 16:21 13.01.2021
3777 Clouds 10 1019 93 8000 5.14 260 15:40 13.01.2021
3778 Mist 10 1019 93 4200 5.14 250 15:20 13.01.2021
3779 Clouds 10 1019 93 10000 5.14 260 14:28 13.01.2021
3780 Clouds 10 1020 100 10000 4.63 260 13:46 13.01.2021
3781 Clouds 9 1020 100 10000 4.63 260 13:21 13.01.2021
3782 Clouds 9 1020 93 6000 4.12 240 12:46 13.01.2021
3783 Mist 8 1021 100 2100 2.06 220 12:24 13.01.2021
3784 Mist 8 1021 100 2100 2.06 220 11:51 13.01.2021
3785 Mist 7 1021 100 1300 1.54 220 11:33 13.01.2021
3786 Drizzle 7 1021 100 1400 1.03 230 10:49 13.01.2021
3787 Mist 7 1021 100 5000 1.8 200 10:28 13.01.2021
3788 Mist 6 1021 100 5000 1.54 230 09:40 13.01.2021
3789 Clouds 6 1021 93 6000 1.03 0 08:59 13.01.2021
3790 Clouds 6 1021 100 7000 1.03 0 08:41 13.01.2021
3791 Clouds 6 1021 100 7000 1.03 0 08:23 13.01.2021
3792 Clouds 6 1021 93 10000 1.39 193 07:29 13.01.2021
3793 Mist 6 1021 93 4000 1.54 220 06:21 13.01.2021
3794 Clouds 6 1021 93 10000 1.54 110 04:19 13.01.2021
3795 Clouds 6 1021 93 10000 2.06 60 03:44 13.01.2021
3796 Clouds 6 1021 93 10000 2.06 60 03:22 13.01.2021
3797 Clouds 6 1021 93 7000 0.93 80 00:51 13.01.2021
3798 Clouds 7 1020 93 10000 0.51 0 23:44 12.01.2021
3799 Clouds 7 1019 100 10000 2.06 360 23:19 12.01.2021
3800 Clouds 7 1019 87 10000 3.09 10 22:39 12.01.2021
3801 Clouds 7 1019 87 10000 3.09 10 22:20 12.01.2021
3802 Clouds 7 1018 93 10000 1.54 360 21:44 12.01.2021
3803 Clouds 7 1018 93 10000 1.54 360 21:26 12.01.2021
3804 Clouds 7 1018 93 10000 2.57 330 20:48 12.01.2021
3805 Clouds 7 1018 93 10000 2.57 330 20:48 12.01.2021
3806 Clouds 7 1017 93 10000 3.09 330 20:27 12.01.2021
3807 Drizzle 8 1017 100 9000 2.06 340 19:47 12.01.2021
3808 Clouds 8 1016 100 10000 1.54 330 19:26 12.01.2021
3809 Drizzle 8 1015 93 10000 1.54 330 18:42 12.01.2021
3810 Drizzle 8 1015 93 10000 1.54 330 18:23 12.01.2021
3811 Clouds 9 1015 93 10000 2.06 330 17:39 12.01.2021
3812 Mist 9 1014 93 3700 4.63 330 17:19 12.01.2021
3813 Drizzle 9 1014 93 5000 5.66 280 16:43 12.01.2021
3814 Drizzle 9 1014 93 5000 5.66 280 16:22 12.01.2021
3815 Clouds 9 1013 93 10000 5.14 250 15:39 12.01.2021
3816 Rain 9 1013 93 10000 5.14 250 15:18 12.01.2021
3817 Clouds 8 1013 93 10000 6.17 250 14:41 12.01.2021
3818 Clouds 8 1013 93 10000 6.17 250 14:21 12.01.2021
3819 Clouds 8 1013 93 9000 4.63 250 13:52 12.01.2021
3820 Clouds 8 1014 93 10000 6.17 240 12:54 12.01.2021
3821 Clouds 7 1014 87 10000 6.69 240 12:22 12.01.2021
3822 Clouds 7 1014 87 10000 6.17 240 11:41 12.01.2021
3823 Drizzle 7 1014 87 10000 6.69 230 10:52 12.01.2021
3824 Clouds 7 1014 93 10000 6.69 230 10:25 12.01.2021
3825 Drizzle 7 1014 93 10000 7.2 230 09:58 12.01.2021
3826 Drizzle 6 1014 87 10000 8.23 230 09:38 12.01.2021
3827 Clouds 6 1015 87 10000 7.72 230 09:18 12.01.2021
3828 Clouds 6 1015 87 10000 7.72 240 08:26 12.01.2021
3829 Clouds 6 1015 93 10000 7.72 230 07:37 12.01.2021
3830 Clouds 5 1016 93 10000 7.72 230 06:49 12.01.2021
3831 Clouds 5 1017 87 10000 7.2 230 05:34 12.01.2021
3832 Clouds 5 1018 87 10000 4.63 240 03:27 12.01.2021
3833 Clouds 5 1019 81 10000 6.17 230 02:21 12.01.2021
3834 Clouds 5 1019 87 10000 6.69 240 01:31 12.01.2021
3835 Clouds 5 1019 87 10000 6.69 240 01:31 12.01.2021
3836 Clouds 5 1019 87 10000 6.69 240 01:31 12.01.2021
3837 Clouds 5 1019 87 10000 6.69 240 01:31 12.01.2021
3838 Clouds 4 1020 87 10000 4.63 240 23:58 11.01.2021
3839 Clouds 4 1020 87 10000 3.6 220 23:37 11.01.2021
3840 Clouds 4 1021 87 10000 4.63 220 23:18 11.01.2021
3841 Clouds 4 1021 87 10000 4.63 220 22:45 11.01.2021
3842 Clouds 4 1021 81 10000 5.14 210 22:26 11.01.2021
3843 Clouds 5 1021 75 10000 4.12 220 21:43 11.01.2021
3844 Clouds 5 1021 75 10000 4.12 220 21:24 11.01.2021
3845 Clouds 4 1021 75 10000 3.09 210 20:49 11.01.2021
3846 Clouds 4 1021 75 10000 3.09 210 20:29 11.01.2021
3847 Clouds 4 1021 81 10000 2.57 210 19:57 11.01.2021
3848 Clouds 4 1021 81 10000 2.57 220 19:35 11.01.2021
3849 Clouds 4 1022 87 10000 3.09 220 18:47 11.01.2021
3850 Clouds 4 1022 87 10000 3.09 220 18:28 11.01.2021
3851 Clouds 4 1022 87 10000 3.6 220 17:57 11.01.2021
3852 Clouds 4 1022 75 10000 4.12 200 17:39 11.01.2021
3853 Clouds 4 1022 75 10000 4.12 200 17:20 11.01.2021
3854 Clouds 4 1022 75 10000 3.6 200 16:47 11.01.2021
3855 Clouds 4 1022 75 10000 4.12 200 16:28 11.01.2021
3856 Clouds 4 1022 75 10000 3.09 220 15:50 11.01.2021
3857 Clouds 4 1022 81 10000 3.6 220 15:32 11.01.2021
3858 Clouds 4 1023 81 10000 3.09 210 14:41 11.01.2021
3859 Clouds 4 1023 81 10000 3.09 210 14:41 11.01.2021
3860 Clouds 4 1023 81 10000 4.12 210 14:22 11.01.2021
3861 Clouds 3 1024 87 10000 2.06 210 13:44 11.01.2021
3862 Clouds 3 1024 87 10000 2.57 210 13:21 11.01.2021
3863 Clouds 3 1024 87 10000 2.57 210 12:41 11.01.2021
3864 Clouds 3 1024 87 10000 2.57 210 12:22 11.01.2021
3865 Mist 2 1024 100 5000 1.03 220 11:44 11.01.2021
3866 Mist 1 1024 93 3700 0.51 0 10:55 11.01.2021
3867 Mist 1 1024 100 4000 1.63 208 10:32 11.01.2021
3868 Mist 1 1024 93 4000 1.63 208 09:48 11.01.2021
3869 Mist 0 1024 93 4000 0.51 0 09:29 11.01.2021
3870 Mist 0 1024 100 4700 1.49 225 08:52 11.01.2021
3871 Mist 0 1024 100 4300 2.06 130 08:33 11.01.2021
3872 Mist 0 1024 100 4000 0.51 30 07:45 11.01.2021
3873 Mist 0 1024 93 3800 0.51 0 07:25 11.01.2021
3874 Mist 0 1024 93 3400 0.51 0 06:49 11.01.2021
3875 Mist -1 1025 93 3200 0.51 360 02:30 11.01.2021
3876 Mist -1 1025 93 4700 1.54 330 00:41 11.01.2021
3877 Mist -2 1025 93 5000 1.46 350 23:48 10.01.2021
3878 Mist -1 1025 93 5000 1.03 160 22:59 10.01.2021
3879 Mist 0 1025 93 5000 1.03 0 22:40 10.01.2021
3880 Mist 0 1025 93 5000 1.03 0 22:19 10.01.2021
3881 Mist 0 1025 93 5000 2.06 330 21:40 10.01.2021
3882 Mist 0 1025 93 5000 2.06 330 21:18 10.01.2021
3883 Mist 0 1025 93 5000 1.54 350 20:49 10.01.2021
3884 Mist 0 1025 93 5000 1.54 350 20:27 10.01.2021
3885 Clear 0 1025 86 8000 0.51 350 19:40 10.01.2021
3886 Clouds 0 1025 86 8000 0.51 350 19:22 10.01.2021
3887 Clouds 0 1025 86 8000 0.51 350 19:22 10.01.2021
3888 Clear 1 1025 87 10000 1.03 350 18:45 10.01.2021
3889 Clear 2 1025 81 10000 1.03 350 18:20 10.01.2021
3890 Clear 3 1025 81 10000 1.54 360 17:26 10.01.2021
3891 Clear 4 1025 75 10000 1.54 20 16:51 10.01.2021
3892 Clear 4 1025 70 10000 2.57 40 16:31 10.01.2021
3893 Clear 4 1025 75 10000 3.09 30 15:43 10.01.2021
3894 Clear 4 1025 81 10000 2.57 340 15:24 10.01.2021
3895 Clear 4 1025 87 10000 2.06 350 14:43 10.01.2021
3896 Clear 4 1025 87 10000 2.06 350 14:24 10.01.2021
3897 Clouds 3 1025 93 10000 2.06 340 13:54 10.01.2021
3898 Clouds 3 1025 93 10000 2.06 340 13:36 10.01.2021
3899 Clear 2 1025 87 8000 3.09 360 13:18 10.01.2021
3900 Mist 2 1026 100 5000 2.06 350 12:41 10.01.2021
3901 Mist 1 1026 93 5000 2.06 350 11:58 10.01.2021
3902 Mist 0 1026 93 2300 2.06 340 11:22 10.01.2021
3903 Mist 0 1026 100 2800 2.57 350 10:58 10.01.2021
3904 Mist 0 1025 100 3400 2.06 340 10:28 10.01.2021
3905 Clouds -1 1025 100 6000 2.06 350 09:57 10.01.2021
3906 Clouds -1 1025 93 6000 1.54 0 09:18 10.01.2021
3907 Clouds -1 1025 100 9000 2.06 40 08:19 10.01.2021
3908 Clouds 0 1025 100 6000 3.09 20 07:28 10.01.2021
3909 Clouds -1 1025 100 6000 3.09 10 06:19 10.01.2021
3910 Mist -1 1025 100 4400 2.06 10 05:35 10.01.2021
3911 Clouds 0 1025 93 6000 2.06 350 02:56 10.01.2021
3912 Clouds 0 1025 93 6000 3.6 10 00:48 10.01.2021
3913 Clouds 0 1026 93 6000 2.57 10 23:47 09.01.2021
3914 Clouds 0 1026 93 6000 3.6 10 23:28 09.01.2021
3915 Mist 0 1025 93 5000 5.14 10 22:44 09.01.2021
3916 Mist 0 1025 93 5000 5.14 360 22:18 09.01.2021
3917 Mist 0 1025 93 5000 4.63 10 21:56 09.01.2021
3918 Mist 0 1025 93 5000 5.14 360 21:37 09.01.2021
3919 Clouds 1 1025 93 7000 4.12 360 21:18 09.01.2021
3920 Clouds 1 1025 93 6000 4.12 360 20:39 09.01.2021
3921 Clouds 1 1024 93 7000 3.09 360 19:45 09.01.2021
3922 Clear 1 1024 93 7000 3.09 360 19:22 09.01.2021
3923 Clear 1 1024 86 8000 3.09 360 18:44 09.01.2021
3924 Clear 2 1024 86 9000 2.57 360 18:26 09.01.2021
3925 Clear 2 1023 80 10000 2.57 360 17:47 09.01.2021
3926 Clear 2 1023 87 10000 2.57 20 17:27 09.01.2021
3927 Clear 3 1023 81 10000 4.12 10 16:36 09.01.2021
3928 Clear 4 1023 75 10000 4.63 20 15:52 09.01.2021
3929 Clear 4 1023 75 10000 5.14 30 15:33 09.01.2021
3930 Clear 4 1023 70 9000 4.63 20 14:41 09.01.2021
3931 Clear 4 1023 70 9000 4.63 20 14:20 09.01.2021
3932 Clear 3 1023 81 10000 4.12 20 13:49 09.01.2021
3933 Clear 3 1023 81 10000 3.09 20 13:30 09.01.2021
3934 Clear 3 1023 81 10000 3.09 20 13:30 09.01.2021
3935 Clouds 2 1024 87 8000 3.6 360 12:50 09.01.2021
3936 Clouds 2 1024 87 6000 4.12 20 12:24 09.01.2021
3937 Mist 2 1024 93 5000 4.12 10 11:56 09.01.2021
3938 Mist 1 1024 93 5000 3.09 10 11:33 09.01.2021
3939 Mist 1 1024 93 5000 2.06 20 10:55 09.01.2021
3940 Mist 0 1024 93 5000 2.06 360 10:36 09.01.2021
3941 Mist 0 1023 93 5000 1.54 0 09:53 09.01.2021
3942 Mist 0 1023 93 5000 3.09 30 09:29 09.01.2021
3943 Mist 0 1022 93 5000 3.09 30 08:47 09.01.2021
3944 Clouds 0 1022 93 6000 3.09 10 07:38 09.01.2021
3945 Clouds -1 1022 93 6000 3.09 10 07:38 09.01.2021
3946 Clouds -1 1021 100 7000 2.06 360 06:40 09.01.2021
3947 Mist -2 1021 93 5000 0.51 30 04:53 09.01.2021
3948 Clear -2 1021 100 6000 1.54 10 03:25 09.01.2021
3949 Mist -1 1021 100 5000 1.54 360 02:38 09.01.2021
3950 Clear -1 1021 93 6000 1.54 10 02:19 09.01.2021
3951 Mist -1 1021 93 5000 1.54 360 00:37 09.01.2021
3952 Mist -1 1021 93 5000 1.54 360 00:19 09.01.2021
3953 Clear -1 1020 93 6000 1.03 350 23:26 08.01.2021
3954 Clouds 0 1020 93 9000 1.03 30 22:25 08.01.2021
3955 Clear 1 1020 93 10000 2.06 50 21:46 08.01.2021
3956 Clear 2 1019 80 10000 2.06 30 20:57 08.01.2021
3957 Clear 2 1019 80 10000 1.54 30 20:27 08.01.2021
3958 Clear 3 1019 87 10000 1.03 350 19:56 08.01.2021
3959 Clear 3 1019 87 10000 0.51 60 19:22 08.01.2021
3960 Clear 3 1019 81 10000 1.03 0 18:48 08.01.2021
3961 Clear 3 1019 81 10000 1.03 360 18:20 08.01.2021
3962 Clear 3 1019 81 10000 1.03 360 17:48 08.01.2021
3963 Clear 4 1018 75 10000 1.39 308 17:22 08.01.2021
3964 Clouds 4 1018 81 10000 1.03 190 16:35 08.01.2021
3965 Clouds 4 1018 75 10000 1.54 0 15:44 08.01.2021
3966 Clouds 4 1018 81 10000 2.06 220 15:18 08.01.2021
3967 Clouds 4 1018 81 10000 1.54 230 14:36 08.01.2021
3968 Clear 3 1018 87 10000 1.03 0 13:47 08.01.2021
3969 Clouds 3 1018 93 10000 1.27 252 13:18 08.01.2021
3970 Clouds 3 1018 93 10000 0.51 0 12:49 08.01.2021
3971 Clouds 3 1018 93 10000 0.51 0 12:20 08.01.2021
3972 Clouds 2 1018 93 9000 1.03 0 11:45 08.01.2021
3973 Clouds 2 1018 93 10000 1.54 220 11:27 08.01.2021
3974 Clear 1 1018 93 9000 1.54 240 10:53 08.01.2021
3975 Clouds 1 1018 100 10000 1.54 210 10:34 08.01.2021
3976 Clear 0 1017 93 10000 2.06 250 09:46 08.01.2021
3977 Clear 0 1017 93 10000 2.06 250 09:28 08.01.2021
3978 Clear 0 1017 93 10000 1.29 255 08:39 08.01.2021
3979 Clear 0 1016 93 10000 2.06 190 07:29 08.01.2021
3980 Clouds 1 1017 93 8000 1.54 240 06:21 08.01.2021
3981 Clouds 1 1017 93 9000 0.51 0 00:22 08.01.2021
3982 Clouds 1 1017 93 9000 1.03 210 23:41 07.01.2021
3983 Clear 2 1017 87 10000 1.54 0 22:47 07.01.2021
3984 Clear 2 1017 87 10000 2.06 300 22:26 07.01.2021
3985 Clouds 2 1017 87 10000 2.06 300 21:47 07.01.2021
3986 Clouds 2 1017 93 10000 1.54 290 21:27 07.01.2021
3987 Clouds 2 1017 87 10000 1.54 290 20:47 07.01.2021
3988 Clouds 2 1017 87 10000 1.54 290 20:29 07.01.2021
3989 Clouds 2 1017 87 10000 1.54 280 19:46 07.01.2021
3990 Clouds 2 1017 87 10000 1.54 300 19:23 07.01.2021
3991 Clouds 2 1016 93 10000 2.06 260 18:40 07.01.2021
3992 Clouds 3 1016 87 10000 4.63 280 18:19 07.01.2021
3993 Clouds 3 1016 75 10000 3.6 260 17:31 07.01.2021
3994 Clouds 3 1016 81 10000 2.57 250 16:55 07.01.2021
3995 Clouds 4 1016 75 10000 1.54 330 16:32 07.01.2021
3996 Clouds 4 1016 81 10000 2.06 300 15:48 07.01.2021
3997 Clouds 4 1016 81 10000 2.06 290 15:30 07.01.2021
3998 Clouds 4 1016 87 10000 1.54 290 14:27 07.01.2021
3999 Clouds 3 1016 93 10000 2.06 300 13:49 07.01.2021
4000 Clouds 3 1016 93 8000 2.06 290 13:28 07.01.2021
4001 Clouds 3 1015 91 10000 1.84 311 12:52 07.01.2021
4002 Clouds 3 1017 93 6000 2.6 250 12:23 07.01.2021
4003 Clouds 3 1017 86 6000 2.1 270 11:39 07.01.2021
4004 Mist 3 1017 93 5000 2.1 280 10:56 07.01.2021
4005 Clouds 2 1017 93 8000 1.5 0 10:37 07.01.2021
4006 Clouds 2 1017 93 6000 1.5 310 09:57 07.01.2021
4007 Mist 2 1017 93 4900 1 0 09:38 07.01.2021
4008 Snow 2 1016 94 6000 1.5 0 08:40 07.01.2021
4009 Snow 2 1016 93 6000 1 250 08:21 07.01.2021
4010 Clouds 2 1016 93 6000 1 250 07:40 07.01.2021
4011 Clouds 2 1016 93 7000 1.5 0 05:52 07.01.2021
4012 Clouds 3 1017 93 9000 1.5 320 02:18 07.01.2021
4013 Clouds 3 1017 86 7000 1.5 320 23:58 06.01.2021
4014 Clouds 3 1017 86 7000 1.5 330 23:25 06.01.2021
4015 Clouds 4 1017 86 9000 1.5 330 22:23 06.01.2021
4016 Clouds 4 1017 86 9000 1.5 340 21:41 06.01.2021
4017 Clouds 4 1017 86 10000 1.5 350 21:22 06.01.2021
4018 Clouds 4 1017 86 10000 1.5 350 20:47 06.01.2021
4019 Clouds 4 1017 86 10000 1.5 340 20:22 06.01.2021
4020 Clouds 4 1016 86 10000 2.1 340 19:48 06.01.2021
4021 Clouds 4 1016 86 10000 2.1 340 19:29 06.01.2021
4022 Clouds 4 1016 86 9000 2.1 320 18:50 06.01.2021
4023 Clouds 3 1016 86 9000 1.5 0 18:32 06.01.2021
4024 Clouds 4 1016 86 9000 2.1 340 17:47 06.01.2021
4025 Clouds 4 1016 86 9000 2.1 340 17:28 06.01.2021
4026 Clouds 4 1016 86 8000 2.6 320 16:59 06.01.2021
4027 Clouds 4 1016 86 9000 2.6 340 16:38 06.01.2021
4028 Clouds 4 1016 86 9000 2.6 340 16:38 06.01.2021
4029 Drizzle 4 1016 86 10000 2.6 330 16:18 06.01.2021
4030 Drizzle 4 1016 86 8000 2.6 320 15:46 06.01.2021
4031 Drizzle 3 1016 86 8000 2.6 320 15:24 06.01.2021
4032 Clouds 3 1015 86 7000 2.6 350 14:36 06.01.2021
4033 Mist 3 1016 86 5000 1.5 360 13:55 06.01.2021
4034 Mist 3 1016 93 5000 2.1 350 13:36 06.01.2021
4035 Mist 3 1016 93 5000 2.6 360 13:18 06.01.2021
4036 Clouds 3 1016 93 7000 2.6 360 12:42 06.01.2021
4037 Clouds 3 1017 86 8000 2.6 340 11:46 06.01.2021
4038 Clouds 3 1017 86 8000 2.6 340 11:23 06.01.2021
4039 Clouds 3 1016 86 8000 1.5 350 10:44 06.01.2021
4040 Clouds 3 1016 86 8000 2.1 350 09:52 06.01.2021
4041 Clouds 3 1016 86 8000 2.6 340 09:33 06.01.2021
4042 Clouds 3 1015 86 8000 2.1 10 08:54 06.01.2021
4043 Clouds 3 1015 86 7000 2.6 350 08:21 06.01.2021
4044 Clouds 3 1015 86 7000 2.6 350 07:53 06.01.2021
4045 Clouds 3 1015 86 7000 2.1 20 06:45 06.01.2021
4046 Clouds 3 1015 86 6000 1.5 340 05:32 06.01.2021
4047 Clouds 3 1015 86 6000 2.1 360 04:31 06.01.2021
4048 Clouds 2 1015 86 6000 3.1 10 02:45 06.01.2021
4049 Clouds 2 1015 86 6000 3.1 10 02:22 06.01.2021
4050 Clouds 3 1015 86 6000 3.1 360 00:22 06.01.2021
4051 Clouds 3 1015 86 7000 2.1 350 23:23 05.01.2021
4052 Clouds 3 1015 86 7000 2.6 360 22:41 05.01.2021
4053 Clouds 3 1015 86 6000 2.6 10 22:20 05.01.2021
4054 Clouds 3 1015 86 6000 2.6 10 21:52 05.01.2021
4055 Clouds 3 1015 86 7000 3.1 10 20:41 05.01.2021
4056 Clouds 3 1015 86 7000 3.1 10 20:23 05.01.2021
4057 Clouds 3 1015 86 7000 2.6 10 19:41 05.01.2021
4058 Clouds 3 1015 86 7000 2.6 360 19:21 05.01.2021
4059 Clouds 3 1015 86 7000 3.6 360 18:43 05.01.2021
4060 Clouds 3 1015 86 7000 2.6 360 18:24 05.01.2021
4061 Clouds 3 1014 86 7000 3.1 10 17:49 05.01.2021
4062 Clouds 3 1014 86 7000 3.1 10 17:27 05.01.2021
4063 Clouds 3 1014 86 6000 3.6 20 16:52 05.01.2021
4064 Clouds 3 1014 86 7000 4.1 10 16:21 05.01.2021
4065 Clouds 3 1014 86 7000 4.1 10 15:50 05.01.2021
4066 Clouds 3 1014 86 7000 4.1 10 15:25 05.01.2021
4067 Clouds 3 1014 86 6000 3.6 20 14:39 05.01.2021
4068 Clouds 3 1014 86 6000 3.6 10 13:50 05.01.2021
4069 Clouds 3 1015 86 6000 3.6 20 13:30 05.01.2021
4070 Clouds 3 1015 86 6000 3.1 20 12:49 05.01.2021
4071 Clouds 3 1015 86 6000 3.1 20 12:28 05.01.2021
4072 Clouds 3 1015 86 6000 3.6 20 11:39 05.01.2021
4073 -273 0 0 0 0 0 11:19 05.01.2021
4074 Clouds 3 1014 93 6000 3.1 20 11:19 05.01.2021
4075 Mist 2 1014 93 5000 3.1 20 10:43 05.01.2021
4076 Mist 2 1014 93 5000 2.6 20 09:51 05.01.2021
4077 Clouds 2 1014 93 6000 3.1 20 09:30 05.01.2021
4078 Clouds 2 1014 93 6000 3.6 20 08:41 05.01.2021
4079 Clouds 2 1014 100 6000 2.6 10 08:18 05.01.2021
4080 Clouds 3 1014 86 7000 3.1 360 05:29 05.01.2021
4081 Clouds 3 1014 86 9000 3.1 360 02:36 05.01.2021
4082 Clouds 3 1014 86 10000 3.6 10 00:22 05.01.2021
4083 Clouds 3 1014 86 10000 3.1 10 23:39 04.01.2021
4084 Clouds 3 1014 86 10000 3.1 10 23:20 04.01.2021
4085 Clouds 3 1014 86 10000 3.1 10 22:44 04.01.2021
4086 Clouds 3 1014 86 10000 3.1 10 21:57 04.01.2021
4087 Clouds 3 1013 86 10000 3.1 20 21:39 04.01.2021
4088 Clouds 3 1013 86 10000 3.6 20 20:58 04.01.2021
4089 Clouds 3 1013 86 10000 2.6 10 20:34 04.01.2021
4090 Clouds 3 1013 93 10000 2.1 20 19:59 04.01.2021
4091 Drizzle 3 1013 86 7000 2.6 30 19:38 04.01.2021
4092 Clouds 3 1013 86 9000 3.1 30 19:18 04.01.2021
4093 Clouds 3 1013 86 10000 3.6 30 18:40 04.01.2021
4094 Clouds 3 1013 86 10000 4.6 30 17:47 04.01.2021
4095 Clouds 3 1013 86 10000 4.6 30 17:28 04.01.2021
4096 Clouds 3 1012 80 10000 4.1 20 16:57 04.01.2021
4097 Clouds 3 1012 80 10000 4.1 20 16:38 04.01.2021
4098 Clouds 3 1012 80 10000 4.1 30 16:20 04.01.2021
4099 Clouds 3 1012 86 10000 4.1 40 15:41 04.01.2021
4100 Clouds 3 1012 86 10000 4.1 50 14:55 04.01.2021
4101 Clouds 3 1013 86 10000 4.1 40 13:57 04.01.2021
4102 Clouds 3 1013 86 10000 4.1 40 13:35 04.01.2021
4103 Clouds 3 1013 86 10000 4.1 50 12:53 04.01.2021
4104 Clouds 3 1013 86 10000 4.1 50 12:27 04.01.2021
4105 Clouds 3 1013 86 8000 3.6 30 11:41 04.01.2021
4106 Clouds 2 1013 93 9000 3.6 30 11:18 04.01.2021
4107 Clouds 2 1013 93 8000 3.1 20 10:44 04.01.2021
4108 Clouds 2 1013 93 8000 3.1 20 10:22 04.01.2021
4109 Clouds 2 1013 93 8000 3.1 20 09:36 04.01.2021
4110 Clouds 2 1013 93 9000 3.1 10 09:18 04.01.2021
4111 Clouds 2 1013 93 9000 3.1 10 09:18 04.01.2021
4112 Clouds 2 1013 93 9000 3.1 360 08:23 04.01.2021
4113 Clouds 2 1013 93 10000 3.1 360 07:47 04.01.2021
4114 Clouds 2 1013 93 9000 2.6 360 05:42 04.01.2021
4115 Clouds 3 1013 86 10000 3.1 10 05:20 04.01.2021
4116 Clouds 3 1014 86 7000 4.1 20 02:26 04.01.2021
4117 Clouds 3 1014 86 7000 3.1 20 00:27 04.01.2021
4118 Clouds 3 1014 86 6000 3.6 10 23:38 03.01.2021
4119 Clouds 3 1014 86 6000 3.1 10 22:59 03.01.2021
4120 Clouds 3 1014 86 6000 2.6 10 22:40 03.01.2021
4121 Drizzle 3 1014 86 6000 3.1 20 22:22 03.01.2021
4122 Drizzle 3 1014 86 6000 3.1 20 21:45 03.01.2021
4123 Clouds 3 1014 86 7000 4.1 30 21:24 03.01.2021
4124 Clouds 3 1014 86 7000 3.1 20 20:42 03.01.2021
4125 Clouds 3 1014 86 8000 2.6 10 20:20 03.01.2021
4126 Clouds 3 1014 86 8000 2.6 10 19:47 03.01.2021
4127 Clouds 3 1014 86 7000 3.1 10 19:28 03.01.2021
4128 Clouds 3 1014 86 8000 2.6 350 18:52 03.01.2021
4129 Clouds 3 1013 86 9000 2.6 340 18:33 03.01.2021
4130 Clouds 3 1014 86 10000 2.6 360 17:53 03.01.2021
4131 Clouds 3 1014 86 10000 2.6 360 17:29 03.01.2021
4132 Clouds 4 1013 80 10000 3.1 340 16:57 03.01.2021
4133 Clouds 4 1014 80 10000 2.6 340 16:39 03.01.2021
4134 Clouds 4 1014 80 10000 2.6 340 16:19 03.01.2021
4135 Clouds 4 1014 80 10000 2.6 350 15:45 03.01.2021
4136 Clouds 4 1014 80 10000 2.6 10 15:23 03.01.2021
4137 Clouds 4 1014 86 10000 3.6 10 14:43 03.01.2021
4138 Clouds 4 1014 86 10000 3.1 360 14:22 03.01.2021
4139 Clouds 4 1014 86 10000 2.1 10 13:38 03.01.2021
4140 Clouds 3 1014 86 10000 1.5 0 13:19 03.01.2021
4141 Clouds 3 1014 86 9000 2.6 30 11:53 03.01.2021
4142 Clouds 3 1014 93 7000 3.1 30 11:34 03.01.2021
4143 Clouds 2 1014 93 6000 2.6 20 10:58 03.01.2021
4144 Mist 2 1014 100 4900 2.1 10 10:33 03.01.2021
4145 Mist 2 1014 100 4700 1.5 360 09:52 03.01.2021
4146 Mist 2 1014 100 4500 1.5 20 09:28 03.01.2021
4147 Mist 2 1013 100 4800 1.5 20 08:32 03.01.2021
4148 Mist 2 1013 100 4900 1.5 40 06:57 03.01.2021
4149 Mist 2 1013 93 4100 1 0 05:23 03.01.2021
4150 Mist 2 1013 93 3500 2.1 20 02:26 03.01.2021
4151 Mist 2 1014 93 3800 0.5 0 00:54 03.01.2021
4152 Mist 2 1014 93 3600 1 20 23:53 02.01.2021
4153 Mist 2 1014 93 4200 1 0 23:20 02.01.2021
4154 Mist 2 1014 93 4000 1 90 22:49 02.01.2021
4155 Mist 2 1014 93 4000 1 90 22:49 02.01.2021
4156 Mist 2 1014 93 4000 1 90 22:31 02.01.2021
4157 Mist 2 1014 93 4300 1 60 21:49 02.01.2021
4158 Mist 2 1014 93 4300 1 60 21:29 02.01.2021
4159 Mist 2 1014 93 5000 0.5 50 20:46 02.01.2021
4160 Clouds 2 1014 93 6000 1.1 300 20:26 02.01.2021
4161 Clouds 2 1014 93 6000 1.1 300 19:48 02.01.2021
4162 Clouds 2 1014 93 6000 0.84 315 19:20 02.01.2021
4163 Clouds 2 1014 93 6000 0.5 330 18:51 02.01.2021
4164 Clouds 3 1014 86 6000 1 340 18:32 02.01.2021
4165 Clouds 3 1014 86 6000 1 0 17:49 02.01.2021
4166 Clouds 3 1014 86 6000 1 0 17:30 02.01.2021
4167 Clouds 4 1014 80 6000 2.1 260 16:46 02.01.2021
4168 Clouds 3 1014 80 6000 2.1 260 16:22 02.01.2021
4169 Clouds 4 1014 80 6000 2.6 230 15:48 02.01.2021
4170 Clouds 4 1014 80 6000 1.5 0 15:28 02.01.2021
4171 Mist 3 1014 86 5000 2.1 220 14:47 02.01.2021
4172 Mist 3 1014 86 5000 1.5 250 14:26 02.01.2021
4173 Mist 3 1014 93 4700 1.5 200 13:44 02.01.2021
4174 Mist 2 1015 100 3800 1.5 0 12:59 02.01.2021
4175 Clouds 2 1015 76 8000 2.6 330 12:40 02.01.2021
4176 Mist 2 1015 78 2800 1 0 12:19 02.01.2021
4177 Mist 0 1016 100 1600 1.42 326 11:38 02.01.2021
4178 Fog -1 1015 100 250 1.19 315 11:20 02.01.2021
4179 Fog -1 1015 100 250 1 250 10:42 02.01.2021
4180 Fog -2 1015 92 200 1 0 10:23 02.01.2021
4181 Fog -2 1015 92 800 1 0 09:43 02.01.2021
4182 Fog -3 1015 100 1000 0.5 0 09:21 02.01.2021
4183 Fog -3 1015 100 1000 0.5 0 08:48 02.01.2021
4184 Fog -2 1014 100 650 1.22 330 08:19 02.01.2021
4185 Fog -3 1014 92 3700 1.11 342 07:25 02.01.2021
4186 Fog -3 1014 92 700 1.02 331 06:58 02.01.2021
4187 Mist -3 1014 92 4100 1.14 338 06:24 02.01.2021
4188 Mist -2 1014 100 3800 0.5 0 04:27 02.01.2021
4189 Clear 0 1014 100 6000 1.16 2 00:54 02.01.2021
4190 Mist 0 1014 92 5000 1 0 00:35 02.01.2021
4191 Clear 0 1013 92 6000 1.5 290 23:44 01.01.2021
4192 Mist 0 1013 88 5000 1 10 23:20 01.01.2021
4193 Clouds 0 1013 88 6000 1.5 310 22:47 01.01.2021
4194 Clouds 0 1013 87 6000 1.5 310 22:22 01.01.2021
4195 Clouds 0 1013 87 6000 0.5 0 21:43 01.01.2021
4196 Clouds 0 1013 86 6000 1 340 21:22 01.01.2021
4197 Clouds 0 1013 86 6000 1 340 20:52 01.01.2021
4198 Clouds 1 1012 86 8000 1 330 20:20 01.01.2021
4199 Clear 1 1012 86 10000 1 300 19:43 01.01.2021
4200 Clear 1 1012 86 10000 1 300 19:24 01.01.2021
4201 Clear 2 1012 80 10000 1 320 18:57 01.01.2021
4202 Clear 2 1012 80 10000 1 320 18:39 01.01.2021
4203 Clear 2 1011 83 10000 1 340 18:19 01.01.2021
4204 Clouds 3 1011 81 10000 0.5 340 17:41 01.01.2021
4205 Clouds 3 1011 74 10000 0.5 360 17:18 01.01.2021
4206 Clear 3 1011 74 10000 1.5 10 16:38 01.01.2021
4207 Clear 3 1011 74 10000 1.5 360 15:56 01.01.2021
4208 Clear 4 1010 74 10000 2.6 340 15:36 01.01.2021
4209 Clear 3 1010 78 10000 1.5 360 14:41 01.01.2021
4210 Clouds 3 1010 80 10000 2.6 330 14:19 01.01.2021
4211 Clear 3 1011 80 10000 1.5 350 13:37 01.01.2021
4212 Clouds 3 1011 82 10000 2.1 340 12:48 01.01.2021
4213 Clouds 2 1011 84 10000 1.5 350 12:25 01.01.2021
4214 Clouds 1 1011 100 10000 0.5 0 11:39 01.01.2021
4215 Clouds 1 1010 86 10000 1 330 11:18 01.01.2021
4216 Clouds 1 1010 86 10000 1 330 10:51 01.01.2021
4217 Clouds 0 1010 89 10000 1 0 09:53 01.01.2021
4218 Clouds 0 1010 91 10000 1.5 330 09:24 01.01.2021
4219 Clouds 0 1009 91 10000 1.5 330 08:30 01.01.2021
4220 Mist 0 1008 90 5000 0.5 0 06:42 01.01.2021
4221 Mist -1 1008 100 4700 0.5 0 04:49 01.01.2021
4222 Mist -1 1007 100 4200 0.5 350 01:42 01.01.2021
4223 Mist 0 1007 92 3000 1.39 326 00:32 01.01.2021
4224 Mist -1 1007 92 3100 1.49 327 23:41 31.12.2020
4225 Mist 1 1006 84 5000 1.62 323 23:21 31.12.2020
4226 Clouds 0 1006 84 7000 1.62 323 22:42 31.12.2020
4227 Clouds 1 1006 82 8000 0.5 310 22:23 31.12.2020
4228 Clouds 1 1006 82 8000 0.5 310 21:56 31.12.2020
4229 Clear 1 1006 82 10000 0.5 0 21:36 31.12.2020
4230 Clear 1 1006 81 10000 0.5 0 20:58 31.12.2020
4231 Clear 2 1005 86 10000 0.5 0 20:31 31.12.2020
4232 Clear 2 1005 81 10000 1 320 19:51 31.12.2020
4233 Clouds 2 1005 79 10000 1.5 300 19:33 31.12.2020
4234 Clouds 3 1005 80 10000 1.5 310 18:56 31.12.2020
4235 Clouds 3 1005 80 10000 1.5 310 18:26 31.12.2020
4236 Clouds 4 1004 80 10000 2.1 290 17:55 31.12.2020
4237 Clouds 4 1004 80 10000 2.6 290 17:37 31.12.2020
4238 Clouds 4 1004 75 10000 2.1 290 17:18 31.12.2020
4239 Clouds 4 1004 80 10000 1.5 0 16:38 31.12.2020
4240 Clouds 5 1003 80 10000 1.5 350 16:20 31.12.2020
4241 Clouds 5 1003 75 10000 3.1 320 15:43 31.12.2020
4242 Clouds 5 1003 80 10000 3.1 340 15:20 31.12.2020
4243 Clouds 4 1003 80 10000 4.1 320 14:42 31.12.2020
4244 Clouds 4 1003 80 10000 4.1 310 14:23 31.12.2020
4245 Clouds 4 1003 80 10000 4.1 310 13:59 31.12.2020
4246 Clouds 4 1002 80 10000 3.6 330 13:37 31.12.2020
4247 Clouds 4 1002 86 10000 4.1 330 13:19 31.12.2020
4248 Clouds 4 1003 86 10000 4.1 330 12:49 31.12.2020
4249 Clouds 3 1003 86 10000 4.1 330 12:31 31.12.2020
4250 Clouds 3 1002 93 10000 4.1 330 11:47 31.12.2020
4251 Clouds 3 1002 93 10000 4.1 330 11:29 31.12.2020
4252 Clouds 4 1002 86 10000 5.1 330 10:46 31.12.2020
4253 Clouds 4 1002 86 10000 5.1 330 10:27 31.12.2020
4254 Clouds 4 1001 93 10000 5.1 330 09:50 31.12.2020
4255 Drizzle 5 1001 93 7000 4.1 330 09:26 31.12.2020
4256 Mist 6 1000 93 5000 4.6 330 08:50 31.12.2020
4257 Clouds 6 999 93 10000 3.1 240 08:31 31.12.2020
4258 Clouds 6 999 93 6000 3.6 240 07:56 31.12.2020
4259 Mist 6 999 100 4600 3.1 230 07:27 31.12.2020
4260 Clouds 6 1000 93 10000 5.1 190 05:30 31.12.2020
4261 Rain 5 1001 100 10000 5.7 180 03:38 31.12.2020
4262 Drizzle 5 1001 93 10000 6.7 180 02:45 31.12.2020
4263 Clouds 5 1001 93 10000 7.2 180 02:25 31.12.2020
4264 Clouds 4 1002 93 10000 7.2 180 01:43 31.12.2020
4265 Clouds 4 1002 93 10000 7.7 180 01:22 31.12.2020
4266 Clouds 4 1003 93 8000 7.2 170 00:43 31.12.2020
4267 Clouds 4 1004 86 7000 6.2 180 23:48 30.12.2020
4268 Clouds 4 1004 86 10000 5.7 180 23:19 30.12.2020
4269 Rain 4 1005 93 8000 5.1 180 22:48 30.12.2020
4270 Clouds 5 1005 93 9000 4.1 180 22:30 30.12.2020
4271 Clouds 5 1005 93 10000 5.1 180 21:44 30.12.2020
4272 Drizzle 5 1005 93 10000 4.6 180 21:22 30.12.2020
4273 Drizzle 5 1005 93 10000 4.6 180 20:50 30.12.2020
4274 Clouds 5 1005 93 10000 2.6 200 20:20 30.12.2020
4275 Clouds 5 1006 86 10000 5.1 180 19:41 30.12.2020
4276 Clouds 5 1006 81 10000 4.6 180 19:22 30.12.2020
4277 Clouds 5 1006 81 10000 5.1 190 18:46 30.12.2020
4278 Clouds 5 1006 81 10000 5.1 190 18:28 30.12.2020
4279 Clouds 5 1006 81 10000 5.1 210 17:51 30.12.2020
4280 Clouds 5 1006 75 10000 4.1 210 17:32 30.12.2020
4281 Clouds 5 1006 80 10000 3.6 230 16:56 30.12.2020
4282 Clouds 6 1006 70 10000 4.6 200 16:33 30.12.2020
4283 Clouds 6 1006 75 10000 4.1 230 15:48 30.12.2020
4284 Clouds 6 1006 75 10000 4.6 230 15:25 30.12.2020
4285 Clouds 6 1006 81 10000 4.6 210 14:44 30.12.2020
4286 Clouds 6 1006 81 10000 4.6 210 14:24 30.12.2020
4287 Clouds 6 1006 81 10000 3.1 230 13:42 30.12.2020
4288 Clouds 5 1006 86 10000 3.6 250 12:44 30.12.2020
4289 Clouds 4 1006 86 10000 4.1 240 12:22 30.12.2020
4290 Clouds 4 1006 93 10000 4.1 240 11:38 30.12.2020
4291 Clouds 3 1005 86 10000 3.6 250 11:19 30.12.2020
4292 Clouds 3 1005 93 10000 3.6 250 10:49 30.12.2020
4293 Clouds 3 1005 93 10000 3.6 250 10:29 30.12.2020
4294 Clouds 2 1005 93 10000 2.6 240 09:50 30.12.2020
4295 Clouds 2 1004 100 10000 1 0 09:30 30.12.2020
4296 Clouds 2 1003 100 7000 3.1 250 08:35 30.12.2020
4297 Clouds 2 1002 93 8000 2.1 240 07:31 30.12.2020
4298 Clouds 3 1001 86 10000 2.1 280 06:53 30.12.2020
4299 Clouds 3 1001 86 10000 2.1 280 06:32 30.12.2020
4300 Clouds 4 1000 86 10000 2.1 290 05:44 30.12.2020
4301 Clouds 4 1000 86 10000 2.1 290 05:25 30.12.2020
4302 Clouds 4 998 93 10000 2.6 300 03:28 30.12.2020
4303 Clouds 4 998 93 10000 2.6 280 02:43 30.12.2020
4304 Clouds 5 997 93 10000 3.1 270 02:25 30.12.2020
4305 Clouds 5 997 93 6000 3.1 270 01:33 30.12.2020
4306 Clouds 5 997 93 10000 2.6 240 00:50 30.12.2020
4307 Clouds 5 997 93 10000 2.6 240 00:31 30.12.2020
4308 Clouds 5 996 93 10000 2.1 230 23:57 29.12.2020
4309 Clouds 5 996 93 10000 2.1 200 23:39 29.12.2020
4310 Clouds 5 995 86 10000 3.1 220 23:18 29.12.2020
4311 Clouds 5 995 86 10000 3.1 210 22:41 29.12.2020
4312 Clouds 5 995 86 10000 3.6 210 22:23 29.12.2020
4313 Clouds 5 995 93 10000 3.1 220 21:47 29.12.2020
4314 Clouds 5 995 93 10000 3.1 220 21:29 29.12.2020
4315 Clouds 5 995 93 10000 3.1 210 20:54 29.12.2020
4316 Clouds 5 994 86 10000 3.1 210 20:36 29.12.2020
4317 Clouds 5 994 86 10000 4.1 210 20:18 29.12.2020
4318 Clouds 5 994 93 10000 3.1 210 19:37 29.12.2020
4319 Clouds 4 994 93 10000 3.1 210 19:19 29.12.2020
4320 Clouds 5 993 93 10000 3.6 210 18:44 29.12.2020
4321 Drizzle 5 993 93 10000 3.1 200 18:24 29.12.2020
4322 Clouds 5 993 93 10000 2.6 190 17:44 29.12.2020
4323 Clouds 5 993 93 10000 3.1 190 17:20 29.12.2020
4324 Clouds 5 992 93 10000 4.6 200 16:37 29.12.2020
4325 Clouds 5 992 93 10000 3.6 190 15:59 29.12.2020
4326 Clouds 4 992 86 10000 4.1 200 15:37 29.12.2020
4327 Clouds 5 992 86 10000 4.1 200 14:59 29.12.2020
4328 Clouds 5 991 86 10000 3.1 200 14:36 29.12.2020
4329 Clouds 5 991 86 10000 4.1 210 14:18 29.12.2020
4330 Clouds 4 991 86 10000 3.1 220 13:45 29.12.2020
4331 Clouds 4 991 86 10000 3.1 220 13:21 29.12.2020
4332 Clouds 4 991 93 10000 4.6 220 12:38 29.12.2020
4333 Clouds 3 991 86 10000 5.1 210 12:20 29.12.2020
4334 Clouds 4 991 86 10000 5.1 210 11:53 29.12.2020
4335 Clouds 3 990 86 10000 3.1 210 11:31 29.12.2020
4336 Clouds 3 990 93 10000 2.1 200 10:34 29.12.2020
4337 Clouds 2 990 93 10000 2.1 210 09:49 29.12.2020
4338 Clouds 2 989 100 10000 2.1 190 09:25 29.12.2020
4339 Clouds 2 989 93 10000 1.5 210 08:54 29.12.2020
4340 Clouds 2 988 93 10000 2.1 230 08:32 29.12.2020
4341 Clouds 3 987 100 10000 2.1 230 07:26 29.12.2020
4342 Mist 3 987 100 5000 4.1 220 06:46 29.12.2020
4343 Clouds 3 986 93 9000 3.6 230 05:27 29.12.2020
4344 Clouds 2 980 93 10000 3.1 280 00:55 29.12.2020
4345 Rain 2 979 100 10000 3.6 270 00:22 29.12.2020
4346 Rain 2 978 93 9000 4.1 270 23:36 28.12.2020
4347 Rain 2 976 93 10000 4.1 270 22:30 28.12.2020
4348 Clouds 2 974 93 10000 5.1 270 21:47 28.12.2020
4349 Clouds 2 974 93 10000 5.1 270 21:28 28.12.2020
4350 Clouds 2 973 100 8000 1.5 0 20:44 28.12.2020
4351 Clouds 3 973 100 8000 1.5 0 20:44 28.12.2020
4352 Drizzle 3 972 93 10000 1.5 0 20:25 28.12.2020
4353 Clouds 4 972 93 10000 3.1 70 19:50 28.12.2020
4354 Clouds 4 972 93 10000 3.1 70 19:26 28.12.2020
4355 Rain 4 972 93 8000 2.6 110 18:59 28.12.2020
4356 Rain 3 972 93 8000 4.6 120 18:36 28.12.2020
4357 Rain 3 972 93 8000 5.7 120 17:55 28.12.2020
4358 Rain 4 972 93 8000 5.7 120 17:37 28.12.2020
4359 Rain 3 973 93 7000 6.7 120 17:18 28.12.2020
4360 Clouds 4 973 93 10000 6.7 140 16:31 28.12.2020
4361 Rain 4 973 86 5000 8.2 150 15:58 28.12.2020
4362 Rain 4 974 86 10000 8.2 160 15:36 28.12.2020
4363 Clouds 5 974 80 10000 5.7 160 14:35 28.12.2020
4364 Clouds 5 975 80 10000 5.7 170 13:51 28.12.2020
4365 Clouds 5 976 80 10000 5.7 180 13:23 28.12.2020
4366 Clouds 5 976 80 10000 5.7 190 12:38 28.12.2020
4367 Clouds 4 976 80 10000 5.1 210 12:18 28.12.2020
4368 Clouds 4 977 80 10000 5.7 210 11:42 28.12.2020
4369 Clouds 4 977 80 10000 6.7 220 11:18 28.12.2020
4370 Clouds 4 976 86 10000 3.6 220 10:38 28.12.2020
4371 Clouds 4 976 86 10000 5.1 230 10:19 28.12.2020
4372 Clouds 4 976 86 10000 4.6 230 09:38 28.12.2020
4373 Clouds 4 976 86 10000 4.6 210 09:18 28.12.2020
4374 Clouds 4 975 93 10000 2.6 230 06:55 28.12.2020
4375 Clouds 4 975 93 10000 3.6 210 05:34 28.12.2020
4376 Clouds 4 976 93 10000 3.6 170 03:59 28.12.2020
4377 Clouds 3 977 93 10000 3.6 190 01:56 28.12.2020
4378 Clear 3 977 86 10000 2.6 190 00:29 28.12.2020
4379 Clouds 3 978 93 10000 3.1 210 23:37 27.12.2020
4380 Clouds 4 978 93 10000 3.1 200 23:18 27.12.2020
4381 Clouds 4 977 93 10000 2.6 230 21:56 27.12.2020
4382 Clouds 5 977 87 10000 3.6 220 21:25 27.12.2020
4383 Clouds 5 977 87 10000 3.6 210 20:42 27.12.2020
4384 Clouds 5 977 86 10000 2.1 240 19:25 27.12.2020
4385 Mist 5 978 93 5000 2.1 220 18:55 27.12.2020
4386 Rain 5 978 93 5000 2.1 220 18:37 27.12.2020
4387 Clouds 5 978 93 10000 4.1 200 18:18 27.12.2020
4388 Clouds 6 978 93 10000 3.6 200 17:43 27.12.2020
4389 Clouds 6 979 93 10000 5.1 210 17:21 27.12.2020
4390 Clouds 6 978 87 10000 5.7 200 16:30 27.12.2020
4391 Rain 7 980 87 4800 8.7 230 15:40 27.12.2020
4392 Rain 7 979 93 10000 11.3 200 14:58 27.12.2020
4393 Clouds 7 980 87 10000 12.3 190 14:38 27.12.2020
4394 Clouds 7 982 81 10000 13.4 190 13:55 27.12.2020
4395 Clouds 7 982 81 10000 13.4 190 13:19 27.12.2020
4396 Clouds 7 985 87 10000 12.3 190 12:43 27.12.2020
4397 Clouds 7 985 87 10000 12.3 190 12:43 27.12.2020
4398 Clouds 7 987 87 10000 11.3 210 11:56 27.12.2020
4399 Drizzle 7 988 81 10000 12.9 190 11:35 27.12.2020
4400 Drizzle 7 990 87 10000 13.9 190 10:51 27.12.2020
4401 Drizzle 7 990 87 10000 13.9 190 10:24 27.12.2020
4402 Clouds 7 992 87 10000 12.3 190 09:46 27.12.2020
4403 Clouds 6 995 93 10000 10.3 190 08:39 27.12.2020
4404 Clouds 6 996 93 9000 11.3 190 08:20 27.12.2020
4405 Clouds 6 997 93 10000 11.3 190 07:26 27.12.2020
4406 Clouds 5 1001 87 10000 11.8 190 05:44 27.12.2020
4407 Clouds 5 1005 93 10000 10.3 190 03:59 27.12.2020
4408 Clouds 4 1007 93 9000 8.7 190 03:19 27.12.2020
4409 Clouds 4 1010 86 10000 8.7 190 01:34 27.12.2020
4410 Clouds 4 1013 86 10000 9.3 200 00:20 27.12.2020
4411 Clouds 4 1015 86 10000 7.2 190 23:27 26.12.2020
4412 Clouds 4 1016 86 10000 7.2 200 22:57 26.12.2020
4413 Clouds 4 1017 80 10000 7.7 190 22:36 26.12.2020
4414 Clouds 4 1017 80 10000 8.7 190 22:18 26.12.2020
4415 Clouds 4 1017 80 10000 8.7 190 22:18 26.12.2020
4416 Clouds 4 1018 80 10000 7.2 180 21:43 26.12.2020
4417 Clouds 4 1019 80 10000 7.2 200 21:22 26.12.2020
4418 Clouds 4 1019 86 10000 7.2 200 20:42 26.12.2020
4419 Clouds 4 1020 80 10000 5.1 190 20:19 26.12.2020
4420 Clouds 4 1020 80 10000 5.7 180 19:27 26.12.2020
4421 Clouds 4 1021 80 10000 5.1 200 18:53 26.12.2020
4422 Clouds 4 1022 75 10000 6.7 210 18:32 26.12.2020
4423 Clouds 5 1022 75 10000 5.7 210 17:44 26.12.2020
4424 Clouds 5 1022 75 10000 5.1 210 17:26 26.12.2020
4425 Clouds 5 1023 75 10000 5.7 200 16:37 26.12.2020
4426 Clouds 5 1024 75 10000 5.7 210 15:57 26.12.2020
4427 Clouds 5 1025 70 10000 4.6 220 15:20 26.12.2020
4428 Clouds 5 1025 70 10000 5.7 210 14:30 26.12.2020
4429 Clouds 5 1025 70 10000 4.6 220 13:56 26.12.2020
4430 Clouds 5 1026 70 10000 4.1 220 13:36 26.12.2020
4431 Clouds 5 1027 70 10000 4.1 230 12:53 26.12.2020
4432 Clouds 5 1027 70 10000 3.6 210 12:35 26.12.2020
4433 Clear 4 1027 75 10000 3.1 210 11:59 26.12.2020
4434 Clouds 3 1027 80 10000 2.1 220 11:41 26.12.2020
4435 Clouds 3 1027 80 10000 2.1 220 11:20 26.12.2020
4436 Clouds 1 1028 100 10000 2.1 200 10:45 26.12.2020
4437 Clouds 1 1028 100 10000 2.1 200 10:24 26.12.2020
4438 Clear 0 1028 78 10000 1 0 09:47 26.12.2020
4439 Clouds 0 1028 81 10000 2.1 240 08:55 26.12.2020
4440 Clouds 0 1028 81 10000 2.1 240 08:19 26.12.2020
4441 Clouds 0 1028 80 10000 1 0 07:21 26.12.2020
4442 Clouds 1 1029 80 10000 1 0 05:37 26.12.2020
4443 Clouds 1 1029 93 10000 1.5 300 02:47 26.12.2020
4444 Clouds 1 1029 80 10000 1 0 00:39 26.12.2020
4445 Clouds 2 1029 80 10000 2.1 250 23:56 25.12.2020
4446 Clear 2 1029 79 10000 2.1 240 23:37 25.12.2020
4447 Clouds 2 1029 79 10000 1.5 0 23:19 25.12.2020
4448 Clouds 2 1029 86 10000 2.1 330 22:26 25.12.2020
4449 Clear 3 1029 86 10000 2.1 320 21:46 25.12.2020
4450 Clear 3 1029 86 10000 2.1 320 21:28 25.12.2020
4451 Clouds 3 1029 80 10000 2.6 300 20:47 25.12.2020
4452 Clouds 3 1029 80 10000 2.6 300 20:27 25.12.2020
4453 Clouds 4 1029 75 10000 2.6 310 19:43 25.12.2020
4454 Clouds 4 1029 75 10000 2.6 310 19:43 25.12.2020
4455 Clouds 4 1029 75 10000 2.6 310 18:56 25.12.2020
4456 Clouds 5 1029 75 10000 3.1 320 18:37 25.12.2020
4457 Clouds 5 1028 75 10000 4.1 320 17:35 25.12.2020
4458 Clouds 5 1028 80 10000 4.1 320 16:56 25.12.2020
4459 Clouds 5 1027 80 10000 5.1 330 16:26 25.12.2020
4460 Clouds 5 1027 80 10000 5.1 330 15:57 25.12.2020
4461 Clouds 6 1027 75 10000 5.1 340 15:35 25.12.2020
4462 Clouds 6 1027 75 10000 5.7 330 14:46 25.12.2020
4463 Clouds 6 1027 81 10000 5.7 340 14:25 25.12.2020
4464 Clouds 5 1028 81 10000 4.6 340 13:44 25.12.2020
4465 Clouds 5 1028 86 10000 5.1 340 13:25 25.12.2020
4466 Clouds 5 1028 80 10000 6.7 340 12:34 25.12.2020
4467 Clouds 5 1028 80 10000 5.7 340 11:52 25.12.2020
4468 Clouds 5 1028 86 10000 5.1 340 11:29 25.12.2020
4469 Clouds 4 1027 86 10000 5.7 330 10:53 25.12.2020
4470 Clouds 4 1027 86 10000 5.1 340 10:24 25.12.2020
4471 Clouds 4 1026 86 10000 4.6 340 09:34 25.12.2020
4472 Clouds 3 1026 93 10000 4.6 330 08:48 25.12.2020
4473 Clouds 4 1026 86 10000 4.1 320 07:59 25.12.2020
4474 Clouds 3 1025 93 10000 2.6 300 06:46 25.12.2020
4475 Clouds 3 1024 86 10000 3.1 300 03:49 25.12.2020
4476 Clouds 4 1024 86 10000 4.1 330 01:41 25.12.2020
4477 Clouds 4 1023 86 10000 4.6 320 00:18 25.12.2020
4478 Clouds 4 1023 86 10000 4.6 330 23:23 24.12.2020
4479 Clouds 4 1023 86 10000 4.6 330 22:51 24.12.2020
4480 Clouds 4 1022 93 10000 3.6 320 22:22 24.12.2020
4481 Rain 4 1022 86 10000 6.2 340 21:36 24.12.2020
4482 Clouds 4 1021 80 10000 5.1 310 20:42 24.12.2020
4483 Clouds 5 1020 75 10000 4.1 320 19:19 24.12.2020
4484 Clear 5 1019 75 10000 5.1 320 18:20 24.12.2020
4485 Clouds 5 1019 81 10000 4.6 320 17:37 24.12.2020
4486 Clouds 6 1019 81 10000 5.1 320 16:59 24.12.2020
4487 Clouds 6 1018 81 10000 5.1 320 16:23 24.12.2020
4488 Clouds 6 1017 87 10000 3.6 330 15:43 24.12.2020
4489 Clouds 6 1017 87 10000 3.6 330 15:20 24.12.2020
4490 Clouds 6 1017 87 10000 6.2 330 14:51 24.12.2020
4491 Clouds 7 1017 87 10000 7.7 340 14:24 24.12.2020
4492 Clouds 7 1017 87 10000 7.7 340 13:48 24.12.2020
4493 Rain 7 1017 87 10000 5.7 340 13:30 24.12.2020
4494 Rain 7 1016 87 10000 5.1 330 12:45 24.12.2020
4495 Clouds 8 1015 81 10000 5.7 340 12:21 24.12.2020
4496 Clouds 8 1015 81 10000 5.1 340 11:47 24.12.2020
4497 Clouds 8 1015 81 10000 5.1 340 11:23 24.12.2020
4498 Clouds 7 1014 81 10000 5.7 340 10:56 24.12.2020
4499 Clouds 7 1013 93 10000 5.1 350 10:38 24.12.2020
4500 Clouds 7 1012 100 6000 3.6 270 09:53 24.12.2020
4501 Clouds 7 1012 100 10000 3.6 260 09:32 24.12.2020
4502 Clouds 7 1011 93 10000 3.1 290 08:44 24.12.2020
4503 Clouds 7 1010 93 10000 3.1 270 07:48 24.12.2020
4504 Clouds 7 1010 93 10000 2.1 280 07:28 24.12.2020
4505 Clouds 8 1009 93 10000 3.6 280 06:20 24.12.2020
4506 Mist 8 1007 93 5000 7.2 210 02:50 24.12.2020
4507 Rain 9 1007 81 10000 7.2 190 01:47 24.12.2020
4508 Rain 9 1008 81 10000 9.3 190 01:18 24.12.2020
4509 Rain 9 1008 81 10000 9.3 190 01:18 24.12.2020
4510 Clouds 10 1009 71 10000 8.2 190 00:23 24.12.2020
4511 Clouds 10 1009 71 10000 8.2 190 23:56 23.12.2020
4512 Clouds 10 1009 71 10000 8.2 190 23:38 23.12.2020
4513 Clouds 9 1009 71 10000 7.2 200 23:18 23.12.2020
4514 Clouds 10 1009 71 10000 7.7 200 22:42 23.12.2020
4515 Clouds 10 1009 71 10000 7.7 200 22:19 23.12.2020
4516 Clouds 10 1010 71 10000 7.2 200 21:42 23.12.2020
4517 Clouds 10 1009 76 10000 6.2 220 21:21 23.12.2020
4518 Clouds 10 1009 66 10000 7.2 200 20:38 23.12.2020
4519 Clouds 10 1009 66 10000 7.2 200 20:19 23.12.2020
4520 Clouds 10 1009 66 10000 8.2 210 19:44 23.12.2020
4521 Clouds 11 1009 62 10000 7.2 200 19:23 23.12.2020
4522 Clouds 11 1009 62 10000 7.2 200 18:54 23.12.2020
4523 Clouds 11 1009 66 10000 9.3 220 18:35 23.12.2020
4524 Clouds 12 1009 76 10000 6.7 240 17:44 23.12.2020
4525 Clouds 12 1009 76 10000 6.7 240 17:24 23.12.2020
4526 Clouds 13 1008 76 10000 8.2 200 16:56 23.12.2020
4527 Clouds 13 1008 76 10000 7.7 200 16:37 23.12.2020
4528 Clouds 14 1008 82 10000 5.7 200 16:18 23.12.2020
4529 Clouds 14 1008 82 10000 6.7 200 15:40 23.12.2020
4530 Clouds 13 1008 82 10000 6.7 200 15:40 23.12.2020
4531 Clouds 13 1009 82 10000 6.2 190 15:22 23.12.2020
4532 Clouds 13 1009 82 10000 6.7 190 14:51 23.12.2020
4533 Clouds 13 1009 82 10000 6.7 190 14:25 23.12.2020
4534 Clouds 13 1010 87 10000 6.2 190 13:58 23.12.2020
4535 Clouds 13 1010 93 10000 5.7 200 13:39 23.12.2020
4536 Clouds 13 1010 93 10000 5.7 190 13:18 23.12.2020
4537 Clouds 12 1010 93 10000 5.1 180 12:46 23.12.2020
4538 Clouds 13 1011 93 10000 5.1 180 12:21 23.12.2020
4539 Clouds 12 1012 93 10000 4.6 190 11:45 23.12.2020
4540 Clouds 12 1012 93 10000 4.6 180 10:58 23.12.2020
4541 Clouds 12 1012 93 10000 4.1 180 10:40 23.12.2020
4542 Clouds 12 1012 93 10000 4.1 180 10:22 23.12.2020
4543 Clouds 12 1012 93 10000 3.1 200 09:28 23.12.2020
4544 Clouds 12 1012 93 6000 3.6 190 08:44 23.12.2020
4545 Clouds 12 1012 93 10000 3.6 190 08:19 23.12.2020
4546 Rain 13 1013 93 10000 4.6 180 07:27 23.12.2020
4547 Clouds 13 1013 93 10000 4.1 180 06:39 23.12.2020
4548 Clouds 13 1014 100 10000 3.6 190 05:26 23.12.2020
4549 Clouds 13 1014 100 10000 3.6 190 04:53 23.12.2020
4550 Rain 14 1016 93 10000 4.1 210 00:34 23.12.2020
4551 Rain 14 1016 93 10000 3.1 220 23:49 22.12.2020
4552 Rain 14 1016 93 10000 3.1 220 23:30 22.12.2020
4553 Rain 14 1016 93 9000 5.1 210 22:44 22.12.2020
4554 Rain 14 1016 93 9000 5.1 210 22:25 22.12.2020
4555 Rain 14 1016 87 6000 5.7 210 21:58 22.12.2020
4556 Rain 15 1016 87 10000 7.2 200 21:38 22.12.2020
4557 Rain 15 1016 87 10000 5.7 200 21:19 22.12.2020
4558 Clouds 15 1016 87 10000 7.2 200 20:48 22.12.2020
4559 Clouds 15 1016 87 10000 7.2 200 20:21 22.12.2020
4560 Clouds 15 1016 87 10000 5.7 200 19:44 22.12.2020
4561 Clouds 15 1016 87 10000 5.7 200 19:22 22.12.2020
4562 Clouds 14 1016 87 10000 5.1 200 18:55 22.12.2020
4563 Drizzle 14 1017 93 9000 4.6 220 18:30 22.12.2020
4564 Clouds 15 1017 93 10000 5.7 230 17:59 22.12.2020
4565 Clouds 15 1016 82 10000 5.7 220 17:36 22.12.2020
4566 Clouds 15 1016 87 10000 5.7 230 17:18 22.12.2020
4567 Clouds 15 1016 87 10000 5.7 220 16:42 22.12.2020
4568 Clouds 15 1016 82 10000 5.7 210 16:19 22.12.2020
4569 Clouds 15 1016 82 10000 5.7 210 15:45 22.12.2020
4570 Clouds 15 1016 82 10000 5.7 210 15:26 22.12.2020
4571 Clouds 15 1017 87 10000 5.7 210 14:46 22.12.2020
4572 Clouds 15 1017 87 10000 5.7 210 14:28 22.12.2020
4573 Clouds 15 1017 87 10000 5.7 210 13:54 22.12.2020
4574 Clouds 15 1017 87 10000 6.2 210 13:36 22.12.2020
4575 Clouds 15 1017 87 10000 6.7 210 13:18 22.12.2020
4576 Clouds 15 1017 87 10000 6.7 210 13:18 22.12.2020
4577 Clouds 14 1017 87 10000 6.2 210 12:42 22.12.2020
4578 Clouds 14 1017 87 10000 6.2 210 12:20 22.12.2020
4579 Clouds 14 1017 87 10000 6.2 210 11:55 22.12.2020
4580 Clouds 14 1017 93 10000 6.2 210 11:37 22.12.2020
4581 Drizzle 14 1017 93 10000 5.1 210 11:18 22.12.2020
4582 Clouds 13 1017 93 10000 5.1 210 10:45 22.12.2020
4583 Clouds 13 1017 93 9000 4.6 210 10:23 22.12.2020
4584 Clouds 13 1016 93 10000 5.7 210 09:49 22.12.2020
4585 Clouds 14 1016 87 10000 5.1 210 09:21 22.12.2020
4586 Clouds 14 1016 93 10000 5.7 210 08:48 22.12.2020
4587 Clouds 14 1016 93 10000 5.7 210 08:27 22.12.2020
4588 Clouds 14 1015 93 10000 5.7 210 07:47 22.12.2020
4589 Clouds 13 1015 93 10000 7.2 210 06:38 22.12.2020
4590 Clouds 13 1015 93 10000 5.1 210 05:41 22.12.2020
4591 Clouds 14 1015 93 10000 6.2 230 02:51 22.12.2020
4592 Clouds 13 1014 87 10000 5.7 200 00:46 22.12.2020
4593 Drizzle 13 1015 93 10000 4.6 230 23:52 21.12.2020
4594 Drizzle 13 1015 93 10000 4.6 230 23:31 21.12.2020
4595 Clouds 13 1014 87 10000 7.7 210 22:38 21.12.2020
4596 Mist 13 1014 93 5000 5.1 220 22:19 21.12.2020
4597 Mist 13 1014 93 5000 5.1 220 21:59 21.12.2020
4598 Clouds 13 1014 87 10000 6.7 210 21:39 21.12.2020
4599 Clouds 13 1013 93 10000 5.7 200 21:19 21.12.2020
4600 Clouds 13 1014 93 7000 5.1 220 20:29 21.12.2020
4601 Clouds 13 1014 93 8000 4.6 220 19:59 21.12.2020
4602 Drizzle 13 1013 93 4500 5.7 210 19:41 21.12.2020
4603 Clouds 13 1013 93 10000 4.1 200 19:19 21.12.2020
4604 Clouds 13 1013 93 10000 4.6 200 18:51 21.12.2020
4605 Clouds 13 1013 93 10000 4.6 200 18:33 21.12.2020
4606 Clouds 12 1013 100 10000 5.1 200 17:43 21.12.2020
4607 Clouds 12 1013 93 10000 4.6 200 17:24 21.12.2020
4608 Clouds 12 1013 93 10000 4.6 190 16:48 21.12.2020
4609 Clouds 11 1013 93 10000 5.1 190 16:27 21.12.2020
4610 Clouds 11 1012 93 10000 5.1 200 15:57 21.12.2020
4611 Clouds 11 1012 93 10000 5.1 200 15:37 21.12.2020
4612 Clouds 10 1013 100 10000 4.6 200 14:57 21.12.2020
4613 Mist 10 1013 93 3000 7.7 190 14:21 21.12.2020
4614 Mist 9 1013 100 4000 6.7 190 13:45 21.12.2020
4615 Clouds 9 1013 93 10000 7.2 180 13:26 21.12.2020
4616 Clouds 9 1014 93 10000 7.7 180 12:45 21.12.2020
4617 Clouds 9 1014 93 10000 7.7 180 12:25 21.12.2020
4618 Clouds 9 1015 93 10000 8.2 170 11:58 21.12.2020
4619 Clouds 9 1015 93 10000 7.7 180 11:40 21.12.2020
4620 Clouds 9 1015 93 10000 7.7 180 11:22 21.12.2020
4621 Rain 9 1015 93 6000 8.7 160 10:49 21.12.2020
4622 Clouds 8 1015 93 6000 8.7 160 10:30 21.12.2020
4623 Clouds 8 1017 93 10000 8.2 170 09:49 21.12.2020
4624 Rain 8 1017 93 10000 8.2 170 09:26 21.12.2020
4625 Rain 8 1017 93 10000 7.7 170 08:54 21.12.2020
4626 Rain 8 1018 93 9000 6.7 160 08:18 21.12.2020
4627 Rain 8 1019 100 8000 4.1 160 06:47 21.12.2020
4628 Drizzle 8 1019 93 10000 3.6 150 04:58 21.12.2020
4629 Clear 8 1020 93 10000 4.1 160 02:32 21.12.2020
4630 Clear 8 1021 93 10000 1.5 160 00:35 21.12.2020
4631 Clear 7 1021 93 10000 2.6 170 23:38 20.12.2020
4632 Clear 7 1021 93 10000 2.6 170 23:19 20.12.2020
4633 Clear 7 1021 93 10000 2.6 130 22:42 20.12.2020
4634 Clear 7 1021 93 10000 2.6 140 22:22 20.12.2020
4635 Clear 7 1021 87 10000 3.1 170 21:41 20.12.2020
4636 Clear 8 1021 87 10000 3.1 180 21:22 20.12.2020
4637 Clear 8 1021 87 10000 3.1 180 20:54 20.12.2020
4638 Clouds 8 1021 87 10000 2.6 190 20:26 20.12.2020
4639 Clear 8 1021 81 10000 3.6 200 19:58 20.12.2020
4640 Clear 8 1021 81 10000 4.1 200 19:38 20.12.2020
4641 Clear 8 1021 81 10000 4.1 200 19:20 20.12.2020
4642 Clear 9 1020 76 10000 3.6 190 18:45 20.12.2020
4643 Clear 9 1020 76 10000 3.6 190 18:27 20.12.2020
4644 Clouds 9 1020 76 10000 3.6 200 17:47 20.12.2020
4645 Clouds 9 1020 76 10000 3.6 200 17:28 20.12.2020
4646 Clouds 10 1019 71 10000 5.1 200 16:47 20.12.2020
4647 Clouds 11 1019 71 10000 5.1 200 16:28 20.12.2020
4648 Clouds 11 1019 71 10000 5.1 210 15:51 20.12.2020
4649 Clouds 11 1019 71 10000 5.1 210 15:27 20.12.2020
4650 Clouds 11 1019 71 10000 4.1 200 14:56 20.12.2020
4651 Clouds 11 1019 71 10000 4.1 200 14:35 20.12.2020
4652 Clouds 11 1018 71 10000 5.1 190 13:56 20.12.2020
4653 Clouds 11 1018 81 10000 5.1 180 13:36 20.12.2020
4654 Clouds 11 1019 76 10000 5.7 200 13:18 20.12.2020
4655 Clouds 10 1019 76 10000 5.7 200 12:44 20.12.2020
4656 Clouds 10 1019 81 10000 5.7 200 12:21 20.12.2020
4657 Clouds 9 1018 87 10000 3.1 210 11:45 20.12.2020
4658 Clouds 9 1018 81 10000 5.7 190 11:26 20.12.2020
4659 Clouds 9 1018 81 10000 5.1 190 10:49 20.12.2020
4660 Clouds 9 1018 93 10000 2.6 200 10:21 20.12.2020
4661 Clouds 9 1018 93 10000 2.6 200 09:46 20.12.2020
4662 Clouds 9 1018 87 10000 2.6 190 09:46 20.12.2020
4663 Clouds 9 1018 87 10000 2.6 190 09:28 20.12.2020
4664 Clouds 9 1017 87 10000 2.6 190 08:59 20.12.2020
4665 Clouds 9 1017 93 10000 3.1 210 08:40 20.12.2020
4666 Clouds 9 1017 87 10000 4.1 210 07:34 20.12.2020
4667 Clouds 9 1016 87 10000 4.1 190 06:28 20.12.2020
4668 Clouds 9 1016 93 10000 4.1 190 02:41 20.12.2020
4669 Clear 9 1016 100 10000 4.6 170 00:53 20.12.2020
4670 Clouds 10 1015 87 10000 4.1 180 23:36 19.12.2020
4671 Clouds 10 1015 93 10000 3.1 210 23:18 19.12.2020
4672 Clouds 10 1015 87 10000 5.1 190 22:42 19.12.2020
4673 Clouds 10 1015 87 10000 4.6 190 22:24 19.12.2020
4674 Clouds 10 1015 87 10000 5.7 190 21:45 19.12.2020
4675 Clouds 10 1015 87 10000 5.1 180 21:26 19.12.2020
4676 Clouds 10 1015 87 10000 5.1 180 20:59 19.12.2020
4677 Clouds 11 1015 87 10000 5.7 190 20:36 19.12.2020
4678 Clouds 11 1015 87 10000 5.7 190 20:18 19.12.2020
4679 Clouds 11 1014 87 10000 4.6 180 19:41 19.12.2020
4680 Clouds 11 1014 93 10000 4.1 200 19:23 19.12.2020
4681 Clouds 11 1014 81 10000 4.1 180 18:34 19.12.2020
4682 Clouds 11 1014 87 10000 3.6 180 17:56 19.12.2020
4683 Clear 11 1014 81 10000 5.1 180 17:36 19.12.2020
4684 Clouds 11 1013 81 10000 4.6 180 17:18 19.12.2020
4685 Clouds 11 1013 81 10000 5.1 180 16:40 19.12.2020
4686 Clouds 12 1013 87 10000 4.1 180 16:22 19.12.2020
4687 Clouds 11 1013 87 10000 4.1 180 15:54 19.12.2020
4688 Clouds 11 1013 81 10000 3.6 190 15:26 19.12.2020
4689 Clouds 11 1013 87 10000 4.1 180 14:39 19.12.2020
4690 Clouds 11 1013 87 10000 4.1 200 13:59 19.12.2020
4691 Clouds 10 1012 93 10000 6.7 170 13:40 19.12.2020
4692 Clouds 10 1012 93 10000 6.2 170 13:18 19.12.2020
4693 Clouds 10 1013 87 10000 6.2 180 12:42 19.12.2020
4694 Clouds 9 1013 87 10000 6.2 180 12:24 19.12.2020
4695 Rain 9 1013 87 10000 5.7 170 11:56 19.12.2020
4696 Rain 9 1013 87 10000 5.1 180 11:35 19.12.2020
4697 Clouds 9 1012 93 7000 5.1 190 10:43 19.12.2020
4698 Rain 9 1012 81 10000 5.7 190 10:23 19.12.2020
4699 Clouds 9 1012 81 10000 5.7 180 09:47 19.12.2020
4700 Clouds 9 1011 87 10000 5.7 200 09:29 19.12.2020
4701 Clear 8 1011 87 10000 5.1 170 08:32 19.12.2020
4702 Clear 8 1011 87 10000 4.6 150 07:24 19.12.2020
4703 Clear 7 1011 87 10000 4.6 160 06:52 19.12.2020
4704 Clear 7 1011 87 10000 5.1 170 06:20 19.12.2020
4705 Clear 7 1012 93 10000 2.6 160 05:18 19.12.2020
4706 Clear 6 1013 87 10000 3.1 140 03:20 19.12.2020
4707 Clear 7 1014 87 10000 3.1 150 00:40 19.12.2020
4708 Clear 6 1014 87 10000 1.5 150 00:18 19.12.2020
4709 Clear 6 1014 93 10000 1.5 0 23:48 18.12.2020
4710 Clear 7 1014 93 10000 1.5 0 23:23 18.12.2020
4711 Clear 7 1015 93 10000 4.1 150 22:46 18.12.2020
4712 Clear 7 1015 93 10000 4.1 150 22:24 18.12.2020
4713 Clear 7 1016 93 10000 3.1 140 21:50 18.12.2020
4714 Clear 7 1016 93 10000 3.1 140 21:31 18.12.2020
4715 Clear 7 1016 87 10000 3.1 150 20:42 18.12.2020
4716 Clear 7 1016 87 10000 3.6 150 20:21 18.12.2020
4717 Clear 8 1017 93 10000 3.1 140 19:45 18.12.2020
4718 Clear 8 1017 87 10000 4.1 150 19:21 18.12.2020
4719 Clear 8 1017 87 10000 2.6 140 18:43 18.12.2020
4720 Clear 8 1017 87 10000 2.6 140 18:24 18.12.2020
4721 Clear 10 1018 76 10000 4.6 180 17:28 18.12.2020
4722 Clear 10 1018 76 10000 4.6 160 16:57 18.12.2020
4723 Clear 11 1017 81 10000 4.6 170 16:38 18.12.2020
4724 Clear 11 1018 71 10000 6.2 170 16:18 18.12.2020
4725 Clear 11 1018 71 10000 5.1 170 15:42 18.12.2020
4726 Clear 12 1018 71 10000 5.1 170 15:24 18.12.2020
4727 Clear 11 1018 71 10000 5.1 170 14:55 18.12.2020
4728 Clear 11 1018 76 10000 4.1 150 14:23 18.12.2020
4729 Clear 10 1019 81 10000 5.7 150 13:51 18.12.2020
4730 Clear 10 1019 81 10000 5.7 150 13:31 18.12.2020
4731 Clear 9 1020 87 10000 5.7 160 12:56 18.12.2020
4732 Clear 9 1020 87 10000 5.7 160 12:30 18.12.2020
4733 Clear 7 1021 87 10000 3.6 160 11:27 18.12.2020
4734 Clear 7 1021 93 10000 2.6 160 10:40 18.12.2020
4735 Clear 6 1021 93 10000 2.6 150 10:21 18.12.2020
4736 Clear 6 1021 93 10000 2.6 150 09:55 18.12.2020
4737 Clear 6 1022 100 10000 2.6 150 09:36 18.12.2020
4738 Clear 6 1021 93 10000 3.1 170 09:18 18.12.2020
4739 Clear 6 1021 93 10000 2.6 180 08:42 18.12.2020
4740 Clear 6 1021 93 10000 3.6 160 07:56 18.12.2020
4741 Clouds 6 1021 93 10000 4.6 150 07:19 18.12.2020
4742 Clouds 6 1021 93 10000 4.6 150 06:59 18.12.2020
4743 Clear 7 1022 93 10000 4.1 160 05:44 18.12.2020
4744 Clear 7 1022 100 10000 4.1 160 04:52 18.12.2020
4745 Clouds 8 1022 93 10000 3.6 170 03:20 18.12.2020
4746 Clouds 8 1023 93 10000 3.1 170 01:44 18.12.2020
4747 Clouds 8 1023 100 10000 3.1 180 00:29 18.12.2020
4748 Clear 7 1023 100 10000 3.6 160 23:52 17.12.2020
4749 Clouds 7 1023 93 10000 3.6 170 23:23 17.12.2020
4750 Clear 7 1023 93 10000 1.5 130 22:48 17.12.2020
4751 Clear 7 1023 93 10000 1.5 130 22:28 17.12.2020
4752 Clear 7 1023 93 10000 2.1 140 21:46 17.12.2020
4753 Clear 7 1023 93 10000 2.1 140 21:22 17.12.2020
4754 Clear 7 1023 93 10000 2.6 130 20:55 17.12.2020
4755 Clear 8 1022 93 10000 3.1 170 20:36 17.12.2020
4756 Clear 8 1022 93 10000 3.1 170 20:18 17.12.2020
4757 Clouds 8 1022 93 10000 3.6 160 19:41 17.12.2020
4758 Clouds 8 1022 87 10000 2.1 150 19:22 17.12.2020
4759 Clouds 9 1022 87 10000 3.1 210 18:41 17.12.2020
4760 Clear 9 1022 81 10000 3.1 200 18:21 17.12.2020
4761 Clouds 10 1022 81 10000 4.1 210 17:49 17.12.2020
4762 Clouds 10 1022 81 10000 4.1 210 17:31 17.12.2020
4763 Clouds 11 1022 87 10000 3.6 220 16:42 17.12.2020
4764 Clouds 11 1021 71 10000 4.6 210 16:23 17.12.2020
4765 Clouds 11 1021 76 10000 5.7 200 15:51 17.12.2020
4766 Clouds 11 1021 76 10000 5.7 200 15:30 17.12.2020
4767 Clouds 11 1021 87 10000 4.1 220 14:54 17.12.2020
4768 Clouds 11 1021 87 10000 4.1 220 14:29 17.12.2020
4769 Clouds 10 1021 93 10000 5.1 200 13:51 17.12.2020
4770 Clouds 10 1021 93 10000 5.1 200 13:28 17.12.2020
4771 Clouds 10 1021 87 10000 6.2 200 12:44 17.12.2020
4772 Clouds 10 1021 87 10000 6.2 200 12:25 17.12.2020
4773 Clouds 10 1021 87 10000 5.7 190 11:45 17.12.2020
4774 Clouds 10 1020 87 10000 4.6 200 11:24 17.12.2020
4775 Clouds 9 1021 93 10000 3.1 200 10:55 17.12.2020
4776 Clouds 9 1020 100 10000 2.6 200 10:18 17.12.2020
4777 Clouds 9 1019 100 10000 3.1 210 09:26 17.12.2020
4778 Clouds 8 1018 93 10000 2.1 190 07:54 17.12.2020
4779 Clouds 8 1018 87 10000 3.1 200 07:34 17.12.2020
4780 Clouds 9 1017 93 10000 4.1 200 06:54 17.12.2020
4781 Clouds 9 1017 93 10000 4.6 210 06:32 17.12.2020
4782 Clouds 9 1016 93 10000 4.1 230 05:33 17.12.2020
4783 Clouds 11 1013 87 10000 4.6 210 00:38 17.12.2020
4784 Clear 11 1013 81 10000 4.1 180 23:52 16.12.2020
4785 Clear 11 1013 87 10000 3.6 170 23:20 16.12.2020
4786 Clear 10 1013 87 10000 3.6 170 22:55 16.12.2020
4787 Clear 10 1013 87 10000 3.6 170 22:34 16.12.2020
4788 Clear 9 1013 93 10000 3.6 160 21:52 16.12.2020
4789 Clear 9 1013 93 10000 3.6 160 21:34 16.12.2020
4790 Clear 9 1012 93 10000 3.6 150 20:55 16.12.2020
4791 Clear 9 1012 93 10000 3.1 150 20:37 16.12.2020
4792 Clear 9 1012 93 10000 3.1 150 20:37 16.12.2020
4793 Clear 9 1012 93 10000 3.1 140 20:18 16.12.2020
4794 Clear 9 1012 93 10000 3.6 140 19:20 16.12.2020
4795 Clear 9 1012 93 10000 3.1 160 18:54 16.12.2020
4796 Clear 9 1012 93 10000 3.6 140 18:29 16.12.2020
4797 Clouds 9 1012 93 10000 3.1 130 17:47 16.12.2020
4798 Clouds 9 1012 93 10000 3.1 130 17:28 16.12.2020
4799 Clear 10 1012 87 10000 4.6 130 16:40 16.12.2020
4800 Clouds 9 1012 93 10000 4.6 140 16:21 16.12.2020
4801 Clouds 9 1012 93 10000 4.6 140 15:51 16.12.2020
4802 Clouds 9 1012 87 10000 3.1 130 15:28 16.12.2020
4803 Clouds 9 1012 93 10000 4.6 160 14:47 16.12.2020
4804 Clouds 9 1012 93 10000 4.6 160 14:28 16.12.2020
4805 Clouds 8 1013 93 10000 4.1 150 13:49 16.12.2020
4806 Clouds 8 1013 93 10000 4.1 150 13:30 16.12.2020
4807 Clouds 8 1013 93 10000 4.6 160 12:56 16.12.2020
4808 Clouds 7 1013 93 10000 4.6 150 12:35 16.12.2020
4809 Clouds 7 1013 100 10000 4.6 140 11:40 16.12.2020
4810 Clouds 6 1013 100 10000 4.6 140 11:22 16.12.2020
4811 Clouds 6 1013 100 8000 5.1 140 10:49 16.12.2020
4812 Clouds 6 1013 100 8000 5.1 140 10:26 16.12.2020
4813 Mist 6 1013 100 4000 3.6 150 09:48 16.12.2020
4814 Mist 6 1013 100 2600 3.1 140 08:45 16.12.2020
4815 Mist 6 1013 100 3000 4.1 140 07:59 16.12.2020
4816 Mist 6 1013 100 2100 4.1 140 07:39 16.12.2020
4817 Mist 6 1014 100 1200 2.6 140 06:53 16.12.2020
4818 Clouds 6 1014 100 7000 3.6 150 03:28 16.12.2020
4819 Mist 6 1014 100 5000 2.6 90 01:27 16.12.2020
4820 Clear 7 1014 93 10000 1.5 110 23:46 15.12.2020
4821 Clear 7 1014 100 10000 1.5 0 22:49 15.12.2020
4822 Clouds 7 1014 93 10000 1.5 0 22:25 15.12.2020
4823 Clouds 8 1014 93 10000 1.5 0 21:58 15.12.2020
4824 Clouds 8 1014 93 10000 2.6 160 21:40 15.12.2020
4825 Clear 8 1014 93 10000 2.6 150 21:21 15.12.2020
4826 Clear 8 1013 93 10000 2.6 140 20:44 15.12.2020
4827 Clear 8 1013 93 10000 3.1 160 20:26 15.12.2020
4828 Clear 9 1013 93 10000 4.1 140 19:52 15.12.2020
4829 Clear 9 1013 93 10000 4.1 140 19:26 15.12.2020
4830 Clouds 9 1012 81 10000 2.6 170 18:39 15.12.2020
4831 Clouds 9 1013 81 10000 2.1 180 18:21 15.12.2020
4832 Clear 10 1012 76 10000 2.6 210 17:45 15.12.2020
4833 Clear 10 1012 76 10000 2.6 210 17:27 15.12.2020
4834 Clouds 11 1012 71 10000 4.1 200 16:46 15.12.2020
4835 Clouds 11 1012 71 10000 4.1 200 16:27 15.12.2020
4836 Clouds 12 1012 81 10000 3.1 220 15:42 15.12.2020
4837 Clouds 12 1011 76 10000 3.1 200 15:24 15.12.2020
4838 Clouds 12 1011 76 10000 4.1 210 14:43 15.12.2020
4839 Clouds 12 1011 81 10000 2.6 230 14:21 15.12.2020
4840 Clouds 11 1011 81 10000 3.6 230 13:51 15.12.2020
4841 Clouds 11 1011 81 10000 3.6 230 13:32 15.12.2020
4842 Clouds 11 1010 87 10000 4.1 240 12:47 15.12.2020
4843 Clouds 11 1010 93 10000 2.6 220 12:20 15.12.2020
4844 Clouds 11 1010 93 10000 2.6 220 11:55 15.12.2020
4845 Clouds 10 1010 93 10000 3.1 210 11:26 15.12.2020
4846 Clouds 10 1009 93 10000 2.1 220 10:53 15.12.2020
4847 Clouds 10 1009 100 10000 2.1 200 10:24 15.12.2020
4848 Clouds 10 1009 100 10000 2.1 200 09:50 15.12.2020
4849 Rain 10 1008 100 10000 2.1 200 09:32 15.12.2020
4850 Clouds 10 1008 100 10000 2.1 200 08:53 15.12.2020
4851 Clouds 10 1008 100 10000 2.1 200 08:26 15.12.2020
4852 Rain 10 1007 100 8000 1.5 200 07:49 15.12.2020
4853 Clouds 10 1007 100 9000 2.1 200 07:49 15.12.2020
4854 Rain 10 1007 100 9000 2.1 200 07:25 15.12.2020
4855 Rain 10 1007 100 10000 3.1 150 06:33 15.12.2020
4856 Rain 10 1007 100 10000 2.6 190 03:29 15.12.2020
4857 Drizzle 10 1006 93 10000 4.1 180 00:35 15.12.2020
4858 Clouds 10 1006 93 10000 4.1 190 23:26 14.12.2020
4859 Clouds 10 1006 93 10000 2.6 180 22:56 14.12.2020
4860 Clouds 10 1007 93 10000 4.1 200 22:34 14.12.2020
4861 Clouds 11 1006 93 10000 3.6 180 21:53 14.12.2020
4862 Clouds 11 1006 93 10000 3.6 180 21:35 14.12.2020
4863 Rain 11 1006 81 10000 3.6 180 20:52 14.12.2020
4864 Rain 11 1006 81 10000 3.6 180 20:30 14.12.2020
4865 Clouds 11 1006 87 10000 3.6 180 19:55 14.12.2020
4866 Clouds 11 1006 93 10000 2.1 160 19:29 14.12.2020
4867 Clouds 11 1006 93 10000 3.1 150 18:51 14.12.2020
4868 Clouds 11 1006 93 10000 3.1 150 18:32 14.12.2020
4869 Clouds 11 1006 93 10000 3.1 130 17:52 14.12.2020
4870 Clouds 11 1006 93 10000 3.1 150 17:31 14.12.2020
4871 Clouds 12 1006 87 10000 3.1 170 16:52 14.12.2020
4872 Clouds 12 1006 87 10000 3.6 170 16:29 14.12.2020
4873 Clouds 12 1006 87 10000 3.6 170 16:29 14.12.2020
4874 Clouds 12 1006 87 10000 5.1 160 15:50 14.12.2020
4875 Rain 12 1006 81 10000 4.6 170 15:25 14.12.2020
4876 Rain 12 1006 87 10000 4.6 170 14:45 14.12.2020
4877 Clouds 12 1006 87 10000 4.6 170 14:26 14.12.2020
4878 Clouds 12 1007 81 10000 4.1 160 13:47 14.12.2020
4879 Clouds 11 1007 87 10000 5.1 160 13:24 14.12.2020
4880 Clouds 11 1007 87 10000 5.1 160 12:53 14.12.2020
4881 Clouds 11 1007 87 10000 4.1 170 12:29 14.12.2020
4882 Clouds 11 1008 87 10000 4.1 180 11:36 14.12.2020
4883 Clouds 10 1007 87 10000 2.6 190 10:48 14.12.2020
4884 Clouds 10 1007 87 10000 2.6 190 10:27 14.12.2020
4885 Clouds 10 1007 87 10000 3.6 210 09:45 14.12.2020
4886 Clouds 10 1007 87 10000 4.1 200 08:50 14.12.2020
4887 Clouds 10 1007 87 10000 4.1 200 08:30 14.12.2020
4888 Clouds 10 1006 87 10000 4.6 210 07:52 14.12.2020
4889 Clouds 9 1006 93 10000 4.6 200 06:59 14.12.2020
4890 Clouds 9 1006 93 10000 4.6 210 05:55 14.12.2020
4891 Clouds 9 1006 93 10000 4.6 180 03:49 14.12.2020
4892 Clouds 9 1007 93 10000 6.2 180 00:57 14.12.2020
4893 Clouds 9 1007 93 10000 5.7 180 00:37 14.12.2020
4894 Clouds 9 1007 93 7000 5.1 170 00:18 14.12.2020
4895 Clouds 9 1007 93 8000 4.6 180 23:42 13.12.2020
4896 Mist 8 1007 100 5000 4.6 170 22:52 13.12.2020
4897 Drizzle 8 1007 100 6000 5.1 170 22:21 13.12.2020
4898 Drizzle 8 1007 100 6000 5.1 170 21:56 13.12.2020
4899 Clouds 8 1007 93 6000 5.1 170 21:36 13.12.2020
4900 Clouds 8 1007 93 6000 4.6 180 20:55 13.12.2020
4901 Drizzle 8 1007 100 3600 5.1 170 20:25 13.12.2020
4902 Mist 8 1007 100 5000 5.7 170 19:47 13.12.2020
4903 Mist 8 1007 100 5000 5.7 170 19:24 13.12.2020
4904 Mist 8 1007 100 3200 5.7 170 18:54 13.12.2020
4905 Clouds 8 1008 100 10000 5.1 170 18:36 13.12.2020
4906 Drizzle 8 1008 100 3600 5.1 170 18:18 13.12.2020
4907 Drizzle 8 1008 100 3800 5.7 170 17:44 13.12.2020
4908 Mist 8 1008 100 2700 5.7 170 17:18 13.12.2020
4909 Mist 8 1008 100 2700 5.7 170 16:50 13.12.2020
4910 Mist 8 1008 93 4800 6.2 160 16:31 13.12.2020
4911 Mist 7 1009 93 5000 5.1 160 15:46 13.12.2020
4912 Mist 7 1009 93 5000 5.1 160 15:26 13.12.2020
4913 Clouds 7 1009 100 7000 4.6 170 14:47 13.12.2020
4914 Clouds 7 1009 93 10000 4.6 170 14:29 13.12.2020
4915 Clouds 7 1010 93 10000 4.6 190 13:50 13.12.2020
4916 Clouds 6 1010 87 10000 4.6 190 13:31 13.12.2020
4917 Clouds 6 1010 93 10000 4.6 190 12:57 13.12.2020
4918 Clouds 6 1010 93 10000 3.6 180 12:25 13.12.2020
4919 Clouds 5 1011 93 10000 4.1 170 11:58 13.12.2020
4920 Clouds 5 1011 93 10000 3.1 170 11:33 13.12.2020
4921 Clouds 4 1011 100 10000 2.1 180 10:45 13.12.2020
4922 Clouds 4 1011 100 10000 2.1 180 10:21 13.12.2020
4923 Clouds 3 1011 100 10000 1.5 0 09:46 13.12.2020
4924 Clouds 3 1011 93 10000 1.5 0 08:52 13.12.2020
4925 Clouds 3 1011 100 10000 2.6 200 08:52 13.12.2020
4926 Clouds 3 1011 100 10000 2.6 200 08:30 13.12.2020
4927 Clear 3 1011 100 10000 2.6 190 07:25 13.12.2020
4928 Clear 4 1011 86 10000 2.6 250 03:26 13.12.2020
4929 Clear 4 1010 93 10000 2.6 240 02:32 13.12.2020
4930 Clouds 5 1010 86 10000 3.1 250 01:36 13.12.2020
4931 Clouds 5 1010 86 10000 3.6 250 00:45 13.12.2020
4932 Clear 5 1009 86 10000 2.1 240 23:45 12.12.2020
4933 Clear 5 1009 86 10000 2.1 240 23:26 12.12.2020
4934 Clear 6 1008 86 10000 5.1 270 22:37 12.12.2020
4935 Clear 6 1008 93 10000 4.6 270 21:47 12.12.2020
4936 Clear 7 1008 93 10000 4.6 270 21:23 12.12.2020
4937 Clear 7 1007 87 10000 4.1 280 20:48 12.12.2020
4938 Clear 7 1007 87 10000 4.1 280 20:21 12.12.2020
4939 Clear 8 1007 87 10000 5.1 280 19:54 12.12.2020
4940 Clear 8 1006 87 10000 6.2 280 19:35 12.12.2020
4941 Clouds 8 1006 81 10000 5.7 280 18:59 12.12.2020
4942 Clouds 8 1005 87 10000 7.2 280 18:41 12.12.2020
4943 Clouds 8 1005 87 10000 7.2 280 18:22 12.12.2020
4944 Clouds 9 1004 87 10000 7.2 290 17:42 12.12.2020
4945 Clouds 9 1004 81 10000 8.2 290 16:54 12.12.2020
4946 Rain 10 1003 87 10000 7.2 290 15:59 12.12.2020
4947 Clouds 10 1002 93 10000 4.6 300 15:41 12.12.2020
4948 Drizzle 10 1002 93 3500 4.6 290 14:55 12.12.2020
4949 Mist 10 1001 93 5000 5.7 280 14:35 12.12.2020
4950 Clouds 11 1001 87 10000 5.1 280 13:47 12.12.2020
4951 Clouds 10 1000 93 10000 5.1 290 13:27 12.12.2020
4952 Clouds 10 1000 93 10000 4.1 290 12:43 12.12.2020
4953 Clouds 9 999 93 10000 4.6 290 11:41 12.12.2020
4954 Clouds 9 999 93 10000 5.1 280 10:52 12.12.2020
4955 Clouds 8 997 93 10000 4.1 270 09:32 12.12.2020
4956 Clouds 8 996 93 10000 3.1 250 08:52 12.12.2020
4957 Clouds 8 992 93 10000 1.5 240 02:46 12.12.2020
4958 Clouds 9 991 93 10000 4.1 250 23:54 11.12.2020
4959 Clouds 9 991 93 10000 3.1 250 22:24 11.12.2020
4960 Clouds 9 990 93 10000 3.6 270 20:35 11.12.2020
4961 Clouds 10 989 100 10000 2.6 220 17:58 11.12.2020
4962 Rain 11 989 87 10000 3.6 210 14:53 11.12.2020
4963 Clouds 11 989 87 10000 3.1 220 13:58 11.12.2020
4964 Clouds 10 989 93 10000 3.1 220 13:23 11.12.2020
4965 Clouds 9 990 93 10000 4.6 240 12:18 11.12.2020
4966 Clouds 9 990 93 10000 4.6 240 12:18 11.12.2020
4967 Clouds 9 990 93 10000 3.1 220 11:50 11.12.2020
4968 Clouds 8 990 100 10000 3.6 220 10:45 11.12.2020
4969 Clouds 8 990 100 10000 5.1 190 08:48 11.12.2020
4970 Rain 7 993 100 5000 5.1 180 05:42 11.12.2020
4971 Rain 7 994 100 5000 4.6 180 04:52 11.12.2020
4972 Mist 6 998 100 2000 4.1 170 01:38 11.12.2020
4973 Mist 6 999 100 4900 3.6 170 00:21 11.12.2020
4974 Clouds 6 1000 93 10000 4.6 170 22:52 10.12.2020
4975 Clouds 6 1002 81 10000 4.6 170 21:36 10.12.2020
4976 Clouds 6 1002 81 10000 3.1 150 20:42 10.12.2020
4977 Clouds 6 1002 81 10000 4.1 160 19:43 10.12.2020
4978 Clouds 6 1002 81 10000 3.1 160 18:56 10.12.2020
4979 Clouds 6 1002 81 10000 3.1 150 17:54 10.12.2020
4980 Clouds 6 1002 81 10000 4.1 140 16:32 10.12.2020
4981 Clouds 6 1002 75 10000 3.1 140 15:27 10.12.2020
4982 Clouds 6 1002 81 10000 4.6 120 14:51 10.12.2020
4983 Clouds 6 1002 81 10000 4.6 120 14:28 10.12.2020
4984 Clouds 5 1002 86 10000 4.6 120 12:54 10.12.2020
4985 Clouds 5 1002 86 10000 4.6 120 11:39 10.12.2020
4986 Clouds 4 1001 93 10000 4.6 130 08:57 10.12.2020
4987 Clouds 4 1001 100 10000 4.1 130 07:51 10.12.2020
4988 Clouds 4 1001 100 10000 4.6 150 06:42 10.12.2020
4989 Clouds 4 1003 100 7000 4.6 160 03:40 10.12.2020
4990 Mist 4 1004 100 4100 4.1 160 02:24 10.12.2020
4991 Mist 3 1007 100 2400 3.6 150 00:23 10.12.2020
4992 Mist 3 1008 93 1900 3.1 190 22:58 09.12.2020
4993 Mist 3 1009 100 2200 4.6 210 20:37 09.12.2020
4994 Fog 3 1009 100 650 2.6 200 19:34 09.12.2020
4995 Fog 3 1009 100 550 2.6 200 17:53 09.12.2020
4996 Clouds 3 1010 86 7000 3.6 160 16:52 09.12.2020
4997 Clouds 3 1010 86 7000 3.6 160 16:24 09.12.2020
4998 Clouds 3 1010 86 10000 3.6 200 15:37 09.12.2020
4999 Clouds 3 1010 93 7000 3.6 150 14:43 09.12.2020
5000 Clouds 3 1010 93 7000 3.6 150 14:23 09.12.2020
5001 Mist 2 1010 93 5000 3.6 150 13:19 09.12.2020
5002 Clouds 2 1010 93 10000 3.1 160 12:46 09.12.2020
5003 Clouds 2 1010 93 9000 2.6 160 11:55 09.12.2020
5004 Clouds 2 1011 93 8000 3.1 160 11:27 09.12.2020
5005 Clouds 0 1010 88 6000 2.6 140 09:39 09.12.2020
5006 Clouds 0 1010 88 7000 1.5 130 08:27 09.12.2020
5007 Mist -1 1009 92 5000 1 90 06:18 09.12.2020
5008 Fog 0 1009 92 1800 1.83 212 04:46 09.12.2020
5009 Fog 1 1009 86 900 1 0 02:22 09.12.2020
5010 Mist 1 1009 84 2400 1.5 40 23:49 08.12.2020
5011 Fog 1 1009 81 900 1 60 23:23 08.12.2020
5012 Fog 1 1008 100 800 1.5 0 21:36 08.12.2020
5013 Clear 2 1007 93 10000 1.5 310 19:46 08.12.2020
5014 Clear 2 1007 93 10000 1.5 310 19:25 08.12.2020
5015 Clear 3 1007 86 10000 2.6 270 18:31 08.12.2020
5016 Clear 5 1005 75 10000 2.6 310 16:28 08.12.2020
5017 Clouds 6 1004 75 10000 3.1 330 14:46 08.12.2020
5018 Clouds 5 1003 80 10000 1 0 13:44 08.12.2020
5019 Clouds 4 1003 86 10000 3.1 340 12:37 08.12.2020
5020 Clouds 3 1002 93 9000 2.1 360 11:52 08.12.2020
5021 Clouds 2 1002 93 9000 2.1 20 10:54 08.12.2020
5022 Clouds 2 1002 93 9000 2.1 20 10:34 08.12.2020
5023 Clouds 2 1001 93 8000 3.1 10 09:35 08.12.2020
5024 Clouds 2 1000 93 7000 3.6 360 07:35 08.12.2020
5025 Clouds 3 998 93 10000 2.1 340 04:42 08.12.2020
5026 Clouds 3 997 86 10000 2.6 40 01:48 08.12.2020
5027 Clouds 3 997 93 10000 3.6 60 00:44 08.12.2020
5028 Clouds 4 997 93 9000 4.1 70 23:18 07.12.2020
5029 Clouds 4 998 93 7000 4.1 60 22:20 07.12.2020
5030 Clouds 4 998 93 8000 3.1 60 20:57 07.12.2020
5031 Clouds 4 998 93 7000 3.1 80 19:23 07.12.2020
5032 Clouds 4 998 93 7000 4.6 90 17:55 07.12.2020
5033 Clouds 5 998 93 10000 3.1 80 17:19 07.12.2020
5034 Clouds 6 997 81 10000 4.6 140 16:28 07.12.2020
5035 Clouds 5 998 86 10000 3.1 140 15:24 07.12.2020
5036 Clouds 5 998 86 10000 3.1 150 14:31 07.12.2020
5037 Clouds 5 998 93 9000 3.1 160 13:36 07.12.2020
5038 Clouds 4 999 100 7000 1.5 110 12:28 07.12.2020
5039 Mist 4 999 100 5000 1 0 11:42 07.12.2020
5040 Mist 3 999 100 3300 2.1 150 10:36 07.12.2020
5041 Fog 2 999 100 400 1.5 0 09:23 07.12.2020
5042 Fog 2 999 100 450 1 0 07:40 07.12.2020
5043 Mist 2 999 100 2700 2.1 240 05:27 07.12.2020
5044 Fog 1 1000 81 800 1 50 03:53 07.12.2020
5045 Fog 2 1000 79 2700 1 0 00:52 07.12.2020
5046 Clouds 3 1000 93 7000 1 0 22:53 06.12.2020
5047 Clouds 4 1000 93 10000 1 0 21:45 06.12.2020
5048 Clouds 4 1000 86 10000 1.5 0 20:46 06.12.2020
5049 Clouds 4 1001 86 9000 2.1 10 20:26 06.12.2020
5050 Clouds 4 1000 86 10000 1.5 0 20:26 06.12.2020
5051 Clear 4 1000 86 10000 1.5 360 19:30 06.12.2020
5052 Clear 5 999 86 10000 2.1 10 17:39 06.12.2020
5053 Clouds 6 999 86 10000 2.1 40 16:34 06.12.2020
5054 Clouds 7 999 81 10000 3.1 50 14:49 06.12.2020
5055 Clear 6 999 86 10000 2.6 50 13:30 06.12.2020
5056 Clouds 5 999 86 10000 2.6 40 12:35 06.12.2020
5057 Clouds 5 999 93 10000 2.1 40 11:53 06.12.2020
5058 Clouds 5 999 86 10000 1.5 90 11:25 06.12.2020
5059 Clouds 4 999 93 10000 2.6 80 10:39 06.12.2020
5060 Clouds 4 998 93 10000 3.1 70 09:38 06.12.2020
5061 Clouds 4 997 86 10000 3.1 90 07:52 06.12.2020
5062 Clouds 4 997 80 10000 1.5 110 05:22 06.12.2020
5063 Clouds 6 996 75 10000 5.1 130 00:48 06.12.2020
5064 Clouds 6 996 75 10000 5.1 130 00:27 06.12.2020
5065 Clouds 6 996 75 10000 5.7 150 23:58 05.12.2020
5066 Clouds 6 995 81 10000 6.2 140 22:26 05.12.2020
5067 Clouds 6 995 75 10000 5.7 140 21:57 05.12.2020
5068 Drizzle 6 994 86 10000 3.6 150 21:31 05.12.2020
5069 Clouds 6 995 81 10000 5.7 140 20:59 05.12.2020
5070 Clouds 5 994 75 10000 6.2 130 18:50 05.12.2020
5071 Clouds 6 994 75 10000 6.2 130 17:57 05.12.2020
5072 Clouds 6 994 70 10000 6.7 130 16:49 05.12.2020
5073 Clouds 6 993 80 10000 5.1 140 16:29 05.12.2020
5074 Clouds 6 994 81 10000 5.1 140 15:24 05.12.2020
5075 Clouds 6 993 75 10000 5.7 150 13:53 05.12.2020
5076 Clouds 5 994 80 10000 6.2 170 11:50 05.12.2020
5077 Clouds 4 994 80 10000 6.2 180 10:41 05.12.2020
5078 Clouds 4 994 86 10000 5.7 160 10:22 05.12.2020
5079 Clouds 3 993 86 10000 6.2 170 07:48 05.12.2020
5080 Clouds 3 992 86 10000 4.6 190 06:20 05.12.2020
5081 Clouds 3 990 86 10000 4.1 180 02:45 05.12.2020
5082 Clouds 3 988 86 10000 4.1 180 23:47 04.12.2020
5083 Clouds 4 988 86 10000 4.1 170 21:53 04.12.2020
5084 Clouds 4 987 93 10000 2.6 150 19:57 04.12.2020
5085 Clouds 5 987 86 10000 3.1 170 18:47 04.12.2020
5086 Rain 5 986 75 10000 2.1 160 18:18 04.12.2020
5087 Clouds 6 986 70 10000 7.2 170 17:24 04.12.2020
5088 Clouds 7 985 61 10000 6.7 190 15:35 04.12.2020
5089 Clouds 7 984 65 10000 6.2 210 13:40 04.12.2020
5090 Clouds 7 984 65 10000 6.2 210 13:21 04.12.2020
5091 Clouds 7 984 70 10000 7.7 210 12:49 04.12.2020
5092 Clouds 5 983 70 10000 7.7 210 10:39 04.12.2020
5093 Clouds 5 983 75 10000 6.2 210 09:46 04.12.2020
5094 Clouds 5 980 86 10000 6.2 210 06:41 04.12.2020
5095 Clouds 6 980 81 10000 7.2 210 05:44 04.12.2020
5096 Clouds 8 977 87 10000 8.7 190 01:55 04.12.2020
5097 Rain 8 979 93 10000 9.3 160 22:52 03.12.2020
5098 Rain 8 979 93 10000 9.3 160 22:52 03.12.2020
5099 Rain 8 981 93 10000 9.3 160 22:22 03.12.2020
5100 Clouds 7 984 87 10000 8.7 170 20:49 03.12.2020
5101 Rain 7 985 87 10000 9.8 170 19:29 03.12.2020
5102 Rain 7 986 93 10000 9.3 170 18:51 03.12.2020
5103 Clouds 7 989 93 10000 8.7 170 17:41 03.12.2020
5104 Clouds 7 990 93 10000 7.2 170 17:18 03.12.2020
5105 Clouds 6 992 93 10000 7.7 170 15:52 03.12.2020
5106 Clouds 7 993 87 10000 7.2 170 15:30 03.12.2020
5107 Drizzle 7 995 87 10000 6.7 180 14:35 03.12.2020
5108 Clouds 7 997 87 10000 7.2 180 13:36 03.12.2020
5109 Clouds 7 999 87 10000 5.7 190 12:26 03.12.2020
5110 Clouds 6 1001 87 10000 5.7 200 11:24 03.12.2020
5111 Clouds 6 1002 93 10000 3.6 190 10:18 03.12.2020
5112 Mist 6 1006 93 4700 3.1 230 06:27 03.12.2020
5113 Drizzle 6 1010 93 5000 3.6 240 02:45 03.12.2020
5114 Clouds 6 1012 86 10000 3.1 230 00:57 03.12.2020
5115 Clear 6 1013 93 10000 2.1 240 22:48 02.12.2020
5116 Clear 6 1013 93 10000 2.1 240 22:26 02.12.2020
5117 Clear 6 1014 93 10000 2.1 250 21:28 02.12.2020
5118 Clouds 7 1014 87 10000 3.1 270 20:47 02.12.2020
5119 Clouds 7 1014 87 10000 3.1 270 20:29 02.12.2020
5120 Clouds 7 1015 87 10000 2.62 300 18:39 02.12.2020
5121 Clouds 8 1015 87 10000 2.1 320 17:47 02.12.2020
5122 Clouds 8 1016 87 10000 2.1 310 17:29 02.12.2020
5123 Clouds 8 1016 75 10000 2.1 320 15:37 02.12.2020
5124 Clouds 8 1017 81 10000 3.6 320 13:19 02.12.2020
5125 Clouds 7 1018 93 10000 2.6 350 10:47 02.12.2020
5126 Clouds 7 1019 87 10000 3.1 340 10:21 02.12.2020
5127 Clouds 7 1019 87 10000 3.1 350 07:42 02.12.2020
5128 Clouds 6 1021 81 10000 5.7 340 23:20 01.12.2020
5129 Clouds 6 1021 87 10000 4.6 330 22:20 01.12.2020
5130 Clouds 7 1021 81 10000 4.1 320 19:36 01.12.2020
5131 Clouds 7 1021 81 10000 4.1 320 18:55 01.12.2020
5132 Clouds 8 1020 76 10000 5.1 320 16:47 01.12.2020
5133 Clouds 9 1020 70 10000 5.7 320 14:34 01.12.2020
5134 Clouds 8 1021 70 10000 5.7 320 12:45 01.12.2020
5135 Clouds 8 1021 75 10000 5.1 320 11:29 01.12.2020
5136 Clouds 7 1021 75 10000 3.1 300 10:52 01.12.2020
5137 Clear 7 1021 75 10000 3.6 300 10:26 01.12.2020
5138 Clouds 6 1021 81 10000 3.6 310 07:40 01.12.2020
5139 Mist 8 1019 93 5000 3.1 240 02:57 01.12.2020
5140 Mist 7 1020 93 4600 4.1 240 00:57 01.12.2020
5141 Mist 6 1020 93 5000 4.6 230 00:29 01.12.2020
5142 Clouds 6 1022 81 9000 2.1 220 23:20 30.11.2020
5143 Clouds 5 1022 75 9000 3.1 210 22:40 30.11.2020
5144 Clouds 5 1023 75 9000 4.1 210 22:22 30.11.2020
5145 Clouds 4 1024 75 10000 3.1 200 19:50 30.11.2020
5146 Clear 4 1024 75 10000 2.6 190 19:31 30.11.2020
5147 Clouds 4 1025 75 8000 1.5 210 18:21 30.11.2020
5148 Clouds 4 1025 75 7000 1.5 240 17:46 30.11.2020
5149 Clouds 5 1026 75 7000 2.1 260 16:52 30.11.2020
5150 Clouds 5 1026 75 8000 3.1 250 14:48 30.11.2020
5151 Clouds 5 1027 75 7000 3.1 250 13:55 30.11.2020
5152 Clear 4 1028 75 6000 2.6 240 13:22 30.11.2020
5153 Clear 3 1028 63 6000 2.1 220 12:25 30.11.2020
5154 Clouds 2 1028 63 6000 1.5 0 11:46 30.11.2020
5155 Clouds 1 1029 86 7000 1 0 10:25 30.11.2020
5156 Clouds 1 1028 86 8000 1 40 08:53 30.11.2020
5157 Clouds 2 1027 76 10000 1.5 50 01:28 30.11.2020
5158 Clouds 2 1027 74 10000 1.5 360 23:28 29.11.2020
5159 Clouds 2 1027 72 10000 3.6 60 21:45 29.11.2020
5160 Clouds 2 1027 70 10000 3.6 60 21:26 29.11.2020
5161 Clouds 2 1026 66 10000 3.6 60 19:20 29.11.2020
5162 Clouds 3 1025 86 10000 3.1 20 17:34 29.11.2020
5163 Clouds 3 1024 93 9000 4.6 60 14:49 29.11.2020
5164 Clouds 4 1024 93 6000 4.1 40 12:46 29.11.2020
5165 Clouds 4 1024 93 6000 4.6 30 11:37 29.11.2020
5166 Mist 3 1021 93 4900 2.6 10 08:54 29.11.2020
5167 Mist 3 1021 93 4900 2.6 10 08:35 29.11.2020
5168 Clear 5 1020 86 10000 2.1 10 03:30 29.11.2020
5169 Clear 6 1019 86 10000 2.1 350 23:18 28.11.2020
5170 Clear 6 1019 80 10000 1.5 350 22:50 28.11.2020
5171 Clear 7 1018 81 10000 1.5 360 20:27 28.11.2020
5172 Clear 8 1017 81 10000 2.6 20 19:29 28.11.2020
5173 Clear 8 1017 81 10000 3.6 20 18:58 28.11.2020
5174 Clear 9 1017 76 10000 2.6 20 18:22 28.11.2020
5175 Clear 10 1016 71 10000 2.1 10 16:58 28.11.2020
5176 Clear 11 1016 71 10000 3.1 20 15:56 28.11.2020
5177 Clear 10 1016 76 10000 2.6 40 13:58 28.11.2020
5178 Clear 6 1017 93 10000 2.6 10 11:29 28.11.2020
5179 Mist 4 1016 93 5000 2.6 10 09:37 28.11.2020
5180 Mist 4 1016 100 5000 2.1 360 03:49 28.11.2020
5181 Mist 5 1015 93 5000 2.6 10 02:22 28.11.2020
5182 Mist 6 1016 93 3400 2.1 20 23:23 27.11.2020
5183 Mist 6 1016 100 4600 2.1 10 22:54 27.11.2020
5184 Mist 7 1016 93 4400 2.1 10 20:55 27.11.2020
5185 Mist 7 1016 93 4800 1.5 10 20:28 27.11.2020
5186 Mist 7 1016 100 5000 1.5 360 19:22 27.11.2020
5187 Clear 10 1015 81 10000 2.6 40 16:59 27.11.2020
5188 Clear 11 1016 81 10000 2.1 70 14:45 27.11.2020
5189 Clear 10 1017 81 10000 2.1 50 13:24 27.11.2020
5190 Clouds 9 1017 87 9000 2.1 50 12:47 27.11.2020
5191 Clouds 8 1018 93 9000 2.1 60 11:35 27.11.2020
5192 Clouds 7 1017 93 8000 1 360 10:50 27.11.2020
5193 Clouds 7 1018 93 6000 1 10 09:53 27.11.2020
5194 Clouds 6 1016 88 10000 1.53 56 07:22 27.11.2020
5195 Clear 7 1018 89 10000 1.21 82 22:27 26.11.2020
5196 Mist 7 1019 93 4100 2.1 350 21:56 26.11.2020
5197 Mist 7 1019 93 4100 2.1 350 20:52 26.11.2020
5198 Clear 8 1019 81 10000 2.1 10 18:42 26.11.2020
5199 Clear 9 1019 76 10000 2.6 60 17:51 26.11.2020
5200 Clear 12 1019 66 10000 0.82 128 14:50 26.11.2020
5201 Clear 11 1020 71 10000 1.5 0 13:41 26.11.2020
5202 Clear 9 1020 81 10000 1 0 12:42 26.11.2020
5203 Clear 8 1020 87 9000 1 0 11:44 26.11.2020
5204 Mist 6 1020 100 5000 0.5 350 10:35 26.11.2020
5205 Mist 4 1020 93 4400 1 0 09:48 26.11.2020
5206 Mist 4 1020 93 4400 1 0 09:29 26.11.2020
5207 Mist 3 1020 93 4700 1.5 350 08:39 26.11.2020
5208 Mist 3 1019 100 4600 1.5 20 06:49 26.11.2020
5209 Clear 6 1019 93 7000 1.5 70 22:59 25.11.2020
5210 Clear 8 1018 93 8000 1.5 20 20:46 25.11.2020
5211 Clear 8 1018 87 10000 2.1 40 19:55 25.11.2020
5212 Clouds 9 1017 87 10000 2.6 70 18:28 25.11.2020
5213 Clouds 11 1017 76 10000 2.6 120 17:23 25.11.2020
5214 Clouds 12 1016 76 10000 2.1 150 15:41 25.11.2020
5215 Clouds 11 1016 76 10000 3.1 160 13:58 25.11.2020
5216 Clouds 11 1016 76 10000 3.6 170 13:38 25.11.2020
5217 Clouds 10 1016 76 10000 4.6 180 12:26 25.11.2020
5218 Clouds 9 1017 76 10000 4.1 160 11:20 25.11.2020
5219 Clouds 6 1016 81 10000 3.1 150 09:19 25.11.2020
5220 Clouds 6 1015 81 10000 3.1 160 08:47 25.11.2020
5221 Clouds 5 1015 93 10000 3.1 150 05:20 25.11.2020
5222 Clear 5 1015 93 10000 1 0 03:31 25.11.2020
5223 Clear 5 1016 86 10000 1.5 80 00:48 25.11.2020
5224 Clouds 5 1016 86 9000 4.1 70 23:57 24.11.2020
5225 Clear 5 1017 86 10000 2.6 50 23:34 24.11.2020
5226 Clear 6 1017 86 10000 2.6 60 22:18 24.11.2020
5227 Clear 6 1017 86 10000 1.5 70 21:31 24.11.2020
5228 Clear 7 1017 81 10000 2.6 90 20:51 24.11.2020
5229 Clear 7 1018 81 10000 3.1 120 19:47 24.11.2020
5230 Clear 8 1018 70 10000 3.6 120 17:31 24.11.2020
5231 Clear 9 1018 70 10000 3.6 140 16:57 24.11.2020
5232 Clear 9 1019 66 10000 3.6 130 16:37 24.11.2020
5233 Clear 10 1019 66 10000 3.6 120 15:55 24.11.2020
5234 Clear 10 1020 66 10000 3.1 130 15:19 24.11.2020
5235 Clear 10 1020 66 10000 3.1 150 14:44 24.11.2020
5236 Clouds 9 1022 70 9000 3.6 130 13:20 24.11.2020
5237 Clouds 8 1022 87 9000 3.6 140 12:38 24.11.2020
5238 Clouds 7 1023 93 9000 2.6 150 11:59 24.11.2020
5239 Clouds 6 1023 93 10000 2.6 140 11:23 24.11.2020
5240 Fog 6 1024 100 700 3.1 120 10:25 24.11.2020
5241 Fog 5 1024 100 800 2.6 140 09:38 24.11.2020
5242 Fog 5 1024 100 3600 1.5 0 08:58 24.11.2020
5243 Clouds 7 1025 100 8000 1.5 140 05:53 24.11.2020
5244 Clouds 8 1027 93 10000 1.5 140 00:41 24.11.2020
5245 Clear 9 1028 100 10000 2.1 130 22:24 23.11.2020
5246 Clear 9 1028 93 10000 2.1 150 21:32 23.11.2020
5247 Clear 9 1028 93 10000 2.1 140 20:31 23.11.2020
5248 Clouds 9 1028 93 10000 2.6 150 19:59 23.11.2020
5249 Clouds 10 1028 81 10000 1 0 17:57 23.11.2020
5250 Clouds 12 1028 76 10000 1 230 16:56 23.11.2020
5251 Clouds 12 1028 76 10000 1.5 250 15:33 23.11.2020
5252 Clouds 12 1029 87 10000 2.1 220 14:37 23.11.2020
5253 Clouds 11 1029 93 10000 2.1 200 12:41 23.11.2020
5254 Clouds 10 1029 93 10000 2.1 200 12:20 23.11.2020
5255 Clouds 10 1030 100 9000 1.5 0 11:42 23.11.2020
5256 Mist 9 1029 100 3800 1 240 10:22 23.11.2020
5257 Mist 9 1029 100 5000 0.5 0 09:31 23.11.2020
5258 Mist 8 1029 93 3900 0.5 160 08:37 23.11.2020
5259 Clouds 8 1028 93 6000 1.5 140 06:57 23.11.2020
5260 Clouds 9 1028 81 10000 1.5 160 00:21 23.11.2020
5261 Clouds 8 1028 76 10000 1.5 230 22:45 22.11.2020
5262 Clouds 8 1028 76 10000 1.5 220 21:37 22.11.2020
5263 Clouds 8 1028 76 10000 1.5 0 20:43 22.11.2020
5264 Clouds 9 1028 76 10000 2.1 190 19:52 22.11.2020
5265 Clouds 9 1028 76 10000 2.1 160 18:40 22.11.2020
5266 Clouds 10 1028 66 10000 2.6 230 16:39 22.11.2020
5267 Clouds 11 1028 66 10000 2.6 190 15:30 22.11.2020
5268 Clouds 11 1028 66 10000 3.6 200 14:28 22.11.2020
5269 Clouds 9 1029 71 10000 2.6 180 12:49 22.11.2020
5270 Clouds 9 1029 71 10000 2.1 190 11:56 22.11.2020
5271 Clouds 8 1030 76 10000 2.6 170 11:20 22.11.2020
5272 Clouds 7 1030 81 10000 2.1 160 10:39 22.11.2020
5273 Clouds 6 1029 93 10000 2.6 160 08:51 22.11.2020
5274 Clear 6 1030 93 10000 1.5 140 01:48 22.11.2020
5275 Clear 6 1030 81 10000 2.6 200 23:21 21.11.2020
5276 Clouds 6 1031 81 10000 3.1 210 21:57 21.11.2020
5277 Clouds 8 1031 81 10000 2.1 200 21:19 21.11.2020
5278 Clouds 8 1031 76 10000 3.1 200 20:33 21.11.2020
5279 Clouds 8 1031 71 10000 2.1 240 19:53 21.11.2020
5280 Clouds 8 1031 71 10000 2.1 240 19:26 21.11.2020
5281 Clouds 9 1031 71 10000 2.6 250 17:57 21.11.2020
5282 Clouds 10 1031 71 10000 3.1 260 16:49 21.11.2020
5283 Clouds 11 1031 66 10000 3.6 240 15:52 21.11.2020
5284 Clouds 11 1032 62 10000 3.6 200 15:22 21.11.2020
5285 Clouds 11 1032 66 10000 3.6 210 14:43 21.11.2020
5286 Clouds 11 1032 66 10000 4.1 190 14:20 21.11.2020
5287 Clouds 9 1033 66 10000 3.1 200 12:28 21.11.2020
5288 Clouds 8 1034 70 10000 3.6 190 11:58 21.11.2020
5289 Clear 6 1034 81 10000 3.1 190 10:40 21.11.2020
5290 Clear 5 1034 87 10000 1.5 160 09:58 21.11.2020
5291 Clear 5 1033 86 10000 3.6 170 08:51 21.11.2020
5292 Clear 4 1034 93 10000 2.6 160 06:34 21.11.2020
5293 Clear 5 1034 86 10000 3.1 160 04:33 21.11.2020
5294 Clear 5 1035 93 10000 1.91 202 00:45 21.11.2020
5295 Clear 5 1035 93 10000 1.91 200 23:55 20.11.2020
5296 Clear 5 1036 93 10000 1.86 182 22:25 20.11.2020
5297 Clear 5 1036 86 10000 0.5 90 21:41 20.11.2020
5298 Clear 5 1036 86 10000 0.5 90 21:41 20.11.2020
5299 Clear 5 1036 86 10000 0.5 340 21:20 20.11.2020
5300 Clear 5 1036 75 10000 1 130 19:44 20.11.2020
5301 Clear 6 1036 70 10000 0.66 203 18:38 20.11.2020
5302 Clear 7 1036 61 10000 1 0 17:52 20.11.2020
5303 Clear 7 1036 61 10000 1 0 17:24 20.11.2020
5304 Clear 9 1036 53 10000 1.5 270 16:38 20.11.2020
5305 Clouds 9 1036 53 10000 2.1 280 15:57 20.11.2020
5306 Clouds 9 1036 70 10000 0.5 0 15:25 20.11.2020
5307 Clouds 9 1037 70 10000 1 10 13:45 20.11.2020
5308 Clouds 9 1037 76 10000 1 0 13:18 20.11.2020
5309 Clouds 9 1037 76 10000 1 0 12:35 20.11.2020
5310 Clouds 8 1037 87 10000 1.17 202 11:45 20.11.2020
5311 Clouds 6 1037 93 10000 0.99 196 10:59 20.11.2020
5312 Fog 4 1036 93 1000 0.22 207 08:54 20.11.2020
5313 Clouds 4 1036 93 6000 1 0 08:25 20.11.2020
5314 Clouds 4 1036 93 7000 0.62 351 07:32 20.11.2020
5315 Clear 6 1035 93 10000 1 0 03:44 20.11.2020
5316 Clouds 8 1033 93 10000 2.1 320 22:42 19.11.2020
5317 Clouds 8 1033 87 10000 2.1 300 21:57 19.11.2020
5318 Clouds 8 1033 87 10000 2.6 290 21:38 19.11.2020
5319 Clouds 9 1032 81 10000 2.6 290 20:33 19.11.2020
5320 Rain 9 1032 81 10000 3.6 280 19:53 19.11.2020
5321 Clouds 10 1032 76 10000 3.6 280 19:24 19.11.2020
5322 Clouds 10 1030 76 10000 4.1 320 17:40 19.11.2020
5323 Clouds 11 1029 66 10000 4.6 280 16:58 19.11.2020
5324 Clouds 11 1028 66 10000 6.7 280 15:41 19.11.2020
5325 Clouds 11 1028 71 10000 5.1 280 15:23 19.11.2020
5326 Clouds 11 1028 66 10000 5.7 260 13:46 19.11.2020
5327 Clouds 11 1028 66 10000 5.7 260 13:24 19.11.2020
5328 Clouds 11 1028 71 10000 6.2 260 12:44 19.11.2020
5329 Clouds 11 1027 71 10000 6.2 250 12:24 19.11.2020
5330 Clear 11 1027 71 10000 5.7 250 11:39 19.11.2020
5331 Clouds 10 1027 76 10000 5.1 240 10:54 19.11.2020
5332 Clouds 9 1027 76 10000 5.1 240 10:27 19.11.2020
5333 Clear 8 1026 87 10000 4.6 240 09:44 19.11.2020
5334 Clear 8 1026 87 10000 4.6 240 09:25 19.11.2020
5335 Clouds 7 1025 81 10000 5.1 240 08:20 19.11.2020
5336 Clear 8 1025 87 10000 3.6 240 06:49 19.11.2020
5337 Clouds 12 1022 87 10000 5.1 290 01:46 19.11.2020
5338 Clouds 14 1021 82 10000 4.1 210 00:29 19.11.2020
5339 Clouds 14 1021 82 10000 4.6 230 23:25 18.11.2020
5340 Clouds 14 1021 72 10000 3.1 210 22:40 18.11.2020
5341 Clouds 14 1021 72 10000 3.1 210 22:21 18.11.2020
5342 Clouds 14 1020 72 10000 4.6 210 21:40 18.11.2020
5343 Clouds 14 1020 76 10000 5.1 230 21:20 18.11.2020
5344 Clouds 14 1021 67 10000 4.6 220 19:49 18.11.2020
5345 Clouds 14 1020 67 10000 5.1 220 19:28 18.11.2020
5346 Clear 14 1020 62 10000 5.1 210 18:57 18.11.2020
5347 Clear 14 1020 71 10000 3.6 200 18:38 18.11.2020
5348 Clear 14 1020 62 10000 5.1 190 17:37 18.11.2020
5349 Clear 16 1020 59 10000 5.1 170 16:25 18.11.2020
5350 Clear 16 1020 59 10000 5.1 170 15:57 18.11.2020
5351 Clear 15 1021 62 10000 4.6 180 14:41 18.11.2020
5352 Clear 14 1022 67 10000 4.6 160 13:46 18.11.2020
5353 Clear 13 1022 71 10000 4.1 170 13:20 18.11.2020
5354 Clear 12 1023 71 10000 4.6 150 12:42 18.11.2020
5355 Clear 10 1023 76 10000 4.1 160 11:41 18.11.2020
5356 Clear 8 1023 87 10000 5.1 160 10:36 18.11.2020
5357 Clear 8 1024 93 10000 3.1 160 10:18 18.11.2020
5358 Clear 6 1024 100 10000 2.1 90 07:58 18.11.2020
5359 Clear 7 1024 93 10000 1.5 60 06:36 18.11.2020
5360 Clear 9 1026 87 10000 2.1 150 00:58 18.11.2020
5361 Clear 9 1027 81 10000 2.6 140 23:47 17.11.2020
5362 Clouds 10 1027 76 10000 2.1 160 22:53 17.11.2020
5363 Clouds 11 1027 76 10000 4.1 160 22:29 17.11.2020
5364 Clouds 11 1027 71 10000 3.6 190 21:52 17.11.2020
5365 Clouds 11 1027 71 10000 3.6 190 21:31 17.11.2020
5366 Clouds 12 1027 71 10000 4.1 200 20:50 17.11.2020
5367 Clouds 12 1027 71 10000 3.1 190 20:27 17.11.2020
5368 Clouds 12 1027 71 10000 3.1 190 19:56 17.11.2020
5369 Clouds 13 1027 71 10000 4.6 180 18:35 17.11.2020
5370 Clouds 13 1027 67 10000 4.6 190 17:44 17.11.2020
5371 Clouds 13 1027 67 10000 4.6 200 16:55 17.11.2020
5372 Clouds 13 1027 67 10000 4.6 200 16:20 17.11.2020
5373 Clouds 13 1027 71 10000 4.6 180 15:42 17.11.2020
5374 Clouds 13 1027 76 10000 4.1 190 15:23 17.11.2020
5375 Clouds 13 1027 76 10000 4.1 190 14:56 17.11.2020
5376 Clouds 13 1027 71 10000 4.6 180 14:28 17.11.2020
5377 Clouds 13 1027 71 10000 4.1 180 13:38 17.11.2020
5378 Clouds 13 1027 76 10000 4.6 200 12:57 17.11.2020
5379 Clouds 12 1027 76 10000 5.1 200 12:38 17.11.2020
5380 Clouds 12 1028 76 10000 3.6 200 11:43 17.11.2020
5381 Clouds 11 1028 76 10000 3.1 200 10:49 17.11.2020
5382 Clouds 11 1027 81 10000 3.1 210 10:23 17.11.2020
5383 Clouds 11 1027 81 10000 3.1 210 10:23 17.11.2020
5384 Clouds 11 1027 81 10000 3.1 210 09:50 17.11.2020
5385 Clouds 11 1027 81 10000 2.6 220 09:27 17.11.2020
5386 Clouds 10 1026 87 10000 2.1 220 08:22 17.11.2020
5387 Clear 10 1026 87 10000 1 0 07:44 17.11.2020
5388 Clouds 10 1025 87 10000 3.1 220 06:33 17.11.2020
5389 Clear 10 1025 81 10000 2.6 220 03:31 17.11.2020
5390 Clear 10 1025 81 10000 3.6 210 02:35 17.11.2020
5391 Clear 10 1025 87 10000 3.1 220 01:23 17.11.2020
5392 Clear 11 1025 76 10000 3.6 210 00:50 17.11.2020
5393 Clear 11 1025 76 10000 5.1 230 23:45 16.11.2020
5394 Clear 11 1025 76 10000 5.1 230 23:23 16.11.2020
5395 Clear 11 1024 71 10000 4.1 220 22:43 16.11.2020
5396 Clouds 11 1024 71 10000 4.1 220 22:20 16.11.2020
5397 Clouds 11 1024 71 10000 4.1 220 21:45 16.11.2020
5398 Clouds 11 1024 71 10000 4.1 220 21:24 16.11.2020
5399 Clouds 11 1024 71 10000 4.1 210 20:37 16.11.2020
5400 Clouds 11 1023 71 10000 4.1 210 20:19 16.11.2020
5401 Clouds 11 1023 71 10000 3.1 220 19:38 16.11.2020
5402 Clouds 11 1023 76 10000 2.1 220 19:19 16.11.2020
5403 Clouds 12 1023 76 10000 3.1 220 18:31 16.11.2020
5404 Clouds 12 1022 76 10000 3.6 220 17:47 16.11.2020
5405 Clouds 12 1022 76 10000 5.1 240 17:21 16.11.2020
5406 Clouds 12 1021 76 10000 5.7 230 16:53 16.11.2020
5407 Clouds 12 1021 76 10000 5.1 240 16:28 16.11.2020
5408 Clouds 12 1021 76 10000 5.7 240 15:51 16.11.2020
5409 Clouds 12 1021 76 10000 5.7 240 15:29 16.11.2020
5410 Clouds 12 1021 71 10000 5.7 240 14:57 16.11.2020
5411 Clouds 12 1020 71 10000 5.7 240 14:28 16.11.2020
5412 Clouds 12 1020 76 10000 5.7 240 13:31 16.11.2020
5413 Clouds 11 1020 76 10000 5.1 230 12:33 16.11.2020
5414 Clouds 11 1019 81 10000 5.7 230 11:44 16.11.2020
5415 Clouds 11 1019 87 10000 4.1 240 11:24 16.11.2020
5416 Clouds 11 1019 87 10000 4.1 240 10:47 16.11.2020
5417 Clouds 11 1018 81 10000 5.7 230 10:26 16.11.2020
5418 Clouds 11 1018 81 10000 5.7 230 09:56 16.11.2020
5419 Clouds 10 1017 81 10000 5.7 230 09:37 16.11.2020
5420 Clouds 10 1016 81 10000 5.7 230 08:49 16.11.2020
5421 Clouds 10 1016 87 10000 4.6 240 08:26 16.11.2020
5422 Clouds 10 1015 81 10000 5.1 230 07:43 16.11.2020
5423 Clouds 11 1014 81 10000 5.7 230 06:47 16.11.2020
5424 Clouds 11 1014 81 10000 5.7 230 06:47 16.11.2020
5425 Clouds 11 1013 87 8000 6.7 230 05:50 16.11.2020
5426 Clouds 11 1012 87 10000 5.7 220 04:36 16.11.2020
5427 Clouds 11 1010 76 10000 6.7 210 01:47 16.11.2020
5428 Clouds 11 1009 66 10000 6.7 220 01:21 16.11.2020
5429 Clouds 11 1008 71 10000 7.7 210 23:48 15.11.2020
5430 Clear 11 1008 71 10000 6.7 210 23:21 15.11.2020
5431 Clear 11 1008 71 10000 6.2 200 22:39 15.11.2020
5432 Clear 11 1008 71 10000 6.2 200 22:18 15.11.2020
5433 Clear 11 1007 66 10000 7.2 210 21:43 15.11.2020
5434 Clear 11 1007 66 10000 7.2 210 21:22 15.11.2020
5435 Clear 11 1007 76 10000 7.2 230 20:41 15.11.2020
5436 Clouds 11 1006 76 10000 7.2 210 20:18 15.11.2020
5437 Clouds 12 1006 76 10000 7.2 210 19:47 15.11.2020
5438 Clouds 11 1006 71 10000 5.1 220 19:22 15.11.2020
5439 Clouds 12 1006 71 10000 5.1 220 18:56 15.11.2020
5440 Clouds 12 1005 66 10000 8.2 220 18:38 15.11.2020
5441 Clouds 12 1005 71 10000 8.2 220 18:19 15.11.2020
5442 Clouds 13 1004 76 10000 7.7 210 17:44 15.11.2020
5443 Clouds 13 1005 71 10000 6.7 240 17:23 15.11.2020
5444 Clouds 14 1003 87 10000 8.2 210 16:45 15.11.2020
5445 Clouds 14 1003 87 10000 7.2 200 16:20 15.11.2020
5446 Clouds 14 1003 93 9000 7.7 220 15:50 15.11.2020
5447 Rain 14 1003 93 9000 7.7 220 15:26 15.11.2020
5448 Mist 14 1003 93 4700 9.3 200 14:56 15.11.2020
5449 Rain 14 1003 93 6000 9.3 190 14:29 15.11.2020
5450 Clouds 14 1002 82 10000 9.8 180 13:56 15.11.2020
5451 Rain 14 1003 77 10000 10.3 180 13:36 15.11.2020
5452 Rain 14 1003 77 10000 10.3 180 12:50 15.11.2020
5453 Rain 15 1004 77 10000 9.8 180 12:22 15.11.2020
5454 Clear 15 1005 72 10000 9.3 180 11:46 15.11.2020
5455 Rain 15 1005 72 10000 9.3 180 11:20 15.11.2020
5456 Clear 15 1005 72 10000 9.3 180 10:53 15.11.2020
5457 Clear 15 1006 72 10000 9.3 180 10:32 15.11.2020
5458 Clear 14 1006 76 10000 8.7 190 09:58 15.11.2020
5459 Clear 14 1006 72 10000 8.7 170 09:40 15.11.2020
5460 Clear 14 1007 76 10000 7.2 180 09:18 15.11.2020
5461 Clear 14 1007 76 10000 7.2 180 08:46 15.11.2020
5462 Clear 14 1007 76 10000 7.2 170 07:47 15.11.2020
5463 Clear 14 1008 82 10000 7.2 170 06:55 15.11.2020
5464 Clear 13 1010 76 10000 7.2 170 04:58 15.11.2020
5465 Clouds 14 1011 76 10000 5.7 210 02:43 15.11.2020
5466 Clear 15 1012 72 10000 5.1 200 00:45 15.11.2020
5467 Clear 15 1012 76 10000 5.1 210 00:26 15.11.2020
5468 Clear 15 1012 72 10000 5.1 180 23:34 14.11.2020
5469 Clear 15 1013 72 10000 5.1 190 22:46 14.11.2020
5470 Clear 15 1013 72 10000 5.1 190 22:28 14.11.2020
5471 Clear 14 1012 72 10000 5.1 180 21:41 14.11.2020
5472 Clear 15 1012 72 10000 5.1 190 21:22 14.11.2020
5473 Clear 15 1012 72 10000 5.7 180 20:50 14.11.2020
5474 Clear 15 1012 72 10000 5.7 180 20:26 14.11.2020
5475 Clear 14 1012 72 10000 5.1 170 19:46 14.11.2020
5476 Clear 14 1012 72 10000 5.1 170 19:28 14.11.2020
5477 Clear 15 1012 72 10000 4.6 160 18:43 14.11.2020
5478 Clear 15 1012 67 10000 4.1 160 18:23 14.11.2020
5479 Clear 15 1012 67 10000 4.1 160 17:50 14.11.2020
5480 Clear 15 1013 67 10000 4.6 160 17:31 14.11.2020
5481 Clear 16 1013 63 10000 5.1 160 16:57 14.11.2020
5482 Clear 16 1013 59 10000 6.2 170 16:36 14.11.2020
5483 Clear 17 1013 59 10000 6.7 180 16:18 14.11.2020
5484 Clear 17 1013 63 10000 7.2 180 15:51 14.11.2020
5485 Clear 17 1013 63 10000 7.2 180 15:25 14.11.2020
5486 Clear 17 1014 67 10000 5.7 180 14:41 14.11.2020
5487 Clear 17 1014 67 10000 5.7 180 14:23 14.11.2020
5488 Clear 16 1015 67 10000 7.2 170 13:41 14.11.2020
5489 Clear 16 1015 72 10000 6.7 180 13:22 14.11.2020
5490 Clouds 15 1016 72 10000 6.2 180 12:46 14.11.2020
5491 Clouds 15 1016 72 10000 6.2 180 12:27 14.11.2020
5492 Clouds 14 1017 82 10000 7.2 200 11:46 14.11.2020
5493 Clouds 13 1017 87 10000 3.6 210 11:25 14.11.2020
5494 Clouds 12 1017 82 10000 5.1 220 10:45 14.11.2020
5495 Clouds 12 1017 87 10000 4.6 210 10:25 14.11.2020
5496 Clouds 12 1017 87 10000 4.6 210 09:49 14.11.2020
5497 Clouds 12 1017 82 10000 5.1 190 09:28 14.11.2020
5498 Clouds 12 1017 87 10000 1.5 200 08:55 14.11.2020
5499 Clouds 12 1017 87 10000 1.5 200 08:37 14.11.2020
5500 Clouds 12 1017 87 10000 5.1 190 07:50 14.11.2020
5501 Clouds 12 1017 87 10000 5.1 190 07:28 14.11.2020
5502 Clear 11 1016 87 10000 4.1 170 06:32 14.11.2020
5503 Clear 11 1016 87 10000 5.1 180 05:33 14.11.2020
5504 Clear 11 1017 93 10000 3.6 160 04:20 14.11.2020
5505 Clear 12 1018 87 10000 3.6 170 01:20 14.11.2020
5506 Clouds 13 1018 77 10000 4.1 180 23:47 13.11.2020
5507 Clouds 14 1018 77 10000 4.1 180 23:26 13.11.2020
5508 Clouds 14 1018 77 10000 4.6 190 22:55 13.11.2020
5509 Clouds 13 1018 82 10000 2.6 210 22:29 13.11.2020
5510 Clouds 13 1018 77 10000 4.1 180 21:59 13.11.2020
5511 Clouds 14 1017 77 10000 4.1 180 21:39 13.11.2020
5512 Clouds 14 1017 77 10000 4.1 190 21:20 13.11.2020
5513 Clouds 14 1017 82 10000 4.1 190 20:42 13.11.2020
5514 Clouds 14 1017 82 10000 4.6 190 20:22 13.11.2020
5515 Clouds 14 1017 77 10000 4.1 190 19:46 13.11.2020
5516 Clouds 14 1017 82 10000 4.6 190 19:46 13.11.2020
5517 Clouds 14 1017 77 10000 4.1 190 19:23 13.11.2020
5518 Clouds 14 1017 77 10000 5.1 190 18:58 13.11.2020
5519 Clouds 14 1016 77 10000 4.6 190 18:25 13.11.2020
5520 Clear 15 1016 72 10000 4.6 190 17:43 13.11.2020
5521 Clear 15 1016 72 10000 4.6 190 17:43 13.11.2020
5522 Clear 15 1016 77 10000 4.6 170 17:19 13.11.2020
5523 Clear 15 1016 77 10000 3.6 180 16:50 13.11.2020
5524 Clear 15 1016 77 10000 3.6 180 16:24 13.11.2020
5525 Clear 15 1016 77 10000 4.1 180 15:52 13.11.2020
5526 Clouds 15 1016 77 10000 5.1 190 15:32 13.11.2020
5527 Clouds 15 1016 77 10000 4.6 180 14:50 13.11.2020
5528 Clouds 15 1016 77 10000 4.6 180 14:27 13.11.2020
5529 Clouds 15 1016 87 10000 5.7 180 13:53 13.11.2020
5530 Clouds 15 1016 82 10000 5.7 180 13:27 13.11.2020
5531 Clouds 15 1016 87 10000 5.1 170 12:51 13.11.2020
5532 Clouds 14 1017 87 10000 5.7 170 12:25 13.11.2020
5533 Clouds 14 1017 87 10000 5.1 170 11:52 13.11.2020
5534 Clouds 13 1017 87 10000 4.1 180 11:33 13.11.2020
5535 Clouds 13 1017 87 10000 3.6 180 10:59 13.11.2020
5536 Clouds 13 1017 82 10000 4.6 190 10:40 13.11.2020
5537 Clouds 13 1017 82 10000 4.6 190 10:22 13.11.2020
5538 Clouds 12 1016 87 10000 2.6 150 09:44 13.11.2020
5539 Clouds 12 1016 87 10000 2.6 150 09:24 13.11.2020
5540 Clouds 12 1017 87 10000 3.1 160 08:52 13.11.2020
5541 Clouds 11 1016 93 10000 2.6 170 08:22 13.11.2020
5542 Clear 10 1016 93 10000 3.6 180 07:48 13.11.2020
5543 Clear 10 1016 93 10000 3.6 180 07:27 13.11.2020
5544 Clear 10 1016 87 10000 4.1 160 06:50 13.11.2020
5545 Clear 10 1016 93 10000 3.1 160 06:20 13.11.2020
5546 Clouds 10 1017 93 10000 3.1 160 05:39 13.11.2020
5547 Clouds 9 1018 93 10000 2.6 120 02:57 13.11.2020
5548 Clouds 8 1019 93 10000 1 130 01:39 13.11.2020
5549 Clear 8 1019 93 10000 1 100 00:35 13.11.2020
5550 Clear 8 1019 87 10000 2.1 130 23:47 12.11.2020
5551 Clouds 8 1019 87 10000 1.5 140 23:20 12.11.2020
5552 Clouds 8 1020 87 10000 1 0 22:54 12.11.2020
5553 Clear 8 1019 87 10000 2.1 140 22:36 12.11.2020
5554 Clear 8 1019 87 10000 1.5 130 21:57 12.11.2020
5555 Clear 9 1019 87 10000 2.1 120 21:39 12.11.2020
5556 Clear 9 1020 87 10000 2.1 100 21:19 12.11.2020
5557 Clear 9 1020 81 10000 1.5 130 20:41 12.11.2020
5558 Clear 9 1020 81 10000 1.5 130 20:23 12.11.2020
5559 Clear 10 1020 76 10000 1 170 19:52 12.11.2020
5560 Clear 10 1020 76 10000 2.1 170 19:34 12.11.2020
5561 Clear 10 1020 76 10000 2.1 180 18:58 12.11.2020
5562 Clouds 11 1020 76 10000 2.1 190 18:39 12.11.2020
5563 Clear 11 1020 71 10000 2.6 210 18:19 12.11.2020
5564 Clouds 11 1020 71 10000 3.6 210 17:40 12.11.2020
5565 Clouds 13 1020 66 10000 4.1 220 17:22 12.11.2020
5566 Clouds 13 1020 62 10000 4.1 220 16:45 12.11.2020
5567 Clouds 13 1020 62 10000 3.1 210 16:23 12.11.2020
5568 Clouds 14 1020 62 10000 3.1 210 15:52 12.11.2020
5569 Clouds 14 1020 62 10000 3.6 200 15:28 12.11.2020
5570 Clouds 14 1020 62 10000 4.1 200 14:56 12.11.2020
5571 Clouds 14 1020 58 10000 4.1 240 14:37 12.11.2020
5572 Clear 14 1020 58 10000 5.1 230 14:18 12.11.2020
5573 Clouds 14 1020 62 10000 4.6 210 13:43 12.11.2020
5574 Clouds 13 1020 67 10000 4.1 230 13:19 12.11.2020
5575 Clouds 13 1021 71 10000 4.1 240 12:47 12.11.2020
5576 Clouds 12 1021 71 10000 3.6 220 12:25 12.11.2020
5577 Clear 12 1020 76 10000 4.1 230 11:53 12.11.2020
5578 Clouds 12 1021 71 10000 3.6 220 11:53 12.11.2020
5579 Clear 12 1020 76 10000 4.1 230 11:34 12.11.2020
5580 Clear 11 1020 76 10000 5.1 220 10:50 12.11.2020
5581 Clear 11 1020 81 10000 4.1 240 10:32 12.11.2020
5582 Clear 10 1019 81 10000 4.1 230 09:52 12.11.2020
5583 Clear 10 1019 81 10000 4.1 230 09:27 12.11.2020
5584 Clear 9 1019 87 10000 3.6 240 08:59 12.11.2020
5585 Clouds 9 1019 87 10000 4.1 240 08:40 12.11.2020
5586 Clouds 9 1019 87 10000 4.1 240 08:40 12.11.2020
5587 Clear 9 1018 87 10000 2.6 240 08:20 12.11.2020
5588 Clear 10 1018 87 10000 2.6 240 07:54 12.11.2020
5589 Clouds 10 1018 87 10000 2.6 250 07:31 12.11.2020
5590 Clear 11 1017 87 10000 2.6 240 06:52 12.11.2020
5591 Clouds 11 1016 87 10000 4.1 220 06:26 12.11.2020
5592 Clouds 12 1016 87 10000 5.1 180 03:50 12.11.2020
5593 Clouds 12 1016 87 10000 5.1 180 03:20 12.11.2020
5594 Clouds 11 1017 93 10000 5.7 170 00:45 12.11.2020
5595 Clouds 10 1017 93 10000 5.7 160 23:45 11.11.2020
5596 Clouds 10 1017 93 10000 5.7 160 23:25 11.11.2020
5597 Clouds 10 1018 93 10000 5.1 150 22:48 11.11.2020
5598 Clouds 11 1018 93 10000 5.1 150 22:24 11.11.2020
5599 Clouds 11 1018 93 10000 5.1 150 22:24 11.11.2020
5600 Clouds 11 1018 93 10000 5.1 170 21:59 11.11.2020
5601 Clouds 10 1018 93 10000 4.1 150 21:40 11.11.2020
5602 Clouds 10 1018 93 10000 4.1 150 21:20 11.11.2020
5603 Clouds 11 1019 93 10000 4.1 140 20:55 11.11.2020
5604 Clear 11 1019 93 10000 4.1 150 20:36 11.11.2020
5605 Clear 11 1020 87 10000 2.6 150 20:18 11.11.2020
5606 Clouds 11 1020 87 10000 3.1 160 19:43 11.11.2020
5607 Clouds 11 1020 87 10000 3.1 160 19:24 11.11.2020
5608 Clouds 11 1020 93 10000 3.1 150 18:47 11.11.2020
5609 Clouds 11 1020 93 10000 3.1 150 18:27 11.11.2020
5610 Clouds 12 1020 87 10000 3.6 150 17:41 11.11.2020
5611 Clouds 12 1021 87 10000 2.6 170 17:22 11.11.2020
5612 Clouds 12 1021 87 10000 3.6 150 16:46 11.11.2020
5613 Clouds 12 1021 87 10000 3.6 150 16:28 11.11.2020
5614 Clouds 11 1021 87 10000 4.6 160 15:47 11.11.2020
5615 Clouds 11 1021 87 10000 4.6 160 15:26 11.11.2020
5616 Clouds 12 1021 87 10000 4.6 180 14:52 11.11.2020
5617 Clouds 12 1022 93 10000 3.6 150 14:33 11.11.2020
5618 Clouds 11 1022 93 10000 3.6 170 13:55 11.11.2020
5619 Clouds 11 1023 100 8000 3.1 160 13:33 11.11.2020
5620 Clouds 10 1023 93 10000 3.6 140 12:42 11.11.2020
5621 Clouds 11 1024 93 10000 2.6 160 12:20 11.11.2020
5622 Mist 11 1024 93 2800 2.6 120 11:49 11.11.2020
5623 Mist 11 1024 93 2800 2.6 120 11:29 11.11.2020
5624 Mist 10 1025 100 2900 3.1 160 10:41 11.11.2020
5625 Mist 10 1025 100 2900 3.1 160 10:22 11.11.2020
5626 Fog 10 1025 93 750 3.1 130 09:46 11.11.2020
5627 Fog 10 1025 93 750 3.1 130 09:28 11.11.2020
5628 Fog 10 1025 100 800 3.1 130 08:46 11.11.2020
5629 Fog 10 1025 100 800 3.1 130 08:27 11.11.2020
5630 Mist 10 1025 100 2200 1.5 100 07:51 11.11.2020
5631 Mist 10 1025 100 4100 1 120 07:30 11.11.2020
5632 Mist 10 1025 100 5000 2.1 140 06:27 11.11.2020
5633 Clouds 11 1025 93 6000 1 110 04:30 11.11.2020
5634 Clouds 12 1026 100 10000 1.5 120 01:32 11.11.2020
5635 Clouds 12 1027 93 6000 1 0 00:34 11.11.2020
5636 Clouds 12 1026 100 10000 1.5 160 23:55 10.11.2020
5637 Clouds 12 1026 100 10000 1.5 150 23:24 10.11.2020
5638 Clouds 13 1027 93 10000 2.1 140 22:57 10.11.2020
5639 Clouds 13 1027 93 10000 2.1 150 22:28 10.11.2020
5640 Clouds 12 1026 100 10000 1.5 140 21:56 10.11.2020
5641 Clouds 12 1026 100 10000 2.1 100 21:38 10.11.2020
5642 Clouds 12 1026 100 10000 1.5 120 21:18 10.11.2020
5643 Clear 12 1026 93 10000 1.5 130 20:42 10.11.2020
5644 Clear 12 1026 93 10000 1.5 130 20:23 10.11.2020
5645 Clouds 12 1026 93 10000 2.1 90 19:56 10.11.2020
5646 Clouds 12 1026 93 10000 1.5 100 19:37 10.11.2020
5647 Clouds 13 1026 100 10000 0.5 80 19:18 10.11.2020
5648 Clear 13 1026 93 10000 1 130 18:41 10.11.2020
5649 Clouds 13 1026 93 10000 1.5 150 18:20 10.11.2020
5650 Clouds 13 1026 93 10000 0.5 0 17:44 10.11.2020
5651 Clouds 13 1026 93 10000 0.5 0 17:26 10.11.2020
5652 Drizzle 14 1026 93 10000 1.5 180 16:58 10.11.2020
5653 Clouds 14 1026 82 10000 1.5 190 16:38 10.11.2020
5654 Clouds 14 1026 87 10000 2.1 120 16:20 10.11.2020
5655 Clouds 15 1026 77 10000 1.5 110 15:46 10.11.2020
5656 Clouds 15 1026 77 10000 1.5 110 15:25 10.11.2020
5657 Clouds 15 1026 82 10000 1.5 0 14:42 10.11.2020
5658 Clouds 15 1026 82 10000 1.5 0 14:23 10.11.2020
5659 Clouds 15 1026 82 10000 1.5 0 13:58 10.11.2020
5660 Clouds 14 1026 82 10000 2.1 250 13:37 10.11.2020
5661 Clouds 14 1026 82 10000 2.6 270 13:18 10.11.2020
5662 Clouds 14 1026 87 10000 2.6 250 12:44 10.11.2020
5663 Clouds 14 1026 87 10000 2.6 250 12:24 10.11.2020
5664 Clouds 13 1026 87 10000 2.6 240 11:41 10.11.2020
5665 Clouds 13 1026 93 10000 0.5 0 11:21 10.11.2020
5666 Clouds 13 1025 100 8000 1.49 226 10:48 10.11.2020
5667 Clouds 13 1025 100 8000 1.66 241 10:27 10.11.2020
5668 Clouds 12 1025 100 6000 1 220 09:57 10.11.2020
5669 Rain 12 1025 93 5000 1 230 09:39 10.11.2020
5670 Rain 12 1025 93 5000 1 230 09:39 10.11.2020
5671 Rain 12 1025 93 4900 1 250 09:19 10.11.2020
5672 Rain 12 1024 93 3900 0.5 280 08:49 10.11.2020
5673 Rain 12 1024 93 3900 0.5 280 08:25 10.11.2020
5674 Rain 12 1024 100 9000 1.5 250 07:43 10.11.2020
5675 Rain 12 1024 100 8000 2.1 230 07:20 10.11.2020
5676 Rain 12 1024 93 7000 0.5 0 06:39 10.11.2020
5677 Clouds 12 1023 93 10000 1.67 230 05:41 10.11.2020
5678 Clear 12 1023 93 10000 1 0 04:49 10.11.2020
5679 Clear 12 1023 93 10000 1 40 02:18 10.11.2020
5680 Clear 13 1023 93 10000 1 140 01:25 10.11.2020
5681 Clear 13 1023 87 10000 1 0 23:54 09.11.2020
5682 Clear 13 1023 87 10000 1 0 23:24 09.11.2020
5683 Clear 14 1022 87 10000 1 0 22:44 09.11.2020
5684 Clear 14 1022 87 10000 1 0 22:24 09.11.2020
5685 Clear 14 1022 87 10000 1.5 120 21:46 09.11.2020
5686 Clear 14 1022 87 10000 1.5 120 21:27 09.11.2020
5687 Clear 14 1022 87 10000 1.5 120 21:27 09.11.2020
5688 Clear 15 1022 82 10000 1 140 20:58 09.11.2020
5689 Clear 15 1022 82 10000 2.1 130 20:36 09.11.2020
5690 Clear 15 1022 82 10000 2.6 110 20:18 09.11.2020
5691 Clear 15 1022 82 10000 2.6 130 19:40 09.11.2020
5692 Clear 15 1022 82 10000 2.6 130 19:21 09.11.2020
5693 Clear 15 1021 82 10000 2.1 120 18:41 09.11.2020
5694 Clear 16 1021 77 10000 2.6 130 18:20 09.11.2020
5695 Clear 16 1021 77 10000 2.6 130 17:50 09.11.2020
5696 Clear 16 1021 77 10000 2.6 150 17:30 09.11.2020
5697 Clear 17 1021 68 10000 4.1 180 16:46 09.11.2020
5698 Clear 18 1020 68 10000 3.1 140 16:27 09.11.2020
5699 Clear 17 1020 68 10000 3.1 140 16:27 09.11.2020
5700 Clear 18 1020 68 10000 3.1 140 15:51 09.11.2020
5701 Clear 18 1020 68 10000 3.6 150 15:30 09.11.2020
5702 Clear 18 1020 68 10000 3.6 160 14:59 09.11.2020
5703 Clear 18 1020 68 10000 3.6 150 14:40 09.11.2020
5704 Clear 18 1020 68 10000 3.6 150 14:22 09.11.2020
5705 Clear 17 1021 68 10000 2.6 150 13:43 09.11.2020
5706 Clear 17 1021 72 10000 1.5 0 13:20 09.11.2020
5707 Clear 16 1021 77 10000 1.5 0 12:47 09.11.2020
5708 Clear 15 1021 77 10000 1.5 0 12:21 09.11.2020
5709 Clear 14 1021 77 10000 1.5 0 11:55 09.11.2020
5710 Clear 14 1021 82 10000 1 0 11:36 09.11.2020
5711 Clear 13 1021 82 10000 1.5 0 11:18 09.11.2020
5712 Clear 13 1021 87 10000 1.5 0 10:41 09.11.2020
5713 Clear 11 1021 93 10000 1 0 10:22 09.11.2020
5714 Clear 11 1021 93 10000 1.5 60 09:41 09.11.2020
5715 Clear 10 1021 93 10000 2.1 40 09:23 09.11.2020
5716 Clouds 10 1021 93 10000 2.1 60 08:37 09.11.2020
5717 Clear 10 1020 93 10000 2.1 80 08:18 09.11.2020
5718 Clear 10 1020 100 10000 2.6 80 07:38 09.11.2020
5719 Clear 11 1020 100 10000 2.6 80 07:18 09.11.2020
5720 Clouds 11 1020 100 9000 2.1 60 06:22 09.11.2020
5721 Mist 10 1021 100 5000 2.6 70 02:58 09.11.2020
5722 Clear 11 1021 100 7000 1.5 40 01:42 09.11.2020
5723 Clouds 11 1021 100 8000 1.39 156 00:58 09.11.2020
5724 Clear 12 1020 93 10000 2.1 120 23:51 08.11.2020
5725 Clear 13 1021 87 10000 2.6 130 23:29 08.11.2020
5726 Clouds 13 1020 87 10000 0.5 0 22:46 08.11.2020
5727 Clouds 13 1020 87 10000 0.5 0 22:22 08.11.2020
5728 Clouds 14 1020 87 10000 2.6 140 21:54 08.11.2020
5729 Clouds 14 1020 87 10000 1.5 140 21:36 08.11.2020
5730 Clouds 15 1020 87 10000 2.1 180 21:18 08.11.2020
5731 Clouds 14 1020 87 10000 2.1 180 20:39 08.11.2020
5732 Clouds 14 1020 87 10000 2.1 180 20:20 08.11.2020
5733 Clouds 15 1020 82 10000 2.1 160 19:56 08.11.2020
5734 Clouds 15 1020 82 10000 2.1 130 19:37 08.11.2020
5735 Clouds 15 1020 77 10000 2.6 150 19:18 08.11.2020
5736 Clouds 15 1020 82 10000 2.6 190 18:45 08.11.2020
5737 Clouds 16 1020 77 10000 3.1 160 18:21 08.11.2020
5738 Clouds 16 1020 77 10000 3.1 160 17:57 08.11.2020
5739 Clouds 16 1020 72 10000 4.1 180 17:37 08.11.2020
5740 Clouds 16 1020 77 10000 2.1 160 17:18 08.11.2020
5741 Clouds 16 1020 77 10000 2.6 140 16:46 08.11.2020
5742 Clouds 17 1020 77 10000 3.6 120 16:21 08.11.2020
5743 Clouds 17 1020 77 10000 3.6 120 15:50 08.11.2020
5744 Clouds 17 1019 77 10000 3.6 160 15:28 08.11.2020
5745 Clouds 17 1020 77 10000 3.6 160 14:59 08.11.2020
5746 Clouds 17 1020 77 10000 3.6 170 14:38 08.11.2020
5747 Clouds 17 1020 72 10000 4.1 180 14:20 08.11.2020
5748 Clear 17 1020 77 10000 3.1 170 13:41 08.11.2020
5749 Clear 16 1020 77 10000 3.1 170 13:20 08.11.2020
5750 Clouds 15 1020 77 10000 4.6 160 12:42 08.11.2020
5751 Clouds 15 1020 77 10000 4.6 160 12:23 08.11.2020
5752 Clouds 15 1021 82 10000 3.6 160 11:56 08.11.2020
5753 Clouds 14 1021 87 10000 2.6 150 11:38 08.11.2020
5754 Clouds 14 1021 87 10000 2.6 130 11:20 08.11.2020
5755 Clouds 13 1020 87 10000 2.1 120 10:49 08.11.2020
5756 Clouds 12 1020 93 10000 2.1 130 10:18 08.11.2020
5757 Clouds 12 1020 93 10000 2.6 110 09:42 08.11.2020
5758 Clouds 12 1020 87 10000 2.6 140 09:24 08.11.2020
5759 Clouds 12 1020 87 10000 2.6 140 08:49 08.11.2020
5760 Clouds 12 1020 87 10000 1.5 120 08:30 08.11.2020
5761 Clouds 12 1019 93 10000 1.5 110 07:53 08.11.2020
5762 Clouds 11 1019 93 10000 1 110 07:33 08.11.2020
5763 Clouds 11 1019 93 10000 1.5 80 06:50 08.11.2020
5764 Clouds 11 1019 87 10000 2.6 50 05:55 08.11.2020
5765 Clear 11 1019 87 10000 1.5 30 05:26 08.11.2020
5766 Clear 11 1019 93 10000 1.5 50 03:46 08.11.2020
5767 Clear 12 1019 87 10000 2.1 60 01:49 08.11.2020
5768 Clear 12 1019 93 10000 1.5 60 01:18 08.11.2020
5769 Clear 12 1019 87 10000 2.6 60 00:24 08.11.2020
5770 Clear 13 1019 87 10000 2.1 40 23:45 07.11.2020
5771 Clear 12 1019 87 10000 2.1 40 23:27 07.11.2020
5772 Clear 13 1019 87 10000 2.1 50 22:41 07.11.2020
5773 Clear 13 1019 87 10000 2.1 50 22:23 07.11.2020
5774 Clear 13 1019 87 10000 2.1 60 21:45 07.11.2020
5775 Clear 13 1019 87 10000 2.1 50 21:45 07.11.2020
5776 Clear 13 1019 87 10000 2.1 50 21:22 07.11.2020
5777 Clear 13 1019 87 10000 2.6 50 20:50 07.11.2020
5778 Clear 13 1019 87 10000 2.6 50 20:32 07.11.2020
5779 Clear 13 1019 82 10000 2.1 70 19:59 07.11.2020
5780 Clear 13 1019 82 10000 1.5 70 19:39 07.11.2020
5781 Clear 13 1019 87 10000 1.5 0 19:19 07.11.2020
5782 Clear 13 1019 82 10000 1.5 80 18:39 07.11.2020
5783 Clear 14 1019 82 10000 1.5 110 18:20 07.11.2020
5784 Clear 14 1019 76 10000 3.1 90 17:45 07.11.2020
5785 Clear 15 1019 76 10000 3.1 90 17:25 07.11.2020
5786 Clouds 16 1019 67 10000 2.6 110 16:43 07.11.2020
5787 Clouds 16 1019 67 10000 2.6 110 16:24 07.11.2020
5788 Clear 16 1020 67 10000 3.6 120 15:47 07.11.2020
5789 Clear 16 1020 67 10000 3.6 120 15:24 07.11.2020
5790 Clear 16 1020 72 10000 2.6 130 14:56 07.11.2020
5791 Clear 15 1019 67 10000 3.1 120 14:38 07.11.2020
5792 Clear 15 1019 67 10000 3.6 90 14:19 07.11.2020
5793 Clear 14 1019 82 10000 2.6 100 13:39 07.11.2020
5794 Clear 14 1019 82 10000 2.6 100 13:21 07.11.2020
5795 Clear 13 1021 76 10000 3.1 140 12:35 07.11.2020
5796 Clear 12 1021 87 10000 2.6 70 11:46 07.11.2020
5797 Clear 11 1021 87 10000 2.6 70 11:25 07.11.2020
5798 Clear 11 1021 87 10000 2.1 70 10:57 07.11.2020
5799 Clouds 10 1021 100 9000 2.1 40 10:39 07.11.2020
5800 Clouds 9 1021 100 7000 1.5 20 10:20 07.11.2020
5801 Clouds 8 1022 100 6000 1.5 340 09:47 07.11.2020
5802 Clouds 8 1022 100 6000 1.5 340 09:21 07.11.2020
5803 Mist 8 1021 93 5000 3.1 50 08:47 07.11.2020
5804 Mist 8 1021 93 5000 3.1 50 08:28 07.11.2020
5805 Clouds 7 1021 100 6000 1.5 30 07:48 07.11.2020
5806 Clouds 8 1021 93 6000 2.1 40 06:50 07.11.2020
5807 Clouds 7 1021 93 7000 2.6 40 05:48 07.11.2020
5808 Clouds 8 1022 93 8000 2.6 30 03:26 07.11.2020
5809 Clouds 7 1022 100 8000 3.1 50 02:46 07.11.2020
5810 Clouds 8 1022 93 9000 3.1 50 01:27 07.11.2020
5811 Clear 8 1022 93 10000 2.6 40 00:37 07.11.2020
5812 Clear 8 1022 93 9000 2.6 40 23:40 06.11.2020
5813 Clear 7 1022 87 10000 3.1 60 23:18 06.11.2020
5814 Clear 8 1023 87 10000 2.6 60 22:40 06.11.2020
5815 Clear 8 1023 87 10000 2.6 60 22:18 06.11.2020
5816 Clear 8 1023 87 10000 2.6 50 21:43 06.11.2020
5817 Clear 8 1023 93 10000 1.5 50 21:20 06.11.2020
5818 Clear 8 1023 93 10000 2.1 40 20:47 06.11.2020
5819 Clear 8 1023 93 10000 2.6 40 20:20 06.11.2020
5820 Clear 9 1024 87 10000 2.6 50 19:47 06.11.2020
5821 Clear 8 1024 87 10000 2.6 50 19:29 06.11.2020
5822 Clear 9 1024 87 10000 2.6 70 18:58 06.11.2020
5823 Clear 9 1024 81 10000 2.6 80 18:40 06.11.2020
5824 Clear 9 1024 81 10000 3.6 70 18:19 06.11.2020
5825 Clear 10 1024 81 10000 3.6 70 17:47 06.11.2020
5826 Clear 11 1025 71 10000 4.6 80 17:25 06.11.2020
5827 Clear 11 1025 76 10000 4.6 80 16:47 06.11.2020
5828 Clear 11 1025 76 10000 5.1 90 16:24 06.11.2020
5829 Clear 11 1026 76 10000 5.7 90 15:47 06.11.2020
5830 Clear 11 1026 76 10000 5.7 90 15:27 06.11.2020
5831 Clear 12 1026 76 10000 6.2 70 14:51 06.11.2020
5832 Clear 12 1026 76 10000 6.2 70 14:24 06.11.2020
5833 Clear 12 1027 71 10000 5.1 70 13:44 06.11.2020
5834 Clear 12 1027 71 10000 5.1 70 13:23 06.11.2020
5835 Clear 11 1028 71 10000 5.1 80 12:45 06.11.2020
5836 Clear 11 1028 71 10000 5.1 80 12:23 06.11.2020
5837 Clear 9 1029 76 10000 5.1 70 11:46 06.11.2020
5838 Clear 8 1029 81 10000 5.1 80 11:27 06.11.2020
5839 Clear 7 1029 81 10000 4.6 80 10:41 06.11.2020
5840 Clear 7 1029 81 10000 4.6 80 10:23 06.11.2020
5841 Clear 5 1030 86 10000 4.6 60 09:48 06.11.2020
5842 Clear 5 1030 86 10000 4.6 60 09:22 06.11.2020
5843 Clear 4 1030 93 10000 2.6 50 08:50 06.11.2020
5844 Clear 4 1030 93 10000 2.6 50 08:29 06.11.2020
5845 Clear 4 1030 93 10000 2.6 30 07:50 06.11.2020
5846 Clear 4 1030 93 10000 2.6 30 07:31 06.11.2020
5847 Clear 4 1030 86 10000 1.5 0 06:58 06.11.2020
5848 Clear 4 1030 86 10000 5.1 80 06:22 06.11.2020
5849 Clear 4 1031 86 10000 3.6 50 04:42 06.11.2020
5850 Clear 6 1032 75 10000 6.7 80 01:22 06.11.2020
5851 Clear 6 1033 81 10000 5.1 50 00:21 06.11.2020
5852 Clear 7 1034 81 10000 4.6 50 23:32 05.11.2020
5853 Clear 7 1034 81 10000 4.1 40 22:58 05.11.2020
5854 Clear 7 1034 81 10000 3.1 30 22:39 05.11.2020
5855 Clear 7 1034 81 10000 3.1 40 22:20 05.11.2020
5856 Clear 7 1034 81 10000 3.1 50 21:43 05.11.2020
5857 Clear 7 1034 81 10000 3.1 50 21:22 05.11.2020
5858 Clear 7 1034 81 10000 2.6 40 20:57 05.11.2020
5859 Clear 7 1034 81 10000 2.6 50 20:39 05.11.2020
5860 Clear 8 1034 75 10000 2.6 30 20:21 05.11.2020
5861 Clear 8 1034 75 10000 3.1 30 19:41 05.11.2020
5862 Clear 8 1034 75 10000 3.1 30 19:23 05.11.2020
5863 Clear 9 1034 70 10000 3.6 30 18:46 05.11.2020
5864 Clear 10 1034 70 10000 4.1 30 18:26 05.11.2020
5865 Clear 10 1034 70 10000 4.1 30 17:54 05.11.2020
5866 Clear 10 1035 66 10000 5.7 30 17:36 05.11.2020
5867 Clear 10 1035 62 10000 5.1 30 17:18 05.11.2020
5868 Clear 11 1035 62 10000 5.7 30 16:41 05.11.2020
5869 Clear 11 1035 54 10000 6.2 30 16:21 05.11.2020
5870 Clear 12 1035 54 10000 6.2 30 15:49 05.11.2020
5871 Clear 12 1035 54 10000 6.7 50 15:24 05.11.2020
5872 Clear 11 1036 62 10000 7.2 50 14:47 05.11.2020
5873 Clear 11 1036 62 10000 7.2 50 14:29 05.11.2020
5874 Clear 11 1037 66 10000 5.7 50 13:49 05.11.2020
5875 Clear 11 1037 66 10000 5.7 50 13:30 05.11.2020
5876 Clear 11 1037 66 10000 5.7 50 13:30 05.11.2020
5877 Clear 11 1037 66 10000 5.1 60 12:53 05.11.2020
5878 Clear 10 1037 71 10000 5.1 60 12:29 05.11.2020
5879 Clear 9 1038 76 10000 3.6 40 11:57 05.11.2020
5880 Clear 9 1038 76 10000 3.6 50 11:38 05.11.2020
5881 Clear 9 1038 81 10000 4.1 60 11:19 05.11.2020
5882 Clear 7 1038 81 10000 2.6 30 10:45 05.11.2020
5883 Clear 6 1038 87 9000 2.6 20 10:26 05.11.2020
5884 Clear 5 1038 93 6000 2.1 20 09:48 05.11.2020
5885 Clear 5 1038 93 6000 2.1 20 09:23 05.11.2020
5886 Clear 4 1038 93 7000 1 0 08:45 05.11.2020
5887 Clear 4 1038 93 7000 1 0 08:26 05.11.2020
5888 Clear 4 1038 93 7000 2.1 360 07:42 05.11.2020
5889 Clear 4 1037 93 8000 1.5 0 07:22 05.11.2020
5890 Clear 5 1037 93 8000 3.1 360 06:42 05.11.2020
5891 Clear 5 1038 93 9000 1.5 0 05:53 05.11.2020
5892 Clear 6 1037 93 10000 2.6 360 01:38 05.11.2020
5893 Clear 6 1037 87 10000 2.1 20 00:34 05.11.2020
5894 Clear 7 1037 87 10000 3.1 360 23:46 04.11.2020
5895 Clear 7 1037 87 10000 3.1 360 23:26 04.11.2020
5896 Clear 7 1037 87 10000 2.6 360 22:54 04.11.2020
5897 Clear 7 1037 87 10000 2.1 350 22:36 04.11.2020
5898 Clear 7 1036 87 10000 2.6 350 22:18 04.11.2020
5899 Clear 7 1036 81 10000 2.6 10 21:42 04.11.2020
5900 Clear 7 1036 81 10000 2.6 10 21:24 04.11.2020
5901 Clear 7 1036 81 10000 2.6 360 20:45 04.11.2020
5902 Clear 7 1035 81 10000 3.1 10 20:27 04.11.2020
5903 Clear 8 1035 81 10000 2.1 10 19:50 04.11.2020
5904 Clear 8 1035 75 10000 2.1 10 19:30 04.11.2020
5905 Clear 8 1035 75 10000 2.1 10 19:30 04.11.2020
5906 Clear 8 1034 75 10000 2.1 10 18:56 04.11.2020
5907 Clear 8 1034 70 10000 2.6 10 18:38 04.11.2020
5908 Clear 9 1034 70 10000 1.5 360 18:20 04.11.2020
5909 Clear 10 1033 66 10000 2.1 360 17:41 04.11.2020
5910 Clear 10 1033 66 10000 2.1 360 17:41 04.11.2020
5911 Clear 10 1033 62 10000 3.1 20 17:23 04.11.2020
5912 Clouds 11 1033 62 10000 3.6 20 16:42 04.11.2020
5913 Clouds 11 1033 62 10000 4.1 50 16:24 04.11.2020
5914 Clouds 11 1033 62 10000 4.1 50 15:55 04.11.2020
5915 Clouds 11 1033 62 10000 3.6 20 15:36 04.11.2020
5916 Clouds 11 1033 62 10000 3.6 20 15:18 04.11.2020
5917 Clouds 11 1032 62 10000 3.6 30 14:41 04.11.2020
5918 Clouds 11 1032 62 10000 3.6 30 14:23 04.11.2020
5919 Clouds 11 1033 66 10000 3.6 40 13:48 04.11.2020
5920 Clear 10 1033 71 10000 2.6 10 13:21 04.11.2020
5921 Clear 10 1033 71 10000 2.6 10 12:55 04.11.2020
5922 Clouds 10 1033 66 10000 3.1 30 12:37 04.11.2020
5923 Clear 9 1032 76 10000 2.1 40 12:18 04.11.2020
5924 Clear 9 1032 81 10000 2.6 350 11:42 04.11.2020
5925 Clear 8 1032 87 10000 1.5 310 11:20 04.11.2020
5926 Clear 7 1032 87 10000 1 0 10:47 04.11.2020
5927 Clear 6 1032 93 10000 0.5 0 10:23 04.11.2020
5928 Clear 6 1032 93 10000 0.5 0 09:54 04.11.2020
5929 Clear 4 1031 100 10000 1 340 09:26 04.11.2020
5930 Clear 3 1031 100 10000 1.5 350 08:47 04.11.2020
5931 Clear 3 1030 93 10000 1.5 0 08:22 04.11.2020
5932 Clear 3 1030 93 10000 1.5 0 07:56 04.11.2020
5933 Clear 3 1030 100 10000 1.5 0 07:30 04.11.2020
5934 Clear 3 1030 93 10000 0.5 0 06:56 04.11.2020
5935 Clear 3 1029 93 10000 1.5 330 06:37 04.11.2020
5936 Clear 3 1029 93 10000 1.5 330 06:37 04.11.2020
5937 Clear 4 1029 93 10000 0.5 0 04:18 04.11.2020
5938 Clear 5 1029 86 10000 1.5 0 02:31 04.11.2020
5939 Clear 5 1029 86 10000 1.5 150 01:22 04.11.2020
5940 Clear 6 1028 81 10000 2.1 250 23:50 03.11.2020
5941 Clear 6 1028 87 10000 1 0 23:24 03.11.2020
5942 Clear 7 1028 81 10000 1.5 230 22:54 03.11.2020
5943 Clear 7 1028 81 10000 1.5 230 22:36 03.11.2020
5944 Clear 7 1028 81 10000 1.5 230 22:18 03.11.2020
5945 Clear 7 1028 81 10000 1.5 250 21:41 03.11.2020
5946 Clear 7 1028 75 10000 2.1 250 21:22 03.11.2020
5947 Clear 7 1028 75 10000 2.1 250 20:48 03.11.2020
5948 Clear 7 1027 81 10000 3.1 240 20:26 03.11.2020
5949 Clear 7 1027 75 10000 3.6 240 19:49 03.11.2020
5950 Clear 8 1027 75 10000 4.1 240 19:29 03.11.2020
5951 Clear 8 1027 70 10000 3.6 250 18:58 03.11.2020
5952 Clear 8 1026 70 10000 4.1 260 18:40 03.11.2020
5953 Clouds 9 1026 70 10000 3.6 250 18:18 03.11.2020
5954 Clouds 10 1026 76 10000 4.6 260 17:44 03.11.2020
5955 Clouds 10 1026 76 10000 4.6 260 17:26 03.11.2020
5956 Clouds 12 1026 62 10000 5.1 270 16:45 03.11.2020
5957 Clouds 12 1026 62 10000 5.1 270 16:27 03.11.2020
5958 Clouds 12 1025 58 10000 6.7 270 15:53 03.11.2020
5959 Clouds 12 1025 58 10000 6.7 270 15:30 03.11.2020
5960 Clouds 12 1025 58 10000 6.7 270 15:30 03.11.2020
5961 Clouds 12 1025 54 10000 5.7 250 14:57 03.11.2020
5962 Clouds 12 1025 54 10000 6.2 260 14:38 03.11.2020
5963 Clouds 12 1025 58 10000 7.7 230 14:19 03.11.2020
5964 Clouds 12 1024 62 10000 5.7 250 13:40 03.11.2020
5965 Clouds 12 1024 62 10000 7.2 240 13:21 03.11.2020
5966 Clouds 12 1024 71 10000 5.1 260 12:44 03.11.2020
5967 Clouds 11 1024 71 10000 6.2 250 12:21 03.11.2020
5968 Clouds 11 1024 76 10000 4.6 230 11:46 03.11.2020
5969 Clouds 10 1024 76 10000 4.6 230 11:24 03.11.2020
5970 Clear 10 1024 76 10000 5.1 220 10:55 03.11.2020
5971 Clouds 9 1024 81 10000 5.7 200 10:37 03.11.2020
5972 Clouds 9 1024 81 10000 5.7 200 10:18 03.11.2020
5973 Clouds 9 1023 87 10000 3.6 140 09:45 03.11.2020
5974 Clouds 8 1023 87 10000 3.6 140 09:22 03.11.2020
5975 Clear 7 1023 87 10000 3.6 180 08:49 03.11.2020
5976 Clear 7 1023 87 10000 3.6 180 08:29 03.11.2020
5977 Clear 7 1023 87 10000 1.5 0 07:41 03.11.2020
5978 Clear 7 1023 87 10000 1 150 07:19 03.11.2020
5979 Clear 7 1023 87 10000 1 120 06:22 03.11.2020
5980 Clear 8 1023 81 10000 2.1 190 04:37 03.11.2020
5981 Clear 10 1022 71 10000 3.1 260 00:46 03.11.2020
5982 Clear 10 1022 71 10000 3.1 260 00:24 03.11.2020
5983 Clear 10 1021 81 10000 2.6 230 23:47 02.11.2020
5984 Clear 10 1021 81 10000 2.6 230 23:28 02.11.2020
5985 Clear 11 1021 71 10000 2.1 240 22:45 02.11.2020
5986 Clear 11 1021 71 10000 2.1 240 22:27 02.11.2020
5987 Clear 12 1020 71 10000 3.6 260 21:58 02.11.2020
5988 Clear 12 1020 71 10000 3.6 270 21:36 02.11.2020
5989 Clear 12 1020 71 10000 4.1 260 21:18 02.11.2020
5990 Clear 13 1019 71 10000 4.1 260 20:38 02.11.2020
5991 Clear 12 1018 82 10000 3.6 250 20:19 02.11.2020
5992 Clear 13 1018 87 10000 3.1 250 19:44 02.11.2020
5993 Clear 13 1018 87 10000 3.1 250 19:26 02.11.2020
5994 Clear 13 1018 87 10000 3.1 250 19:26 02.11.2020
5995 Clouds 13 1017 87 10000 3.1 250 18:55 02.11.2020
5996 Clouds 13 1016 87 10000 3.1 260 18:36 02.11.2020
5997 Clouds 13 1016 87 10000 3.1 260 18:18 02.11.2020
5998 Clouds 13 1015 82 10000 4.6 260 17:40 02.11.2020
5999 Clouds 14 1015 82 10000 4.6 260 17:21 02.11.2020
6000 Mist 15 1014 87 4000 7.7 300 16:49 02.11.2020
6001 Mist 15 1014 87 4000 7.7 300 16:28 02.11.2020
6002 Clouds 17 1013 88 10000 7.7 240 15:55 02.11.2020
6003 Clouds 17 1012 82 10000 7.2 230 15:37 02.11.2020
6004 Rain 18 1012 77 10000 9.3 210 15:19 02.11.2020
6005 Clouds 20 1011 77 10000 7.7 210 14:42 02.11.2020
6006 Clouds 20 1011 77 10000 10.3 200 14:19 02.11.2020
6007 Clouds 20 1011 77 10000 10.3 200 13:47 02.11.2020
6008 Clouds 20 1011 77 10000 7.2 200 13:22 02.11.2020
6009 Clouds 19 1012 77 10000 10.3 200 12:50 02.11.2020
6010 Clouds 20 1012 77 10000 10.3 200 12:26 02.11.2020
6011 Clouds 20 1011 72 10000 9.3 200 11:46 02.11.2020
6012 Clouds 19 1012 77 10000 9.8 200 11:20 02.11.2020
6013 Clouds 19 1011 77 10000 9.3 200 10:48 02.11.2020
6014 Clouds 19 1011 77 10000 9.3 200 10:25 02.11.2020
6015 Clouds 18 1011 82 10000 8.7 190 09:55 02.11.2020
6016 Clouds 18 1011 82 10000 8.7 190 09:29 02.11.2020
6017 Clouds 17 1011 82 10000 8.2 190 08:59 02.11.2020
6018 Clouds 17 1011 88 10000 8.2 190 08:38 02.11.2020
6019 Clouds 17 1011 88 10000 6.7 180 08:19 02.11.2020
6020 Clouds 17 1011 88 10000 6.7 180 07:39 02.11.2020
6021 Clouds 17 1011 77 10000 7.2 190 06:45 02.11.2020
6022 Clouds 18 1011 82 10000 8.7 200 05:22 02.11.2020
6023 Clouds 18 1012 88 10000 8.7 200 01:34 02.11.2020
6024 Clouds 18 1012 82 10000 8.7 200 00:39 02.11.2020
6025 Clouds 18 1012 82 10000 8.2 200 00:20 02.11.2020
6026 Clouds 18 1012 88 10000 6.7 220 23:39 01.11.2020
6027 Clouds 18 1012 88 10000 7.2 200 23:21 01.11.2020
6028 Clouds 18 1012 88 10000 6.2 190 22:43 01.11.2020
6029 Clouds 18 1012 88 10000 7.7 200 22:22 01.11.2020
6030 Clouds 18 1012 88 10000 7.2 190 21:43 01.11.2020
6031 Clouds 18 1012 88 10000 7.2 190 21:25 01.11.2020
6032 Clouds 18 1012 88 10000 7.2 190 20:50 01.11.2020
6033 Clouds 18 1012 88 10000 8.2 200 20:28 01.11.2020
6034 Clouds 18 1012 88 10000 8.2 200 19:58 01.11.2020
6035 Clouds 17 1012 88 10000 7.2 200 19:39 01.11.2020
6036 Clouds 17 1012 88 10000 7.2 200 19:20 01.11.2020
6037 Clouds 17 1012 88 10000 6.2 200 18:40 01.11.2020
6038 Clouds 17 1012 88 10000 6.7 190 18:19 01.11.2020
6039 Clouds 17 1012 88 10000 6.7 190 17:56 01.11.2020
6040 Clouds 18 1012 82 10000 7.7 200 17:37 01.11.2020
6041 Clouds 18 1012 82 10000 6.7 200 17:18 01.11.2020
6042 Clouds 18 1012 82 10000 6.7 200 16:39 01.11.2020
6043 Clouds 18 1012 88 10000 6.7 200 16:19 01.11.2020
6044 Clouds 18 1012 88 10000 7.2 200 15:40 01.11.2020
6045 Clouds 18 1012 88 10000 7.2 200 15:21 01.11.2020
6046 Clouds 18 1012 88 10000 8.2 200 14:57 01.11.2020
6047 Clouds 18 1012 88 10000 9.3 200 14:39 01.11.2020
6048 Clouds 18 1012 82 10000 8.2 210 14:18 01.11.2020
6049 Clouds 18 1012 82 10000 8.2 200 13:46 01.11.2020
6050 Clouds 18 1013 82 10000 8.7 200 13:28 01.11.2020
6051 Clouds 17 1013 82 10000 8.2 200 12:43 01.11.2020
6052 Clouds 17 1013 88 10000 9.3 200 12:23 01.11.2020
6053 Clouds 17 1013 88 10000 9.3 200 11:51 01.11.2020
6054 Clouds 17 1012 88 10000 9.3 200 11:19 01.11.2020
6055 Clouds 17 1012 88 10000 8.2 200 10:43 01.11.2020
6056 Clouds 17 1012 88 10000 6.2 190 10:24 01.11.2020
6057 Clouds 17 1012 88 10000 6.2 190 09:57 01.11.2020
6058 Drizzle 16 1013 93 10000 6.2 190 09:39 01.11.2020
6059 Clouds 16 1013 93 10000 6.2 180 08:47 01.11.2020
6060 Clouds 15 1013 93 10000 5.1 180 08:23 01.11.2020
6061 Clouds 14 1014 93 6000 4.1 160 07:40 01.11.2020
6062 Rain 13 1016 82 10000 2.6 200 04:31 01.11.2020
6063 Clouds 14 1017 82 10000 3.1 200 01:52 01.11.2020
6064 Clouds 14 1017 82 10000 2.1 250 00:43 01.11.2020
6065 Clouds 15 1017 82 10000 2.6 260 23:28 31.10.2020
6066 Clouds 15 1017 82 10000 2.6 260 22:58 31.10.2020
6067 Clouds 15 1016 82 10000 3.6 270 22:40 31.10.2020
6068 Clouds 16 1016 82 10000 4.6 270 22:21 31.10.2020
6069 Clouds 16 1016 82 10000 5.1 220 21:44 31.10.2020
6070 Clouds 17 1015 82 10000 5.7 210 21:20 31.10.2020
6071 Clouds 17 1015 82 10000 7.2 200 20:38 31.10.2020
6072 Clouds 17 1016 82 10000 7.2 200 20:18 31.10.2020
6073 Clouds 16 1015 87 10000 6.7 190 19:41 31.10.2020
6074 Clouds 17 1015 87 10000 6.7 190 19:23 31.10.2020
6075 Clouds 17 1016 77 10000 6.7 200 18:48 31.10.2020
6076 Clouds 17 1016 77 10000 6.7 200 18:30 31.10.2020
6077 Clouds 18 1015 72 10000 7.2 180 17:41 31.10.2020
6078 Clouds 17 1015 72 10000 7.2 180 17:23 31.10.2020
6079 Clouds 17 1015 72 10000 6.2 180 16:53 31.10.2020
6080 Clouds 18 1016 68 10000 4.6 170 16:33 31.10.2020
6081 Clouds 17 1016 72 10000 5.1 160 15:55 31.10.2020
6082 Clouds 17 1016 72 10000 5.1 170 15:26 31.10.2020
6083 Clear 17 1016 77 10000 5.1 180 14:53 31.10.2020
6084 Clear 16 1017 72 10000 5.7 180 14:32 31.10.2020
6085 Clear 15 1018 77 10000 5.7 180 13:53 31.10.2020
6086 Clear 15 1018 77 10000 5.7 180 13:29 31.10.2020
6087 Clouds 15 1018 72 10000 7.2 180 12:56 31.10.2020
6088 Clear 15 1018 72 10000 5.7 160 12:22 31.10.2020
6089 Clear 14 1019 76 10000 5.7 160 11:41 31.10.2020
6090 Clear 13 1019 76 10000 5.1 180 11:23 31.10.2020
6091 Clear 13 1020 76 10000 5.1 170 10:49 31.10.2020
6092 Clear 12 1020 76 10000 5.1 170 10:30 31.10.2020
6093 Clouds 11 1020 81 10000 3.6 160 09:40 31.10.2020
6094 Clouds 11 1020 87 10000 4.1 150 09:20 31.10.2020
6095 Clouds 10 1021 87 10000 3.6 160 08:27 31.10.2020
6096 Clouds 11 1020 81 10000 4.6 140 07:47 31.10.2020
6097 Clouds 11 1020 81 10000 4.6 140 07:26 31.10.2020
6098 Clouds 11 1022 81 10000 3.6 160 06:37 31.10.2020
6099 Clouds 13 1023 82 10000 3.6 150 03:50 31.10.2020
6100 Clouds 13 1023 76 10000 2.6 160 02:48 31.10.2020
6101 Clouds 14 1024 82 10000 3.1 150 00:57 31.10.2020
6102 Clouds 14 1024 82 10000 3.1 160 00:21 31.10.2020
6103 Clouds 14 1024 77 10000 2.6 170 23:46 30.10.2020
6104 Clouds 14 1024 77 10000 2.6 170 23:23 30.10.2020
6105 Clouds 14 1025 77 10000 2.1 190 22:43 30.10.2020
6106 Clouds 14 1025 82 10000 1.5 190 22:22 30.10.2020
6107 Clouds 14 1025 82 10000 1.5 190 21:52 30.10.2020
6108 Clouds 14 1024 82 10000 1.5 210 21:29 30.10.2020
6109 Clouds 14 1024 77 10000 4.1 200 20:59 30.10.2020
6110 Clouds 14 1024 77 10000 4.1 200 20:37 30.10.2020
6111 Clouds 14 1025 77 10000 3.6 200 20:19 30.10.2020
6112 Clouds 14 1024 77 10000 3.1 200 19:44 30.10.2020
6113 Clouds 14 1024 77 10000 3.6 210 19:18 30.10.2020
6114 Clouds 15 1024 82 10000 3.1 200 18:49 30.10.2020
6115 Clouds 15 1024 82 10000 3.1 200 18:27 30.10.2020
6116 Clouds 15 1024 77 10000 3.6 200 17:49 30.10.2020
6117 Clouds 15 1024 77 10000 4.6 210 17:23 30.10.2020
6118 Clouds 15 1024 77 10000 4.6 210 16:57 30.10.2020
6119 Clouds 16 1024 77 10000 5.7 190 16:37 30.10.2020
6120 Clouds 15 1024 72 10000 5.1 210 16:18 30.10.2020
6121 Clouds 15 1024 72 10000 4.6 200 15:40 30.10.2020
6122 Clouds 16 1024 72 10000 4.6 210 15:19 30.10.2020
6123 Clouds 15 1024 72 10000 4.1 210 14:44 30.10.2020
6124 Clouds 15 1024 72 10000 4.6 200 14:25 30.10.2020
6125 Clouds 16 1024 72 10000 5.7 210 13:46 30.10.2020
6126 Clouds 15 1024 72 10000 5.7 210 13:21 30.10.2020
6127 Clouds 15 1024 72 10000 6.2 220 12:54 30.10.2020
6128 Clouds 15 1024 72 10000 6.2 230 12:22 30.10.2020
6129 Clouds 15 1024 72 10000 6.7 220 11:56 30.10.2020
6130 Clouds 15 1023 82 10000 5.7 210 11:23 30.10.2020
6131 Clouds 14 1023 82 10000 5.1 210 10:56 30.10.2020
6132 Clouds 15 1023 82 10000 6.2 210 10:37 30.10.2020
6133 Clouds 14 1023 82 10000 4.6 200 10:19 30.10.2020
6134 Clouds 14 1023 82 10000 5.1 200 09:42 30.10.2020
6135 Clouds 14 1023 87 10000 5.1 190 09:20 30.10.2020
6136 Clouds 14 1023 87 10000 5.1 200 08:36 30.10.2020
6137 Clouds 14 1022 87 10000 5.1 210 08:18 30.10.2020
6138 Clouds 14 1022 87 10000 5.1 210 08:18 30.10.2020
6139 Clouds 14 1022 87 10000 5.1 200 07:45 30.10.2020
6140 Clouds 14 1022 87 10000 5.1 200 07:26 30.10.2020
6141 Clouds 13 1022 87 10000 5.1 200 06:20 30.10.2020
6142 Drizzle 14 1022 87 10000 4.1 210 04:26 30.10.2020
6143 Clouds 14 1022 93 10000 3.1 230 01:39 30.10.2020
6144 Clouds 14 1022 87 10000 4.1 230 00:31 30.10.2020
6145 Clouds 14 1021 82 10000 5.7 210 23:47 29.10.2020
6146 Clouds 14 1021 82 10000 5.7 210 23:29 29.10.2020
6147 Clouds 14 1021 82 10000 5.7 220 22:49 29.10.2020
6148 Clouds 14 1021 82 10000 5.7 220 22:27 29.10.2020
6149 Clouds 15 1021 82 10000 5.1 210 21:51 29.10.2020
6150 Clouds 15 1021 82 10000 5.1 210 21:28 29.10.2020
6151 Clouds 15 1020 82 10000 5.1 210 20:59 29.10.2020
6152 Clouds 15 1020 82 10000 4.6 210 20:40 29.10.2020
6153 Clouds 15 1020 82 10000 4.6 210 20:40 29.10.2020
6154 Clouds 14 1020 82 10000 5.7 210 20:18 29.10.2020
6155 Clouds 14 1020 82 10000 4.6 210 19:40 29.10.2020
6156 Clouds 14 1020 87 10000 4.1 210 19:21 29.10.2020
6157 Clouds 14 1020 87 10000 3.6 220 18:47 29.10.2020
6158 Clouds 14 1020 87 10000 3.6 220 18:27 29.10.2020
6159 Clouds 14 1020 82 10000 4.1 190 17:55 29.10.2020
6160 Clouds 14 1020 82 10000 4.1 190 17:37 29.10.2020
6161 Clouds 14 1020 82 10000 5.7 200 17:18 29.10.2020
6162 Clouds 14 1020 82 10000 5.7 200 17:18 29.10.2020
6163 Clouds 14 1020 82 10000 4.1 220 16:43 29.10.2020
6164 Clouds 14 1020 77 10000 4.6 200 16:18 29.10.2020
6165 Clouds 14 1020 77 10000 4.6 200 15:55 29.10.2020
6166 Clouds 14 1020 82 10000 5.1 210 15:37 29.10.2020
6167 Clouds 14 1020 76 10000 4.6 210 15:18 29.10.2020
6168 Clear 14 1021 71 10000 5.1 220 14:42 29.10.2020
6169 Clear 13 1021 71 10000 5.1 220 14:21 29.10.2020
6170 Clouds 14 1021 76 10000 4.6 220 13:46 29.10.2020
6171 Clouds 14 1021 76 10000 4.6 220 13:27 29.10.2020
6172 Clouds 14 1021 76 10000 4.6 240 12:43 29.10.2020
6173 Clouds 13 1021 82 10000 4.1 230 12:20 29.10.2020
6174 Clouds 13 1021 82 10000 4.1 230 11:54 29.10.2020
6175 Clouds 13 1021 76 10000 5.1 230 11:36 29.10.2020
6176 Clouds 12 1020 76 10000 5.7 230 11:18 29.10.2020
6177 Clouds 12 1020 81 10000 4.1 220 10:37 29.10.2020
6178 Clouds 12 1020 81 10000 4.1 220 10:37 29.10.2020
6179 Clear 12 1020 81 10000 3.6 230 10:18 29.10.2020
6180 Clear 11 1020 81 10000 4.6 220 09:48 29.10.2020
6181 Clouds 11 1020 81 10000 4.6 220 09:24 29.10.2020
6182 Clouds 11 1019 81 10000 3.1 210 08:44 29.10.2020
6183 Clouds 11 1019 81 10000 3.1 210 08:24 29.10.2020
6184 Clouds 10 1018 81 10000 3.1 220 07:49 29.10.2020
6185 Clouds 10 1018 81 10000 5.1 230 07:19 29.10.2020
6186 Clouds 11 1017 81 10000 5.7 230 06:47 29.10.2020
6187 Clear 11 1016 81 10000 4.6 220 04:50 29.10.2020
6188 Clouds 11 1014 90 10000 2.68 219 02:29 29.10.2020
6189 Clouds 13 1013 82 10000 2.68 216 00:45 29.10.2020
6190 Clouds 12 1012 83 10000 3.13 220 00:22 29.10.2020
6191 Clouds 13 1013 83 10000 2.68 221 23:43 28.10.2020
6192 Rain 13 1013 82 10000 3.13 217 23:20 28.10.2020
6193 Clouds 13 1012 76 10000 6.7 220 22:44 28.10.2020
6194 Clouds 13 1012 76 10000 6.7 220 22:25 28.10.2020
6195 Clouds 13 1011 76 10000 8.7 220 21:45 28.10.2020
6196 Clouds 13 1011 76 10000 8.2 220 21:26 28.10.2020
6197 Clouds 13 1011 76 10000 8.2 220 20:59 28.10.2020
6198 Clouds 13 1011 76 10000 8.2 220 20:40 28.10.2020
6199 Clouds 13 1011 71 10000 8.2 220 20:18 28.10.2020
6200 Clouds 13 1010 76 10000 8.7 210 19:45 28.10.2020
6201 Clouds 13 1011 76 10000 7.2 220 19:26 28.10.2020
6202 Clouds 13 1011 76 10000 6.7 220 18:43 28.10.2020
6203 Clouds 13 1011 76 10000 6.7 220 18:20 28.10.2020
6204 Clouds 14 1010 82 10000 6.7 190 17:44 28.10.2020
6205 Clouds 14 1011 82 8000 8.2 200 17:24 28.10.2020
6206 Clouds 14 1011 67 10000 8.2 200 16:49 28.10.2020
6207 Clouds 14 1011 67 10000 8.2 200 16:31 28.10.2020
6208 Clouds 14 1011 67 10000 7.2 200 15:55 28.10.2020
6209 Clouds 14 1011 67 10000 7.7 200 15:36 28.10.2020
6210 Clouds 14 1011 76 10000 6.7 200 15:18 28.10.2020
6211 Clouds 14 1011 76 10000 6.7 200 14:41 28.10.2020
6212 Clouds 14 1010 78 10000 2.68 312 14:20 28.10.2020
6213 Clouds 13 1011 84 10000 3.58 224 12:40 28.10.2020
6214 Clouds 13 1011 84 10000 3.13 1 12:21 28.10.2020
6215 Clouds 13 1011 84 10000 3.58 288 11:45 28.10.2020
6216 Clouds 13 1010 84 10000 2.68 229 11:24 28.10.2020
6217 Clouds 12 1011 81 10000 6.7 200 11:00 28.10.2020
6218 Clouds 12 1011 81 10000 6.7 200 10:41 28.10.2020
6219 Clouds 12 1011 81 10000 7.2 200 10:22 28.10.2020
6220 Clouds 11 1011 81 10000 7.2 200 09:42 28.10.2020
6221 Clouds 10 1011 87 10000 5.7 210 09:22 28.10.2020
6222 Clouds 10 1011 93 10000 3.1 210 08:49 28.10.2020
6223 Clouds 10 1011 93 10000 3.1 210 08:28 28.10.2020
6224 Clouds 10 1011 93 10000 2.6 210 07:50 28.10.2020
6225 Clear 10 1010 87 10000 3.1 230 07:30 28.10.2020
6226 Clear 10 1009 87 10000 6.7 230 06:42 28.10.2020
6227 Clear 11 1008 93 10000 5.1 230 05:53 28.10.2020
6228 Clouds 11 1007 87 10000 4.6 230 05:22 28.10.2020
6229 Clouds 12 1008 93 10000 4.6 230 04:28 28.10.2020
6230 Clouds 12 1007 93 10000 2.6 220 02:26 28.10.2020
6231 Clouds 12 1007 93 10000 2.6 220 02:26 28.10.2020
6232 Clouds 12 1007 93 10000 2.6 220 02:26 28.10.2020
6233 Clouds 12 1007 93 10000 3.6 210 01:53 28.10.2020
6234 Clouds 12 1006 93 10000 2.6 210 00:31 28.10.2020
6235 Clouds 12 1006 87 10000 3.1 210 23:47 27.10.2020
6236 Clouds 12 1005 87 10000 5.7 230 23:21 27.10.2020
6237 Clouds 13 1005 87 10000 2.1 220 22:44 27.10.2020
6238 Clouds 13 1005 87 10000 3.1 210 22:19 27.10.2020
6239 Clouds 13 1005 87 10000 3.1 210 21:57 27.10.2020
6240 Clouds 13 1004 100 10000 5.1 210 21:37 27.10.2020
6241 Clouds 13 1004 93 10000 7.2 190 21:19 27.10.2020
6242 Clouds 13 1004 93 10000 7.2 190 20:50 27.10.2020
6243 Clouds 13 1003 93 10000 7.7 190 20:24 27.10.2020
6244 Clouds 13 1003 93 10000 8.2 190 19:57 27.10.2020
6245 Clouds 12 1003 93 10000 7.2 180 19:37 27.10.2020
6246 Clouds 12 1003 93 10000 8.7 180 19:18 27.10.2020
6247 Clouds 12 1003 93 10000 9.3 180 18:44 27.10.2020
6248 Clouds 12 1003 93 10000 9.3 180 18:24 27.10.2020
6249 Clouds 11 1003 93 10000 8.2 180 17:59 27.10.2020
6250 Clouds 11 1003 93 10000 8.7 180 17:40 27.10.2020
6251 Clouds 11 1004 100 7000 7.7 180 17:19 27.10.2020
6252 Drizzle 11 1004 93 8000 8.2 180 16:44 27.10.2020
6253 Mist 11 1004 93 5000 8.7 170 16:23 27.10.2020
6254 Mist 11 1005 93 5000 8.2 170 15:42 27.10.2020
6255 Mist 11 1005 93 5000 8.2 170 15:24 27.10.2020
6256 Clouds 11 1006 87 10000 7.7 180 14:51 27.10.2020
6257 Clouds 11 1006 87 10000 7.7 180 14:32 27.10.2020
6258 Clouds 11 1006 81 10000 7.7 180 13:59 27.10.2020
6259 Clouds 11 1006 81 10000 7.2 180 13:31 27.10.2020
6260 Clouds 11 1008 81 10000 6.7 180 12:54 27.10.2020
6261 Clouds 11 1008 81 10000 6.7 180 12:36 27.10.2020
6262 Clouds 10 1008 87 10000 5.7 180 12:18 27.10.2020
6263 Clear 10 1008 81 10000 6.2 180 11:42 27.10.2020
6264 Clear 10 1008 81 10000 6.2 180 11:21 27.10.2020
6265 Clouds 10 1008 81 10000 5.1 190 10:46 27.10.2020
6266 Clouds 9 1008 87 10000 5.1 190 10:22 27.10.2020
6267 Clouds 9 1008 87 10000 4.6 180 09:44 27.10.2020
6268 Clouds 8 1008 87 10000 3.6 180 09:23 27.10.2020
6269 Clouds 8 1008 87 10000 4.6 170 08:36 27.10.2020
6270 Clouds 8 1007 87 10000 3.6 190 08:18 27.10.2020
6271 Clouds 8 1008 93 10000 2.6 190 07:42 27.10.2020
6272 Clouds 8 1008 93 10000 2.6 190 07:24 27.10.2020
6273 Clouds 8 1007 87 10000 3.1 210 06:22 27.10.2020
6274 Clouds 8 1007 87 10000 3.6 230 05:51 27.10.2020
6275 Clouds 8 1007 87 10000 3.6 210 05:33 27.10.2020
6276 Clouds 8 1007 93 10000 3.6 230 04:44 27.10.2020
6277 Clouds 8 1007 93 10000 4.1 240 02:29 27.10.2020
6278 Clear 8 1007 81 10000 3.1 220 00:51 27.10.2020
6279 Clouds 9 1007 87 10000 3.1 220 23:43 26.10.2020
6280 Clouds 9 1007 87 10000 3.1 220 23:19 26.10.2020
6281 Clear 9 1006 87 10000 4.1 230 22:46 26.10.2020
6282 Clear 9 1006 87 10000 3.1 230 22:21 26.10.2020
6283 Clouds 10 1006 76 10000 3.6 230 21:45 26.10.2020
6284 Clouds 10 1006 71 10000 4.6 230 21:21 26.10.2020
6285 Clouds 10 1005 76 10000 5.1 210 20:58 26.10.2020
6286 Clear 10 1005 76 10000 4.1 240 20:39 26.10.2020
6287 Clouds 11 1005 71 10000 4.1 210 20:18 26.10.2020
6288 Clouds 11 1005 66 10000 5.7 230 19:47 26.10.2020
6289 Clouds 12 1005 66 10000 5.7 230 19:23 26.10.2020
6290 Clouds 12 1004 62 10000 5.7 230 18:44 26.10.2020
6291 Clouds 12 1004 66 10000 4.1 240 18:24 26.10.2020
6292 Clouds 12 1004 66 10000 4.1 240 17:59 26.10.2020
6293 Clouds 13 1004 66 10000 4.6 240 17:39 26.10.2020
6294 Clouds 13 1004 58 10000 7.2 230 17:21 26.10.2020
6295 Clouds 14 1004 58 10000 8.2 230 16:40 26.10.2020
6296 Clouds 14 1004 58 10000 6.7 240 16:21 26.10.2020
6297 Clouds 14 1004 58 10000 7.7 240 15:43 26.10.2020
6298 Clouds 14 1004 58 10000 7.7 240 15:24 26.10.2020
6299 Clouds 14 1004 62 10000 6.7 240 14:53 26.10.2020
6300 Clouds 14 1004 58 10000 8.2 220 14:34 26.10.2020
6301 Clouds 13 1004 66 10000 7.2 240 13:45 26.10.2020
6302 Clouds 13 1004 66 10000 6.7 230 13:25 26.10.2020
6303 Clouds 13 1004 66 10000 6.7 230 12:55 26.10.2020
6304 Clouds 12 1004 66 10000 6.7 220 12:32 26.10.2020
6305 Clouds 12 1004 71 10000 6.2 210 11:57 26.10.2020
6306 Clouds 12 1004 76 10000 6.7 210 11:39 26.10.2020
6307 Clouds 11 1004 76 10000 6.7 210 11:21 26.10.2020
6308 Clear 10 1004 76 10000 5.7 210 10:48 26.10.2020
6309 Clear 10 1005 81 10000 5.7 210 10:26 26.10.2020
6310 Clear 9 1005 81 10000 5.7 210 09:56 26.10.2020
6311 Clouds 8 1005 87 10000 3.6 230 09:31 26.10.2020
6312 Clouds 8 1005 93 10000 4.1 220 08:54 26.10.2020
6313 Clear 7 1004 87 10000 5.1 200 08:25 26.10.2020
6314 Clear 7 1004 87 10000 3.1 190 07:48 26.10.2020
6315 Clear 7 1004 87 10000 3.1 190 07:28 26.10.2020
6316 Clouds 8 1003 93 10000 2.6 240 05:46 26.10.2020
6317 Clear 8 1002 87 10000 4.6 210 04:19 26.10.2020
6318 Clouds 9 1002 93 10000 4.1 210 03:21 26.10.2020
6319 Clouds 9 1002 93 10000 4.1 220 01:34 26.10.2020
6320 Clouds 9 1003 93 10000 3.6 220 00:39 26.10.2020
6321 Clouds 9 1003 93 10000 3.6 220 00:20 26.10.2020
6322 Clouds 9 1003 93 10000 4.1 230 23:37 25.10.2020
6323 Clouds 10 1002 93 10000 5.1 190 22:50 25.10.2020
6324 Clouds 10 1002 93 10000 5.1 190 22:30 25.10.2020
6325 Clouds 10 1002 93 10000 5.1 190 22:30 25.10.2020
6326 Clouds 10 1002 93 10000 3.1 190 21:57 25.10.2020
6327 Clouds 11 1002 93 10000 3.1 180 21:39 25.10.2020
6328 Clouds 11 1002 93 10000 4.1 180 21:19 25.10.2020
6329 Clouds 11 1002 93 10000 4.1 190 20:43 25.10.2020
6330 Clouds 11 1002 93 10000 4.1 190 20:24 25.10.2020
6331 Clouds 11 1002 87 10000 3.6 190 19:56 25.10.2020
6332 Rain 11 1002 93 10000 3.1 180 19:38 25.10.2020
6333 Rain 11 1002 93 10000 3.1 180 19:19 25.10.2020
6334 Clouds 11 1002 87 10000 6.7 190 18:41 25.10.2020
6335 Mist 11 1002 93 4900 2.1 190 18:23 25.10.2020
6336 Mist 12 1002 93 4900 2.1 190 17:58 25.10.2020
6337 Clouds 12 1002 82 10000 4.6 190 17:38 25.10.2020
6338 Rain 12 1002 82 10000 4.6 190 17:20 25.10.2020
6339 Clouds 12 1002 82 10000 5.7 200 16:47 25.10.2020
6340 Clouds 12 1003 87 10000 4.1 210 16:28 25.10.2020
6341 Clouds 12 1003 87 10000 4.1 210 16:28 25.10.2020
6342 Clouds 12 1002 87 10000 5.1 190 15:52 25.10.2020
6343 Clouds 12 1002 87 10000 5.1 190 15:31 25.10.2020
6344 Clouds 12 1002 87 10000 4.1 200 14:58 25.10.2020
6345 Clouds 12 1002 87 10000 4.6 170 14:32 25.10.2020
6346 Clouds 11 1003 81 10000 5.1 190 13:59 25.10.2020
6347 Clouds 11 1003 81 10000 5.7 180 13:41 25.10.2020
6348 Clouds 11 1003 81 10000 5.7 180 13:19 25.10.2020
6349 Clouds 11 1003 81 10000 5.7 180 13:19 25.10.2020
6350 Clouds 11 1004 87 10000 4.1 200 12:46 25.10.2020
6351 Clouds 11 1004 87 10000 4.1 200 12:26 25.10.2020
6352 Clouds 11 1003 93 10000 6.2 160 11:44 25.10.2020
6353 Rain 11 1003 93 10000 6.2 160 11:22 25.10.2020
6354 Clouds 11 1003 87 10000 4.6 170 10:57 25.10.2020
6355 Clouds 11 1004 87 9000 3.1 200 10:38 25.10.2020
6356 Rain 11 1004 87 9000 3.1 200 10:20 25.10.2020
6357 Rain 12 1004 87 10000 4.6 210 09:40 25.10.2020
6358 Clouds 12 1004 87 10000 5.7 210 09:19 25.10.2020
6359 Clouds 12 1003 87 10000 3.6 200 08:44 25.10.2020
6360 Clouds 12 1003 87 10000 3.6 200 08:26 25.10.2020
6361 Rain 12 1003 93 10000 3.6 200 07:48 25.10.2020
6362 Rain 12 1004 87 10000 5.1 190 07:25 25.10.2020
6363 Clouds 12 1004 87 10000 5.1 190 06:48 25.10.2020
6364 Clouds 13 1003 82 10000 6.7 210 05:43 25.10.2020
6365 Drizzle 14 1003 76 10000 6.2 190 04:52 25.10.2020
6366 Clear 14 1005 77 10000 8.7 190 02:58 25.10.2020
6367 Clouds 14 1007 87 10000 6.7 190 01:20 25.10.2020
6368 Clouds 14 1007 77 10000 9.3 190 00:47 25.10.2020
6369 Rain 14 1007 77 10000 9.8 180 00:18 25.10.2020
6370 Clouds 14 1008 77 10000 9.8 190 23:43 24.10.2020
6371 Clouds 14 1008 77 10000 9.8 190 23:24 24.10.2020
6372 Clouds 14 1008 82 10000 9.3 190 22:42 24.10.2020
6373 Clouds 14 1008 82 10000 9.3 190 22:24 24.10.2020
6374 Clouds 14 1009 82 10000 9.8 180 21:57 24.10.2020
6375 Clouds 14 1009 82 10000 9.3 180 21:38 24.10.2020
6376 Clouds 14 1009 87 10000 8.2 180 21:20 24.10.2020
6377 Clouds 15 1010 77 10000 8.2 190 20:46 24.10.2020
6378 Clouds 15 1010 77 10000 8.2 190 20:22 24.10.2020
6379 Clouds 15 1010 77 10000 8.2 190 19:47 24.10.2020
6380 Clouds 15 1010 77 10000 8.2 190 19:27 24.10.2020
6381 Clouds 15 1010 82 10000 9.8 190 18:56 24.10.2020
6382 Clouds 16 1010 82 10000 10.8 190 18:38 24.10.2020
6383 Clouds 16 1011 82 10000 8.7 200 18:19 24.10.2020
6384 Clouds 16 1011 82 10000 8.2 190 17:37 24.10.2020
6385 Clouds 16 1011 82 10000 8.2 180 17:19 24.10.2020
6386 Clouds 16 1012 87 10000 7.2 190 16:42 24.10.2020
6387 Clouds 15 1012 82 10000 7.7 180 16:19 24.10.2020
6388 Clouds 15 1012 82 10000 7.7 190 15:39 24.10.2020
6389 Clouds 15 1012 82 10000 7.7 190 15:19 24.10.2020
6390 Drizzle 15 1012 93 10000 7.7 190 14:46 24.10.2020
6391 Clouds 15 1013 87 10000 8.2 180 14:27 24.10.2020
6392 Clouds 15 1013 77 10000 8.2 200 13:45 24.10.2020
6393 Clouds 15 1014 77 10000 7.7 190 13:24 24.10.2020
6394 Clouds 15 1014 82 10000 8.7 190 12:44 24.10.2020
6395 Clouds 15 1014 82 10000 8.7 190 12:21 24.10.2020
6396 Clouds 14 1014 82 10000 7.7 190 11:51 24.10.2020
6397 Clouds 14 1014 82 10000 7.7 190 11:32 24.10.2020
6398 Clouds 14 1014 87 10000 5.7 180 10:54 24.10.2020
6399 Clouds 14 1014 87 10000 5.7 180 10:33 24.10.2020
6400 Clouds 13 1014 87 10000 7.2 190 09:50 24.10.2020
6401 Clouds 13 1014 82 10000 7.2 180 09:32 24.10.2020
6402 Clouds 13 1014 82 10000 4.1 180 08:59 24.10.2020
6403 Clouds 13 1014 93 10000 5.1 210 08:20 24.10.2020
6404 Clouds 13 1014 87 10000 5.7 190 07:54 24.10.2020
6405 Clouds 13 1014 82 10000 5.7 190 07:25 24.10.2020
6406 Clouds 13 1014 87 10000 4.6 180 06:53 24.10.2020
6407 Clouds 12 1014 87 10000 4.1 180 06:23 24.10.2020
6408 Clouds 11 1016 87 10000 3.1 220 03:36 24.10.2020
6409 Clouds 12 1015 87 10000 3.1 210 02:18 24.10.2020
6410 Clouds 14 1015 77 10000 4.6 220 00:42 24.10.2020
6411 Clouds 13 1015 87 10000 3.6 240 00:22 24.10.2020
6412 Clouds 13 1015 76 10000 3.1 220 23:50 23.10.2020
6413 Clear 13 1014 76 10000 3.6 200 23:27 23.10.2020
6414 Clear 14 1014 72 10000 4.1 190 22:59 23.10.2020
6415 Clouds 14 1014 72 10000 4.1 210 22:40 23.10.2020
6416 Clear 14 1014 76 10000 2.1 210 22:20 23.10.2020
6417 Clouds 14 1014 76 10000 2.6 210 21:51 23.10.2020
6418 Clouds 15 1013 67 10000 3.6 200 21:25 23.10.2020
6419 Clear 15 1013 67 10000 4.6 220 20:43 23.10.2020
6420 Clear 15 1013 67 10000 4.6 220 20:25 23.10.2020
6421 Clear 15 1013 67 10000 4.1 210 19:59 23.10.2020
6422 Clear 15 1013 72 10000 2.1 220 19:37 23.10.2020
6423 Clouds 16 1012 63 10000 5.1 220 19:18 23.10.2020
6424 Clouds 17 1012 55 10000 7.2 240 18:39 23.10.2020
6425 Clouds 17 1012 55 10000 6.7 230 18:20 23.10.2020
6426 Clouds 18 1012 55 10000 6.7 230 17:44 23.10.2020
6427 Clouds 19 1012 55 10000 5.1 220 17:21 23.10.2020
6428 Clouds 19 1012 55 10000 5.1 220 16:47 23.10.2020
6429 Clouds 19 1012 59 10000 5.1 240 16:26 23.10.2020
6430 Clouds 19 1011 59 10000 3.6 230 15:47 23.10.2020
6431 Clouds 19 1012 63 10000 4.6 250 15:25 23.10.2020
6432 Clouds 18 1012 68 10000 3.6 250 14:58 23.10.2020
6433 Clouds 18 1012 72 10000 2.6 250 14:39 23.10.2020
6434 Clouds 17 1012 82 10000 3.6 230 14:21 23.10.2020
6435 Clouds 17 1012 87 10000 3.1 240 13:39 23.10.2020
6436 Clouds 17 1012 87 10000 3.1 270 13:21 23.10.2020
6437 Clouds 16 1012 87 10000 3.6 250 12:48 23.10.2020
6438 Clouds 16 1012 87 10000 3.6 250 12:28 23.10.2020
6439 Clouds 15 1012 87 10000 2.1 230 11:48 23.10.2020
6440 Clouds 15 1012 87 10000 2.1 230 11:23 23.10.2020
6441 Clouds 15 1011 87 10000 2.6 210 10:48 23.10.2020
6442 Clouds 15 1011 93 10000 2.6 210 10:26 23.10.2020
6443 Clouds 15 1011 93 10000 2.6 210 09:50 23.10.2020
6444 Clouds 15 1011 93 10000 2.6 210 09:27 23.10.2020
6445 Clouds 15 1011 93 10000 3.6 160 08:57 23.10.2020
6446 Clouds 15 1011 93 10000 3.6 160 08:38 23.10.2020
6447 Clouds 15 1011 93 10000 1.5 110 07:48 23.10.2020
6448 Clouds 15 1011 93 10000 1.5 110 07:26 23.10.2020
6449 Clouds 14 1011 93 10000 1 0 06:43 23.10.2020
6450 Rain 15 1011 93 10000 2.6 170 06:19 23.10.2020
6451 Clouds 15 1012 93 10000 1.5 190 03:29 23.10.2020
6452 Clouds 15 1012 93 10000 2.6 180 02:26 23.10.2020
6453 Clouds 15 1012 93 10000 2.6 130 00:49 23.10.2020
6454 Clouds 15 1013 87 10000 1.5 120 23:59 22.10.2020
6455 Clear 15 1012 93 10000 0.5 0 23:37 22.10.2020
6456 Clear 15 1012 93 10000 0.5 0 23:18 22.10.2020
6457 Clear 15 1013 93 10000 2.1 170 22:42 22.10.2020
6458 Clear 15 1012 87 10000 3.1 170 22:21 22.10.2020
6459 Clear 16 1012 82 10000 5.1 170 21:47 22.10.2020
6460 Clear 15 1012 93 10000 2.1 170 21:28 22.10.2020
6461 Clouds 16 1012 87 10000 3.6 150 20:58 22.10.2020
6462 Clouds 16 1012 82 10000 2.1 160 20:40 22.10.2020
6463 Clouds 17 1012 82 10000 1.5 190 20:20 22.10.2020
6464 Clouds 17 1012 72 10000 2.1 200 19:41 22.10.2020
6465 Clouds 17 1012 72 10000 2.1 200 19:20 22.10.2020
6466 Clouds 18 1012 68 10000 3.6 240 18:43 22.10.2020
6467 Clouds 19 1012 68 10000 3.6 240 18:22 22.10.2020
6468 Clouds 19 1012 72 10000 3.6 210 17:48 22.10.2020
6469 Clouds 19 1012 64 10000 4.1 210 17:26 22.10.2020
6470 Clouds 19 1012 72 10000 3.6 220 16:59 22.10.2020
6471 Clouds 19 1011 68 10000 4.6 210 16:41 22.10.2020
6472 Clouds 19 1011 68 10000 4.6 210 16:23 22.10.2020
6473 Clear 19 1012 68 10000 2.1 230 15:48 22.10.2020
6474 Clear 19 1012 68 10000 2.1 230 15:26 22.10.2020
6475 Clouds 20 1012 72 10000 2.1 260 14:50 22.10.2020
6476 Clouds 20 1012 68 10000 4.6 220 14:27 22.10.2020
6477 Clouds 19 1012 82 10000 3.6 220 13:50 22.10.2020
6478 Clouds 19 1012 77 10000 3.1 220 13:24 22.10.2020
6479 Clouds 18 1012 77 10000 3.1 220 12:57 22.10.2020
6480 Clouds 18 1012 82 10000 4.6 200 12:27 22.10.2020
6481 Clouds 16 1012 87 10000 3.6 180 11:50 22.10.2020
6482 Clouds 15 1012 87 10000 3.1 190 11:21 22.10.2020
6483 Clouds 15 1012 87 10000 3.1 190 10:56 22.10.2020
6484 Clouds 15 1012 93 10000 4.1 170 10:38 22.10.2020
6485 Clouds 15 1012 93 10000 4.6 180 10:18 22.10.2020
6486 Clouds 14 1011 93 10000 4.1 180 09:42 22.10.2020
6487 Clouds 14 1011 93 10000 3.1 180 08:58 22.10.2020
6488 Clouds 14 1011 93 10000 3.1 180 08:39 22.10.2020
6489 Clouds 14 1011 93 10000 4.1 170 08:19 22.10.2020
6490 Clouds 15 1011 93 10000 3.1 170 07:43 22.10.2020
6491 Clouds 15 1011 93 10000 3.1 160 06:59 22.10.2020
6492 Clouds 14 1011 93 10000 2.6 160 06:37 22.10.2020
6493 Clouds 14 1010 93 10000 1.5 130 05:42 22.10.2020
6494 Clouds 14 1010 93 10000 1.5 130 05:22 22.10.2020
6495 Clouds 15 1010 77 10000 2.6 220 02:40 22.10.2020
6496 Clouds 15 1010 77 10000 2.6 190 00:50 22.10.2020
6497 Clouds 15 1009 77 10000 2.1 200 00:18 22.10.2020
6498 Clouds 16 1009 72 10000 3.6 200 23:38 21.10.2020
6499 Clouds 16 1009 72 10000 4.6 200 22:58 21.10.2020
6500 Clouds 16 1008 68 10000 5.1 190 22:37 21.10.2020
6501 Clouds 17 1008 68 10000 6.2 200 22:19 21.10.2020
6502 Clouds 17 1007 68 10000 7.2 200 21:45 21.10.2020
6503 Clouds 17 1007 67 10000 4.6 210 21:19 21.10.2020
6504 Clouds 17 1007 67 10000 4.6 210 20:55 21.10.2020
6505 Clouds 18 1007 68 10000 4.6 200 20:36 21.10.2020
6506 Clouds 18 1006 68 10000 5.7 210 20:18 21.10.2020
6507 Clouds 18 1006 68 10000 4.1 220 19:40 21.10.2020
6508 Clouds 19 1006 63 10000 4.6 230 19:22 21.10.2020
6509 Clouds 19 1006 63 10000 4.6 230 18:48 21.10.2020
6510 Clouds 20 1005 56 10000 9.3 210 18:26 21.10.2020
6511 Clouds 21 1004 53 10000 9.8 210 17:48 21.10.2020
6512 Clouds 21 1003 60 10000 10.8 210 17:21 21.10.2020
6513 Clouds 21 1003 60 10000 10.8 210 16:58 21.10.2020
6514 Clouds 21 1003 60 10000 9.3 200 16:37 21.10.2020
6515 Clouds 21 1003 64 10000 8.7 200 16:18 21.10.2020
6516 Clouds 21 1003 64 10000 10.3 200 15:44 21.10.2020
6517 Clouds 21 1002 64 10000 9.8 200 15:21 21.10.2020
6518 Clouds 20 1002 68 10000 12.3 190 14:49 21.10.2020
6519 Clouds 20 1002 68 10000 9.8 200 14:28 21.10.2020
6520 Clouds 20 1002 68 10000 11.8 190 13:56 21.10.2020
6521 Clouds 20 1002 68 10000 11.8 190 13:38 21.10.2020
6522 Clouds 20 1001 64 10000 9.3 180 13:19 21.10.2020
6523 Clouds 19 1001 64 10000 9.3 190 12:38 21.10.2020
6524 Clouds 19 1001 68 10000 9.3 200 12:19 21.10.2020
6525 Clouds 19 1000 60 10000 10.8 180 11:41 21.10.2020
6526 Clouds 19 999 63 10000 9.3 170 11:20 21.10.2020
6527 Clouds 19 999 63 10000 9.3 170 11:20 21.10.2020
6528 Clouds 18 999 72 10000 8.7 160 10:47 21.10.2020
6529 Clouds 17 999 72 10000 8.7 160 10:26 21.10.2020
6530 Clouds 16 999 82 10000 5.1 140 09:57 21.10.2020
6531 Clouds 16 999 82 10000 5.1 140 09:35 21.10.2020
6532 Clouds 15 999 82 10000 5.1 140 08:57 21.10.2020
6533 Clouds 14 999 82 10000 5.1 140 08:39 21.10.2020
6534 Clouds 14 999 82 10000 5.7 140 08:21 21.10.2020
6535 Clouds 14 1000 87 10000 5.1 130 07:41 21.10.2020
6536 Clouds 14 1000 87 10000 4.1 130 06:58 21.10.2020
6537 Clouds 13 1001 87 10000 2.6 120 06:32 21.10.2020
6538 Clouds 13 1002 93 10000 5.7 140 04:48 21.10.2020
6539 Clouds 13 1004 93 10000 3.6 120 02:37 21.10.2020
6540 Rain 13 1006 93 8000 3.6 150 00:24 21.10.2020
6541 Clouds 14 1006 93 10000 4.6 150 23:28 20.10.2020
6542 Rain 14 1006 93 10000 5.1 150 22:38 20.10.2020
6543 Clouds 14 1006 93 10000 5.1 150 22:20 20.10.2020
6544 Clouds 14 1007 93 10000 5.1 150 21:47 20.10.2020
6545 Clouds 14 1007 93 7000 5.1 150 21:19 20.10.2020
6546 Drizzle 14 1007 100 7000 5.7 160 20:43 20.10.2020
6547 Clouds 14 1007 93 10000 5.7 160 20:24 20.10.2020
6548 Clouds 14 1007 93 10000 4.6 150 19:45 20.10.2020
6549 Drizzle 14 1007 93 10000 4.6 160 19:22 20.10.2020
6550 Clouds 14 1008 93 10000 4.1 160 18:59 20.10.2020
6551 Clouds 14 1008 93 10000 4.1 160 18:38 20.10.2020
6552 Clouds 14 1008 93 10000 4.6 150 17:57 20.10.2020
6553 Clouds 14 1008 93 10000 4.6 150 17:37 20.10.2020
6554 Clouds 14 1008 93 10000 4.6 160 17:18 20.10.2020
6555 Clouds 14 1009 93 10000 4.6 160 16:41 20.10.2020
6556 Rain 14 1009 93 10000 5.1 160 16:23 20.10.2020
6557 Clouds 14 1009 93 10000 6.2 160 15:47 20.10.2020
6558 Clouds 14 1009 87 10000 6.2 160 15:28 20.10.2020
6559 Rain 14 1009 87 10000 5.7 170 14:46 20.10.2020
6560 Rain 14 1009 82 10000 5.1 180 14:25 20.10.2020
6561 Rain 14 1009 87 10000 5.1 170 13:59 20.10.2020
6562 Rain 14 1010 82 10000 5.1 180 13:40 20.10.2020
6563 Rain 14 1010 76 10000 4.6 170 13:20 20.10.2020
6564 Rain 14 1009 82 10000 4.1 160 12:51 20.10.2020
6565 Clouds 14 1009 82 10000 4.1 150 12:31 20.10.2020
6566 Clouds 13 1009 82 10000 4.1 160 11:48 20.10.2020
6567 Clouds 13 1009 82 10000 2.6 150 11:29 20.10.2020
6568 Clouds 12 1009 82 10000 3.6 160 10:49 20.10.2020
6569 Clouds 13 1009 82 10000 3.1 150 10:26 20.10.2020
6570 Clouds 12 1009 87 10000 3.6 150 09:46 20.10.2020
6571 Clouds 12 1008 87 10000 3.1 150 09:20 20.10.2020
6572 Clouds 11 1008 93 10000 3.1 140 08:50 20.10.2020
6573 Clouds 11 1008 81 10000 3.6 140 08:26 20.10.2020
6574 Clouds 11 1009 81 10000 2.6 170 07:48 20.10.2020
6575 Rain 11 1008 76 10000 3.1 170 07:24 20.10.2020
6576 Clouds 11 1008 76 10000 4.6 160 06:24 20.10.2020
6577 Clouds 10 1009 76 10000 4.6 160 04:58 20.10.2020
6578 Clouds 10 1010 71 10000 3.6 140 02:33 20.10.2020
6579 Clouds 10 1010 71 10000 3.1 120 01:43 20.10.2020
6580 Clouds 10 1011 71 10000 2.6 110 00:56 20.10.2020
6581 Clouds 10 1011 71 10000 2.6 110 00:37 20.10.2020
6582 Clouds 10 1011 66 10000 2.6 120 00:18 20.10.2020
6583 Clouds 10 1011 66 10000 3.6 110 23:39 19.10.2020
6584 Clouds 10 1011 71 10000 4.6 130 23:18 19.10.2020
6585 Clouds 11 1012 62 10000 4.1 120 22:42 19.10.2020
6586 Clouds 11 1013 62 10000 4.6 120 22:20 19.10.2020
6587 Clouds 12 1013 62 10000 4.1 130 21:41 19.10.2020
6588 Clouds 12 1013 62 10000 4.6 110 21:19 19.10.2020
6589 Clouds 12 1013 66 10000 5.1 110 20:45 19.10.2020
6590 Clouds 12 1014 62 10000 4.6 120 20:26 19.10.2020
6591 Clouds 12 1014 54 10000 4.6 110 19:47 19.10.2020
6592 Clouds 12 1015 54 10000 5.1 120 19:22 19.10.2020
6593 Clouds 12 1015 54 10000 5.1 120 19:22 19.10.2020
6594 Clouds 13 1015 50 10000 6.2 120 18:51 19.10.2020
6595 Clouds 13 1015 50 10000 6.2 120 18:32 19.10.2020
6596 Clouds 14 1016 47 10000 5.7 120 17:57 19.10.2020
6597 Clouds 14 1016 47 10000 5.7 120 17:39 19.10.2020
6598 Clouds 14 1016 51 10000 6.2 120 17:20 19.10.2020
6599 Clouds 14 1017 47 10000 7.2 120 16:42 19.10.2020
6600 Clouds 14 1017 47 10000 5.7 130 16:21 19.10.2020
6601 Clouds 14 1016 57 10000 0.45 17 15:40 19.10.2020
6602 Clouds 14 1016 59 10000 4.78 136 15:22 19.10.2020
6603 Clouds 14 1017 63 10000 0.45 19 14:51 19.10.2020
6604 Clouds 13 1018 65 10000 4.74 138 14:24 19.10.2020
6605 Clouds 13 1018 67 10000 4.74 138 13:52 19.10.2020
6606 Clouds 13 1018 69 10000 0.45 23 13:31 19.10.2020
6607 Clouds 12 1019 76 10000 4.14 141 12:50 19.10.2020
6608 Clouds 12 1019 79 10000 3.69 141 12:32 19.10.2020
6609 Clouds 11 1019 82 10000 3.69 141 11:51 19.10.2020
6610 Clouds 9 1022 93 8000 1.5 90 11:25 19.10.2020
6611 Clouds 8 1022 93 8000 1.5 90 10:56 19.10.2020
6612 Clouds 7 1022 93 8000 1.5 90 10:37 19.10.2020
6613 Mist 7 1022 100 5000 2.1 70 10:19 19.10.2020
6614 Mist 6 1022 100 5000 2.1 40 09:42 19.10.2020
6615 Mist 5 1021 93 5000 1.5 30 09:19 19.10.2020
6616 Clouds 6 1022 93 6000 1 0 08:48 19.10.2020
6617 Clouds 6 1022 93 6000 1 0 08:23 19.10.2020
6618 Clouds 6 1021 100 7000 2.6 60 07:39 19.10.2020
6619 Clouds 6 1022 100 7000 1.5 40 07:18 19.10.2020
6620 Clouds 6 1022 93 7000 1 20 06:18 19.10.2020
6621 Clouds 6 1023 100 7000 1.5 20 03:48 19.10.2020
6622 Clouds 6 1024 93 6000 1.05 182 02:23 19.10.2020
6623 Clouds 7 1024 93 9000 1 0 00:50 19.10.2020
6624 Clouds 8 1024 93 10000 1 350 00:24 19.10.2020
6625 Clouds 8 1024 87 10000 1.5 350 23:47 18.10.2020
6626 Clouds 8 1024 87 10000 1.5 350 23:24 18.10.2020
6627 Clouds 8 1024 87 10000 1.5 330 22:51 18.10.2020
6628 Clouds 9 1024 87 10000 1.5 330 22:22 18.10.2020
6629 Clouds 9 1023 81 10000 0.78 133 21:55 18.10.2020
6630 Clouds 9 1024 81 10000 0.5 70 21:36 18.10.2020
6631 Clouds 10 1024 76 10000 0.5 30 21:18 18.10.2020
6632 Clouds 10 1024 76 10000 1.5 360 20:40 18.10.2020
6633 Clouds 10 1024 76 10000 1.5 360 20:19 18.10.2020
6634 Clouds 12 1023 66 10000 1.5 30 19:43 18.10.2020
6635 Clouds 12 1023 66 10000 1.5 30 19:25 18.10.2020
6636 Clouds 13 1023 62 10000 1 0 18:49 18.10.2020
6637 Clouds 14 1023 54 10000 2.1 280 18:28 18.10.2020
6638 Clouds 15 1023 51 10000 1 0 17:44 18.10.2020
6639 Clouds 15 1023 54 10000 1.5 230 17:25 18.10.2020
6640 Clouds 15 1023 54 10000 1.5 230 17:25 18.10.2020
6641 Clouds 15 1023 54 10000 1.5 230 16:57 18.10.2020
6642 Clouds 15 1023 54 10000 1.5 0 16:38 18.10.2020
6643 Clouds 15 1023 58 10000 2.1 270 16:20 18.10.2020
6644 Clouds 14 1024 58 10000 2.1 280 15:41 18.10.2020
6645 Clouds 14 1024 62 10000 2.6 280 15:19 18.10.2020
6646 Clouds 14 1024 62 10000 2.6 210 14:56 18.10.2020
6647 Clouds 14 1024 62 10000 2.6 210 14:29 18.10.2020
6648 Clouds 13 1024 62 10000 2.6 240 13:57 18.10.2020
6649 Clouds 13 1025 66 10000 2.6 250 13:38 18.10.2020
6650 Clouds 12 1025 76 10000 2.6 230 13:20 18.10.2020
6651 Clouds 12 1025 81 10000 3.1 260 12:42 18.10.2020
6652 Clouds 11 1025 81 10000 3.1 260 12:21 18.10.2020
6653 Clouds 10 1025 93 9000 1 0 11:42 18.10.2020
6654 Clouds 9 1025 93 9000 1 0 11:23 18.10.2020
6655 Clouds 8 1024 93 7000 1.51 269 10:43 18.10.2020
6656 Clouds 7 1024 93 7000 1.39 271 10:21 18.10.2020
6657 Clouds 5 1024 93 6000 1.5 210 09:56 18.10.2020
6658 Clouds 5 1024 93 6000 1.5 210 09:38 18.10.2020
6659 Clouds 5 1024 100 6000 1 250 09:19 18.10.2020
6660 Clouds 4 1023 93 9000 1.5 220 08:43 18.10.2020
6661 Clouds 5 1023 93 9000 1.5 220 08:22 18.10.2020
6662 Clouds 5 1023 93 10000 1 30 07:36 18.10.2020
6663 Clouds 6 1023 100 10000 0.5 0 05:33 18.10.2020
6664 Clouds 6 1023 93 10000 1.26 308 03:33 18.10.2020
6665 Clouds 6 1023 93 10000 1.26 308 02:39 18.10.2020
6666 Clouds 6 1023 93 10000 1 0 01:25 18.10.2020
6667 Clouds 6 1022 93 10000 1.28 339 00:35 18.10.2020
6668 Clouds 7 1022 93 10000 1.5 340 23:57 17.10.2020
6669 Clouds 7 1022 93 10000 1 340 23:39 17.10.2020
6670 Clouds 7 1022 93 10000 1 340 23:20 17.10.2020
6671 Clouds 8 1022 87 10000 0.95 354 22:54 17.10.2020
6672 Clouds 8 1022 87 10000 2.1 340 22:21 17.10.2020
6673 Clouds 8 1022 87 10000 2.1 340 21:59 17.10.2020
6674 Clouds 9 1022 87 10000 2.1 340 21:40 17.10.2020
6675 Clouds 10 1022 81 10000 1.5 340 21:20 17.10.2020
6676 Clouds 10 1021 76 10000 1 360 20:43 17.10.2020
6677 Clouds 11 1021 71 10000 1 360 20:19 17.10.2020
6678 Clouds 11 1021 66 10000 1 30 19:43 17.10.2020